<?xml version="1.0" encoding="UTF-8" standalone="no" ?>
<gpx xmlns="http://www.topografix.com/GPX/1/1" xmlns:xsi="http://www.w3.org/2001/XMLSchema-instance" xsi:schemaLocation="http://www.topografix.com/GPX/1/1 http://www.topografix.com/GPX/1/1/gpx.xsd" version="1.1" creator="VisuGPX - https://www.visugpx.com">
  <metadata>
    <name>Marche autour de Campagnan</name>
    <desc><![CDATA[Marche matinale autour de Campagnan et de Saint-Pargoire]]></desc>
  </metadata>
  <trk>
    <name><![CDATA[20190315104012-1Jjk9]]></name>
    <trkseg>
      <trkpt lat="43.53371" lon="3.502">
        <ele>43.7</ele>
        <time>2019-03-15T07:07:58Z</time>
      </trkpt>
      <trkpt lat="43.53375" lon="3.50201">
        <ele>43.7</ele>
        <time>2019-03-15T07:08:02Z</time>
      </trkpt>
      <trkpt lat="43.53379" lon="3.502">
        <ele>43.7</ele>
        <time>2019-03-15T07:08:05Z</time>
      </trkpt>
      <trkpt lat="43.53382" lon="3.502">
        <ele>43.7</ele>
        <time>2019-03-15T07:08:07Z</time>
      </trkpt>
      <trkpt lat="43.53386" lon="3.502">
        <ele>43.7</ele>
        <time>2019-03-15T07:08:09Z</time>
      </trkpt>
      <trkpt lat="43.53389" lon="3.50202">
        <ele>43.9</ele>
        <time>2019-03-15T07:08:11Z</time>
      </trkpt>
      <trkpt lat="43.53391" lon="3.50205">
        <ele>44</ele>
        <time>2019-03-15T07:08:13Z</time>
      </trkpt>
      <trkpt lat="43.53393" lon="3.50209">
        <ele>44.1</ele>
        <time>2019-03-15T07:08:16Z</time>
      </trkpt>
      <trkpt lat="43.53394" lon="3.50213">
        <ele>44.3</ele>
        <time>2019-03-15T07:08:20Z</time>
      </trkpt>
      <trkpt lat="43.53395" lon="3.50217">
        <ele>44.4</ele>
        <time>2019-03-15T07:08:23Z</time>
      </trkpt>
      <trkpt lat="43.53397" lon="3.50221">
        <ele>44.5</ele>
        <time>2019-03-15T07:08:26Z</time>
      </trkpt>
      <trkpt lat="43.53399" lon="3.50227">
        <ele>44.7</ele>
        <time>2019-03-15T07:08:29Z</time>
      </trkpt>
      <trkpt lat="43.534" lon="3.50231">
        <ele>44.8</ele>
        <time>2019-03-15T07:08:31Z</time>
      </trkpt>
      <trkpt lat="43.53401" lon="3.50235">
        <ele>44.9</ele>
        <time>2019-03-15T07:08:33Z</time>
      </trkpt>
      <trkpt lat="43.53403" lon="3.50239">
        <ele>45</ele>
        <time>2019-03-15T07:08:35Z</time>
      </trkpt>
      <trkpt lat="43.53405" lon="3.50243">
        <ele>45.1</ele>
        <time>2019-03-15T07:08:37Z</time>
      </trkpt>
      <trkpt lat="43.53406" lon="3.50246">
        <ele>45.2</ele>
        <time>2019-03-15T07:08:39Z</time>
      </trkpt>
      <trkpt lat="43.53408" lon="3.5025">
        <ele>45.4</ele>
        <time>2019-03-15T07:08:42Z</time>
      </trkpt>
      <trkpt lat="43.53409" lon="3.50254">
        <ele>45.5</ele>
        <time>2019-03-15T07:08:44Z</time>
      </trkpt>
      <trkpt lat="43.53411" lon="3.50257">
        <ele>45.6</ele>
        <time>2019-03-15T07:08:46Z</time>
      </trkpt>
      <trkpt lat="43.53413" lon="3.50261">
        <ele>45.8</ele>
        <time>2019-03-15T07:08:49Z</time>
      </trkpt>
      <trkpt lat="43.53414" lon="3.50266">
        <ele>46</ele>
        <time>2019-03-15T07:08:52Z</time>
      </trkpt>
      <trkpt lat="43.53415" lon="3.5027">
        <ele>46.2</ele>
        <time>2019-03-15T07:08:55Z</time>
      </trkpt>
      <trkpt lat="43.53417" lon="3.50275">
        <ele>46.4</ele>
        <time>2019-03-15T07:08:58Z</time>
      </trkpt>
      <trkpt lat="43.53419" lon="3.50279">
        <ele>46.6</ele>
        <time>2019-03-15T07:09:01Z</time>
      </trkpt>
      <trkpt lat="43.53419" lon="3.50283">
        <ele>46.7</ele>
        <time>2019-03-15T07:09:04Z</time>
      </trkpt>
      <trkpt lat="43.53417" lon="3.50287">
        <ele>47</ele>
        <time>2019-03-15T07:09:09Z</time>
      </trkpt>
      <trkpt lat="43.53414" lon="3.50289">
        <ele>47.1</ele>
        <time>2019-03-15T07:09:12Z</time>
      </trkpt>
      <trkpt lat="43.53411" lon="3.50292">
        <ele>47.1</ele>
        <time>2019-03-15T07:09:15Z</time>
      </trkpt>
      <trkpt lat="43.53409" lon="3.50295">
        <ele>47.1</ele>
        <time>2019-03-15T07:09:18Z</time>
      </trkpt>
      <trkpt lat="43.53407" lon="3.50298">
        <ele>47.1</ele>
        <time>2019-03-15T07:09:21Z</time>
      </trkpt>
      <trkpt lat="43.53404" lon="3.50302">
        <ele>47.1</ele>
        <time>2019-03-15T07:09:24Z</time>
      </trkpt>
      <trkpt lat="43.53402" lon="3.50305">
        <ele>47.1</ele>
        <time>2019-03-15T07:09:26Z</time>
      </trkpt>
      <trkpt lat="43.534" lon="3.50306">
        <ele>47.1</ele>
        <time>2019-03-15T07:09:28Z</time>
      </trkpt>
      <trkpt lat="43.53397" lon="3.50308">
        <ele>47.1</ele>
        <time>2019-03-15T07:09:30Z</time>
      </trkpt>
      <trkpt lat="43.53394" lon="3.50307">
        <ele>47.1</ele>
        <time>2019-03-15T07:09:32Z</time>
      </trkpt>
      <trkpt lat="43.5339" lon="3.50305">
        <ele>47.2</ele>
        <time>2019-03-15T07:09:34Z</time>
      </trkpt>
      <trkpt lat="43.53387" lon="3.50302">
        <ele>47</ele>
        <time>2019-03-15T07:09:36Z</time>
      </trkpt>
      <trkpt lat="43.53385" lon="3.50299">
        <ele>46.9</ele>
        <time>2019-03-15T07:09:38Z</time>
      </trkpt>
      <trkpt lat="43.53383" lon="3.50295">
        <ele>46.7</ele>
        <time>2019-03-15T07:09:41Z</time>
      </trkpt>
      <trkpt lat="43.53381" lon="3.50291">
        <ele>46.5</ele>
        <time>2019-03-15T07:09:44Z</time>
      </trkpt>
      <trkpt lat="43.53379" lon="3.50288">
        <ele>46.2</ele>
        <time>2019-03-15T07:09:47Z</time>
      </trkpt>
      <trkpt lat="43.53376" lon="3.50284">
        <ele>46</ele>
        <time>2019-03-15T07:09:50Z</time>
      </trkpt>
      <trkpt lat="43.53374" lon="3.5028">
        <ele>45.8</ele>
        <time>2019-03-15T07:09:52Z</time>
      </trkpt>
      <trkpt lat="43.53373" lon="3.50276">
        <ele>45.7</ele>
        <time>2019-03-15T07:09:54Z</time>
      </trkpt>
      <trkpt lat="43.53372" lon="3.50272">
        <ele>45.6</ele>
        <time>2019-03-15T07:09:57Z</time>
      </trkpt>
      <trkpt lat="43.5337" lon="3.50269">
        <ele>45.4</ele>
        <time>2019-03-15T07:10:00Z</time>
      </trkpt>
      <trkpt lat="43.53368" lon="3.50265">
        <ele>45.2</ele>
        <time>2019-03-15T07:10:03Z</time>
      </trkpt>
      <trkpt lat="43.53366" lon="3.50263">
        <ele>45.1</ele>
        <time>2019-03-15T07:10:05Z</time>
      </trkpt>
      <trkpt lat="43.53364" lon="3.50259">
        <ele>44.9</ele>
        <time>2019-03-15T07:10:08Z</time>
      </trkpt>
      <trkpt lat="43.53363" lon="3.50254">
        <ele>44.8</ele>
        <time>2019-03-15T07:10:11Z</time>
      </trkpt>
      <trkpt lat="43.53361" lon="3.5025">
        <ele>44.5</ele>
        <time>2019-03-15T07:10:14Z</time>
      </trkpt>
      <trkpt lat="43.5336" lon="3.50246">
        <ele>44.4</ele>
        <time>2019-03-15T07:10:16Z</time>
      </trkpt>
      <trkpt lat="43.53359" lon="3.50242">
        <ele>44.2</ele>
        <time>2019-03-15T07:10:18Z</time>
      </trkpt>
      <trkpt lat="43.53358" lon="3.50238">
        <ele>44.1</ele>
        <time>2019-03-15T07:10:20Z</time>
      </trkpt>
      <trkpt lat="43.53357" lon="3.50234">
        <ele>44</ele>
        <time>2019-03-15T07:10:22Z</time>
      </trkpt>
      <trkpt lat="43.53356" lon="3.50231">
        <ele>43.9</ele>
        <time>2019-03-15T07:10:24Z</time>
      </trkpt>
      <trkpt lat="43.53353" lon="3.50228">
        <ele>43.7</ele>
        <time>2019-03-15T07:10:27Z</time>
      </trkpt>
      <trkpt lat="43.5335" lon="3.50226">
        <ele>43.5</ele>
        <time>2019-03-15T07:10:29Z</time>
      </trkpt>
      <trkpt lat="43.53348" lon="3.50223">
        <ele>43.4</ele>
        <time>2019-03-15T07:10:32Z</time>
      </trkpt>
      <trkpt lat="43.53346" lon="3.50219">
        <ele>43.3</ele>
        <time>2019-03-15T07:10:34Z</time>
      </trkpt>
      <trkpt lat="43.53345" lon="3.50216">
        <ele>43.1</ele>
        <time>2019-03-15T07:10:36Z</time>
      </trkpt>
      <trkpt lat="43.53343" lon="3.50212">
        <ele>43</ele>
        <time>2019-03-15T07:10:38Z</time>
      </trkpt>
      <trkpt lat="43.53342" lon="3.50207">
        <ele>42.8</ele>
        <time>2019-03-15T07:10:41Z</time>
      </trkpt>
      <trkpt lat="43.5334" lon="3.50203">
        <ele>42.7</ele>
        <time>2019-03-15T07:10:44Z</time>
      </trkpt>
      <trkpt lat="43.53338" lon="3.50199">
        <ele>42.5</ele>
        <time>2019-03-15T07:10:47Z</time>
      </trkpt>
      <trkpt lat="43.53337" lon="3.50195">
        <ele>42.5</ele>
        <time>2019-03-15T07:10:49Z</time>
      </trkpt>
      <trkpt lat="43.53335" lon="3.50191">
        <ele>42.3</ele>
        <time>2019-03-15T07:10:52Z</time>
      </trkpt>
      <trkpt lat="43.53334" lon="3.50187">
        <ele>42.2</ele>
        <time>2019-03-15T07:10:55Z</time>
      </trkpt>
      <trkpt lat="43.53333" lon="3.50182">
        <ele>42</ele>
        <time>2019-03-15T07:10:58Z</time>
      </trkpt>
      <trkpt lat="43.53332" lon="3.50176">
        <ele>41.8</ele>
        <time>2019-03-15T07:11:02Z</time>
      </trkpt>
      <trkpt lat="43.53329" lon="3.50172">
        <ele>41.8</ele>
        <time>2019-03-15T07:11:05Z</time>
      </trkpt>
      <trkpt lat="43.53326" lon="3.50169">
        <ele>41.6</ele>
        <time>2019-03-15T07:11:08Z</time>
      </trkpt>
      <trkpt lat="43.53323" lon="3.50166">
        <ele>41.5</ele>
        <time>2019-03-15T07:11:11Z</time>
      </trkpt>
      <trkpt lat="43.5332" lon="3.50165">
        <ele>41.5</ele>
        <time>2019-03-15T07:11:14Z</time>
      </trkpt>
      <trkpt lat="43.53317" lon="3.50166">
        <ele>41.5</ele>
        <time>2019-03-15T07:11:18Z</time>
      </trkpt>
      <trkpt lat="43.53315" lon="3.50168">
        <ele>41.6</ele>
        <time>2019-03-15T07:11:21Z</time>
      </trkpt>
      <trkpt lat="43.53312" lon="3.50171">
        <ele>41.6</ele>
        <time>2019-03-15T07:11:24Z</time>
      </trkpt>
      <trkpt lat="43.53309" lon="3.50173">
        <ele>41.6</ele>
        <time>2019-03-15T07:11:27Z</time>
      </trkpt>
      <trkpt lat="43.53306" lon="3.50176">
        <ele>41.6</ele>
        <time>2019-03-15T07:11:30Z</time>
      </trkpt>
      <trkpt lat="43.53304" lon="3.50178">
        <ele>41.7</ele>
        <time>2019-03-15T07:11:34Z</time>
      </trkpt>
      <trkpt lat="43.53303" lon="3.50183">
        <ele>41.8</ele>
        <time>2019-03-15T07:11:38Z</time>
      </trkpt>
      <trkpt lat="43.533" lon="3.50184">
        <ele>41.8</ele>
        <time>2019-03-15T07:11:41Z</time>
      </trkpt>
      <trkpt lat="43.53299" lon="3.5018">
        <ele>41.7</ele>
        <time>2019-03-15T07:11:44Z</time>
      </trkpt>
      <trkpt lat="43.53299" lon="3.50176">
        <ele>41.6</ele>
        <time>2019-03-15T07:11:47Z</time>
      </trkpt>
      <trkpt lat="43.53297" lon="3.50172">
        <ele>41.5</ele>
        <time>2019-03-15T07:11:50Z</time>
      </trkpt>
      <trkpt lat="43.53294" lon="3.50168">
        <ele>41.5</ele>
        <time>2019-03-15T07:11:53Z</time>
      </trkpt>
      <trkpt lat="43.53292" lon="3.50166">
        <ele>41.3</ele>
        <time>2019-03-15T07:11:56Z</time>
      </trkpt>
      <trkpt lat="43.5329" lon="3.50161">
        <ele>41.2</ele>
        <time>2019-03-15T07:11:59Z</time>
      </trkpt>
      <trkpt lat="43.53287" lon="3.50158">
        <ele>41.2</ele>
        <time>2019-03-15T07:12:02Z</time>
      </trkpt>
      <trkpt lat="43.53285" lon="3.50154">
        <ele>41</ele>
        <time>2019-03-15T07:12:05Z</time>
      </trkpt>
      <trkpt lat="43.53284" lon="3.5015">
        <ele>40.9</ele>
        <time>2019-03-15T07:12:07Z</time>
      </trkpt>
      <trkpt lat="43.53282" lon="3.50146">
        <ele>40.8</ele>
        <time>2019-03-15T07:12:10Z</time>
      </trkpt>
      <trkpt lat="43.53281" lon="3.50142">
        <ele>40.8</ele>
        <time>2019-03-15T07:12:12Z</time>
      </trkpt>
      <trkpt lat="43.53279" lon="3.50139">
        <ele>40.7</ele>
        <time>2019-03-15T07:12:14Z</time>
      </trkpt>
      <trkpt lat="43.53277" lon="3.50135">
        <ele>40.5</ele>
        <time>2019-03-15T07:12:17Z</time>
      </trkpt>
      <trkpt lat="43.53275" lon="3.50131">
        <ele>40.4</ele>
        <time>2019-03-15T07:12:19Z</time>
      </trkpt>
      <trkpt lat="43.53274" lon="3.50127">
        <ele>40.2</ele>
        <time>2019-03-15T07:12:21Z</time>
      </trkpt>
      <trkpt lat="43.53272" lon="3.50124">
        <ele>40.1</ele>
        <time>2019-03-15T07:12:24Z</time>
      </trkpt>
      <trkpt lat="43.5327" lon="3.5012">
        <ele>40</ele>
        <time>2019-03-15T07:12:26Z</time>
      </trkpt>
      <trkpt lat="43.53267" lon="3.50117">
        <ele>39.9</ele>
        <time>2019-03-15T07:12:29Z</time>
      </trkpt>
      <trkpt lat="43.53264" lon="3.50114">
        <ele>39.8</ele>
        <time>2019-03-15T07:12:32Z</time>
      </trkpt>
      <trkpt lat="43.5326" lon="3.50112">
        <ele>39.7</ele>
        <time>2019-03-15T07:12:35Z</time>
      </trkpt>
      <trkpt lat="43.53257" lon="3.50112">
        <ele>39.5</ele>
        <time>2019-03-15T07:12:37Z</time>
      </trkpt>
      <trkpt lat="43.53253" lon="3.50111">
        <ele>39.5</ele>
        <time>2019-03-15T07:12:40Z</time>
      </trkpt>
      <trkpt lat="43.53251" lon="3.50114">
        <ele>39.5</ele>
        <time>2019-03-15T07:12:43Z</time>
      </trkpt>
      <trkpt lat="43.53249" lon="3.50117">
        <ele>39.6</ele>
        <time>2019-03-15T07:12:45Z</time>
      </trkpt>
      <trkpt lat="43.53246" lon="3.50119">
        <ele>39.5</ele>
        <time>2019-03-15T07:12:47Z</time>
      </trkpt>
      <trkpt lat="43.53244" lon="3.5012">
        <ele>39.5</ele>
        <time>2019-03-15T07:12:49Z</time>
      </trkpt>
      <trkpt lat="43.53241" lon="3.50121">
        <ele>39.6</ele>
        <time>2019-03-15T07:12:51Z</time>
      </trkpt>
      <trkpt lat="43.53238" lon="3.50123">
        <ele>39.5</ele>
        <time>2019-03-15T07:12:54Z</time>
      </trkpt>
      <trkpt lat="43.53235" lon="3.50126">
        <ele>39.6</ele>
        <time>2019-03-15T07:12:57Z</time>
      </trkpt>
      <trkpt lat="43.53232" lon="3.50128">
        <ele>39.6</ele>
        <time>2019-03-15T07:13:01Z</time>
      </trkpt>
      <trkpt lat="43.53233" lon="3.50124">
        <ele>39.5</ele>
        <time>2019-03-15T07:13:05Z</time>
      </trkpt>
      <trkpt lat="43.53234" lon="3.50119">
        <ele>39.4</ele>
        <time>2019-03-15T07:13:08Z</time>
      </trkpt>
      <trkpt lat="43.53232" lon="3.50115">
        <ele>39.3</ele>
        <time>2019-03-15T07:13:12Z</time>
      </trkpt>
      <trkpt lat="43.5323" lon="3.50113">
        <ele>39.3</ele>
        <time>2019-03-15T07:13:16Z</time>
      </trkpt>
      <trkpt lat="43.5323" lon="3.50109">
        <ele>39.2</ele>
        <time>2019-03-15T07:13:18Z</time>
      </trkpt>
      <trkpt lat="43.53231" lon="3.50104">
        <ele>39.1</ele>
        <time>2019-03-15T07:13:21Z</time>
      </trkpt>
      <trkpt lat="43.53232" lon="3.501">
        <ele>39.1</ele>
        <time>2019-03-15T07:13:23Z</time>
      </trkpt>
      <trkpt lat="43.53232" lon="3.50096">
        <ele>39</ele>
        <time>2019-03-15T07:13:25Z</time>
      </trkpt>
      <trkpt lat="43.53233" lon="3.50091">
        <ele>39</ele>
        <time>2019-03-15T07:13:27Z</time>
      </trkpt>
      <trkpt lat="43.53234" lon="3.50087">
        <ele>38.9</ele>
        <time>2019-03-15T07:13:30Z</time>
      </trkpt>
      <trkpt lat="43.53232" lon="3.50083">
        <ele>38.9</ele>
        <time>2019-03-15T07:13:33Z</time>
      </trkpt>
      <trkpt lat="43.53232" lon="3.50079">
        <ele>38.8</ele>
        <time>2019-03-15T07:13:36Z</time>
      </trkpt>
      <trkpt lat="43.53233" lon="3.50074">
        <ele>38.8</ele>
        <time>2019-03-15T07:13:40Z</time>
      </trkpt>
      <trkpt lat="43.53234" lon="3.50069">
        <ele>38.8</ele>
        <time>2019-03-15T07:13:42Z</time>
      </trkpt>
      <trkpt lat="43.53235" lon="3.50065">
        <ele>38.8</ele>
        <time>2019-03-15T07:13:44Z</time>
      </trkpt>
      <trkpt lat="43.53236" lon="3.50061">
        <ele>38.8</ele>
        <time>2019-03-15T07:13:47Z</time>
      </trkpt>
      <trkpt lat="43.53237" lon="3.50055">
        <ele>38.8</ele>
        <time>2019-03-15T07:13:50Z</time>
      </trkpt>
      <trkpt lat="43.53238" lon="3.50051">
        <ele>38.8</ele>
        <time>2019-03-15T07:13:53Z</time>
      </trkpt>
      <trkpt lat="43.53238" lon="3.50048">
        <ele>38.8</ele>
        <time>2019-03-15T07:13:56Z</time>
      </trkpt>
      <trkpt lat="43.53235" lon="3.50046">
        <ele>38.8</ele>
        <time>2019-03-15T07:13:59Z</time>
      </trkpt>
      <trkpt lat="43.53232" lon="3.50046">
        <ele>38.7</ele>
        <time>2019-03-15T07:14:01Z</time>
      </trkpt>
      <trkpt lat="43.53229" lon="3.50047">
        <ele>38.7</ele>
        <time>2019-03-15T07:14:03Z</time>
      </trkpt>
      <trkpt lat="43.53226" lon="3.5005">
        <ele>38.7</ele>
        <time>2019-03-15T07:14:06Z</time>
      </trkpt>
      <trkpt lat="43.53224" lon="3.50053">
        <ele>38.8</ele>
        <time>2019-03-15T07:14:09Z</time>
      </trkpt>
      <trkpt lat="43.53222" lon="3.50056">
        <ele>38.8</ele>
        <time>2019-03-15T07:14:12Z</time>
      </trkpt>
      <trkpt lat="43.53218" lon="3.50058">
        <ele>38.8</ele>
        <time>2019-03-15T07:14:15Z</time>
      </trkpt>
      <trkpt lat="43.53215" lon="3.5006">
        <ele>38.8</ele>
        <time>2019-03-15T07:14:18Z</time>
      </trkpt>
      <trkpt lat="43.53212" lon="3.50062">
        <ele>38.9</ele>
        <time>2019-03-15T07:14:20Z</time>
      </trkpt>
      <trkpt lat="43.53209" lon="3.50063">
        <ele>38.9</ele>
        <time>2019-03-15T07:14:22Z</time>
      </trkpt>
      <trkpt lat="43.53207" lon="3.50065">
        <ele>38.9</ele>
        <time>2019-03-15T07:14:24Z</time>
      </trkpt>
      <trkpt lat="43.53204" lon="3.50068">
        <ele>38.9</ele>
        <time>2019-03-15T07:14:27Z</time>
      </trkpt>
      <trkpt lat="43.53201" lon="3.5007">
        <ele>38.9</ele>
        <time>2019-03-15T07:14:29Z</time>
      </trkpt>
      <trkpt lat="43.53198" lon="3.50071">
        <ele>39</ele>
        <time>2019-03-15T07:14:31Z</time>
      </trkpt>
      <trkpt lat="43.53194" lon="3.50074">
        <ele>39</ele>
        <time>2019-03-15T07:14:34Z</time>
      </trkpt>
      <trkpt lat="43.53192" lon="3.50076">
        <ele>39</ele>
        <time>2019-03-15T07:14:36Z</time>
      </trkpt>
      <trkpt lat="43.5319" lon="3.50079">
        <ele>39</ele>
        <time>2019-03-15T07:14:38Z</time>
      </trkpt>
      <trkpt lat="43.53188" lon="3.50081">
        <ele>39</ele>
        <time>2019-03-15T07:14:40Z</time>
      </trkpt>
      <trkpt lat="43.53184" lon="3.50083">
        <ele>39</ele>
        <time>2019-03-15T07:14:42Z</time>
      </trkpt>
      <trkpt lat="43.53182" lon="3.50085">
        <ele>39.1</ele>
        <time>2019-03-15T07:14:44Z</time>
      </trkpt>
      <trkpt lat="43.53179" lon="3.50087">
        <ele>39.1</ele>
        <time>2019-03-15T07:14:46Z</time>
      </trkpt>
      <trkpt lat="43.53176" lon="3.50089">
        <ele>39.1</ele>
        <time>2019-03-15T07:14:48Z</time>
      </trkpt>
      <trkpt lat="43.53173" lon="3.50091">
        <ele>39.1</ele>
        <time>2019-03-15T07:14:50Z</time>
      </trkpt>
      <trkpt lat="43.53171" lon="3.50093">
        <ele>39.1</ele>
        <time>2019-03-15T07:14:52Z</time>
      </trkpt>
      <trkpt lat="43.53168" lon="3.50096">
        <ele>39.1</ele>
        <time>2019-03-15T07:14:56Z</time>
      </trkpt>
      <trkpt lat="43.53166" lon="3.501">
        <ele>39.2</ele>
        <time>2019-03-15T07:14:59Z</time>
      </trkpt>
      <trkpt lat="43.53163" lon="3.50102">
        <ele>39.2</ele>
        <time>2019-03-15T07:15:02Z</time>
      </trkpt>
      <trkpt lat="43.53161" lon="3.50104">
        <ele>39.2</ele>
        <time>2019-03-15T07:15:04Z</time>
      </trkpt>
      <trkpt lat="43.53158" lon="3.50106">
        <ele>39.2</ele>
        <time>2019-03-15T07:15:07Z</time>
      </trkpt>
      <trkpt lat="43.53155" lon="3.50109">
        <ele>39.2</ele>
        <time>2019-03-15T07:15:10Z</time>
      </trkpt>
      <trkpt lat="43.53152" lon="3.50112">
        <ele>39.2</ele>
        <time>2019-03-15T07:15:13Z</time>
      </trkpt>
      <trkpt lat="43.53149" lon="3.50114">
        <ele>39.3</ele>
        <time>2019-03-15T07:15:15Z</time>
      </trkpt>
      <trkpt lat="43.53147" lon="3.50115">
        <ele>39.3</ele>
        <time>2019-03-15T07:15:17Z</time>
      </trkpt>
      <trkpt lat="43.53144" lon="3.50117">
        <ele>39.3</ele>
        <time>2019-03-15T07:15:19Z</time>
      </trkpt>
      <trkpt lat="43.5314" lon="3.5012">
        <ele>39.3</ele>
        <time>2019-03-15T07:15:22Z</time>
      </trkpt>
      <trkpt lat="43.53136" lon="3.50123">
        <ele>39.3</ele>
        <time>2019-03-15T07:15:25Z</time>
      </trkpt>
      <trkpt lat="43.53133" lon="3.50125">
        <ele>39.4</ele>
        <time>2019-03-15T07:15:28Z</time>
      </trkpt>
      <trkpt lat="43.5313" lon="3.50127">
        <ele>39.4</ele>
        <time>2019-03-15T07:15:30Z</time>
      </trkpt>
      <trkpt lat="43.53127" lon="3.50129">
        <ele>39.4</ele>
        <time>2019-03-15T07:15:32Z</time>
      </trkpt>
      <trkpt lat="43.53125" lon="3.50131">
        <ele>39.4</ele>
        <time>2019-03-15T07:15:34Z</time>
      </trkpt>
      <trkpt lat="43.53122" lon="3.50134">
        <ele>39.4</ele>
        <time>2019-03-15T07:15:37Z</time>
      </trkpt>
      <trkpt lat="43.5312" lon="3.50137">
        <ele>39.5</ele>
        <time>2019-03-15T07:15:39Z</time>
      </trkpt>
      <trkpt lat="43.53118" lon="3.5014">
        <ele>39.5</ele>
        <time>2019-03-15T07:15:42Z</time>
      </trkpt>
      <trkpt lat="43.53116" lon="3.50142">
        <ele>39.5</ele>
        <time>2019-03-15T07:15:45Z</time>
      </trkpt>
      <trkpt lat="43.53112" lon="3.50143">
        <ele>39.5</ele>
        <time>2019-03-15T07:15:48Z</time>
      </trkpt>
      <trkpt lat="43.53109" lon="3.50145">
        <ele>39.5</ele>
        <time>2019-03-15T07:15:52Z</time>
      </trkpt>
      <trkpt lat="43.53106" lon="3.50144">
        <ele>39.5</ele>
        <time>2019-03-15T07:15:56Z</time>
      </trkpt>
      <trkpt lat="43.53103" lon="3.50142">
        <ele>39.5</ele>
        <time>2019-03-15T07:15:59Z</time>
      </trkpt>
      <trkpt lat="43.531" lon="3.50139">
        <ele>39.5</ele>
        <time>2019-03-15T07:16:02Z</time>
      </trkpt>
      <trkpt lat="43.53098" lon="3.50135">
        <ele>39.5</ele>
        <time>2019-03-15T07:16:05Z</time>
      </trkpt>
      <trkpt lat="43.53096" lon="3.50132">
        <ele>39.5</ele>
        <time>2019-03-15T07:16:08Z</time>
      </trkpt>
      <trkpt lat="43.53093" lon="3.50129">
        <ele>39.5</ele>
        <time>2019-03-15T07:16:11Z</time>
      </trkpt>
      <trkpt lat="43.53091" lon="3.50124">
        <ele>39.5</ele>
        <time>2019-03-15T07:16:14Z</time>
      </trkpt>
      <trkpt lat="43.53088" lon="3.5012">
        <ele>39.5</ele>
        <time>2019-03-15T07:16:17Z</time>
      </trkpt>
      <trkpt lat="43.53084" lon="3.50117">
        <ele>39.4</ele>
        <time>2019-03-15T07:16:20Z</time>
      </trkpt>
      <trkpt lat="43.53082" lon="3.50114">
        <ele>39.4</ele>
        <time>2019-03-15T07:16:22Z</time>
      </trkpt>
      <trkpt lat="43.53079" lon="3.5011">
        <ele>39.4</ele>
        <time>2019-03-15T07:16:25Z</time>
      </trkpt>
      <trkpt lat="43.53077" lon="3.50106">
        <ele>39.3</ele>
        <time>2019-03-15T07:16:28Z</time>
      </trkpt>
      <trkpt lat="43.53075" lon="3.50103">
        <ele>39.3</ele>
        <time>2019-03-15T07:16:30Z</time>
      </trkpt>
      <trkpt lat="43.53073" lon="3.501">
        <ele>39.3</ele>
        <time>2019-03-15T07:16:32Z</time>
      </trkpt>
      <trkpt lat="43.53071" lon="3.50097">
        <ele>39.2</ele>
        <time>2019-03-15T07:16:34Z</time>
      </trkpt>
      <trkpt lat="43.53068" lon="3.50094">
        <ele>39.2</ele>
        <time>2019-03-15T07:16:37Z</time>
      </trkpt>
      <trkpt lat="43.53065" lon="3.50091">
        <ele>39.1</ele>
        <time>2019-03-15T07:16:40Z</time>
      </trkpt>
      <trkpt lat="43.53062" lon="3.50089">
        <ele>39.1</ele>
        <time>2019-03-15T07:16:43Z</time>
      </trkpt>
      <trkpt lat="43.53059" lon="3.50086">
        <ele>39</ele>
        <time>2019-03-15T07:16:46Z</time>
      </trkpt>
      <trkpt lat="43.53057" lon="3.50084">
        <ele>39</ele>
        <time>2019-03-15T07:16:49Z</time>
      </trkpt>
      <trkpt lat="43.53053" lon="3.50082">
        <ele>39</ele>
        <time>2019-03-15T07:16:52Z</time>
      </trkpt>
      <trkpt lat="43.53049" lon="3.50081">
        <ele>38.9</ele>
        <time>2019-03-15T07:16:54Z</time>
      </trkpt>
      <trkpt lat="43.53046" lon="3.5008">
        <ele>38.9</ele>
        <time>2019-03-15T07:16:56Z</time>
      </trkpt>
      <trkpt lat="43.53042" lon="3.50079">
        <ele>38.9</ele>
        <time>2019-03-15T07:16:59Z</time>
      </trkpt>
      <trkpt lat="43.53039" lon="3.50078">
        <ele>38.9</ele>
        <time>2019-03-15T07:17:02Z</time>
      </trkpt>
      <trkpt lat="43.53036" lon="3.50078">
        <ele>38.8</ele>
        <time>2019-03-15T07:17:04Z</time>
      </trkpt>
      <trkpt lat="43.53033" lon="3.50077">
        <ele>38.8</ele>
        <time>2019-03-15T07:17:06Z</time>
      </trkpt>
      <trkpt lat="43.5303" lon="3.50076">
        <ele>38.8</ele>
        <time>2019-03-15T07:17:09Z</time>
      </trkpt>
      <trkpt lat="43.53027" lon="3.50075">
        <ele>38.8</ele>
        <time>2019-03-15T07:17:11Z</time>
      </trkpt>
      <trkpt lat="43.53024" lon="3.50074">
        <ele>38.8</ele>
        <time>2019-03-15T07:17:13Z</time>
      </trkpt>
      <trkpt lat="43.53022" lon="3.50072">
        <ele>38.8</ele>
        <time>2019-03-15T07:17:15Z</time>
      </trkpt>
      <trkpt lat="43.53018" lon="3.5007">
        <ele>38.9</ele>
        <time>2019-03-15T07:17:18Z</time>
      </trkpt>
      <trkpt lat="43.53014" lon="3.50069">
        <ele>38.9</ele>
        <time>2019-03-15T07:17:21Z</time>
      </trkpt>
      <trkpt lat="43.5301" lon="3.50068">
        <ele>38.9</ele>
        <time>2019-03-15T07:17:24Z</time>
      </trkpt>
      <trkpt lat="43.53007" lon="3.50066">
        <ele>38.9</ele>
        <time>2019-03-15T07:17:27Z</time>
      </trkpt>
      <trkpt lat="43.53003" lon="3.50064">
        <ele>39</ele>
        <time>2019-03-15T07:17:30Z</time>
      </trkpt>
      <trkpt lat="43.52999" lon="3.50062">
        <ele>39</ele>
        <time>2019-03-15T07:17:33Z</time>
      </trkpt>
      <trkpt lat="43.52996" lon="3.50061">
        <ele>39.1</ele>
        <time>2019-03-15T07:17:36Z</time>
      </trkpt>
      <trkpt lat="43.52993" lon="3.50059">
        <ele>39.1</ele>
        <time>2019-03-15T07:17:40Z</time>
      </trkpt>
      <trkpt lat="43.52989" lon="3.50058">
        <ele>39.2</ele>
        <time>2019-03-15T07:17:43Z</time>
      </trkpt>
      <trkpt lat="43.52986" lon="3.50057">
        <ele>39.2</ele>
        <time>2019-03-15T07:17:45Z</time>
      </trkpt>
      <trkpt lat="43.52983" lon="3.50055">
        <ele>39.3</ele>
        <time>2019-03-15T07:17:47Z</time>
      </trkpt>
      <trkpt lat="43.52979" lon="3.50053">
        <ele>39.4</ele>
        <time>2019-03-15T07:17:49Z</time>
      </trkpt>
      <trkpt lat="43.52977" lon="3.50052">
        <ele>39.5</ele>
        <time>2019-03-15T07:17:51Z</time>
      </trkpt>
      <trkpt lat="43.52973" lon="3.5005">
        <ele>39.6</ele>
        <time>2019-03-15T07:17:53Z</time>
      </trkpt>
      <trkpt lat="43.52971" lon="3.50049">
        <ele>39.6</ele>
        <time>2019-03-15T07:17:55Z</time>
      </trkpt>
      <trkpt lat="43.52968" lon="3.50047">
        <ele>39.7</ele>
        <time>2019-03-15T07:17:57Z</time>
      </trkpt>
      <trkpt lat="43.52965" lon="3.50046">
        <ele>39.8</ele>
        <time>2019-03-15T07:17:59Z</time>
      </trkpt>
      <trkpt lat="43.52962" lon="3.50045">
        <ele>39.8</ele>
        <time>2019-03-15T07:18:01Z</time>
      </trkpt>
      <trkpt lat="43.52959" lon="3.50043">
        <ele>39.9</ele>
        <time>2019-03-15T07:18:04Z</time>
      </trkpt>
      <trkpt lat="43.52956" lon="3.50043">
        <ele>40</ele>
        <time>2019-03-15T07:18:06Z</time>
      </trkpt>
      <trkpt lat="43.52953" lon="3.50043">
        <ele>40</ele>
        <time>2019-03-15T07:18:08Z</time>
      </trkpt>
      <trkpt lat="43.5295" lon="3.50043">
        <ele>40.1</ele>
        <time>2019-03-15T07:18:10Z</time>
      </trkpt>
      <trkpt lat="43.52947" lon="3.50043">
        <ele>40.1</ele>
        <time>2019-03-15T07:18:13Z</time>
      </trkpt>
      <trkpt lat="43.52943" lon="3.50043">
        <ele>40.2</ele>
        <time>2019-03-15T07:18:16Z</time>
      </trkpt>
      <trkpt lat="43.5294" lon="3.50044">
        <ele>40.2</ele>
        <time>2019-03-15T07:18:19Z</time>
      </trkpt>
      <trkpt lat="43.52937" lon="3.50044">
        <ele>40.3</ele>
        <time>2019-03-15T07:18:22Z</time>
      </trkpt>
      <trkpt lat="43.52933" lon="3.50044">
        <ele>40.3</ele>
        <time>2019-03-15T07:18:25Z</time>
      </trkpt>
      <trkpt lat="43.52929" lon="3.50044">
        <ele>40.3</ele>
        <time>2019-03-15T07:18:27Z</time>
      </trkpt>
      <trkpt lat="43.52926" lon="3.50044">
        <ele>40.4</ele>
        <time>2019-03-15T07:18:29Z</time>
      </trkpt>
      <trkpt lat="43.52923" lon="3.50045">
        <ele>40.4</ele>
        <time>2019-03-15T07:18:31Z</time>
      </trkpt>
      <trkpt lat="43.52919" lon="3.50046">
        <ele>40.4</ele>
        <time>2019-03-15T07:18:33Z</time>
      </trkpt>
      <trkpt lat="43.52916" lon="3.50047">
        <ele>40.5</ele>
        <time>2019-03-15T07:18:35Z</time>
      </trkpt>
      <trkpt lat="43.52913" lon="3.50048">
        <ele>40.5</ele>
        <time>2019-03-15T07:18:37Z</time>
      </trkpt>
      <trkpt lat="43.5291" lon="3.5005">
        <ele>40.5</ele>
        <time>2019-03-15T07:18:39Z</time>
      </trkpt>
      <trkpt lat="43.52907" lon="3.5005">
        <ele>40.5</ele>
        <time>2019-03-15T07:18:41Z</time>
      </trkpt>
      <trkpt lat="43.52905" lon="3.50051">
        <ele>40.6</ele>
        <time>2019-03-15T07:18:43Z</time>
      </trkpt>
      <trkpt lat="43.52902" lon="3.50051">
        <ele>40.6</ele>
        <time>2019-03-15T07:18:45Z</time>
      </trkpt>
      <trkpt lat="43.52898" lon="3.50053">
        <ele>40.6</ele>
        <time>2019-03-15T07:18:48Z</time>
      </trkpt>
      <trkpt lat="43.52895" lon="3.50053">
        <ele>40.6</ele>
        <time>2019-03-15T07:18:51Z</time>
      </trkpt>
      <trkpt lat="43.52891" lon="3.50054">
        <ele>40.7</ele>
        <time>2019-03-15T07:18:54Z</time>
      </trkpt>
      <trkpt lat="43.52887" lon="3.50055">
        <ele>40.7</ele>
        <time>2019-03-15T07:18:57Z</time>
      </trkpt>
      <trkpt lat="43.52884" lon="3.50056">
        <ele>40.7</ele>
        <time>2019-03-15T07:19:00Z</time>
      </trkpt>
      <trkpt lat="43.52881" lon="3.50056">
        <ele>40.8</ele>
        <time>2019-03-15T07:19:02Z</time>
      </trkpt>
      <trkpt lat="43.52878" lon="3.50056">
        <ele>40.8</ele>
        <time>2019-03-15T07:19:04Z</time>
      </trkpt>
      <trkpt lat="43.52875" lon="3.50056">
        <ele>40.8</ele>
        <time>2019-03-15T07:19:06Z</time>
      </trkpt>
      <trkpt lat="43.52872" lon="3.50058">
        <ele>40.9</ele>
        <time>2019-03-15T07:19:09Z</time>
      </trkpt>
      <trkpt lat="43.52869" lon="3.50059">
        <ele>40.9</ele>
        <time>2019-03-15T07:19:12Z</time>
      </trkpt>
      <trkpt lat="43.52865" lon="3.50059">
        <ele>40.9</ele>
        <time>2019-03-15T07:19:15Z</time>
      </trkpt>
      <trkpt lat="43.52861" lon="3.50061">
        <ele>41.1</ele>
        <time>2019-03-15T07:19:18Z</time>
      </trkpt>
      <trkpt lat="43.52859" lon="3.50063">
        <ele>41.2</ele>
        <time>2019-03-15T07:19:20Z</time>
      </trkpt>
      <trkpt lat="43.52857" lon="3.50066">
        <ele>41.3</ele>
        <time>2019-03-15T07:19:22Z</time>
      </trkpt>
      <trkpt lat="43.52854" lon="3.50069">
        <ele>41.4</ele>
        <time>2019-03-15T07:19:24Z</time>
      </trkpt>
      <trkpt lat="43.52852" lon="3.50074">
        <ele>41.5</ele>
        <time>2019-03-15T07:19:27Z</time>
      </trkpt>
      <trkpt lat="43.52851" lon="3.50079">
        <ele>41.7</ele>
        <time>2019-03-15T07:19:30Z</time>
      </trkpt>
      <trkpt lat="43.5285" lon="3.50083">
        <ele>41.8</ele>
        <time>2019-03-15T07:19:33Z</time>
      </trkpt>
      <trkpt lat="43.52848" lon="3.50086">
        <ele>41.9</ele>
        <time>2019-03-15T07:19:36Z</time>
      </trkpt>
      <trkpt lat="43.52847" lon="3.5009">
        <ele>42</ele>
        <time>2019-03-15T07:19:39Z</time>
      </trkpt>
      <trkpt lat="43.52845" lon="3.50094">
        <ele>42.1</ele>
        <time>2019-03-15T07:19:42Z</time>
      </trkpt>
      <trkpt lat="43.52843" lon="3.50097">
        <ele>42.2</ele>
        <time>2019-03-15T07:19:44Z</time>
      </trkpt>
      <trkpt lat="43.52842" lon="3.501">
        <ele>42.3</ele>
        <time>2019-03-15T07:19:46Z</time>
      </trkpt>
      <trkpt lat="43.5284" lon="3.50104">
        <ele>42.5</ele>
        <time>2019-03-15T07:19:48Z</time>
      </trkpt>
      <trkpt lat="43.52839" lon="3.50107">
        <ele>42.6</ele>
        <time>2019-03-15T07:19:50Z</time>
      </trkpt>
      <trkpt lat="43.52836" lon="3.50111">
        <ele>42.7</ele>
        <time>2019-03-15T07:19:52Z</time>
      </trkpt>
      <trkpt lat="43.52834" lon="3.50114">
        <ele>42.8</ele>
        <time>2019-03-15T07:19:54Z</time>
      </trkpt>
      <trkpt lat="43.52832" lon="3.50118">
        <ele>42.9</ele>
        <time>2019-03-15T07:19:57Z</time>
      </trkpt>
      <trkpt lat="43.5283" lon="3.50123">
        <ele>43</ele>
        <time>2019-03-15T07:20:00Z</time>
      </trkpt>
      <trkpt lat="43.52828" lon="3.50127">
        <ele>43.1</ele>
        <time>2019-03-15T07:20:02Z</time>
      </trkpt>
      <trkpt lat="43.52827" lon="3.50131">
        <ele>43.2</ele>
        <time>2019-03-15T07:20:04Z</time>
      </trkpt>
      <trkpt lat="43.52826" lon="3.50136">
        <ele>43.3</ele>
        <time>2019-03-15T07:20:07Z</time>
      </trkpt>
      <trkpt lat="43.52824" lon="3.50139">
        <ele>43.4</ele>
        <time>2019-03-15T07:20:09Z</time>
      </trkpt>
      <trkpt lat="43.52822" lon="3.50143">
        <ele>43.5</ele>
        <time>2019-03-15T07:20:11Z</time>
      </trkpt>
      <trkpt lat="43.52821" lon="3.50147">
        <ele>43.6</ele>
        <time>2019-03-15T07:20:14Z</time>
      </trkpt>
      <trkpt lat="43.5282" lon="3.50151">
        <ele>43.6</ele>
        <time>2019-03-15T07:20:16Z</time>
      </trkpt>
      <trkpt lat="43.52819" lon="3.50155">
        <ele>43.7</ele>
        <time>2019-03-15T07:20:19Z</time>
      </trkpt>
      <trkpt lat="43.52817" lon="3.50159">
        <ele>43.8</ele>
        <time>2019-03-15T07:20:22Z</time>
      </trkpt>
      <trkpt lat="43.52816" lon="3.50164">
        <ele>43.9</ele>
        <time>2019-03-15T07:20:25Z</time>
      </trkpt>
      <trkpt lat="43.52814" lon="3.50169">
        <ele>44</ele>
        <time>2019-03-15T07:20:28Z</time>
      </trkpt>
      <trkpt lat="43.52813" lon="3.50173">
        <ele>44.1</ele>
        <time>2019-03-15T07:20:30Z</time>
      </trkpt>
      <trkpt lat="43.52812" lon="3.50177">
        <ele>44.2</ele>
        <time>2019-03-15T07:20:33Z</time>
      </trkpt>
      <trkpt lat="43.5281" lon="3.5018">
        <ele>44.2</ele>
        <time>2019-03-15T07:20:35Z</time>
      </trkpt>
      <trkpt lat="43.52807" lon="3.50183">
        <ele>44.3</ele>
        <time>2019-03-15T07:20:37Z</time>
      </trkpt>
      <trkpt lat="43.52806" lon="3.50187">
        <ele>44.3</ele>
        <time>2019-03-15T07:20:41Z</time>
      </trkpt>
      <trkpt lat="43.52804" lon="3.50191">
        <ele>44.4</ele>
        <time>2019-03-15T07:20:44Z</time>
      </trkpt>
      <trkpt lat="43.52803" lon="3.50195">
        <ele>44.5</ele>
        <time>2019-03-15T07:20:46Z</time>
      </trkpt>
      <trkpt lat="43.52802" lon="3.50199">
        <ele>44.5</ele>
        <time>2019-03-15T07:20:49Z</time>
      </trkpt>
      <trkpt lat="43.52801" lon="3.50202">
        <ele>44.6</ele>
        <time>2019-03-15T07:20:51Z</time>
      </trkpt>
      <trkpt lat="43.528" lon="3.50206">
        <ele>44.6</ele>
        <time>2019-03-15T07:20:53Z</time>
      </trkpt>
      <trkpt lat="43.52798" lon="3.50211">
        <ele>44.7</ele>
        <time>2019-03-15T07:20:56Z</time>
      </trkpt>
      <trkpt lat="43.52796" lon="3.50216">
        <ele>44.8</ele>
        <time>2019-03-15T07:20:59Z</time>
      </trkpt>
      <trkpt lat="43.52794" lon="3.50219">
        <ele>44.9</ele>
        <time>2019-03-15T07:21:01Z</time>
      </trkpt>
      <trkpt lat="43.52793" lon="3.50222">
        <ele>44.9</ele>
        <time>2019-03-15T07:21:03Z</time>
      </trkpt>
      <trkpt lat="43.52791" lon="3.50225">
        <ele>45</ele>
        <time>2019-03-15T07:21:05Z</time>
      </trkpt>
      <trkpt lat="43.52789" lon="3.50229">
        <ele>45.1</ele>
        <time>2019-03-15T07:21:07Z</time>
      </trkpt>
      <trkpt lat="43.52787" lon="3.50233">
        <ele>45.2</ele>
        <time>2019-03-15T07:21:09Z</time>
      </trkpt>
      <trkpt lat="43.52785" lon="3.50237">
        <ele>45.3</ele>
        <time>2019-03-15T07:21:11Z</time>
      </trkpt>
      <trkpt lat="43.52784" lon="3.5024">
        <ele>45.3</ele>
        <time>2019-03-15T07:21:13Z</time>
      </trkpt>
      <trkpt lat="43.52783" lon="3.50245">
        <ele>45.4</ele>
        <time>2019-03-15T07:21:16Z</time>
      </trkpt>
      <trkpt lat="43.52782" lon="3.50249">
        <ele>45.5</ele>
        <time>2019-03-15T07:21:18Z</time>
      </trkpt>
      <trkpt lat="43.5278" lon="3.50253">
        <ele>45.6</ele>
        <time>2019-03-15T07:21:21Z</time>
      </trkpt>
      <trkpt lat="43.52778" lon="3.50258">
        <ele>45.7</ele>
        <time>2019-03-15T07:21:24Z</time>
      </trkpt>
      <trkpt lat="43.52776" lon="3.50261">
        <ele>45.8</ele>
        <time>2019-03-15T07:21:26Z</time>
      </trkpt>
      <trkpt lat="43.52775" lon="3.50266">
        <ele>45.9</ele>
        <time>2019-03-15T07:21:29Z</time>
      </trkpt>
      <trkpt lat="43.52774" lon="3.5027">
        <ele>46.1</ele>
        <time>2019-03-15T07:21:31Z</time>
      </trkpt>
      <trkpt lat="43.52773" lon="3.50274">
        <ele>46.2</ele>
        <time>2019-03-15T07:21:33Z</time>
      </trkpt>
      <trkpt lat="43.52771" lon="3.50279">
        <ele>46.4</ele>
        <time>2019-03-15T07:21:36Z</time>
      </trkpt>
      <trkpt lat="43.52769" lon="3.50283">
        <ele>46.6</ele>
        <time>2019-03-15T07:21:38Z</time>
      </trkpt>
      <trkpt lat="43.52767" lon="3.50287">
        <ele>46.7</ele>
        <time>2019-03-15T07:21:40Z</time>
      </trkpt>
      <trkpt lat="43.52766" lon="3.50291">
        <ele>46.9</ele>
        <time>2019-03-15T07:21:42Z</time>
      </trkpt>
      <trkpt lat="43.52765" lon="3.50295">
        <ele>47.1</ele>
        <time>2019-03-15T07:21:45Z</time>
      </trkpt>
      <trkpt lat="43.52763" lon="3.503">
        <ele>47.2</ele>
        <time>2019-03-15T07:21:48Z</time>
      </trkpt>
      <trkpt lat="43.52762" lon="3.50304">
        <ele>47.4</ele>
        <time>2019-03-15T07:21:51Z</time>
      </trkpt>
      <trkpt lat="43.52761" lon="3.50309">
        <ele>47.6</ele>
        <time>2019-03-15T07:21:54Z</time>
      </trkpt>
      <trkpt lat="43.52761" lon="3.50313">
        <ele>47.7</ele>
        <time>2019-03-15T07:21:56Z</time>
      </trkpt>
      <trkpt lat="43.5276" lon="3.50317">
        <ele>47.9</ele>
        <time>2019-03-15T07:21:58Z</time>
      </trkpt>
      <trkpt lat="43.52759" lon="3.5032">
        <ele>48.1</ele>
        <time>2019-03-15T07:22:00Z</time>
      </trkpt>
      <trkpt lat="43.52759" lon="3.50324">
        <ele>48.3</ele>
        <time>2019-03-15T07:22:02Z</time>
      </trkpt>
      <trkpt lat="43.52759" lon="3.50329">
        <ele>48.5</ele>
        <time>2019-03-15T07:22:05Z</time>
      </trkpt>
      <trkpt lat="43.52758" lon="3.50333">
        <ele>48.7</ele>
        <time>2019-03-15T07:22:07Z</time>
      </trkpt>
      <trkpt lat="43.52757" lon="3.50338">
        <ele>48.9</ele>
        <time>2019-03-15T07:22:10Z</time>
      </trkpt>
      <trkpt lat="43.52758" lon="3.50343">
        <ele>49.1</ele>
        <time>2019-03-15T07:22:13Z</time>
      </trkpt>
      <trkpt lat="43.52757" lon="3.50348">
        <ele>49.3</ele>
        <time>2019-03-15T07:22:16Z</time>
      </trkpt>
      <trkpt lat="43.52758" lon="3.50352">
        <ele>49.4</ele>
        <time>2019-03-15T07:22:19Z</time>
      </trkpt>
      <trkpt lat="43.52757" lon="3.50357">
        <ele>49.6</ele>
        <time>2019-03-15T07:22:21Z</time>
      </trkpt>
      <trkpt lat="43.52757" lon="3.50361">
        <ele>49.8</ele>
        <time>2019-03-15T07:22:23Z</time>
      </trkpt>
      <trkpt lat="43.52757" lon="3.50366">
        <ele>50</ele>
        <time>2019-03-15T07:22:26Z</time>
      </trkpt>
      <trkpt lat="43.52756" lon="3.5037">
        <ele>50.1</ele>
        <time>2019-03-15T07:22:28Z</time>
      </trkpt>
      <trkpt lat="43.52754" lon="3.50373">
        <ele>50.3</ele>
        <time>2019-03-15T07:22:30Z</time>
      </trkpt>
      <trkpt lat="43.52753" lon="3.50377">
        <ele>50.4</ele>
        <time>2019-03-15T07:22:32Z</time>
      </trkpt>
      <trkpt lat="43.52752" lon="3.50381">
        <ele>50.5</ele>
        <time>2019-03-15T07:22:34Z</time>
      </trkpt>
      <trkpt lat="43.52751" lon="3.50384">
        <ele>50.7</ele>
        <time>2019-03-15T07:22:36Z</time>
      </trkpt>
      <trkpt lat="43.5275" lon="3.50387">
        <ele>50.8</ele>
        <time>2019-03-15T07:22:38Z</time>
      </trkpt>
      <trkpt lat="43.52748" lon="3.50392">
        <ele>51.1</ele>
        <time>2019-03-15T07:22:41Z</time>
      </trkpt>
      <trkpt lat="43.52747" lon="3.50396">
        <ele>51.4</ele>
        <time>2019-03-15T07:22:44Z</time>
      </trkpt>
      <trkpt lat="43.52745" lon="3.50399">
        <ele>51.5</ele>
        <time>2019-03-15T07:22:47Z</time>
      </trkpt>
      <trkpt lat="43.52742" lon="3.50402">
        <ele>51.6</ele>
        <time>2019-03-15T07:22:50Z</time>
      </trkpt>
      <trkpt lat="43.52741" lon="3.50405">
        <ele>51.7</ele>
        <time>2019-03-15T07:22:52Z</time>
      </trkpt>
      <trkpt lat="43.52739" lon="3.50409">
        <ele>51.9</ele>
        <time>2019-03-15T07:22:55Z</time>
      </trkpt>
      <trkpt lat="43.52736" lon="3.50413">
        <ele>52.1</ele>
        <time>2019-03-15T07:22:58Z</time>
      </trkpt>
      <trkpt lat="43.52734" lon="3.50416">
        <ele>52.2</ele>
        <time>2019-03-15T07:23:00Z</time>
      </trkpt>
      <trkpt lat="43.52732" lon="3.50419">
        <ele>52.4</ele>
        <time>2019-03-15T07:23:02Z</time>
      </trkpt>
      <trkpt lat="43.5273" lon="3.50422">
        <ele>52.6</ele>
        <time>2019-03-15T07:23:04Z</time>
      </trkpt>
      <trkpt lat="43.52728" lon="3.50425">
        <ele>52.6</ele>
        <time>2019-03-15T07:23:06Z</time>
      </trkpt>
      <trkpt lat="43.52725" lon="3.50429">
        <ele>52.8</ele>
        <time>2019-03-15T07:23:09Z</time>
      </trkpt>
      <trkpt lat="43.52723" lon="3.50431">
        <ele>52.9</ele>
        <time>2019-03-15T07:23:11Z</time>
      </trkpt>
      <trkpt lat="43.52721" lon="3.50434">
        <ele>53</ele>
        <time>2019-03-15T07:23:13Z</time>
      </trkpt>
      <trkpt lat="43.52718" lon="3.50436">
        <ele>53</ele>
        <time>2019-03-15T07:23:15Z</time>
      </trkpt>
      <trkpt lat="43.52715" lon="3.50439">
        <ele>53.1</ele>
        <time>2019-03-15T07:23:17Z</time>
      </trkpt>
      <trkpt lat="43.52713" lon="3.50442">
        <ele>53.1</ele>
        <time>2019-03-15T07:23:19Z</time>
      </trkpt>
      <trkpt lat="43.52711" lon="3.50444">
        <ele>53.1</ele>
        <time>2019-03-15T07:23:21Z</time>
      </trkpt>
      <trkpt lat="43.52708" lon="3.50448">
        <ele>53.2</ele>
        <time>2019-03-15T07:23:24Z</time>
      </trkpt>
      <trkpt lat="43.52705" lon="3.5045">
        <ele>53.2</ele>
        <time>2019-03-15T07:23:26Z</time>
      </trkpt>
      <trkpt lat="43.52702" lon="3.50452">
        <ele>53.2</ele>
        <time>2019-03-15T07:23:28Z</time>
      </trkpt>
      <trkpt lat="43.527" lon="3.50456">
        <ele>53.2</ele>
        <time>2019-03-15T07:23:31Z</time>
      </trkpt>
      <trkpt lat="43.52697" lon="3.50459">
        <ele>53.2</ele>
        <time>2019-03-15T07:23:33Z</time>
      </trkpt>
      <trkpt lat="43.52695" lon="3.50462">
        <ele>53.2</ele>
        <time>2019-03-15T07:23:35Z</time>
      </trkpt>
      <trkpt lat="43.52692" lon="3.50465">
        <ele>53.3</ele>
        <time>2019-03-15T07:23:38Z</time>
      </trkpt>
      <trkpt lat="43.5269" lon="3.50467">
        <ele>53.4</ele>
        <time>2019-03-15T07:23:40Z</time>
      </trkpt>
      <trkpt lat="43.52687" lon="3.5047">
        <ele>53.5</ele>
        <time>2019-03-15T07:23:42Z</time>
      </trkpt>
      <trkpt lat="43.52685" lon="3.50474">
        <ele>53.5</ele>
        <time>2019-03-15T07:23:45Z</time>
      </trkpt>
      <trkpt lat="43.52683" lon="3.50477">
        <ele>53.6</ele>
        <time>2019-03-15T07:23:47Z</time>
      </trkpt>
      <trkpt lat="43.5268" lon="3.50479">
        <ele>53.6</ele>
        <time>2019-03-15T07:23:49Z</time>
      </trkpt>
      <trkpt lat="43.52678" lon="3.50482">
        <ele>53.7</ele>
        <time>2019-03-15T07:23:51Z</time>
      </trkpt>
      <trkpt lat="43.52676" lon="3.50486">
        <ele>53.7</ele>
        <time>2019-03-15T07:23:54Z</time>
      </trkpt>
      <trkpt lat="43.52674" lon="3.5049">
        <ele>53.8</ele>
        <time>2019-03-15T07:23:57Z</time>
      </trkpt>
      <trkpt lat="43.52673" lon="3.50494">
        <ele>53.8</ele>
        <time>2019-03-15T07:23:59Z</time>
      </trkpt>
      <trkpt lat="43.52672" lon="3.50499">
        <ele>53.9</ele>
        <time>2019-03-15T07:24:02Z</time>
      </trkpt>
      <trkpt lat="43.5267" lon="3.50502">
        <ele>53.9</ele>
        <time>2019-03-15T07:24:05Z</time>
      </trkpt>
      <trkpt lat="43.52667" lon="3.50505">
        <ele>53.9</ele>
        <time>2019-03-15T07:24:07Z</time>
      </trkpt>
      <trkpt lat="43.52665" lon="3.50509">
        <ele>54</ele>
        <time>2019-03-15T07:24:10Z</time>
      </trkpt>
      <trkpt lat="43.52663" lon="3.50514">
        <ele>54</ele>
        <time>2019-03-15T07:24:13Z</time>
      </trkpt>
      <trkpt lat="43.52661" lon="3.50517">
        <ele>54.1</ele>
        <time>2019-03-15T07:24:15Z</time>
      </trkpt>
      <trkpt lat="43.52659" lon="3.50521">
        <ele>54.1</ele>
        <time>2019-03-15T07:24:18Z</time>
      </trkpt>
      <trkpt lat="43.52656" lon="3.50524">
        <ele>54.1</ele>
        <time>2019-03-15T07:24:21Z</time>
      </trkpt>
      <trkpt lat="43.52654" lon="3.50528">
        <ele>54.2</ele>
        <time>2019-03-15T07:24:23Z</time>
      </trkpt>
      <trkpt lat="43.52654" lon="3.50532">
        <ele>54.2</ele>
        <time>2019-03-15T07:24:26Z</time>
      </trkpt>
      <trkpt lat="43.52653" lon="3.50536">
        <ele>54.2</ele>
        <time>2019-03-15T07:24:33Z</time>
      </trkpt>
      <trkpt lat="43.52651" lon="3.50539">
        <ele>54.3</ele>
        <time>2019-03-15T07:24:35Z</time>
      </trkpt>
      <trkpt lat="43.52649" lon="3.50542">
        <ele>54.3</ele>
        <time>2019-03-15T07:24:37Z</time>
      </trkpt>
      <trkpt lat="43.52647" lon="3.50545">
        <ele>54.3</ele>
        <time>2019-03-15T07:24:39Z</time>
      </trkpt>
      <trkpt lat="43.52645" lon="3.50548">
        <ele>54.3</ele>
        <time>2019-03-15T07:24:41Z</time>
      </trkpt>
      <trkpt lat="43.52644" lon="3.50552">
        <ele>54.4</ele>
        <time>2019-03-15T07:24:43Z</time>
      </trkpt>
      <trkpt lat="43.52642" lon="3.50555">
        <ele>54.4</ele>
        <time>2019-03-15T07:24:45Z</time>
      </trkpt>
      <trkpt lat="43.5264" lon="3.50559">
        <ele>54.4</ele>
        <time>2019-03-15T07:24:47Z</time>
      </trkpt>
      <trkpt lat="43.52638" lon="3.50562">
        <ele>54.5</ele>
        <time>2019-03-15T07:24:49Z</time>
      </trkpt>
      <trkpt lat="43.52636" lon="3.50565">
        <ele>54.5</ele>
        <time>2019-03-15T07:24:51Z</time>
      </trkpt>
      <trkpt lat="43.52634" lon="3.50568">
        <ele>54.5</ele>
        <time>2019-03-15T07:24:53Z</time>
      </trkpt>
      <trkpt lat="43.52631" lon="3.5057">
        <ele>54.6</ele>
        <time>2019-03-15T07:24:55Z</time>
      </trkpt>
      <trkpt lat="43.5263" lon="3.50574">
        <ele>54.6</ele>
        <time>2019-03-15T07:24:58Z</time>
      </trkpt>
      <trkpt lat="43.52629" lon="3.50579">
        <ele>54.7</ele>
        <time>2019-03-15T07:25:01Z</time>
      </trkpt>
      <trkpt lat="43.52627" lon="3.50583">
        <ele>54.7</ele>
        <time>2019-03-15T07:25:04Z</time>
      </trkpt>
      <trkpt lat="43.52625" lon="3.50588">
        <ele>54.7</ele>
        <time>2019-03-15T07:25:07Z</time>
      </trkpt>
      <trkpt lat="43.52622" lon="3.50592">
        <ele>54.8</ele>
        <time>2019-03-15T07:25:09Z</time>
      </trkpt>
      <trkpt lat="43.5262" lon="3.50595">
        <ele>54.8</ele>
        <time>2019-03-15T07:25:11Z</time>
      </trkpt>
      <trkpt lat="43.5262" lon="3.506">
        <ele>54.8</ele>
        <time>2019-03-15T07:25:14Z</time>
      </trkpt>
      <trkpt lat="43.52619" lon="3.50604">
        <ele>54.8</ele>
        <time>2019-03-15T07:25:16Z</time>
      </trkpt>
      <trkpt lat="43.52617" lon="3.50607">
        <ele>54.9</ele>
        <time>2019-03-15T07:25:18Z</time>
      </trkpt>
      <trkpt lat="43.52616" lon="3.50612">
        <ele>54.9</ele>
        <time>2019-03-15T07:25:21Z</time>
      </trkpt>
      <trkpt lat="43.52615" lon="3.50616">
        <ele>54.9</ele>
        <time>2019-03-15T07:25:23Z</time>
      </trkpt>
      <trkpt lat="43.52613" lon="3.50619">
        <ele>54.9</ele>
        <time>2019-03-15T07:25:25Z</time>
      </trkpt>
      <trkpt lat="43.52611" lon="3.50622">
        <ele>54.9</ele>
        <time>2019-03-15T07:25:27Z</time>
      </trkpt>
      <trkpt lat="43.52609" lon="3.50627">
        <ele>55</ele>
        <time>2019-03-15T07:25:30Z</time>
      </trkpt>
      <trkpt lat="43.52608" lon="3.50631">
        <ele>55</ele>
        <time>2019-03-15T07:25:33Z</time>
      </trkpt>
      <trkpt lat="43.52607" lon="3.50636">
        <ele>55</ele>
        <time>2019-03-15T07:25:36Z</time>
      </trkpt>
      <trkpt lat="43.52606" lon="3.50641">
        <ele>55</ele>
        <time>2019-03-15T07:25:39Z</time>
      </trkpt>
      <trkpt lat="43.52605" lon="3.50646">
        <ele>55</ele>
        <time>2019-03-15T07:25:42Z</time>
      </trkpt>
      <trkpt lat="43.52604" lon="3.50651">
        <ele>55.1</ele>
        <time>2019-03-15T07:25:46Z</time>
      </trkpt>
      <trkpt lat="43.52603" lon="3.50655">
        <ele>55.1</ele>
        <time>2019-03-15T07:25:49Z</time>
      </trkpt>
      <trkpt lat="43.52601" lon="3.50659">
        <ele>55.1</ele>
        <time>2019-03-15T07:25:52Z</time>
      </trkpt>
      <trkpt lat="43.52599" lon="3.50664">
        <ele>55.1</ele>
        <time>2019-03-15T07:25:55Z</time>
      </trkpt>
      <trkpt lat="43.52598" lon="3.50669">
        <ele>55.1</ele>
        <time>2019-03-15T07:25:58Z</time>
      </trkpt>
      <trkpt lat="43.52596" lon="3.50672">
        <ele>55.1</ele>
        <time>2019-03-15T07:26:00Z</time>
      </trkpt>
      <trkpt lat="43.52595" lon="3.50676">
        <ele>55.2</ele>
        <time>2019-03-15T07:26:02Z</time>
      </trkpt>
      <trkpt lat="43.52593" lon="3.50681">
        <ele>55.2</ele>
        <time>2019-03-15T07:26:05Z</time>
      </trkpt>
      <trkpt lat="43.52592" lon="3.50685">
        <ele>55.2</ele>
        <time>2019-03-15T07:26:07Z</time>
      </trkpt>
      <trkpt lat="43.5259" lon="3.50688">
        <ele>55.2</ele>
        <time>2019-03-15T07:26:09Z</time>
      </trkpt>
      <trkpt lat="43.5259" lon="3.50692">
        <ele>55.2</ele>
        <time>2019-03-15T07:26:11Z</time>
      </trkpt>
      <trkpt lat="43.5259" lon="3.50696">
        <ele>55.2</ele>
        <time>2019-03-15T07:26:13Z</time>
      </trkpt>
      <trkpt lat="43.5259" lon="3.507">
        <ele>55.2</ele>
        <time>2019-03-15T07:26:15Z</time>
      </trkpt>
      <trkpt lat="43.52589" lon="3.50704">
        <ele>55.2</ele>
        <time>2019-03-15T07:26:17Z</time>
      </trkpt>
      <trkpt lat="43.52588" lon="3.50709">
        <ele>55.3</ele>
        <time>2019-03-15T07:26:20Z</time>
      </trkpt>
      <trkpt lat="43.52587" lon="3.50714">
        <ele>55.3</ele>
        <time>2019-03-15T07:26:23Z</time>
      </trkpt>
      <trkpt lat="43.52586" lon="3.50718">
        <ele>55.3</ele>
        <time>2019-03-15T07:26:25Z</time>
      </trkpt>
      <trkpt lat="43.52585" lon="3.50723">
        <ele>55.3</ele>
        <time>2019-03-15T07:26:28Z</time>
      </trkpt>
      <trkpt lat="43.52584" lon="3.50727">
        <ele>55.3</ele>
        <time>2019-03-15T07:26:30Z</time>
      </trkpt>
      <trkpt lat="43.52583" lon="3.50732">
        <ele>55.4</ele>
        <time>2019-03-15T07:26:32Z</time>
      </trkpt>
      <trkpt lat="43.52582" lon="3.50736">
        <ele>55.4</ele>
        <time>2019-03-15T07:26:34Z</time>
      </trkpt>
      <trkpt lat="43.52581" lon="3.50741">
        <ele>55.4</ele>
        <time>2019-03-15T07:26:36Z</time>
      </trkpt>
      <trkpt lat="43.5258" lon="3.50745">
        <ele>55.4</ele>
        <time>2019-03-15T07:26:38Z</time>
      </trkpt>
      <trkpt lat="43.52577" lon="3.50749">
        <ele>55.5</ele>
        <time>2019-03-15T07:26:40Z</time>
      </trkpt>
      <trkpt lat="43.52574" lon="3.50752">
        <ele>55.5</ele>
        <time>2019-03-15T07:26:42Z</time>
      </trkpt>
      <trkpt lat="43.52572" lon="3.50754">
        <ele>55.5</ele>
        <time>2019-03-15T07:26:44Z</time>
      </trkpt>
      <trkpt lat="43.52569" lon="3.50757">
        <ele>55.5</ele>
        <time>2019-03-15T07:26:47Z</time>
      </trkpt>
      <trkpt lat="43.52568" lon="3.50762">
        <ele>55.6</ele>
        <time>2019-03-15T07:26:50Z</time>
      </trkpt>
      <trkpt lat="43.52567" lon="3.50766">
        <ele>55.6</ele>
        <time>2019-03-15T07:26:52Z</time>
      </trkpt>
      <trkpt lat="43.52566" lon="3.5077">
        <ele>55.6</ele>
        <time>2019-03-15T07:26:54Z</time>
      </trkpt>
      <trkpt lat="43.52566" lon="3.50775">
        <ele>55.7</ele>
        <time>2019-03-15T07:26:57Z</time>
      </trkpt>
      <trkpt lat="43.52565" lon="3.5078">
        <ele>55.7</ele>
        <time>2019-03-15T07:27:00Z</time>
      </trkpt>
      <trkpt lat="43.52564" lon="3.50785">
        <ele>55.8</ele>
        <time>2019-03-15T07:27:03Z</time>
      </trkpt>
      <trkpt lat="43.52564" lon="3.50789">
        <ele>55.8</ele>
        <time>2019-03-15T07:27:05Z</time>
      </trkpt>
      <trkpt lat="43.52564" lon="3.50794">
        <ele>55.8</ele>
        <time>2019-03-15T07:27:08Z</time>
      </trkpt>
      <trkpt lat="43.52564" lon="3.50799">
        <ele>55.9</ele>
        <time>2019-03-15T07:27:11Z</time>
      </trkpt>
      <trkpt lat="43.52562" lon="3.50804">
        <ele>55.9</ele>
        <time>2019-03-15T07:27:14Z</time>
      </trkpt>
      <trkpt lat="43.52562" lon="3.50808">
        <ele>56</ele>
        <time>2019-03-15T07:27:16Z</time>
      </trkpt>
      <trkpt lat="43.5256" lon="3.50812">
        <ele>56</ele>
        <time>2019-03-15T07:27:19Z</time>
      </trkpt>
      <trkpt lat="43.5256" lon="3.50818">
        <ele>56.1</ele>
        <time>2019-03-15T07:27:22Z</time>
      </trkpt>
      <trkpt lat="43.5256" lon="3.50822">
        <ele>56.1</ele>
        <time>2019-03-15T07:27:24Z</time>
      </trkpt>
      <trkpt lat="43.52561" lon="3.50827">
        <ele>56.2</ele>
        <time>2019-03-15T07:27:27Z</time>
      </trkpt>
      <trkpt lat="43.52561" lon="3.50831">
        <ele>56.2</ele>
        <time>2019-03-15T07:27:30Z</time>
      </trkpt>
      <trkpt lat="43.52561" lon="3.50836">
        <ele>56.3</ele>
        <time>2019-03-15T07:27:34Z</time>
      </trkpt>
      <trkpt lat="43.5256" lon="3.50841">
        <ele>56.4</ele>
        <time>2019-03-15T07:27:37Z</time>
      </trkpt>
      <trkpt lat="43.5256" lon="3.50846">
        <ele>56.4</ele>
        <time>2019-03-15T07:27:40Z</time>
      </trkpt>
      <trkpt lat="43.5256" lon="3.50852">
        <ele>56.5</ele>
        <time>2019-03-15T07:27:43Z</time>
      </trkpt>
      <trkpt lat="43.5256" lon="3.50856">
        <ele>56.5</ele>
        <time>2019-03-15T07:27:45Z</time>
      </trkpt>
      <trkpt lat="43.5256" lon="3.50861">
        <ele>56.6</ele>
        <time>2019-03-15T07:27:48Z</time>
      </trkpt>
      <trkpt lat="43.5256" lon="3.50865">
        <ele>56.7</ele>
        <time>2019-03-15T07:27:50Z</time>
      </trkpt>
      <trkpt lat="43.52559" lon="3.50869">
        <ele>56.8</ele>
        <time>2019-03-15T07:27:52Z</time>
      </trkpt>
      <trkpt lat="43.52558" lon="3.50874">
        <ele>56.8</ele>
        <time>2019-03-15T07:27:55Z</time>
      </trkpt>
      <trkpt lat="43.52557" lon="3.50879">
        <ele>56.9</ele>
        <time>2019-03-15T07:27:58Z</time>
      </trkpt>
      <trkpt lat="43.52555" lon="3.50883">
        <ele>57</ele>
        <time>2019-03-15T07:28:00Z</time>
      </trkpt>
      <trkpt lat="43.52554" lon="3.50887">
        <ele>57.1</ele>
        <time>2019-03-15T07:28:03Z</time>
      </trkpt>
      <trkpt lat="43.52553" lon="3.50893">
        <ele>57.3</ele>
        <time>2019-03-15T07:28:06Z</time>
      </trkpt>
      <trkpt lat="43.52553" lon="3.50898">
        <ele>57.3</ele>
        <time>2019-03-15T07:28:09Z</time>
      </trkpt>
      <trkpt lat="43.52553" lon="3.50902">
        <ele>57.3</ele>
        <time>2019-03-15T07:28:11Z</time>
      </trkpt>
      <trkpt lat="43.52552" lon="3.50906">
        <ele>57.3</ele>
        <time>2019-03-15T07:28:13Z</time>
      </trkpt>
      <trkpt lat="43.52551" lon="3.5091">
        <ele>57.5</ele>
        <time>2019-03-15T07:28:15Z</time>
      </trkpt>
      <trkpt lat="43.5255" lon="3.50914">
        <ele>57.6</ele>
        <time>2019-03-15T07:28:17Z</time>
      </trkpt>
      <trkpt lat="43.52549" lon="3.50919">
        <ele>57.7</ele>
        <time>2019-03-15T07:28:20Z</time>
      </trkpt>
      <trkpt lat="43.52547" lon="3.50923">
        <ele>57.8</ele>
        <time>2019-03-15T07:28:22Z</time>
      </trkpt>
      <trkpt lat="43.52547" lon="3.50928">
        <ele>57.9</ele>
        <time>2019-03-15T07:28:25Z</time>
      </trkpt>
      <trkpt lat="43.52546" lon="3.50932">
        <ele>58.1</ele>
        <time>2019-03-15T07:28:27Z</time>
      </trkpt>
      <trkpt lat="43.52544" lon="3.50935">
        <ele>58.2</ele>
        <time>2019-03-15T07:28:29Z</time>
      </trkpt>
      <trkpt lat="43.52544" lon="3.5094">
        <ele>58.4</ele>
        <time>2019-03-15T07:28:32Z</time>
      </trkpt>
      <trkpt lat="43.52544" lon="3.50945">
        <ele>58.6</ele>
        <time>2019-03-15T07:28:35Z</time>
      </trkpt>
      <trkpt lat="43.52543" lon="3.5095">
        <ele>58.8</ele>
        <time>2019-03-15T07:28:38Z</time>
      </trkpt>
      <trkpt lat="43.52542" lon="3.50955">
        <ele>58.9</ele>
        <time>2019-03-15T07:28:41Z</time>
      </trkpt>
      <trkpt lat="43.52541" lon="3.50958">
        <ele>59</ele>
        <time>2019-03-15T07:28:43Z</time>
      </trkpt>
      <trkpt lat="43.52539" lon="3.50963">
        <ele>59</ele>
        <time>2019-03-15T07:28:46Z</time>
      </trkpt>
      <trkpt lat="43.52538" lon="3.50966">
        <ele>59.1</ele>
        <time>2019-03-15T07:28:48Z</time>
      </trkpt>
      <trkpt lat="43.52537" lon="3.50971">
        <ele>59.2</ele>
        <time>2019-03-15T07:28:51Z</time>
      </trkpt>
      <trkpt lat="43.52536" lon="3.50975">
        <ele>59.3</ele>
        <time>2019-03-15T07:28:54Z</time>
      </trkpt>
      <trkpt lat="43.52534" lon="3.50979">
        <ele>59.4</ele>
        <time>2019-03-15T07:28:56Z</time>
      </trkpt>
      <trkpt lat="43.52535" lon="3.50984">
        <ele>59.5</ele>
        <time>2019-03-15T07:28:59Z</time>
      </trkpt>
      <trkpt lat="43.52535" lon="3.50988">
        <ele>59.6</ele>
        <time>2019-03-15T07:29:02Z</time>
      </trkpt>
      <trkpt lat="43.52535" lon="3.50993">
        <ele>59.7</ele>
        <time>2019-03-15T07:29:05Z</time>
      </trkpt>
      <trkpt lat="43.52534" lon="3.50998">
        <ele>59.8</ele>
        <time>2019-03-15T07:29:08Z</time>
      </trkpt>
      <trkpt lat="43.52533" lon="3.51003">
        <ele>59.8</ele>
        <time>2019-03-15T07:29:11Z</time>
      </trkpt>
      <trkpt lat="43.52532" lon="3.51007">
        <ele>59.9</ele>
        <time>2019-03-15T07:29:13Z</time>
      </trkpt>
      <trkpt lat="43.52531" lon="3.51011">
        <ele>59.9</ele>
        <time>2019-03-15T07:29:15Z</time>
      </trkpt>
      <trkpt lat="43.5253" lon="3.51015">
        <ele>60.1</ele>
        <time>2019-03-15T07:29:17Z</time>
      </trkpt>
      <trkpt lat="43.52529" lon="3.5102">
        <ele>60.2</ele>
        <time>2019-03-15T07:29:20Z</time>
      </trkpt>
      <trkpt lat="43.52528" lon="3.51025">
        <ele>60.3</ele>
        <time>2019-03-15T07:29:23Z</time>
      </trkpt>
      <trkpt lat="43.52527" lon="3.51029">
        <ele>60.4</ele>
        <time>2019-03-15T07:29:25Z</time>
      </trkpt>
      <trkpt lat="43.52526" lon="3.51033">
        <ele>60.5</ele>
        <time>2019-03-15T07:29:27Z</time>
      </trkpt>
      <trkpt lat="43.52525" lon="3.51038">
        <ele>60.6</ele>
        <time>2019-03-15T07:29:29Z</time>
      </trkpt>
      <trkpt lat="43.52524" lon="3.51042">
        <ele>60.7</ele>
        <time>2019-03-15T07:29:31Z</time>
      </trkpt>
      <trkpt lat="43.52523" lon="3.51046">
        <ele>60.8</ele>
        <time>2019-03-15T07:29:33Z</time>
      </trkpt>
      <trkpt lat="43.52522" lon="3.51051">
        <ele>60.8</ele>
        <time>2019-03-15T07:29:36Z</time>
      </trkpt>
      <trkpt lat="43.52521" lon="3.51055">
        <ele>60.9</ele>
        <time>2019-03-15T07:29:38Z</time>
      </trkpt>
      <trkpt lat="43.5252" lon="3.51058">
        <ele>61</ele>
        <time>2019-03-15T07:29:40Z</time>
      </trkpt>
      <trkpt lat="43.52518" lon="3.51063">
        <ele>61.1</ele>
        <time>2019-03-15T07:29:43Z</time>
      </trkpt>
      <trkpt lat="43.52517" lon="3.51067">
        <ele>61.1</ele>
        <time>2019-03-15T07:29:45Z</time>
      </trkpt>
      <trkpt lat="43.52515" lon="3.5107">
        <ele>61.2</ele>
        <time>2019-03-15T07:29:47Z</time>
      </trkpt>
      <trkpt lat="43.52515" lon="3.51075">
        <ele>61.3</ele>
        <time>2019-03-15T07:29:50Z</time>
      </trkpt>
      <trkpt lat="43.52514" lon="3.5108">
        <ele>61.4</ele>
        <time>2019-03-15T07:29:53Z</time>
      </trkpt>
      <trkpt lat="43.52512" lon="3.51083">
        <ele>61.5</ele>
        <time>2019-03-15T07:29:55Z</time>
      </trkpt>
      <trkpt lat="43.52512" lon="3.51088">
        <ele>61.6</ele>
        <time>2019-03-15T07:29:58Z</time>
      </trkpt>
      <trkpt lat="43.52511" lon="3.51091">
        <ele>61.6</ele>
        <time>2019-03-15T07:30:00Z</time>
      </trkpt>
      <trkpt lat="43.52511" lon="3.51095">
        <ele>61.8</ele>
        <time>2019-03-15T07:30:02Z</time>
      </trkpt>
      <trkpt lat="43.5251" lon="3.511">
        <ele>62</ele>
        <time>2019-03-15T07:30:05Z</time>
      </trkpt>
      <trkpt lat="43.5251" lon="3.51104">
        <ele>62.1</ele>
        <time>2019-03-15T07:30:07Z</time>
      </trkpt>
      <trkpt lat="43.52509" lon="3.51109">
        <ele>62.2</ele>
        <time>2019-03-15T07:30:10Z</time>
      </trkpt>
      <trkpt lat="43.52509" lon="3.51113">
        <ele>62.4</ele>
        <time>2019-03-15T07:30:12Z</time>
      </trkpt>
      <trkpt lat="43.52508" lon="3.51117">
        <ele>62.5</ele>
        <time>2019-03-15T07:30:14Z</time>
      </trkpt>
      <trkpt lat="43.52507" lon="3.51121">
        <ele>62.7</ele>
        <time>2019-03-15T07:30:17Z</time>
      </trkpt>
      <trkpt lat="43.52507" lon="3.51126">
        <ele>62.8</ele>
        <time>2019-03-15T07:30:20Z</time>
      </trkpt>
      <trkpt lat="43.52505" lon="3.5113">
        <ele>62.9</ele>
        <time>2019-03-15T07:30:22Z</time>
      </trkpt>
      <trkpt lat="43.52504" lon="3.51135">
        <ele>63</ele>
        <time>2019-03-15T07:30:25Z</time>
      </trkpt>
      <trkpt lat="43.52503" lon="3.5114">
        <ele>63.2</ele>
        <time>2019-03-15T07:30:28Z</time>
      </trkpt>
      <trkpt lat="43.52503" lon="3.51144">
        <ele>63.4</ele>
        <time>2019-03-15T07:30:30Z</time>
      </trkpt>
      <trkpt lat="43.52503" lon="3.51149">
        <ele>63.6</ele>
        <time>2019-03-15T07:30:33Z</time>
      </trkpt>
      <trkpt lat="43.52504" lon="3.51153">
        <ele>63.7</ele>
        <time>2019-03-15T07:30:36Z</time>
      </trkpt>
      <trkpt lat="43.52503" lon="3.51157">
        <ele>63.9</ele>
        <time>2019-03-15T07:30:38Z</time>
      </trkpt>
      <trkpt lat="43.52502" lon="3.51162">
        <ele>64</ele>
        <time>2019-03-15T07:30:41Z</time>
      </trkpt>
      <trkpt lat="43.52501" lon="3.51167">
        <ele>64.2</ele>
        <time>2019-03-15T07:30:44Z</time>
      </trkpt>
      <trkpt lat="43.525" lon="3.51173">
        <ele>64.3</ele>
        <time>2019-03-15T07:30:47Z</time>
      </trkpt>
      <trkpt lat="43.52499" lon="3.51178">
        <ele>64.4</ele>
        <time>2019-03-15T07:30:50Z</time>
      </trkpt>
      <trkpt lat="43.52498" lon="3.51182">
        <ele>64.6</ele>
        <time>2019-03-15T07:30:52Z</time>
      </trkpt>
      <trkpt lat="43.52497" lon="3.51187">
        <ele>64.8</ele>
        <time>2019-03-15T07:30:55Z</time>
      </trkpt>
      <trkpt lat="43.52496" lon="3.51191">
        <ele>65</ele>
        <time>2019-03-15T07:30:57Z</time>
      </trkpt>
      <trkpt lat="43.52496" lon="3.51196">
        <ele>65.2</ele>
        <time>2019-03-15T07:30:59Z</time>
      </trkpt>
      <trkpt lat="43.52496" lon="3.512">
        <ele>65.3</ele>
        <time>2019-03-15T07:31:01Z</time>
      </trkpt>
      <trkpt lat="43.52495" lon="3.51204">
        <ele>65.4</ele>
        <time>2019-03-15T07:31:04Z</time>
      </trkpt>
      <trkpt lat="43.52493" lon="3.51209">
        <ele>65.5</ele>
        <time>2019-03-15T07:31:07Z</time>
      </trkpt>
      <trkpt lat="43.52493" lon="3.51213">
        <ele>65.6</ele>
        <time>2019-03-15T07:31:09Z</time>
      </trkpt>
      <trkpt lat="43.52492" lon="3.51217">
        <ele>65.6</ele>
        <time>2019-03-15T07:31:11Z</time>
      </trkpt>
      <trkpt lat="43.52491" lon="3.51221">
        <ele>65.7</ele>
        <time>2019-03-15T07:31:13Z</time>
      </trkpt>
      <trkpt lat="43.5249" lon="3.51224">
        <ele>65.8</ele>
        <time>2019-03-15T07:31:15Z</time>
      </trkpt>
      <trkpt lat="43.52488" lon="3.51229">
        <ele>65.8</ele>
        <time>2019-03-15T07:31:18Z</time>
      </trkpt>
      <trkpt lat="43.52488" lon="3.51234">
        <ele>65.8</ele>
        <time>2019-03-15T07:31:20Z</time>
      </trkpt>
      <trkpt lat="43.52486" lon="3.51237">
        <ele>65.9</ele>
        <time>2019-03-15T07:31:21Z</time>
      </trkpt>
      <trkpt lat="43.52484" lon="3.51241">
        <ele>66</ele>
        <time>2019-03-15T07:31:23Z</time>
      </trkpt>
      <trkpt lat="43.52482" lon="3.51245">
        <ele>66.1</ele>
        <time>2019-03-15T07:31:25Z</time>
      </trkpt>
      <trkpt lat="43.52481" lon="3.51249">
        <ele>66.1</ele>
        <time>2019-03-15T07:31:27Z</time>
      </trkpt>
      <trkpt lat="43.52479" lon="3.51253">
        <ele>66.1</ele>
        <time>2019-03-15T07:31:29Z</time>
      </trkpt>
      <trkpt lat="43.52478" lon="3.51257">
        <ele>66.1</ele>
        <time>2019-03-15T07:31:32Z</time>
      </trkpt>
      <trkpt lat="43.52477" lon="3.51262">
        <ele>66.1</ele>
        <time>2019-03-15T07:31:35Z</time>
      </trkpt>
      <trkpt lat="43.52475" lon="3.51267">
        <ele>66.2</ele>
        <time>2019-03-15T07:31:38Z</time>
      </trkpt>
      <trkpt lat="43.52474" lon="3.5127">
        <ele>66.2</ele>
        <time>2019-03-15T07:31:40Z</time>
      </trkpt>
      <trkpt lat="43.52474" lon="3.51274">
        <ele>66.2</ele>
        <time>2019-03-15T07:31:42Z</time>
      </trkpt>
      <trkpt lat="43.52473" lon="3.51279">
        <ele>66.2</ele>
        <time>2019-03-15T07:31:45Z</time>
      </trkpt>
      <trkpt lat="43.52472" lon="3.51284">
        <ele>66.3</ele>
        <time>2019-03-15T07:31:48Z</time>
      </trkpt>
      <trkpt lat="43.52472" lon="3.51288">
        <ele>66.3</ele>
        <time>2019-03-15T07:31:50Z</time>
      </trkpt>
      <trkpt lat="43.52471" lon="3.51292">
        <ele>66.4</ele>
        <time>2019-03-15T07:31:53Z</time>
      </trkpt>
      <trkpt lat="43.5247" lon="3.51298">
        <ele>66.3</ele>
        <time>2019-03-15T07:31:56Z</time>
      </trkpt>
      <trkpt lat="43.5247" lon="3.51303">
        <ele>66.3</ele>
        <time>2019-03-15T07:31:59Z</time>
      </trkpt>
      <trkpt lat="43.52469" lon="3.51308">
        <ele>66.2</ele>
        <time>2019-03-15T07:32:02Z</time>
      </trkpt>
      <trkpt lat="43.52467" lon="3.51312">
        <ele>66.2</ele>
        <time>2019-03-15T07:32:04Z</time>
      </trkpt>
      <trkpt lat="43.52467" lon="3.51316">
        <ele>66.2</ele>
        <time>2019-03-15T07:32:06Z</time>
      </trkpt>
      <trkpt lat="43.52467" lon="3.5132">
        <ele>66.2</ele>
        <time>2019-03-15T07:32:09Z</time>
      </trkpt>
      <trkpt lat="43.52469" lon="3.51325">
        <ele>66.1</ele>
        <time>2019-03-15T07:32:12Z</time>
      </trkpt>
      <trkpt lat="43.5247" lon="3.51329">
        <ele>66.2</ele>
        <time>2019-03-15T07:32:14Z</time>
      </trkpt>
      <trkpt lat="43.5247" lon="3.51334">
        <ele>66.7</ele>
        <time>2019-03-15T07:32:17Z</time>
      </trkpt>
      <trkpt lat="43.52472" lon="3.51339">
        <ele>66.8</ele>
        <time>2019-03-15T07:32:20Z</time>
      </trkpt>
      <trkpt lat="43.52472" lon="3.51344">
        <ele>66.9</ele>
        <time>2019-03-15T07:32:23Z</time>
      </trkpt>
      <trkpt lat="43.52471" lon="3.51349">
        <ele>66.9</ele>
        <time>2019-03-15T07:32:26Z</time>
      </trkpt>
      <trkpt lat="43.5247" lon="3.51353">
        <ele>66.9</ele>
        <time>2019-03-15T07:32:28Z</time>
      </trkpt>
      <trkpt lat="43.52468" lon="3.51357">
        <ele>66.8</ele>
        <time>2019-03-15T07:32:30Z</time>
      </trkpt>
      <trkpt lat="43.52467" lon="3.51361">
        <ele>66.8</ele>
        <time>2019-03-15T07:32:33Z</time>
      </trkpt>
      <trkpt lat="43.52466" lon="3.51365">
        <ele>66.8</ele>
        <time>2019-03-15T07:32:36Z</time>
      </trkpt>
      <trkpt lat="43.52467" lon="3.5137">
        <ele>66.7</ele>
        <time>2019-03-15T07:32:39Z</time>
      </trkpt>
      <trkpt lat="43.52466" lon="3.51375">
        <ele>66.7</ele>
        <time>2019-03-15T07:32:42Z</time>
      </trkpt>
      <trkpt lat="43.52465" lon="3.5138">
        <ele>66.7</ele>
        <time>2019-03-15T07:32:45Z</time>
      </trkpt>
      <trkpt lat="43.52464" lon="3.51384">
        <ele>66.7</ele>
        <time>2019-03-15T07:32:47Z</time>
      </trkpt>
      <trkpt lat="43.52462" lon="3.51389">
        <ele>66.6</ele>
        <time>2019-03-15T07:32:50Z</time>
      </trkpt>
      <trkpt lat="43.52462" lon="3.51393">
        <ele>66.6</ele>
        <time>2019-03-15T07:32:52Z</time>
      </trkpt>
      <trkpt lat="43.52462" lon="3.51398">
        <ele>66.5</ele>
        <time>2019-03-15T07:32:54Z</time>
      </trkpt>
      <trkpt lat="43.52462" lon="3.51403">
        <ele>66.4</ele>
        <time>2019-03-15T07:32:57Z</time>
      </trkpt>
      <trkpt lat="43.52462" lon="3.51407">
        <ele>66.3</ele>
        <time>2019-03-15T07:32:59Z</time>
      </trkpt>
      <trkpt lat="43.52461" lon="3.51412">
        <ele>66.3</ele>
        <time>2019-03-15T07:33:02Z</time>
      </trkpt>
      <trkpt lat="43.5246" lon="3.51416">
        <ele>66.2</ele>
        <time>2019-03-15T07:33:05Z</time>
      </trkpt>
      <trkpt lat="43.5246" lon="3.51421">
        <ele>66.2</ele>
        <time>2019-03-15T07:33:08Z</time>
      </trkpt>
      <trkpt lat="43.5246" lon="3.51426">
        <ele>66</ele>
        <time>2019-03-15T07:33:11Z</time>
      </trkpt>
      <trkpt lat="43.52459" lon="3.5143">
        <ele>66</ele>
        <time>2019-03-15T07:33:13Z</time>
      </trkpt>
      <trkpt lat="43.52459" lon="3.51435">
        <ele>65.8</ele>
        <time>2019-03-15T07:33:16Z</time>
      </trkpt>
      <trkpt lat="43.52458" lon="3.5144">
        <ele>65.7</ele>
        <time>2019-03-15T07:33:19Z</time>
      </trkpt>
      <trkpt lat="43.52457" lon="3.51444">
        <ele>65.6</ele>
        <time>2019-03-15T07:33:21Z</time>
      </trkpt>
      <trkpt lat="43.52458" lon="3.51448">
        <ele>65.6</ele>
        <time>2019-03-15T07:33:23Z</time>
      </trkpt>
      <trkpt lat="43.52457" lon="3.51452">
        <ele>65.5</ele>
        <time>2019-03-15T07:33:25Z</time>
      </trkpt>
      <trkpt lat="43.52456" lon="3.51457">
        <ele>65.4</ele>
        <time>2019-03-15T07:33:27Z</time>
      </trkpt>
      <trkpt lat="43.52455" lon="3.51461">
        <ele>65.4</ele>
        <time>2019-03-15T07:33:29Z</time>
      </trkpt>
      <trkpt lat="43.52454" lon="3.51466">
        <ele>65.3</ele>
        <time>2019-03-15T07:33:32Z</time>
      </trkpt>
      <trkpt lat="43.52454" lon="3.5147">
        <ele>65.3</ele>
        <time>2019-03-15T07:33:34Z</time>
      </trkpt>
      <trkpt lat="43.52453" lon="3.51474">
        <ele>65.2</ele>
        <time>2019-03-15T07:33:37Z</time>
      </trkpt>
      <trkpt lat="43.52452" lon="3.51478">
        <ele>65.1</ele>
        <time>2019-03-15T07:33:39Z</time>
      </trkpt>
      <trkpt lat="43.52451" lon="3.51481">
        <ele>65</ele>
        <time>2019-03-15T07:33:41Z</time>
      </trkpt>
      <trkpt lat="43.5245" lon="3.51486">
        <ele>64.8</ele>
        <time>2019-03-15T07:33:44Z</time>
      </trkpt>
      <trkpt lat="43.52449" lon="3.5149">
        <ele>64.7</ele>
        <time>2019-03-15T07:33:46Z</time>
      </trkpt>
      <trkpt lat="43.52447" lon="3.51494">
        <ele>64.5</ele>
        <time>2019-03-15T07:33:48Z</time>
      </trkpt>
      <trkpt lat="43.52447" lon="3.51499">
        <ele>64.4</ele>
        <time>2019-03-15T07:33:51Z</time>
      </trkpt>
      <trkpt lat="43.52446" lon="3.51503">
        <ele>64.3</ele>
        <time>2019-03-15T07:33:53Z</time>
      </trkpt>
      <trkpt lat="43.52445" lon="3.51507">
        <ele>64.2</ele>
        <time>2019-03-15T07:33:55Z</time>
      </trkpt>
      <trkpt lat="43.52445" lon="3.51512">
        <ele>64.2</ele>
        <time>2019-03-15T07:33:58Z</time>
      </trkpt>
      <trkpt lat="43.52444" lon="3.51516">
        <ele>64.1</ele>
        <time>2019-03-15T07:34:01Z</time>
      </trkpt>
      <trkpt lat="43.52444" lon="3.5152">
        <ele>64.1</ele>
        <time>2019-03-15T07:34:04Z</time>
      </trkpt>
      <trkpt lat="43.52444" lon="3.51524">
        <ele>64</ele>
        <time>2019-03-15T07:34:07Z</time>
      </trkpt>
      <trkpt lat="43.52443" lon="3.51529">
        <ele>63.9</ele>
        <time>2019-03-15T07:34:10Z</time>
      </trkpt>
      <trkpt lat="43.52442" lon="3.51533">
        <ele>63.8</ele>
        <time>2019-03-15T07:34:12Z</time>
      </trkpt>
      <trkpt lat="43.52441" lon="3.51538">
        <ele>63.8</ele>
        <time>2019-03-15T07:34:15Z</time>
      </trkpt>
      <trkpt lat="43.52441" lon="3.51543">
        <ele>63.7</ele>
        <time>2019-03-15T07:34:18Z</time>
      </trkpt>
      <trkpt lat="43.52439" lon="3.51547">
        <ele>63.7</ele>
        <time>2019-03-15T07:34:21Z</time>
      </trkpt>
      <trkpt lat="43.52439" lon="3.51552">
        <ele>63.6</ele>
        <time>2019-03-15T07:34:24Z</time>
      </trkpt>
      <trkpt lat="43.52438" lon="3.51557">
        <ele>63.6</ele>
        <time>2019-03-15T07:34:27Z</time>
      </trkpt>
      <trkpt lat="43.52436" lon="3.51562">
        <ele>63.6</ele>
        <time>2019-03-15T07:34:30Z</time>
      </trkpt>
      <trkpt lat="43.52435" lon="3.51566">
        <ele>63.6</ele>
        <time>2019-03-15T07:34:32Z</time>
      </trkpt>
      <trkpt lat="43.52434" lon="3.51569">
        <ele>63.6</ele>
        <time>2019-03-15T07:34:34Z</time>
      </trkpt>
      <trkpt lat="43.52432" lon="3.51573">
        <ele>63.6</ele>
        <time>2019-03-15T07:34:36Z</time>
      </trkpt>
      <trkpt lat="43.52431" lon="3.51576">
        <ele>63.6</ele>
        <time>2019-03-15T07:34:38Z</time>
      </trkpt>
      <trkpt lat="43.5243" lon="3.5158">
        <ele>63.7</ele>
        <time>2019-03-15T07:34:40Z</time>
      </trkpt>
      <trkpt lat="43.52428" lon="3.51583">
        <ele>63.7</ele>
        <time>2019-03-15T07:34:42Z</time>
      </trkpt>
      <trkpt lat="43.52427" lon="3.51587">
        <ele>63.8</ele>
        <time>2019-03-15T07:34:44Z</time>
      </trkpt>
      <trkpt lat="43.52426" lon="3.51591">
        <ele>63.9</ele>
        <time>2019-03-15T07:34:46Z</time>
      </trkpt>
      <trkpt lat="43.52425" lon="3.51594">
        <ele>64.1</ele>
        <time>2019-03-15T07:34:48Z</time>
      </trkpt>
      <trkpt lat="43.52424" lon="3.51599">
        <ele>64.4</ele>
        <time>2019-03-15T07:34:50Z</time>
      </trkpt>
      <trkpt lat="43.52424" lon="3.51603">
        <ele>64.6</ele>
        <time>2019-03-15T07:34:52Z</time>
      </trkpt>
      <trkpt lat="43.52424" lon="3.51607">
        <ele>64.7</ele>
        <time>2019-03-15T07:34:54Z</time>
      </trkpt>
      <trkpt lat="43.52423" lon="3.51611">
        <ele>64.9</ele>
        <time>2019-03-15T07:34:56Z</time>
      </trkpt>
      <trkpt lat="43.52421" lon="3.51614">
        <ele>65.1</ele>
        <time>2019-03-15T07:34:58Z</time>
      </trkpt>
      <trkpt lat="43.5242" lon="3.51619">
        <ele>65.5</ele>
        <time>2019-03-15T07:35:01Z</time>
      </trkpt>
      <trkpt lat="43.5242" lon="3.51623">
        <ele>65.8</ele>
        <time>2019-03-15T07:35:04Z</time>
      </trkpt>
      <trkpt lat="43.52419" lon="3.51628">
        <ele>66.3</ele>
        <time>2019-03-15T07:35:07Z</time>
      </trkpt>
      <trkpt lat="43.52419" lon="3.51634">
        <ele>66.7</ele>
        <time>2019-03-15T07:35:10Z</time>
      </trkpt>
      <trkpt lat="43.52419" lon="3.51638">
        <ele>67</ele>
        <time>2019-03-15T07:35:12Z</time>
      </trkpt>
      <trkpt lat="43.52418" lon="3.51642">
        <ele>67.3</ele>
        <time>2019-03-15T07:35:14Z</time>
      </trkpt>
      <trkpt lat="43.52418" lon="3.51646">
        <ele>67.6</ele>
        <time>2019-03-15T07:35:16Z</time>
      </trkpt>
      <trkpt lat="43.52417" lon="3.51651">
        <ele>68</ele>
        <time>2019-03-15T07:35:19Z</time>
      </trkpt>
      <trkpt lat="43.52416" lon="3.51655">
        <ele>68.2</ele>
        <time>2019-03-15T07:35:21Z</time>
      </trkpt>
      <trkpt lat="43.52415" lon="3.51659">
        <ele>68.5</ele>
        <time>2019-03-15T07:35:24Z</time>
      </trkpt>
      <trkpt lat="43.52413" lon="3.51663">
        <ele>68.7</ele>
        <time>2019-03-15T07:35:27Z</time>
      </trkpt>
      <trkpt lat="43.52413" lon="3.51669">
        <ele>68.9</ele>
        <time>2019-03-15T07:35:30Z</time>
      </trkpt>
      <trkpt lat="43.52411" lon="3.51672">
        <ele>69</ele>
        <time>2019-03-15T07:35:32Z</time>
      </trkpt>
      <trkpt lat="43.52409" lon="3.51677">
        <ele>69.2</ele>
        <time>2019-03-15T07:35:35Z</time>
      </trkpt>
      <trkpt lat="43.52408" lon="3.51681">
        <ele>69.4</ele>
        <time>2019-03-15T07:35:37Z</time>
      </trkpt>
      <trkpt lat="43.52408" lon="3.51685">
        <ele>69.6</ele>
        <time>2019-03-15T07:35:39Z</time>
      </trkpt>
      <trkpt lat="43.52408" lon="3.51689">
        <ele>69.8</ele>
        <time>2019-03-15T07:35:41Z</time>
      </trkpt>
      <trkpt lat="43.52406" lon="3.51694">
        <ele>70.2</ele>
        <time>2019-03-15T07:35:44Z</time>
      </trkpt>
      <trkpt lat="43.52404" lon="3.51699">
        <ele>70.6</ele>
        <time>2019-03-15T07:35:47Z</time>
      </trkpt>
      <trkpt lat="43.52403" lon="3.51704">
        <ele>70.9</ele>
        <time>2019-03-15T07:35:49Z</time>
      </trkpt>
      <trkpt lat="43.52403" lon="3.51708">
        <ele>71.1</ele>
        <time>2019-03-15T07:35:51Z</time>
      </trkpt>
      <trkpt lat="43.52403" lon="3.51712">
        <ele>71.4</ele>
        <time>2019-03-15T07:35:53Z</time>
      </trkpt>
      <trkpt lat="43.52402" lon="3.51715">
        <ele>71.7</ele>
        <time>2019-03-15T07:35:55Z</time>
      </trkpt>
      <trkpt lat="43.524" lon="3.5172">
        <ele>72.1</ele>
        <time>2019-03-15T07:35:58Z</time>
      </trkpt>
      <trkpt lat="43.524" lon="3.51724">
        <ele>72.4</ele>
        <time>2019-03-15T07:36:01Z</time>
      </trkpt>
      <trkpt lat="43.524" lon="3.51729">
        <ele>72.6</ele>
        <time>2019-03-15T07:36:04Z</time>
      </trkpt>
      <trkpt lat="43.52399" lon="3.51733">
        <ele>72.9</ele>
        <time>2019-03-15T07:36:06Z</time>
      </trkpt>
      <trkpt lat="43.52399" lon="3.51737">
        <ele>73.2</ele>
        <time>2019-03-15T07:36:08Z</time>
      </trkpt>
      <trkpt lat="43.52399" lon="3.51741">
        <ele>73.5</ele>
        <time>2019-03-15T07:36:10Z</time>
      </trkpt>
      <trkpt lat="43.52398" lon="3.51745">
        <ele>73.8</ele>
        <time>2019-03-15T07:36:12Z</time>
      </trkpt>
      <trkpt lat="43.52396" lon="3.51749">
        <ele>74.1</ele>
        <time>2019-03-15T07:36:14Z</time>
      </trkpt>
      <trkpt lat="43.52396" lon="3.51753">
        <ele>74.4</ele>
        <time>2019-03-15T07:36:16Z</time>
      </trkpt>
      <trkpt lat="43.52395" lon="3.51757">
        <ele>74.8</ele>
        <time>2019-03-15T07:36:18Z</time>
      </trkpt>
      <trkpt lat="43.52394" lon="3.51762">
        <ele>75.3</ele>
        <time>2019-03-15T07:36:21Z</time>
      </trkpt>
      <trkpt lat="43.52393" lon="3.51767">
        <ele>75.5</ele>
        <time>2019-03-15T07:36:24Z</time>
      </trkpt>
      <trkpt lat="43.52391" lon="3.51772">
        <ele>75.8</ele>
        <time>2019-03-15T07:36:27Z</time>
      </trkpt>
      <trkpt lat="43.5239" lon="3.51775">
        <ele>76</ele>
        <time>2019-03-15T07:36:29Z</time>
      </trkpt>
      <trkpt lat="43.52388" lon="3.5178">
        <ele>76.2</ele>
        <time>2019-03-15T07:36:32Z</time>
      </trkpt>
      <trkpt lat="43.52387" lon="3.51785">
        <ele>76.4</ele>
        <time>2019-03-15T07:36:35Z</time>
      </trkpt>
      <trkpt lat="43.52386" lon="3.51789">
        <ele>76.6</ele>
        <time>2019-03-15T07:36:38Z</time>
      </trkpt>
      <trkpt lat="43.52385" lon="3.51794">
        <ele>76.8</ele>
        <time>2019-03-15T07:36:41Z</time>
      </trkpt>
      <trkpt lat="43.52384" lon="3.51797">
        <ele>76.9</ele>
        <time>2019-03-15T07:36:43Z</time>
      </trkpt>
      <trkpt lat="43.52384" lon="3.51802">
        <ele>77.1</ele>
        <time>2019-03-15T07:36:46Z</time>
      </trkpt>
      <trkpt lat="43.52382" lon="3.51805">
        <ele>77.3</ele>
        <time>2019-03-15T07:36:48Z</time>
      </trkpt>
      <trkpt lat="43.52381" lon="3.5181">
        <ele>77.3</ele>
        <time>2019-03-15T07:36:51Z</time>
      </trkpt>
      <trkpt lat="43.52379" lon="3.51814">
        <ele>77.4</ele>
        <time>2019-03-15T07:36:54Z</time>
      </trkpt>
      <trkpt lat="43.52377" lon="3.51817">
        <ele>77.4</ele>
        <time>2019-03-15T07:36:56Z</time>
      </trkpt>
      <trkpt lat="43.52377" lon="3.51822">
        <ele>77.6</ele>
        <time>2019-03-15T07:36:59Z</time>
      </trkpt>
      <trkpt lat="43.52376" lon="3.51826">
        <ele>77.8</ele>
        <time>2019-03-15T07:37:01Z</time>
      </trkpt>
      <trkpt lat="43.52374" lon="3.51831">
        <ele>77.9</ele>
        <time>2019-03-15T07:37:03Z</time>
      </trkpt>
      <trkpt lat="43.52373" lon="3.51835">
        <ele>78</ele>
        <time>2019-03-15T07:37:05Z</time>
      </trkpt>
      <trkpt lat="43.52371" lon="3.51839">
        <ele>78</ele>
        <time>2019-03-15T07:37:07Z</time>
      </trkpt>
      <trkpt lat="43.5237" lon="3.51843">
        <ele>78.2</ele>
        <time>2019-03-15T07:37:09Z</time>
      </trkpt>
      <trkpt lat="43.5237" lon="3.51849">
        <ele>78.3</ele>
        <time>2019-03-15T07:37:12Z</time>
      </trkpt>
      <trkpt lat="43.52369" lon="3.51852">
        <ele>78.4</ele>
        <time>2019-03-15T07:37:14Z</time>
      </trkpt>
      <trkpt lat="43.52367" lon="3.51856">
        <ele>78.5</ele>
        <time>2019-03-15T07:37:16Z</time>
      </trkpt>
      <trkpt lat="43.52365" lon="3.51859">
        <ele>78.6</ele>
        <time>2019-03-15T07:37:19Z</time>
      </trkpt>
      <trkpt lat="43.52362" lon="3.51863">
        <ele>78.7</ele>
        <time>2019-03-15T07:37:22Z</time>
      </trkpt>
      <trkpt lat="43.52359" lon="3.51865">
        <ele>78.7</ele>
        <time>2019-03-15T07:37:25Z</time>
      </trkpt>
      <trkpt lat="43.52356" lon="3.51867">
        <ele>77.8</ele>
        <time>2019-03-15T07:37:28Z</time>
      </trkpt>
      <trkpt lat="43.52353" lon="3.5187">
        <ele>78.1</ele>
        <time>2019-03-15T07:37:30Z</time>
      </trkpt>
      <trkpt lat="43.52352" lon="3.51873">
        <ele>78.3</ele>
        <time>2019-03-15T07:37:32Z</time>
      </trkpt>
      <trkpt lat="43.5235" lon="3.51877">
        <ele>78.5</ele>
        <time>2019-03-15T07:37:35Z</time>
      </trkpt>
      <trkpt lat="43.52349" lon="3.5188">
        <ele>78.8</ele>
        <time>2019-03-15T07:37:38Z</time>
      </trkpt>
      <trkpt lat="43.52346" lon="3.51885">
        <ele>79.1</ele>
        <time>2019-03-15T07:37:41Z</time>
      </trkpt>
      <trkpt lat="43.52347" lon="3.51889">
        <ele>79.3</ele>
        <time>2019-03-15T07:37:44Z</time>
      </trkpt>
      <trkpt lat="43.52345" lon="3.51893">
        <ele>79.6</ele>
        <time>2019-03-15T07:37:47Z</time>
      </trkpt>
      <trkpt lat="43.52344" lon="3.51898">
        <ele>79.8</ele>
        <time>2019-03-15T07:37:50Z</time>
      </trkpt>
      <trkpt lat="43.52342" lon="3.51902">
        <ele>79.9</ele>
        <time>2019-03-15T07:37:52Z</time>
      </trkpt>
      <trkpt lat="43.52341" lon="3.51905">
        <ele>80</ele>
        <time>2019-03-15T07:37:54Z</time>
      </trkpt>
      <trkpt lat="43.52339" lon="3.51908">
        <ele>80</ele>
        <time>2019-03-15T07:37:56Z</time>
      </trkpt>
      <trkpt lat="43.52337" lon="3.51912">
        <ele>80</ele>
        <time>2019-03-15T07:37:58Z</time>
      </trkpt>
      <trkpt lat="43.52336" lon="3.51917">
        <ele>79.9</ele>
        <time>2019-03-15T07:38:01Z</time>
      </trkpt>
      <trkpt lat="43.52335" lon="3.51922">
        <ele>79.7</ele>
        <time>2019-03-15T07:38:04Z</time>
      </trkpt>
      <trkpt lat="43.52333" lon="3.51925">
        <ele>79.6</ele>
        <time>2019-03-15T07:38:06Z</time>
      </trkpt>
      <trkpt lat="43.52331" lon="3.51928">
        <ele>79.4</ele>
        <time>2019-03-15T07:38:08Z</time>
      </trkpt>
      <trkpt lat="43.52329" lon="3.51933">
        <ele>79.2</ele>
        <time>2019-03-15T07:38:11Z</time>
      </trkpt>
      <trkpt lat="43.52328" lon="3.51937">
        <ele>79</ele>
        <time>2019-03-15T07:38:13Z</time>
      </trkpt>
      <trkpt lat="43.52328" lon="3.51942">
        <ele>78.6</ele>
        <time>2019-03-15T07:38:16Z</time>
      </trkpt>
      <trkpt lat="43.52328" lon="3.51947">
        <ele>78.3</ele>
        <time>2019-03-15T07:38:19Z</time>
      </trkpt>
      <trkpt lat="43.52324" lon="3.51951">
        <ele>77.8</ele>
        <time>2019-03-15T07:38:21Z</time>
      </trkpt>
      <trkpt lat="43.52321" lon="3.51955">
        <ele>77.4</ele>
        <time>2019-03-15T07:38:23Z</time>
      </trkpt>
      <trkpt lat="43.52319" lon="3.51958">
        <ele>77</ele>
        <time>2019-03-15T07:38:25Z</time>
      </trkpt>
      <trkpt lat="43.52317" lon="3.51961">
        <ele>76.5</ele>
        <time>2019-03-15T07:38:27Z</time>
      </trkpt>
      <trkpt lat="43.52315" lon="3.51965">
        <ele>76.1</ele>
        <time>2019-03-15T07:38:29Z</time>
      </trkpt>
      <trkpt lat="43.52313" lon="3.51968">
        <ele>75.8</ele>
        <time>2019-03-15T07:38:31Z</time>
      </trkpt>
      <trkpt lat="43.52311" lon="3.51972">
        <ele>75.3</ele>
        <time>2019-03-15T07:38:33Z</time>
      </trkpt>
      <trkpt lat="43.52309" lon="3.51975">
        <ele>74.9</ele>
        <time>2019-03-15T07:38:35Z</time>
      </trkpt>
      <trkpt lat="43.52307" lon="3.51978">
        <ele>74.5</ele>
        <time>2019-03-15T07:38:37Z</time>
      </trkpt>
      <trkpt lat="43.52306" lon="3.51982">
        <ele>74.1</ele>
        <time>2019-03-15T07:38:39Z</time>
      </trkpt>
      <trkpt lat="43.52303" lon="3.51987">
        <ele>73.6</ele>
        <time>2019-03-15T07:38:42Z</time>
      </trkpt>
      <trkpt lat="43.52302" lon="3.51991">
        <ele>73.4</ele>
        <time>2019-03-15T07:38:44Z</time>
      </trkpt>
      <trkpt lat="43.52301" lon="3.51994">
        <ele>73.2</ele>
        <time>2019-03-15T07:38:46Z</time>
      </trkpt>
      <trkpt lat="43.523" lon="3.51998">
        <ele>73.2</ele>
        <time>2019-03-15T07:38:48Z</time>
      </trkpt>
      <trkpt lat="43.52298" lon="3.52002">
        <ele>73.2</ele>
        <time>2019-03-15T07:38:50Z</time>
      </trkpt>
      <trkpt lat="43.52297" lon="3.52005">
        <ele>73.4</ele>
        <time>2019-03-15T07:38:52Z</time>
      </trkpt>
      <trkpt lat="43.52296" lon="3.52009">
        <ele>73.5</ele>
        <time>2019-03-15T07:38:54Z</time>
      </trkpt>
      <trkpt lat="43.52294" lon="3.52012">
        <ele>73.8</ele>
        <time>2019-03-15T07:38:56Z</time>
      </trkpt>
      <trkpt lat="43.52292" lon="3.52017">
        <ele>74.2</ele>
        <time>2019-03-15T07:38:59Z</time>
      </trkpt>
      <trkpt lat="43.52291" lon="3.5202">
        <ele>74.5</ele>
        <time>2019-03-15T07:39:01Z</time>
      </trkpt>
      <trkpt lat="43.52289" lon="3.52024">
        <ele>74.8</ele>
        <time>2019-03-15T07:39:04Z</time>
      </trkpt>
      <trkpt lat="43.52288" lon="3.52028">
        <ele>75.1</ele>
        <time>2019-03-15T07:39:07Z</time>
      </trkpt>
      <trkpt lat="43.52287" lon="3.52033">
        <ele>75.4</ele>
        <time>2019-03-15T07:39:10Z</time>
      </trkpt>
      <trkpt lat="43.52285" lon="3.52037">
        <ele>75.6</ele>
        <time>2019-03-15T07:39:12Z</time>
      </trkpt>
      <trkpt lat="43.52284" lon="3.52041">
        <ele>75.8</ele>
        <time>2019-03-15T07:39:15Z</time>
      </trkpt>
      <trkpt lat="43.52283" lon="3.52046">
        <ele>76</ele>
        <time>2019-03-15T07:39:18Z</time>
      </trkpt>
      <trkpt lat="43.52281" lon="3.5205">
        <ele>76.2</ele>
        <time>2019-03-15T07:39:21Z</time>
      </trkpt>
      <trkpt lat="43.52279" lon="3.52053">
        <ele>76.3</ele>
        <time>2019-03-15T07:39:23Z</time>
      </trkpt>
      <trkpt lat="43.52277" lon="3.52056">
        <ele>76.4</ele>
        <time>2019-03-15T07:39:25Z</time>
      </trkpt>
      <trkpt lat="43.52275" lon="3.52059">
        <ele>76.4</ele>
        <time>2019-03-15T07:39:27Z</time>
      </trkpt>
      <trkpt lat="43.52273" lon="3.52063">
        <ele>76.5</ele>
        <time>2019-03-15T07:39:29Z</time>
      </trkpt>
      <trkpt lat="43.52272" lon="3.52066">
        <ele>76.5</ele>
        <time>2019-03-15T07:39:31Z</time>
      </trkpt>
      <trkpt lat="43.5227" lon="3.52071">
        <ele>76.5</ele>
        <time>2019-03-15T07:39:34Z</time>
      </trkpt>
      <trkpt lat="43.52269" lon="3.52076">
        <ele>76.5</ele>
        <time>2019-03-15T07:39:37Z</time>
      </trkpt>
      <trkpt lat="43.52267" lon="3.52081">
        <ele>76.6</ele>
        <time>2019-03-15T07:39:40Z</time>
      </trkpt>
      <trkpt lat="43.52265" lon="3.52085">
        <ele>76.6</ele>
        <time>2019-03-15T07:39:43Z</time>
      </trkpt>
      <trkpt lat="43.52263" lon="3.52089">
        <ele>76.7</ele>
        <time>2019-03-15T07:39:46Z</time>
      </trkpt>
      <trkpt lat="43.52261" lon="3.52091">
        <ele>76.7</ele>
        <time>2019-03-15T07:39:48Z</time>
      </trkpt>
      <trkpt lat="43.52258" lon="3.52095">
        <ele>76.8</ele>
        <time>2019-03-15T07:39:50Z</time>
      </trkpt>
      <trkpt lat="43.52256" lon="3.52098">
        <ele>76.9</ele>
        <time>2019-03-15T07:39:52Z</time>
      </trkpt>
      <trkpt lat="43.52254" lon="3.52103">
        <ele>76.9</ele>
        <time>2019-03-15T07:39:55Z</time>
      </trkpt>
      <trkpt lat="43.52252" lon="3.52106">
        <ele>77</ele>
        <time>2019-03-15T07:39:57Z</time>
      </trkpt>
      <trkpt lat="43.5225" lon="3.52109">
        <ele>77</ele>
        <time>2019-03-15T07:39:59Z</time>
      </trkpt>
      <trkpt lat="43.52248" lon="3.52112">
        <ele>77</ele>
        <time>2019-03-15T07:40:01Z</time>
      </trkpt>
      <trkpt lat="43.52246" lon="3.52115">
        <ele>76.9</ele>
        <time>2019-03-15T07:40:03Z</time>
      </trkpt>
      <trkpt lat="43.52244" lon="3.52118">
        <ele>76.9</ele>
        <time>2019-03-15T07:40:05Z</time>
      </trkpt>
      <trkpt lat="43.52242" lon="3.52121">
        <ele>76.9</ele>
        <time>2019-03-15T07:40:07Z</time>
      </trkpt>
      <trkpt lat="43.5224" lon="3.52125">
        <ele>76.9</ele>
        <time>2019-03-15T07:40:10Z</time>
      </trkpt>
      <trkpt lat="43.52238" lon="3.52128">
        <ele>76.9</ele>
        <time>2019-03-15T07:40:12Z</time>
      </trkpt>
      <trkpt lat="43.52236" lon="3.52133">
        <ele>77</ele>
        <time>2019-03-15T07:40:14Z</time>
      </trkpt>
      <trkpt lat="43.52233" lon="3.52137">
        <ele>77</ele>
        <time>2019-03-15T07:40:16Z</time>
      </trkpt>
      <trkpt lat="43.52232" lon="3.5214">
        <ele>77.1</ele>
        <time>2019-03-15T07:40:18Z</time>
      </trkpt>
      <trkpt lat="43.5223" lon="3.52144">
        <ele>77.2</ele>
        <time>2019-03-15T07:40:20Z</time>
      </trkpt>
      <trkpt lat="43.52228" lon="3.52147">
        <ele>77.2</ele>
        <time>2019-03-15T07:40:22Z</time>
      </trkpt>
      <trkpt lat="43.52226" lon="3.5215">
        <ele>77.2</ele>
        <time>2019-03-15T07:40:25Z</time>
      </trkpt>
      <trkpt lat="43.52225" lon="3.52155">
        <ele>77.3</ele>
        <time>2019-03-15T07:40:28Z</time>
      </trkpt>
      <trkpt lat="43.52224" lon="3.52159">
        <ele>77.4</ele>
        <time>2019-03-15T07:40:31Z</time>
      </trkpt>
      <trkpt lat="43.52223" lon="3.52163">
        <ele>77.6</ele>
        <time>2019-03-15T07:40:34Z</time>
      </trkpt>
      <trkpt lat="43.52222" lon="3.52168">
        <ele>77.6</ele>
        <time>2019-03-15T07:40:37Z</time>
      </trkpt>
      <trkpt lat="43.52221" lon="3.52172">
        <ele>77.7</ele>
        <time>2019-03-15T07:40:40Z</time>
      </trkpt>
      <trkpt lat="43.5222" lon="3.52177">
        <ele>77.8</ele>
        <time>2019-03-15T07:40:43Z</time>
      </trkpt>
      <trkpt lat="43.52218" lon="3.52182">
        <ele>77.8</ele>
        <time>2019-03-15T07:40:46Z</time>
      </trkpt>
      <trkpt lat="43.52215" lon="3.52186">
        <ele>77.8</ele>
        <time>2019-03-15T07:40:49Z</time>
      </trkpt>
      <trkpt lat="43.52213" lon="3.52189">
        <ele>77.9</ele>
        <time>2019-03-15T07:40:51Z</time>
      </trkpt>
      <trkpt lat="43.52211" lon="3.52192">
        <ele>77.9</ele>
        <time>2019-03-15T07:40:53Z</time>
      </trkpt>
      <trkpt lat="43.52209" lon="3.52195">
        <ele>78</ele>
        <time>2019-03-15T07:40:55Z</time>
      </trkpt>
      <trkpt lat="43.52207" lon="3.52198">
        <ele>78.1</ele>
        <time>2019-03-15T07:40:57Z</time>
      </trkpt>
      <trkpt lat="43.52205" lon="3.52202">
        <ele>78.2</ele>
        <time>2019-03-15T07:41:00Z</time>
      </trkpt>
      <trkpt lat="43.52203" lon="3.52205">
        <ele>78.3</ele>
        <time>2019-03-15T07:41:02Z</time>
      </trkpt>
      <trkpt lat="43.522" lon="3.52209">
        <ele>78.5</ele>
        <time>2019-03-15T07:41:05Z</time>
      </trkpt>
      <trkpt lat="43.52198" lon="3.52212">
        <ele>78.6</ele>
        <time>2019-03-15T07:41:08Z</time>
      </trkpt>
      <trkpt lat="43.52197" lon="3.52216">
        <ele>78.7</ele>
        <time>2019-03-15T07:41:11Z</time>
      </trkpt>
      <trkpt lat="43.52196" lon="3.52219">
        <ele>78.8</ele>
        <time>2019-03-15T07:41:13Z</time>
      </trkpt>
      <trkpt lat="43.52194" lon="3.52222">
        <ele>78.8</ele>
        <time>2019-03-15T07:41:15Z</time>
      </trkpt>
      <trkpt lat="43.52192" lon="3.52225">
        <ele>78.9</ele>
        <time>2019-03-15T07:41:17Z</time>
      </trkpt>
      <trkpt lat="43.5219" lon="3.52229">
        <ele>79</ele>
        <time>2019-03-15T07:41:19Z</time>
      </trkpt>
      <trkpt lat="43.52188" lon="3.52233">
        <ele>79.1</ele>
        <time>2019-03-15T07:41:22Z</time>
      </trkpt>
      <trkpt lat="43.52187" lon="3.52236">
        <ele>79.1</ele>
        <time>2019-03-15T07:41:24Z</time>
      </trkpt>
      <trkpt lat="43.52186" lon="3.52241">
        <ele>79.3</ele>
        <time>2019-03-15T07:41:27Z</time>
      </trkpt>
      <trkpt lat="43.52184" lon="3.52244">
        <ele>79.4</ele>
        <time>2019-03-15T07:41:29Z</time>
      </trkpt>
      <trkpt lat="43.52181" lon="3.52248">
        <ele>79.6</ele>
        <time>2019-03-15T07:41:31Z</time>
      </trkpt>
      <trkpt lat="43.5218" lon="3.52252">
        <ele>79.8</ele>
        <time>2019-03-15T07:41:33Z</time>
      </trkpt>
      <trkpt lat="43.52178" lon="3.52256">
        <ele>79.9</ele>
        <time>2019-03-15T07:41:36Z</time>
      </trkpt>
      <trkpt lat="43.52176" lon="3.5226">
        <ele>80.1</ele>
        <time>2019-03-15T07:41:39Z</time>
      </trkpt>
      <trkpt lat="43.52174" lon="3.52265">
        <ele>80.3</ele>
        <time>2019-03-15T07:41:42Z</time>
      </trkpt>
      <trkpt lat="43.52172" lon="3.52269">
        <ele>80.4</ele>
        <time>2019-03-15T07:41:44Z</time>
      </trkpt>
      <trkpt lat="43.52171" lon="3.52272">
        <ele>80.5</ele>
        <time>2019-03-15T07:41:46Z</time>
      </trkpt>
      <trkpt lat="43.52169" lon="3.52276">
        <ele>80.6</ele>
        <time>2019-03-15T07:41:49Z</time>
      </trkpt>
      <trkpt lat="43.52168" lon="3.52279">
        <ele>80.6</ele>
        <time>2019-03-15T07:41:51Z</time>
      </trkpt>
      <trkpt lat="43.52166" lon="3.52284">
        <ele>80.7</ele>
        <time>2019-03-15T07:41:54Z</time>
      </trkpt>
      <trkpt lat="43.52164" lon="3.52288">
        <ele>80.7</ele>
        <time>2019-03-15T07:41:58Z</time>
      </trkpt>
      <trkpt lat="43.52163" lon="3.52292">
        <ele>80.7</ele>
        <time>2019-03-15T07:42:01Z</time>
      </trkpt>
      <trkpt lat="43.52161" lon="3.52295">
        <ele>80.7</ele>
        <time>2019-03-15T07:42:04Z</time>
      </trkpt>
      <trkpt lat="43.52159" lon="3.52299">
        <ele>80.7</ele>
        <time>2019-03-15T07:42:07Z</time>
      </trkpt>
      <trkpt lat="43.52156" lon="3.52302">
        <ele>80.6</ele>
        <time>2019-03-15T07:42:10Z</time>
      </trkpt>
      <trkpt lat="43.52153" lon="3.52307">
        <ele>80.5</ele>
        <time>2019-03-15T07:42:13Z</time>
      </trkpt>
      <trkpt lat="43.5215" lon="3.52309">
        <ele>80.4</ele>
        <time>2019-03-15T07:42:15Z</time>
      </trkpt>
      <trkpt lat="43.52147" lon="3.52312">
        <ele>80.2</ele>
        <time>2019-03-15T07:42:18Z</time>
      </trkpt>
      <trkpt lat="43.52144" lon="3.52315">
        <ele>80.1</ele>
        <time>2019-03-15T07:42:21Z</time>
      </trkpt>
      <trkpt lat="43.52141" lon="3.52318">
        <ele>79.9</ele>
        <time>2019-03-15T07:42:24Z</time>
      </trkpt>
      <trkpt lat="43.52139" lon="3.52322">
        <ele>79.8</ele>
        <time>2019-03-15T07:42:28Z</time>
      </trkpt>
      <trkpt lat="43.52137" lon="3.52326">
        <ele>79.7</ele>
        <time>2019-03-15T07:42:31Z</time>
      </trkpt>
      <trkpt lat="43.52137" lon="3.52329">
        <ele>79.6</ele>
        <time>2019-03-15T07:42:34Z</time>
      </trkpt>
      <trkpt lat="43.52136" lon="3.52333">
        <ele>79.5</ele>
        <time>2019-03-15T07:42:36Z</time>
      </trkpt>
      <trkpt lat="43.52136" lon="3.52337">
        <ele>79.5</ele>
        <time>2019-03-15T07:42:38Z</time>
      </trkpt>
      <trkpt lat="43.52135" lon="3.52342">
        <ele>79.4</ele>
        <time>2019-03-15T07:42:41Z</time>
      </trkpt>
      <trkpt lat="43.52133" lon="3.52346">
        <ele>79.3</ele>
        <time>2019-03-15T07:42:43Z</time>
      </trkpt>
      <trkpt lat="43.52133" lon="3.52351">
        <ele>79.2</ele>
        <time>2019-03-15T07:42:46Z</time>
      </trkpt>
      <trkpt lat="43.52133" lon="3.52356">
        <ele>79.1</ele>
        <time>2019-03-15T07:42:49Z</time>
      </trkpt>
      <trkpt lat="43.52132" lon="3.5236">
        <ele>79.1</ele>
        <time>2019-03-15T07:42:51Z</time>
      </trkpt>
      <trkpt lat="43.52131" lon="3.52364">
        <ele>79</ele>
        <time>2019-03-15T07:42:54Z</time>
      </trkpt>
      <trkpt lat="43.5213" lon="3.52368">
        <ele>78.9</ele>
        <time>2019-03-15T07:42:56Z</time>
      </trkpt>
      <trkpt lat="43.5213" lon="3.52372">
        <ele>78.8</ele>
        <time>2019-03-15T07:42:58Z</time>
      </trkpt>
      <trkpt lat="43.52129" lon="3.52377">
        <ele>78.9</ele>
        <time>2019-03-15T07:43:01Z</time>
      </trkpt>
      <trkpt lat="43.52129" lon="3.52381">
        <ele>78.9</ele>
        <time>2019-03-15T07:43:03Z</time>
      </trkpt>
      <trkpt lat="43.52127" lon="3.52386">
        <ele>78.8</ele>
        <time>2019-03-15T07:43:06Z</time>
      </trkpt>
      <trkpt lat="43.52125" lon="3.52391">
        <ele>78.7</ele>
        <time>2019-03-15T07:43:09Z</time>
      </trkpt>
      <trkpt lat="43.52123" lon="3.52395">
        <ele>78.7</ele>
        <time>2019-03-15T07:43:12Z</time>
      </trkpt>
      <trkpt lat="43.52121" lon="3.52398">
        <ele>78.7</ele>
        <time>2019-03-15T07:43:15Z</time>
      </trkpt>
      <trkpt lat="43.52118" lon="3.52398">
        <ele>78.6</ele>
        <time>2019-03-15T07:43:18Z</time>
      </trkpt>
      <trkpt lat="43.52116" lon="3.524">
        <ele>78.6</ele>
        <time>2019-03-15T07:43:21Z</time>
      </trkpt>
      <trkpt lat="43.52113" lon="3.52402">
        <ele>78.5</ele>
        <time>2019-03-15T07:43:24Z</time>
      </trkpt>
      <trkpt lat="43.52112" lon="3.52407">
        <ele>78.6</ele>
        <time>2019-03-15T07:43:27Z</time>
      </trkpt>
      <trkpt lat="43.52111" lon="3.52412">
        <ele>78.6</ele>
        <time>2019-03-15T07:43:30Z</time>
      </trkpt>
      <trkpt lat="43.52111" lon="3.52416">
        <ele>78.6</ele>
        <time>2019-03-15T07:43:33Z</time>
      </trkpt>
      <trkpt lat="43.52109" lon="3.5242">
        <ele>78.7</ele>
        <time>2019-03-15T07:43:36Z</time>
      </trkpt>
      <trkpt lat="43.52108" lon="3.52424">
        <ele>78.9</ele>
        <time>2019-03-15T07:43:38Z</time>
      </trkpt>
      <trkpt lat="43.52107" lon="3.52429">
        <ele>79.1</ele>
        <time>2019-03-15T07:43:41Z</time>
      </trkpt>
      <trkpt lat="43.52107" lon="3.52433">
        <ele>79.2</ele>
        <time>2019-03-15T07:43:44Z</time>
      </trkpt>
      <trkpt lat="43.52105" lon="3.52438">
        <ele>79.4</ele>
        <time>2019-03-15T07:43:47Z</time>
      </trkpt>
      <trkpt lat="43.52105" lon="3.52442">
        <ele>79.5</ele>
        <time>2019-03-15T07:43:50Z</time>
      </trkpt>
      <trkpt lat="43.52105" lon="3.52447">
        <ele>79.8</ele>
        <time>2019-03-15T07:43:53Z</time>
      </trkpt>
      <trkpt lat="43.52104" lon="3.52451">
        <ele>80.1</ele>
        <time>2019-03-15T07:43:56Z</time>
      </trkpt>
      <trkpt lat="43.52104" lon="3.52456">
        <ele>80.3</ele>
        <time>2019-03-15T07:43:59Z</time>
      </trkpt>
      <trkpt lat="43.52103" lon="3.5246">
        <ele>80.5</ele>
        <time>2019-03-15T07:44:02Z</time>
      </trkpt>
      <trkpt lat="43.52102" lon="3.52465">
        <ele>80.7</ele>
        <time>2019-03-15T07:44:05Z</time>
      </trkpt>
      <trkpt lat="43.521" lon="3.52469">
        <ele>81</ele>
        <time>2019-03-15T07:44:07Z</time>
      </trkpt>
      <trkpt lat="43.52097" lon="3.52471">
        <ele>81.2</ele>
        <time>2019-03-15T07:44:09Z</time>
      </trkpt>
      <trkpt lat="43.52096" lon="3.52476">
        <ele>81.4</ele>
        <time>2019-03-15T07:44:12Z</time>
      </trkpt>
      <trkpt lat="43.52094" lon="3.52479">
        <ele>81.4</ele>
        <time>2019-03-15T07:44:15Z</time>
      </trkpt>
      <trkpt lat="43.52092" lon="3.52483">
        <ele>81.4</ele>
        <time>2019-03-15T07:44:18Z</time>
      </trkpt>
      <trkpt lat="43.52091" lon="3.52487">
        <ele>81.6</ele>
        <time>2019-03-15T07:44:20Z</time>
      </trkpt>
      <trkpt lat="43.5209" lon="3.52492">
        <ele>81.8</ele>
        <time>2019-03-15T07:44:23Z</time>
      </trkpt>
      <trkpt lat="43.52088" lon="3.52497">
        <ele>81.8</ele>
        <time>2019-03-15T07:44:25Z</time>
      </trkpt>
      <trkpt lat="43.52087" lon="3.52501">
        <ele>82</ele>
        <time>2019-03-15T07:44:27Z</time>
      </trkpt>
      <trkpt lat="43.52086" lon="3.52506">
        <ele>82</ele>
        <time>2019-03-15T07:44:30Z</time>
      </trkpt>
      <trkpt lat="43.52084" lon="3.52509">
        <ele>82.2</ele>
        <time>2019-03-15T07:44:32Z</time>
      </trkpt>
      <trkpt lat="43.52082" lon="3.52513">
        <ele>82.2</ele>
        <time>2019-03-15T07:44:34Z</time>
      </trkpt>
      <trkpt lat="43.52084" lon="3.52517">
        <ele>82.5</ele>
        <time>2019-03-15T07:44:38Z</time>
      </trkpt>
      <trkpt lat="43.52084" lon="3.52523">
        <ele>82.7</ele>
        <time>2019-03-15T07:44:41Z</time>
      </trkpt>
      <trkpt lat="43.52083" lon="3.52528">
        <ele>82.8</ele>
        <time>2019-03-15T07:44:44Z</time>
      </trkpt>
      <trkpt lat="43.52082" lon="3.52531">
        <ele>82.8</ele>
        <time>2019-03-15T07:44:46Z</time>
      </trkpt>
      <trkpt lat="43.52081" lon="3.52535">
        <ele>82.9</ele>
        <time>2019-03-15T07:44:49Z</time>
      </trkpt>
      <trkpt lat="43.5208" lon="3.52539">
        <ele>83</ele>
        <time>2019-03-15T07:44:52Z</time>
      </trkpt>
      <trkpt lat="43.5208" lon="3.52543">
        <ele>82.9</ele>
        <time>2019-03-15T07:44:54Z</time>
      </trkpt>
      <trkpt lat="43.52079" lon="3.52548">
        <ele>83</ele>
        <time>2019-03-15T07:44:57Z</time>
      </trkpt>
      <trkpt lat="43.52078" lon="3.52552">
        <ele>83.2</ele>
        <time>2019-03-15T07:44:59Z</time>
      </trkpt>
      <trkpt lat="43.52076" lon="3.52555">
        <ele>83</ele>
        <time>2019-03-15T07:45:01Z</time>
      </trkpt>
      <trkpt lat="43.52076" lon="3.52559">
        <ele>83.2</ele>
        <time>2019-03-15T07:45:03Z</time>
      </trkpt>
      <trkpt lat="43.52076" lon="3.52563">
        <ele>83.2</ele>
        <time>2019-03-15T07:45:05Z</time>
      </trkpt>
      <trkpt lat="43.52076" lon="3.52568">
        <ele>83.2</ele>
        <time>2019-03-15T07:45:07Z</time>
      </trkpt>
      <trkpt lat="43.52076" lon="3.52572">
        <ele>83.2</ele>
        <time>2019-03-15T07:45:09Z</time>
      </trkpt>
      <trkpt lat="43.52077" lon="3.52576">
        <ele>83.2</ele>
        <time>2019-03-15T07:45:11Z</time>
      </trkpt>
      <trkpt lat="43.52077" lon="3.5258">
        <ele>83.2</ele>
        <time>2019-03-15T07:45:13Z</time>
      </trkpt>
      <trkpt lat="43.52077" lon="3.52585">
        <ele>83.2</ele>
        <time>2019-03-15T07:45:16Z</time>
      </trkpt>
      <trkpt lat="43.52078" lon="3.52589">
        <ele>83.3</ele>
        <time>2019-03-15T07:45:19Z</time>
      </trkpt>
      <trkpt lat="43.52078" lon="3.52595">
        <ele>83.4</ele>
        <time>2019-03-15T07:45:22Z</time>
      </trkpt>
      <trkpt lat="43.52077" lon="3.52599">
        <ele>83.4</ele>
        <time>2019-03-15T07:45:24Z</time>
      </trkpt>
      <trkpt lat="43.52075" lon="3.52602">
        <ele>83.4</ele>
        <time>2019-03-15T07:45:26Z</time>
      </trkpt>
      <trkpt lat="43.52075" lon="3.52607">
        <ele>83.4</ele>
        <time>2019-03-15T07:45:29Z</time>
      </trkpt>
      <trkpt lat="43.52074" lon="3.5261">
        <ele>83.5</ele>
        <time>2019-03-15T07:45:32Z</time>
      </trkpt>
      <trkpt lat="43.52073" lon="3.52616">
        <ele>83.6</ele>
        <time>2019-03-15T07:45:35Z</time>
      </trkpt>
      <trkpt lat="43.52071" lon="3.5262">
        <ele>83.7</ele>
        <time>2019-03-15T07:45:38Z</time>
      </trkpt>
      <trkpt lat="43.52071" lon="3.52626">
        <ele>83.8</ele>
        <time>2019-03-15T07:45:41Z</time>
      </trkpt>
      <trkpt lat="43.52071" lon="3.52631">
        <ele>83.9</ele>
        <time>2019-03-15T07:45:43Z</time>
      </trkpt>
      <trkpt lat="43.52071" lon="3.52634">
        <ele>83.9</ele>
        <time>2019-03-15T07:45:45Z</time>
      </trkpt>
      <trkpt lat="43.52071" lon="3.52639">
        <ele>83.9</ele>
        <time>2019-03-15T07:45:47Z</time>
      </trkpt>
      <trkpt lat="43.52071" lon="3.52643">
        <ele>83.9</ele>
        <time>2019-03-15T07:45:49Z</time>
      </trkpt>
      <trkpt lat="43.52071" lon="3.52647">
        <ele>84</ele>
        <time>2019-03-15T07:45:51Z</time>
      </trkpt>
      <trkpt lat="43.52071" lon="3.52651">
        <ele>84</ele>
        <time>2019-03-15T07:45:53Z</time>
      </trkpt>
      <trkpt lat="43.52071" lon="3.52655">
        <ele>84</ele>
        <time>2019-03-15T07:45:55Z</time>
      </trkpt>
      <trkpt lat="43.52071" lon="3.52659">
        <ele>84.1</ele>
        <time>2019-03-15T07:45:57Z</time>
      </trkpt>
      <trkpt lat="43.52071" lon="3.52663">
        <ele>84.1</ele>
        <time>2019-03-15T07:46:00Z</time>
      </trkpt>
      <trkpt lat="43.52071" lon="3.52668">
        <ele>84.1</ele>
        <time>2019-03-15T07:46:03Z</time>
      </trkpt>
      <trkpt lat="43.5207" lon="3.52673">
        <ele>84.2</ele>
        <time>2019-03-15T07:46:06Z</time>
      </trkpt>
      <trkpt lat="43.52071" lon="3.52678">
        <ele>84.2</ele>
        <time>2019-03-15T07:46:09Z</time>
      </trkpt>
      <trkpt lat="43.52071" lon="3.52682">
        <ele>84.2</ele>
        <time>2019-03-15T07:46:11Z</time>
      </trkpt>
      <trkpt lat="43.52071" lon="3.52687">
        <ele>84.3</ele>
        <time>2019-03-15T07:46:14Z</time>
      </trkpt>
      <trkpt lat="43.5207" lon="3.52692">
        <ele>84.4</ele>
        <time>2019-03-15T07:46:17Z</time>
      </trkpt>
      <trkpt lat="43.5207" lon="3.52696">
        <ele>84.5</ele>
        <time>2019-03-15T07:46:20Z</time>
      </trkpt>
      <trkpt lat="43.52069" lon="3.52701">
        <ele>84.5</ele>
        <time>2019-03-15T07:46:23Z</time>
      </trkpt>
      <trkpt lat="43.52068" lon="3.52705">
        <ele>84.5</ele>
        <time>2019-03-15T07:46:26Z</time>
      </trkpt>
      <trkpt lat="43.52067" lon="3.5271">
        <ele>84.6</ele>
        <time>2019-03-15T07:46:29Z</time>
      </trkpt>
      <trkpt lat="43.52066" lon="3.52715">
        <ele>84.7</ele>
        <time>2019-03-15T07:46:32Z</time>
      </trkpt>
      <trkpt lat="43.52066" lon="3.52718">
        <ele>84.7</ele>
        <time>2019-03-15T07:46:34Z</time>
      </trkpt>
      <trkpt lat="43.52066" lon="3.52723">
        <ele>84.7</ele>
        <time>2019-03-15T07:46:37Z</time>
      </trkpt>
      <trkpt lat="43.52065" lon="3.52727">
        <ele>84.7</ele>
        <time>2019-03-15T07:46:40Z</time>
      </trkpt>
      <trkpt lat="43.52063" lon="3.52731">
        <ele>84.7</ele>
        <time>2019-03-15T07:46:43Z</time>
      </trkpt>
      <trkpt lat="43.52061" lon="3.52735">
        <ele>84.7</ele>
        <time>2019-03-15T07:46:46Z</time>
      </trkpt>
      <trkpt lat="43.52061" lon="3.52739">
        <ele>84.7</ele>
        <time>2019-03-15T07:46:48Z</time>
      </trkpt>
      <trkpt lat="43.5206" lon="3.52744">
        <ele>84.7</ele>
        <time>2019-03-15T07:46:50Z</time>
      </trkpt>
      <trkpt lat="43.5206" lon="3.52748">
        <ele>84.8</ele>
        <time>2019-03-15T07:46:53Z</time>
      </trkpt>
      <trkpt lat="43.52059" lon="3.52753">
        <ele>84.8</ele>
        <time>2019-03-15T07:46:57Z</time>
      </trkpt>
      <trkpt lat="43.52056" lon="3.52756">
        <ele>84.9</ele>
        <time>2019-03-15T07:46:59Z</time>
      </trkpt>
      <trkpt lat="43.52053" lon="3.52759">
        <ele>85.1</ele>
        <time>2019-03-15T07:47:01Z</time>
      </trkpt>
      <trkpt lat="43.5205" lon="3.52761">
        <ele>85</ele>
        <time>2019-03-15T07:47:03Z</time>
      </trkpt>
      <trkpt lat="43.52048" lon="3.52764">
        <ele>84.9</ele>
        <time>2019-03-15T07:47:06Z</time>
      </trkpt>
      <trkpt lat="43.52045" lon="3.52767">
        <ele>84.8</ele>
        <time>2019-03-15T07:47:08Z</time>
      </trkpt>
      <trkpt lat="43.52042" lon="3.52769">
        <ele>84.8</ele>
        <time>2019-03-15T07:47:11Z</time>
      </trkpt>
      <trkpt lat="43.52039" lon="3.52771">
        <ele>84.7</ele>
        <time>2019-03-15T07:47:14Z</time>
      </trkpt>
      <trkpt lat="43.52036" lon="3.52772">
        <ele>84.6</ele>
        <time>2019-03-15T07:47:16Z</time>
      </trkpt>
      <trkpt lat="43.52033" lon="3.52774">
        <ele>84.5</ele>
        <time>2019-03-15T07:47:19Z</time>
      </trkpt>
      <trkpt lat="43.52029" lon="3.52776">
        <ele>84.5</ele>
        <time>2019-03-15T07:47:22Z</time>
      </trkpt>
      <trkpt lat="43.52026" lon="3.52779">
        <ele>84.4</ele>
        <time>2019-03-15T07:47:25Z</time>
      </trkpt>
      <trkpt lat="43.52024" lon="3.52783">
        <ele>84.4</ele>
        <time>2019-03-15T07:47:28Z</time>
      </trkpt>
      <trkpt lat="43.52022" lon="3.52786">
        <ele>84.4</ele>
        <time>2019-03-15T07:47:30Z</time>
      </trkpt>
      <trkpt lat="43.52019" lon="3.52789">
        <ele>84.3</ele>
        <time>2019-03-15T07:47:33Z</time>
      </trkpt>
      <trkpt lat="43.52022" lon="3.52785">
        <ele>84.3</ele>
        <time>2019-03-15T07:47:41Z</time>
      </trkpt>
      <trkpt lat="43.52023" lon="3.52781">
        <ele>84.2</ele>
        <time>2019-03-15T07:47:43Z</time>
      </trkpt>
      <trkpt lat="43.52025" lon="3.52778">
        <ele>84.2</ele>
        <time>2019-03-15T07:47:45Z</time>
      </trkpt>
      <trkpt lat="43.52027" lon="3.52775">
        <ele>84.3</ele>
        <time>2019-03-15T07:47:48Z</time>
      </trkpt>
      <trkpt lat="43.5203" lon="3.52773">
        <ele>84.3</ele>
        <time>2019-03-15T07:47:51Z</time>
      </trkpt>
      <trkpt lat="43.52033" lon="3.52771">
        <ele>84.4</ele>
        <time>2019-03-15T07:47:53Z</time>
      </trkpt>
      <trkpt lat="43.52036" lon="3.5277">
        <ele>84.5</ele>
        <time>2019-03-15T07:47:55Z</time>
      </trkpt>
      <trkpt lat="43.52039" lon="3.52769">
        <ele>84.5</ele>
        <time>2019-03-15T07:47:57Z</time>
      </trkpt>
      <trkpt lat="43.52042" lon="3.52767">
        <ele>84.6</ele>
        <time>2019-03-15T07:47:59Z</time>
      </trkpt>
      <trkpt lat="43.52044" lon="3.52765">
        <ele>84.8</ele>
        <time>2019-03-15T07:48:01Z</time>
      </trkpt>
      <trkpt lat="43.52047" lon="3.52764">
        <ele>84.9</ele>
        <time>2019-03-15T07:48:03Z</time>
      </trkpt>
      <trkpt lat="43.52051" lon="3.52763">
        <ele>85</ele>
        <time>2019-03-15T07:48:06Z</time>
      </trkpt>
      <trkpt lat="43.52055" lon="3.52761">
        <ele>85.3</ele>
        <time>2019-03-15T07:48:09Z</time>
      </trkpt>
      <trkpt lat="43.52057" lon="3.5276">
        <ele>85.5</ele>
        <time>2019-03-15T07:48:11Z</time>
      </trkpt>
      <trkpt lat="43.52061" lon="3.52758">
        <ele>85.8</ele>
        <time>2019-03-15T07:48:14Z</time>
      </trkpt>
      <trkpt lat="43.52063" lon="3.52756">
        <ele>86</ele>
        <time>2019-03-15T07:48:17Z</time>
      </trkpt>
      <trkpt lat="43.52067" lon="3.52757">
        <ele>86.3</ele>
        <time>2019-03-15T07:48:20Z</time>
      </trkpt>
      <trkpt lat="43.52071" lon="3.52755">
        <ele>86.5</ele>
        <time>2019-03-15T07:48:23Z</time>
      </trkpt>
      <trkpt lat="43.52075" lon="3.52754">
        <ele>86.8</ele>
        <time>2019-03-15T07:48:26Z</time>
      </trkpt>
      <trkpt lat="43.52077" lon="3.52751">
        <ele>86.9</ele>
        <time>2019-03-15T07:48:29Z</time>
      </trkpt>
      <trkpt lat="43.5208" lon="3.52749">
        <ele>87.1</ele>
        <time>2019-03-15T07:48:32Z</time>
      </trkpt>
      <trkpt lat="43.52083" lon="3.52746">
        <ele>87.2</ele>
        <time>2019-03-15T07:48:35Z</time>
      </trkpt>
      <trkpt lat="43.52084" lon="3.52743">
        <ele>87.4</ele>
        <time>2019-03-15T07:48:37Z</time>
      </trkpt>
      <trkpt lat="43.52086" lon="3.5274">
        <ele>87.5</ele>
        <time>2019-03-15T07:48:39Z</time>
      </trkpt>
      <trkpt lat="43.52088" lon="3.52735">
        <ele>87.7</ele>
        <time>2019-03-15T07:48:42Z</time>
      </trkpt>
      <trkpt lat="43.5209" lon="3.52732">
        <ele>87.8</ele>
        <time>2019-03-15T07:48:44Z</time>
      </trkpt>
      <trkpt lat="43.52092" lon="3.52727">
        <ele>88</ele>
        <time>2019-03-15T07:48:47Z</time>
      </trkpt>
      <trkpt lat="43.52093" lon="3.52724">
        <ele>88.1</ele>
        <time>2019-03-15T07:48:49Z</time>
      </trkpt>
      <trkpt lat="43.52095" lon="3.52721">
        <ele>88.2</ele>
        <time>2019-03-15T07:48:51Z</time>
      </trkpt>
      <trkpt lat="43.52097" lon="3.52718">
        <ele>88.2</ele>
        <time>2019-03-15T07:48:53Z</time>
      </trkpt>
      <trkpt lat="43.52099" lon="3.52714">
        <ele>88.3</ele>
        <time>2019-03-15T07:48:55Z</time>
      </trkpt>
      <trkpt lat="43.52101" lon="3.52711">
        <ele>88.4</ele>
        <time>2019-03-15T07:48:57Z</time>
      </trkpt>
      <trkpt lat="43.52103" lon="3.52708">
        <ele>88.5</ele>
        <time>2019-03-15T07:49:00Z</time>
      </trkpt>
      <trkpt lat="43.52105" lon="3.52705">
        <ele>88.6</ele>
        <time>2019-03-15T07:49:02Z</time>
      </trkpt>
      <trkpt lat="43.52107" lon="3.52702">
        <ele>88.7</ele>
        <time>2019-03-15T07:49:04Z</time>
      </trkpt>
      <trkpt lat="43.5211" lon="3.52698">
        <ele>88.7</ele>
        <time>2019-03-15T07:49:06Z</time>
      </trkpt>
      <trkpt lat="43.52112" lon="3.52695">
        <ele>88.8</ele>
        <time>2019-03-15T07:49:08Z</time>
      </trkpt>
      <trkpt lat="43.52114" lon="3.52692">
        <ele>88.9</ele>
        <time>2019-03-15T07:49:10Z</time>
      </trkpt>
      <trkpt lat="43.52116" lon="3.52689">
        <ele>89</ele>
        <time>2019-03-15T07:49:12Z</time>
      </trkpt>
      <trkpt lat="43.52118" lon="3.52686">
        <ele>89.1</ele>
        <time>2019-03-15T07:49:14Z</time>
      </trkpt>
      <trkpt lat="43.5212" lon="3.52683">
        <ele>89.2</ele>
        <time>2019-03-15T07:49:16Z</time>
      </trkpt>
      <trkpt lat="43.52122" lon="3.52681">
        <ele>89.3</ele>
        <time>2019-03-15T07:49:18Z</time>
      </trkpt>
      <trkpt lat="43.52125" lon="3.52678">
        <ele>89.4</ele>
        <time>2019-03-15T07:49:21Z</time>
      </trkpt>
      <trkpt lat="43.52128" lon="3.52675">
        <ele>89.5</ele>
        <time>2019-03-15T07:49:25Z</time>
      </trkpt>
      <trkpt lat="43.52131" lon="3.5267">
        <ele>89.6</ele>
        <time>2019-03-15T07:49:28Z</time>
      </trkpt>
      <trkpt lat="43.52133" lon="3.52667">
        <ele>89.6</ele>
        <time>2019-03-15T07:49:30Z</time>
      </trkpt>
      <trkpt lat="43.52136" lon="3.52665">
        <ele>89.6</ele>
        <time>2019-03-15T07:49:32Z</time>
      </trkpt>
      <trkpt lat="43.52138" lon="3.52661">
        <ele>89.7</ele>
        <time>2019-03-15T07:49:35Z</time>
      </trkpt>
      <trkpt lat="43.52141" lon="3.52659">
        <ele>89.7</ele>
        <time>2019-03-15T07:49:37Z</time>
      </trkpt>
      <trkpt lat="43.52143" lon="3.52657">
        <ele>89.7</ele>
        <time>2019-03-15T07:49:39Z</time>
      </trkpt>
      <trkpt lat="43.52146" lon="3.52653">
        <ele>89.7</ele>
        <time>2019-03-15T07:49:42Z</time>
      </trkpt>
      <trkpt lat="43.52149" lon="3.52651">
        <ele>89.7</ele>
        <time>2019-03-15T07:49:44Z</time>
      </trkpt>
      <trkpt lat="43.52151" lon="3.52648">
        <ele>89.7</ele>
        <time>2019-03-15T07:49:46Z</time>
      </trkpt>
      <trkpt lat="43.52155" lon="3.52646">
        <ele>89.7</ele>
        <time>2019-03-15T07:49:49Z</time>
      </trkpt>
      <trkpt lat="43.52158" lon="3.52644">
        <ele>89.7</ele>
        <time>2019-03-15T07:49:51Z</time>
      </trkpt>
      <trkpt lat="43.52161" lon="3.52642">
        <ele>89.7</ele>
        <time>2019-03-15T07:49:53Z</time>
      </trkpt>
      <trkpt lat="43.52164" lon="3.5264">
        <ele>89.7</ele>
        <time>2019-03-15T07:49:55Z</time>
      </trkpt>
      <trkpt lat="43.52167" lon="3.52637">
        <ele>89.7</ele>
        <time>2019-03-15T07:49:58Z</time>
      </trkpt>
      <trkpt lat="43.5217" lon="3.52635">
        <ele>89.7</ele>
        <time>2019-03-15T07:50:00Z</time>
      </trkpt>
      <trkpt lat="43.52172" lon="3.52633">
        <ele>89.7</ele>
        <time>2019-03-15T07:50:02Z</time>
      </trkpt>
      <trkpt lat="43.52175" lon="3.52631">
        <ele>89.7</ele>
        <time>2019-03-15T07:50:04Z</time>
      </trkpt>
      <trkpt lat="43.52178" lon="3.52628">
        <ele>89.7</ele>
        <time>2019-03-15T07:50:07Z</time>
      </trkpt>
      <trkpt lat="43.5218" lon="3.52626">
        <ele>89.6</ele>
        <time>2019-03-15T07:50:09Z</time>
      </trkpt>
      <trkpt lat="43.52183" lon="3.52625">
        <ele>89.6</ele>
        <time>2019-03-15T07:50:11Z</time>
      </trkpt>
      <trkpt lat="43.52187" lon="3.52623">
        <ele>89.6</ele>
        <time>2019-03-15T07:50:14Z</time>
      </trkpt>
      <trkpt lat="43.5219" lon="3.52623">
        <ele>89.6</ele>
        <time>2019-03-15T07:50:16Z</time>
      </trkpt>
      <trkpt lat="43.52193" lon="3.52623">
        <ele>89.6</ele>
        <time>2019-03-15T07:50:18Z</time>
      </trkpt>
      <trkpt lat="43.52197" lon="3.52623">
        <ele>89.5</ele>
        <time>2019-03-15T07:50:20Z</time>
      </trkpt>
      <trkpt lat="43.522" lon="3.52624">
        <ele>89.5</ele>
        <time>2019-03-15T07:50:22Z</time>
      </trkpt>
      <trkpt lat="43.52203" lon="3.52625">
        <ele>89.5</ele>
        <time>2019-03-15T07:50:24Z</time>
      </trkpt>
      <trkpt lat="43.52206" lon="3.52626">
        <ele>89.4</ele>
        <time>2019-03-15T07:50:26Z</time>
      </trkpt>
      <trkpt lat="43.52208" lon="3.52626">
        <ele>89.4</ele>
        <time>2019-03-15T07:50:28Z</time>
      </trkpt>
      <trkpt lat="43.52211" lon="3.52627">
        <ele>89.3</ele>
        <time>2019-03-15T07:50:30Z</time>
      </trkpt>
      <trkpt lat="43.52214" lon="3.52628">
        <ele>89.2</ele>
        <time>2019-03-15T07:50:32Z</time>
      </trkpt>
      <trkpt lat="43.52217" lon="3.52627">
        <ele>89.2</ele>
        <time>2019-03-15T07:50:34Z</time>
      </trkpt>
      <trkpt lat="43.5222" lon="3.52626">
        <ele>89.1</ele>
        <time>2019-03-15T07:50:36Z</time>
      </trkpt>
      <trkpt lat="43.52224" lon="3.52625">
        <ele>89</ele>
        <time>2019-03-15T07:50:39Z</time>
      </trkpt>
      <trkpt lat="43.52226" lon="3.52623">
        <ele>89</ele>
        <time>2019-03-15T07:50:42Z</time>
      </trkpt>
      <trkpt lat="43.5223" lon="3.52621">
        <ele>88.9</ele>
        <time>2019-03-15T07:50:45Z</time>
      </trkpt>
      <trkpt lat="43.52232" lon="3.52618">
        <ele>88.8</ele>
        <time>2019-03-15T07:50:47Z</time>
      </trkpt>
      <trkpt lat="43.52235" lon="3.52615">
        <ele>88.7</ele>
        <time>2019-03-15T07:50:50Z</time>
      </trkpt>
      <trkpt lat="43.52239" lon="3.52613">
        <ele>88.6</ele>
        <time>2019-03-15T07:50:53Z</time>
      </trkpt>
      <trkpt lat="43.52242" lon="3.52613">
        <ele>88.6</ele>
        <time>2019-03-15T07:50:55Z</time>
      </trkpt>
      <trkpt lat="43.52245" lon="3.52611">
        <ele>88.5</ele>
        <time>2019-03-15T07:50:58Z</time>
      </trkpt>
      <trkpt lat="43.52248" lon="3.52608">
        <ele>88.3</ele>
        <time>2019-03-15T07:51:01Z</time>
      </trkpt>
      <trkpt lat="43.5225" lon="3.52607">
        <ele>88.2</ele>
        <time>2019-03-15T07:51:03Z</time>
      </trkpt>
      <trkpt lat="43.52253" lon="3.52605">
        <ele>88.1</ele>
        <time>2019-03-15T07:51:06Z</time>
      </trkpt>
      <trkpt lat="43.52257" lon="3.52602">
        <ele>88</ele>
        <time>2019-03-15T07:51:09Z</time>
      </trkpt>
      <trkpt lat="43.5226" lon="3.52601">
        <ele>87.9</ele>
        <time>2019-03-15T07:51:11Z</time>
      </trkpt>
      <trkpt lat="43.52263" lon="3.52599">
        <ele>87.7</ele>
        <time>2019-03-15T07:51:14Z</time>
      </trkpt>
      <trkpt lat="43.52265" lon="3.52596">
        <ele>87.5</ele>
        <time>2019-03-15T07:51:16Z</time>
      </trkpt>
      <trkpt lat="43.52268" lon="3.52594">
        <ele>87.3</ele>
        <time>2019-03-15T07:51:18Z</time>
      </trkpt>
      <trkpt lat="43.5227" lon="3.52592">
        <ele>87.1</ele>
        <time>2019-03-15T07:51:20Z</time>
      </trkpt>
      <trkpt lat="43.52274" lon="3.5259">
        <ele>86.9</ele>
        <time>2019-03-15T07:51:23Z</time>
      </trkpt>
      <trkpt lat="43.52277" lon="3.52587">
        <ele>86.6</ele>
        <time>2019-03-15T07:51:26Z</time>
      </trkpt>
      <trkpt lat="43.52279" lon="3.52587">
        <ele>86.4</ele>
        <time>2019-03-15T07:51:28Z</time>
      </trkpt>
      <trkpt lat="43.52282" lon="3.52585">
        <ele>86.2</ele>
        <time>2019-03-15T07:51:30Z</time>
      </trkpt>
      <trkpt lat="43.52285" lon="3.52583">
        <ele>86</ele>
        <time>2019-03-15T07:51:32Z</time>
      </trkpt>
      <trkpt lat="43.52287" lon="3.52582">
        <ele>85.9</ele>
        <time>2019-03-15T07:51:34Z</time>
      </trkpt>
      <trkpt lat="43.52291" lon="3.5258">
        <ele>85.6</ele>
        <time>2019-03-15T07:51:37Z</time>
      </trkpt>
      <trkpt lat="43.52293" lon="3.52578">
        <ele>85.4</ele>
        <time>2019-03-15T07:51:39Z</time>
      </trkpt>
      <trkpt lat="43.52295" lon="3.52575">
        <ele>85.2</ele>
        <time>2019-03-15T07:51:41Z</time>
      </trkpt>
      <trkpt lat="43.52298" lon="3.52573">
        <ele>84.9</ele>
        <time>2019-03-15T07:51:44Z</time>
      </trkpt>
      <trkpt lat="43.52301" lon="3.5257">
        <ele>84.8</ele>
        <time>2019-03-15T07:51:47Z</time>
      </trkpt>
      <trkpt lat="43.52304" lon="3.52566">
        <ele>84.7</ele>
        <time>2019-03-15T07:51:50Z</time>
      </trkpt>
      <trkpt lat="43.52306" lon="3.52562">
        <ele>84.7</ele>
        <time>2019-03-15T07:51:53Z</time>
      </trkpt>
      <trkpt lat="43.52308" lon="3.52558">
        <ele>84.7</ele>
        <time>2019-03-15T07:51:56Z</time>
      </trkpt>
      <trkpt lat="43.5231" lon="3.52555">
        <ele>84.7</ele>
        <time>2019-03-15T07:51:58Z</time>
      </trkpt>
      <trkpt lat="43.52313" lon="3.52551">
        <ele>84.7</ele>
        <time>2019-03-15T07:52:01Z</time>
      </trkpt>
      <trkpt lat="43.52315" lon="3.52548">
        <ele>84.8</ele>
        <time>2019-03-15T07:52:03Z</time>
      </trkpt>
      <trkpt lat="43.52317" lon="3.52545">
        <ele>84.9</ele>
        <time>2019-03-15T07:52:05Z</time>
      </trkpt>
      <trkpt lat="43.52319" lon="3.52542">
        <ele>85</ele>
        <time>2019-03-15T07:52:07Z</time>
      </trkpt>
      <trkpt lat="43.52321" lon="3.5254">
        <ele>85.1</ele>
        <time>2019-03-15T07:52:09Z</time>
      </trkpt>
      <trkpt lat="43.52324" lon="3.52538">
        <ele>85.2</ele>
        <time>2019-03-15T07:52:11Z</time>
      </trkpt>
      <trkpt lat="43.52327" lon="3.52535">
        <ele>85.4</ele>
        <time>2019-03-15T07:52:13Z</time>
      </trkpt>
      <trkpt lat="43.5233" lon="3.52534">
        <ele>85.7</ele>
        <time>2019-03-15T07:52:15Z</time>
      </trkpt>
      <trkpt lat="43.52332" lon="3.52532">
        <ele>85.8</ele>
        <time>2019-03-15T07:52:17Z</time>
      </trkpt>
      <trkpt lat="43.52336" lon="3.52529">
        <ele>86.2</ele>
        <time>2019-03-15T07:52:20Z</time>
      </trkpt>
      <trkpt lat="43.52338" lon="3.52527">
        <ele>86.4</ele>
        <time>2019-03-15T07:52:22Z</time>
      </trkpt>
      <trkpt lat="43.52341" lon="3.52525">
        <ele>86.6</ele>
        <time>2019-03-15T07:52:24Z</time>
      </trkpt>
      <trkpt lat="43.52344" lon="3.52523">
        <ele>86.8</ele>
        <time>2019-03-15T07:52:26Z</time>
      </trkpt>
      <trkpt lat="43.52346" lon="3.5252">
        <ele>87</ele>
        <time>2019-03-15T07:52:28Z</time>
      </trkpt>
      <trkpt lat="43.52348" lon="3.52518">
        <ele>87.1</ele>
        <time>2019-03-15T07:52:30Z</time>
      </trkpt>
      <trkpt lat="43.5235" lon="3.52515">
        <ele>87.3</ele>
        <time>2019-03-15T07:52:33Z</time>
      </trkpt>
      <trkpt lat="43.52353" lon="3.52512">
        <ele>87.4</ele>
        <time>2019-03-15T07:52:36Z</time>
      </trkpt>
      <trkpt lat="43.52356" lon="3.5251">
        <ele>87.5</ele>
        <time>2019-03-15T07:52:38Z</time>
      </trkpt>
      <trkpt lat="43.52359" lon="3.52509">
        <ele>87.6</ele>
        <time>2019-03-15T07:52:40Z</time>
      </trkpt>
      <trkpt lat="43.52362" lon="3.52508">
        <ele>87.7</ele>
        <time>2019-03-15T07:52:42Z</time>
      </trkpt>
      <trkpt lat="43.52364" lon="3.52506">
        <ele>87.8</ele>
        <time>2019-03-15T07:52:44Z</time>
      </trkpt>
      <trkpt lat="43.52367" lon="3.52503">
        <ele>88</ele>
        <time>2019-03-15T07:52:46Z</time>
      </trkpt>
      <trkpt lat="43.52371" lon="3.525">
        <ele>88.1</ele>
        <time>2019-03-15T07:52:49Z</time>
      </trkpt>
      <trkpt lat="43.52373" lon="3.52498">
        <ele>88.2</ele>
        <time>2019-03-15T07:52:51Z</time>
      </trkpt>
      <trkpt lat="43.52377" lon="3.52496">
        <ele>88.3</ele>
        <time>2019-03-15T07:52:53Z</time>
      </trkpt>
      <trkpt lat="43.5238" lon="3.52493">
        <ele>88.4</ele>
        <time>2019-03-15T07:52:56Z</time>
      </trkpt>
      <trkpt lat="43.52382" lon="3.52491">
        <ele>88.5</ele>
        <time>2019-03-15T07:52:58Z</time>
      </trkpt>
      <trkpt lat="43.52384" lon="3.52488">
        <ele>88.5</ele>
        <time>2019-03-15T07:53:00Z</time>
      </trkpt>
      <trkpt lat="43.52387" lon="3.52486">
        <ele>88.6</ele>
        <time>2019-03-15T07:53:02Z</time>
      </trkpt>
      <trkpt lat="43.5239" lon="3.52485">
        <ele>88.7</ele>
        <time>2019-03-15T07:53:04Z</time>
      </trkpt>
      <trkpt lat="43.52393" lon="3.52484">
        <ele>88.8</ele>
        <time>2019-03-15T07:53:06Z</time>
      </trkpt>
      <trkpt lat="43.52396" lon="3.52482">
        <ele>88.8</ele>
        <time>2019-03-15T07:53:08Z</time>
      </trkpt>
      <trkpt lat="43.52398" lon="3.52481">
        <ele>88.9</ele>
        <time>2019-03-15T07:53:10Z</time>
      </trkpt>
      <trkpt lat="43.52401" lon="3.52479">
        <ele>89</ele>
        <time>2019-03-15T07:53:12Z</time>
      </trkpt>
      <trkpt lat="43.52404" lon="3.52477">
        <ele>89.1</ele>
        <time>2019-03-15T07:53:15Z</time>
      </trkpt>
      <trkpt lat="43.52407" lon="3.52475">
        <ele>89.1</ele>
        <time>2019-03-15T07:53:18Z</time>
      </trkpt>
      <trkpt lat="43.5241" lon="3.52472">
        <ele>89.2</ele>
        <time>2019-03-15T07:53:20Z</time>
      </trkpt>
      <trkpt lat="43.52412" lon="3.5247">
        <ele>89.3</ele>
        <time>2019-03-15T07:53:23Z</time>
      </trkpt>
      <trkpt lat="43.52415" lon="3.52468">
        <ele>89.3</ele>
        <time>2019-03-15T07:53:26Z</time>
      </trkpt>
      <trkpt lat="43.52417" lon="3.52466">
        <ele>89.3</ele>
        <time>2019-03-15T07:53:28Z</time>
      </trkpt>
      <trkpt lat="43.5242" lon="3.52464">
        <ele>89.4</ele>
        <time>2019-03-15T07:53:30Z</time>
      </trkpt>
      <trkpt lat="43.52423" lon="3.52462">
        <ele>89.4</ele>
        <time>2019-03-15T07:53:32Z</time>
      </trkpt>
      <trkpt lat="43.52426" lon="3.52459">
        <ele>89.4</ele>
        <time>2019-03-15T07:53:34Z</time>
      </trkpt>
      <trkpt lat="43.52428" lon="3.52457">
        <ele>89.4</ele>
        <time>2019-03-15T07:53:36Z</time>
      </trkpt>
      <trkpt lat="43.52431" lon="3.52454">
        <ele>89.4</ele>
        <time>2019-03-15T07:53:39Z</time>
      </trkpt>
      <trkpt lat="43.52433" lon="3.52452">
        <ele>89.4</ele>
        <time>2019-03-15T07:53:42Z</time>
      </trkpt>
      <trkpt lat="43.52437" lon="3.5245">
        <ele>89.5</ele>
        <time>2019-03-15T07:53:47Z</time>
      </trkpt>
      <trkpt lat="43.52439" lon="3.52447">
        <ele>89.5</ele>
        <time>2019-03-15T07:53:50Z</time>
      </trkpt>
      <trkpt lat="43.52442" lon="3.52446">
        <ele>89.6</ele>
        <time>2019-03-15T07:53:52Z</time>
      </trkpt>
      <trkpt lat="43.52445" lon="3.52443">
        <ele>89.8</ele>
        <time>2019-03-15T07:53:55Z</time>
      </trkpt>
      <trkpt lat="43.52447" lon="3.52441">
        <ele>89.9</ele>
        <time>2019-03-15T07:53:57Z</time>
      </trkpt>
      <trkpt lat="43.5245" lon="3.52438">
        <ele>90</ele>
        <time>2019-03-15T07:53:59Z</time>
      </trkpt>
      <trkpt lat="43.52452" lon="3.52436">
        <ele>90.1</ele>
        <time>2019-03-15T07:54:01Z</time>
      </trkpt>
      <trkpt lat="43.52455" lon="3.52434">
        <ele>90.2</ele>
        <time>2019-03-15T07:54:03Z</time>
      </trkpt>
      <trkpt lat="43.52457" lon="3.52431">
        <ele>90.3</ele>
        <time>2019-03-15T07:54:05Z</time>
      </trkpt>
      <trkpt lat="43.5246" lon="3.52429">
        <ele>90.4</ele>
        <time>2019-03-15T07:54:08Z</time>
      </trkpt>
      <trkpt lat="43.52463" lon="3.52427">
        <ele>90.5</ele>
        <time>2019-03-15T07:54:11Z</time>
      </trkpt>
      <trkpt lat="43.52467" lon="3.52425">
        <ele>90.7</ele>
        <time>2019-03-15T07:54:14Z</time>
      </trkpt>
      <trkpt lat="43.5247" lon="3.52424">
        <ele>90.8</ele>
        <time>2019-03-15T07:54:16Z</time>
      </trkpt>
      <trkpt lat="43.52472" lon="3.52421">
        <ele>90.9</ele>
        <time>2019-03-15T07:54:18Z</time>
      </trkpt>
      <trkpt lat="43.52475" lon="3.52419">
        <ele>91</ele>
        <time>2019-03-15T07:54:20Z</time>
      </trkpt>
      <trkpt lat="43.52478" lon="3.52417">
        <ele>91.1</ele>
        <time>2019-03-15T07:54:22Z</time>
      </trkpt>
      <trkpt lat="43.5248" lon="3.52415">
        <ele>91.2</ele>
        <time>2019-03-15T07:54:24Z</time>
      </trkpt>
      <trkpt lat="43.52483" lon="3.52412">
        <ele>91.3</ele>
        <time>2019-03-15T07:54:27Z</time>
      </trkpt>
      <trkpt lat="43.52486" lon="3.52411">
        <ele>91.4</ele>
        <time>2019-03-15T07:54:29Z</time>
      </trkpt>
      <trkpt lat="43.52489" lon="3.5241">
        <ele>91.4</ele>
        <time>2019-03-15T07:54:31Z</time>
      </trkpt>
      <trkpt lat="43.52492" lon="3.52408">
        <ele>91.5</ele>
        <time>2019-03-15T07:54:33Z</time>
      </trkpt>
      <trkpt lat="43.52494" lon="3.52404">
        <ele>91.6</ele>
        <time>2019-03-15T07:54:35Z</time>
      </trkpt>
      <trkpt lat="43.52495" lon="3.52401">
        <ele>91.6</ele>
        <time>2019-03-15T07:54:37Z</time>
      </trkpt>
      <trkpt lat="43.52497" lon="3.52398">
        <ele>91.7</ele>
        <time>2019-03-15T07:54:39Z</time>
      </trkpt>
      <trkpt lat="43.52499" lon="3.52394">
        <ele>91.7</ele>
        <time>2019-03-15T07:54:42Z</time>
      </trkpt>
      <trkpt lat="43.525" lon="3.52389">
        <ele>91.8</ele>
        <time>2019-03-15T07:54:45Z</time>
      </trkpt>
      <trkpt lat="43.52502" lon="3.52385">
        <ele>91.8</ele>
        <time>2019-03-15T07:54:48Z</time>
      </trkpt>
      <trkpt lat="43.52503" lon="3.5238">
        <ele>91.9</ele>
        <time>2019-03-15T07:54:51Z</time>
      </trkpt>
      <trkpt lat="43.52504" lon="3.52376">
        <ele>91.9</ele>
        <time>2019-03-15T07:54:53Z</time>
      </trkpt>
      <trkpt lat="43.52506" lon="3.52372">
        <ele>91.9</ele>
        <time>2019-03-15T07:54:55Z</time>
      </trkpt>
      <trkpt lat="43.52507" lon="3.52368">
        <ele>92</ele>
        <time>2019-03-15T07:54:58Z</time>
      </trkpt>
      <trkpt lat="43.52509" lon="3.52363">
        <ele>92</ele>
        <time>2019-03-15T07:55:01Z</time>
      </trkpt>
      <trkpt lat="43.5251" lon="3.52359">
        <ele>92.1</ele>
        <time>2019-03-15T07:55:03Z</time>
      </trkpt>
      <trkpt lat="43.52511" lon="3.52355">
        <ele>92.1</ele>
        <time>2019-03-15T07:55:05Z</time>
      </trkpt>
      <trkpt lat="43.52513" lon="3.5235">
        <ele>92.1</ele>
        <time>2019-03-15T07:55:08Z</time>
      </trkpt>
      <trkpt lat="43.52514" lon="3.52346">
        <ele>92.1</ele>
        <time>2019-03-15T07:55:10Z</time>
      </trkpt>
      <trkpt lat="43.52515" lon="3.52343">
        <ele>92.1</ele>
        <time>2019-03-15T07:55:12Z</time>
      </trkpt>
      <trkpt lat="43.52517" lon="3.52338">
        <ele>92.1</ele>
        <time>2019-03-15T07:55:15Z</time>
      </trkpt>
      <trkpt lat="43.52519" lon="3.52334">
        <ele>92.2</ele>
        <time>2019-03-15T07:55:19Z</time>
      </trkpt>
      <trkpt lat="43.5252" lon="3.5233">
        <ele>92.2</ele>
        <time>2019-03-15T07:55:22Z</time>
      </trkpt>
      <trkpt lat="43.52522" lon="3.52327">
        <ele>92.2</ele>
        <time>2019-03-15T07:55:24Z</time>
      </trkpt>
      <trkpt lat="43.52523" lon="3.52323">
        <ele>92.2</ele>
        <time>2019-03-15T07:55:26Z</time>
      </trkpt>
      <trkpt lat="43.52525" lon="3.52319">
        <ele>92.2</ele>
        <time>2019-03-15T07:55:28Z</time>
      </trkpt>
      <trkpt lat="43.52527" lon="3.52316">
        <ele>92.2</ele>
        <time>2019-03-15T07:55:30Z</time>
      </trkpt>
      <trkpt lat="43.52528" lon="3.52311">
        <ele>92.2</ele>
        <time>2019-03-15T07:55:33Z</time>
      </trkpt>
      <trkpt lat="43.52529" lon="3.52307">
        <ele>92.3</ele>
        <time>2019-03-15T07:55:35Z</time>
      </trkpt>
      <trkpt lat="43.52531" lon="3.52303">
        <ele>92.3</ele>
        <time>2019-03-15T07:55:38Z</time>
      </trkpt>
      <trkpt lat="43.52533" lon="3.52299">
        <ele>92.3</ele>
        <time>2019-03-15T07:55:41Z</time>
      </trkpt>
      <trkpt lat="43.52534" lon="3.52295">
        <ele>92.4</ele>
        <time>2019-03-15T07:55:43Z</time>
      </trkpt>
      <trkpt lat="43.52536" lon="3.5229">
        <ele>92.4</ele>
        <time>2019-03-15T07:55:46Z</time>
      </trkpt>
      <trkpt lat="43.52537" lon="3.52286">
        <ele>92.5</ele>
        <time>2019-03-15T07:55:48Z</time>
      </trkpt>
      <trkpt lat="43.52538" lon="3.52282">
        <ele>92.5</ele>
        <time>2019-03-15T07:55:51Z</time>
      </trkpt>
      <trkpt lat="43.5254" lon="3.52277">
        <ele>92.6</ele>
        <time>2019-03-15T07:55:54Z</time>
      </trkpt>
      <trkpt lat="43.52541" lon="3.52273">
        <ele>92.6</ele>
        <time>2019-03-15T07:55:56Z</time>
      </trkpt>
      <trkpt lat="43.52542" lon="3.52268">
        <ele>92.7</ele>
        <time>2019-03-15T07:55:59Z</time>
      </trkpt>
      <trkpt lat="43.52543" lon="3.52264">
        <ele>92.7</ele>
        <time>2019-03-15T07:56:01Z</time>
      </trkpt>
      <trkpt lat="43.52544" lon="3.5226">
        <ele>92.7</ele>
        <time>2019-03-15T07:56:03Z</time>
      </trkpt>
      <trkpt lat="43.52544" lon="3.52257">
        <ele>92.8</ele>
        <time>2019-03-15T07:56:05Z</time>
      </trkpt>
      <trkpt lat="43.52545" lon="3.52253">
        <ele>92.8</ele>
        <time>2019-03-15T07:56:07Z</time>
      </trkpt>
      <trkpt lat="43.52547" lon="3.5225">
        <ele>92.8</ele>
        <time>2019-03-15T07:56:09Z</time>
      </trkpt>
      <trkpt lat="43.52548" lon="3.52246">
        <ele>92.9</ele>
        <time>2019-03-15T07:56:11Z</time>
      </trkpt>
      <trkpt lat="43.5255" lon="3.52242">
        <ele>92.9</ele>
        <time>2019-03-15T07:56:14Z</time>
      </trkpt>
      <trkpt lat="43.52551" lon="3.52237">
        <ele>92.9</ele>
        <time>2019-03-15T07:56:17Z</time>
      </trkpt>
      <trkpt lat="43.52552" lon="3.52233">
        <ele>92.9</ele>
        <time>2019-03-15T07:56:20Z</time>
      </trkpt>
      <trkpt lat="43.52553" lon="3.52229">
        <ele>92.8</ele>
        <time>2019-03-15T07:56:23Z</time>
      </trkpt>
      <trkpt lat="43.52555" lon="3.52225">
        <ele>92.6</ele>
        <time>2019-03-15T07:56:27Z</time>
      </trkpt>
      <trkpt lat="43.52557" lon="3.52222">
        <ele>92.6</ele>
        <time>2019-03-15T07:56:29Z</time>
      </trkpt>
      <trkpt lat="43.52559" lon="3.52218">
        <ele>92.5</ele>
        <time>2019-03-15T07:56:32Z</time>
      </trkpt>
      <trkpt lat="43.5256" lon="3.52214">
        <ele>92.4</ele>
        <time>2019-03-15T07:56:34Z</time>
      </trkpt>
      <trkpt lat="43.52561" lon="3.5221">
        <ele>92.3</ele>
        <time>2019-03-15T07:56:36Z</time>
      </trkpt>
      <trkpt lat="43.52562" lon="3.52206">
        <ele>92.1</ele>
        <time>2019-03-15T07:56:38Z</time>
      </trkpt>
      <trkpt lat="43.52564" lon="3.52202">
        <ele>92</ele>
        <time>2019-03-15T07:56:40Z</time>
      </trkpt>
      <trkpt lat="43.52566" lon="3.52199">
        <ele>91.9</ele>
        <time>2019-03-15T07:56:42Z</time>
      </trkpt>
      <trkpt lat="43.52568" lon="3.52196">
        <ele>91.8</ele>
        <time>2019-03-15T07:56:44Z</time>
      </trkpt>
      <trkpt lat="43.5257" lon="3.52193">
        <ele>91.6</ele>
        <time>2019-03-15T07:56:46Z</time>
      </trkpt>
      <trkpt lat="43.52572" lon="3.5219">
        <ele>91.5</ele>
        <time>2019-03-15T07:56:48Z</time>
      </trkpt>
      <trkpt lat="43.52573" lon="3.52186">
        <ele>91.4</ele>
        <time>2019-03-15T07:56:50Z</time>
      </trkpt>
      <trkpt lat="43.52575" lon="3.52183">
        <ele>91.3</ele>
        <time>2019-03-15T07:56:52Z</time>
      </trkpt>
      <trkpt lat="43.52576" lon="3.52178">
        <ele>91.1</ele>
        <time>2019-03-15T07:56:55Z</time>
      </trkpt>
      <trkpt lat="43.52578" lon="3.52174">
        <ele>91</ele>
        <time>2019-03-15T07:56:57Z</time>
      </trkpt>
      <trkpt lat="43.52579" lon="3.5217">
        <ele>90.9</ele>
        <time>2019-03-15T07:56:59Z</time>
      </trkpt>
      <trkpt lat="43.52581" lon="3.52166">
        <ele>90.8</ele>
        <time>2019-03-15T07:57:01Z</time>
      </trkpt>
      <trkpt lat="43.52582" lon="3.52163">
        <ele>90.7</ele>
        <time>2019-03-15T07:57:03Z</time>
      </trkpt>
      <trkpt lat="43.52583" lon="3.52159">
        <ele>90.5</ele>
        <time>2019-03-15T07:57:05Z</time>
      </trkpt>
      <trkpt lat="43.52585" lon="3.52154">
        <ele>90.3</ele>
        <time>2019-03-15T07:57:07Z</time>
      </trkpt>
      <trkpt lat="43.52587" lon="3.5215">
        <ele>90.2</ele>
        <time>2019-03-15T07:57:09Z</time>
      </trkpt>
      <trkpt lat="43.52588" lon="3.52147">
        <ele>90.1</ele>
        <time>2019-03-15T07:57:11Z</time>
      </trkpt>
      <trkpt lat="43.52589" lon="3.52144">
        <ele>89.9</ele>
        <time>2019-03-15T07:57:13Z</time>
      </trkpt>
      <trkpt lat="43.52592" lon="3.5214">
        <ele>89.8</ele>
        <time>2019-03-15T07:57:16Z</time>
      </trkpt>
      <trkpt lat="43.52593" lon="3.52135">
        <ele>89.6</ele>
        <time>2019-03-15T07:57:19Z</time>
      </trkpt>
      <trkpt lat="43.52594" lon="3.52131">
        <ele>89.5</ele>
        <time>2019-03-15T07:57:21Z</time>
      </trkpt>
      <trkpt lat="43.52594" lon="3.52126">
        <ele>89.3</ele>
        <time>2019-03-15T07:57:24Z</time>
      </trkpt>
      <trkpt lat="43.52595" lon="3.52122">
        <ele>89.2</ele>
        <time>2019-03-15T07:57:27Z</time>
      </trkpt>
      <trkpt lat="43.52597" lon="3.52118">
        <ele>88.9</ele>
        <time>2019-03-15T07:57:30Z</time>
      </trkpt>
      <trkpt lat="43.526" lon="3.52115">
        <ele>88.7</ele>
        <time>2019-03-15T07:57:32Z</time>
      </trkpt>
      <trkpt lat="43.52601" lon="3.52112">
        <ele>88.5</ele>
        <time>2019-03-15T07:57:34Z</time>
      </trkpt>
      <trkpt lat="43.52604" lon="3.52108">
        <ele>88.3</ele>
        <time>2019-03-15T07:57:37Z</time>
      </trkpt>
      <trkpt lat="43.52606" lon="3.52105">
        <ele>88.2</ele>
        <time>2019-03-15T07:57:39Z</time>
      </trkpt>
      <trkpt lat="43.52608" lon="3.52102">
        <ele>88</ele>
        <time>2019-03-15T07:57:41Z</time>
      </trkpt>
      <trkpt lat="43.5261" lon="3.52097">
        <ele>87.8</ele>
        <time>2019-03-15T07:57:44Z</time>
      </trkpt>
      <trkpt lat="43.52612" lon="3.52093">
        <ele>87.5</ele>
        <time>2019-03-15T07:57:47Z</time>
      </trkpt>
      <trkpt lat="43.52613" lon="3.52088">
        <ele>87.4</ele>
        <time>2019-03-15T07:57:50Z</time>
      </trkpt>
      <trkpt lat="43.52616" lon="3.52084">
        <ele>87.2</ele>
        <time>2019-03-15T07:57:53Z</time>
      </trkpt>
      <trkpt lat="43.52619" lon="3.52081">
        <ele>87</ele>
        <time>2019-03-15T07:57:56Z</time>
      </trkpt>
      <trkpt lat="43.52622" lon="3.52077">
        <ele>86.9</ele>
        <time>2019-03-15T07:57:59Z</time>
      </trkpt>
      <trkpt lat="43.52624" lon="3.52075">
        <ele>86.8</ele>
        <time>2019-03-15T07:58:01Z</time>
      </trkpt>
      <trkpt lat="43.52626" lon="3.52072">
        <ele>86.8</ele>
        <time>2019-03-15T07:58:03Z</time>
      </trkpt>
      <trkpt lat="43.52629" lon="3.52067">
        <ele>86.7</ele>
        <time>2019-03-15T07:58:06Z</time>
      </trkpt>
      <trkpt lat="43.5263" lon="3.52063">
        <ele>86.6</ele>
        <time>2019-03-15T07:58:08Z</time>
      </trkpt>
      <trkpt lat="43.52632" lon="3.52058">
        <ele>86.5</ele>
        <time>2019-03-15T07:58:10Z</time>
      </trkpt>
      <trkpt lat="43.52634" lon="3.52053">
        <ele>86.5</ele>
        <time>2019-03-15T07:58:12Z</time>
      </trkpt>
      <trkpt lat="43.52637" lon="3.52048">
        <ele>86.4</ele>
        <time>2019-03-15T07:58:14Z</time>
      </trkpt>
      <trkpt lat="43.5264" lon="3.52043">
        <ele>86.4</ele>
        <time>2019-03-15T07:58:16Z</time>
      </trkpt>
      <trkpt lat="43.52643" lon="3.52039">
        <ele>86.4</ele>
        <time>2019-03-15T07:58:18Z</time>
      </trkpt>
      <trkpt lat="43.52645" lon="3.52036">
        <ele>86.4</ele>
        <time>2019-03-15T07:58:20Z</time>
      </trkpt>
      <trkpt lat="43.52647" lon="3.52033">
        <ele>86.4</ele>
        <time>2019-03-15T07:58:22Z</time>
      </trkpt>
      <trkpt lat="43.52648" lon="3.52029">
        <ele>86.4</ele>
        <time>2019-03-15T07:58:24Z</time>
      </trkpt>
      <trkpt lat="43.5265" lon="3.52025">
        <ele>86.4</ele>
        <time>2019-03-15T07:58:26Z</time>
      </trkpt>
      <trkpt lat="43.52652" lon="3.52021">
        <ele>86.4</ele>
        <time>2019-03-15T07:58:28Z</time>
      </trkpt>
      <trkpt lat="43.52654" lon="3.52017">
        <ele>86.4</ele>
        <time>2019-03-15T07:58:30Z</time>
      </trkpt>
      <trkpt lat="43.52655" lon="3.52012">
        <ele>86.4</ele>
        <time>2019-03-15T07:58:33Z</time>
      </trkpt>
      <trkpt lat="43.52656" lon="3.52008">
        <ele>86.4</ele>
        <time>2019-03-15T07:58:36Z</time>
      </trkpt>
      <trkpt lat="43.52658" lon="3.52006">
        <ele>86.3</ele>
        <time>2019-03-15T07:58:38Z</time>
      </trkpt>
      <trkpt lat="43.52661" lon="3.52002">
        <ele>86.3</ele>
        <time>2019-03-15T07:58:41Z</time>
      </trkpt>
      <trkpt lat="43.52664" lon="3.52001">
        <ele>86.2</ele>
        <time>2019-03-15T07:58:43Z</time>
      </trkpt>
      <trkpt lat="43.52666" lon="3.51998">
        <ele>86.2</ele>
        <time>2019-03-15T07:58:45Z</time>
      </trkpt>
      <trkpt lat="43.52669" lon="3.51995">
        <ele>86.1</ele>
        <time>2019-03-15T07:58:48Z</time>
      </trkpt>
      <trkpt lat="43.52671" lon="3.51992">
        <ele>86.1</ele>
        <time>2019-03-15T07:58:50Z</time>
      </trkpt>
      <trkpt lat="43.52673" lon="3.51988">
        <ele>86</ele>
        <time>2019-03-15T07:58:53Z</time>
      </trkpt>
      <trkpt lat="43.52675" lon="3.51984">
        <ele>85.9</ele>
        <time>2019-03-15T07:58:56Z</time>
      </trkpt>
      <trkpt lat="43.52677" lon="3.51981">
        <ele>85.9</ele>
        <time>2019-03-15T07:58:58Z</time>
      </trkpt>
      <trkpt lat="43.52679" lon="3.51976">
        <ele>85.8</ele>
        <time>2019-03-15T07:59:01Z</time>
      </trkpt>
      <trkpt lat="43.5268" lon="3.51973">
        <ele>85.8</ele>
        <time>2019-03-15T07:59:03Z</time>
      </trkpt>
      <trkpt lat="43.52681" lon="3.51969">
        <ele>85.7</ele>
        <time>2019-03-15T07:59:05Z</time>
      </trkpt>
      <trkpt lat="43.52682" lon="3.51965">
        <ele>85.7</ele>
        <time>2019-03-15T07:59:07Z</time>
      </trkpt>
      <trkpt lat="43.52684" lon="3.51962">
        <ele>85.6</ele>
        <time>2019-03-15T07:59:09Z</time>
      </trkpt>
      <trkpt lat="43.52685" lon="3.51958">
        <ele>85.5</ele>
        <time>2019-03-15T07:59:11Z</time>
      </trkpt>
      <trkpt lat="43.52685" lon="3.51955">
        <ele>85.4</ele>
        <time>2019-03-15T07:59:13Z</time>
      </trkpt>
      <trkpt lat="43.52684" lon="3.5195">
        <ele>85.3</ele>
        <time>2019-03-15T07:59:15Z</time>
      </trkpt>
      <trkpt lat="43.52685" lon="3.51945">
        <ele>85.2</ele>
        <time>2019-03-15T07:59:18Z</time>
      </trkpt>
      <trkpt lat="43.52686" lon="3.51941">
        <ele>85.1</ele>
        <time>2019-03-15T07:59:20Z</time>
      </trkpt>
      <trkpt lat="43.52687" lon="3.51937">
        <ele>85.1</ele>
        <time>2019-03-15T07:59:22Z</time>
      </trkpt>
      <trkpt lat="43.52688" lon="3.51933">
        <ele>85</ele>
        <time>2019-03-15T07:59:24Z</time>
      </trkpt>
      <trkpt lat="43.52691" lon="3.51929">
        <ele>84.9</ele>
        <time>2019-03-15T07:59:26Z</time>
      </trkpt>
      <trkpt lat="43.5269" lon="3.51924">
        <ele>84.7</ele>
        <time>2019-03-15T07:59:28Z</time>
      </trkpt>
      <trkpt lat="43.52692" lon="3.51925">
        <ele>84.6</ele>
        <time>2019-03-15T07:59:34Z</time>
      </trkpt>
      <trkpt lat="43.52696" lon="3.51923">
        <ele>84.6</ele>
        <time>2019-03-15T07:59:37Z</time>
      </trkpt>
      <trkpt lat="43.52698" lon="3.51916">
        <ele>84.6</ele>
        <time>2019-03-15T07:59:39Z</time>
      </trkpt>
      <trkpt lat="43.52701" lon="3.51912">
        <ele>84.6</ele>
        <time>2019-03-15T07:59:41Z</time>
      </trkpt>
      <trkpt lat="43.52704" lon="3.51912">
        <ele>84.3</ele>
        <time>2019-03-15T07:59:42Z</time>
      </trkpt>
      <trkpt lat="43.52707" lon="3.51912">
        <ele>84.3</ele>
        <time>2019-03-15T07:59:43Z</time>
      </trkpt>
      <trkpt lat="43.52712" lon="3.51913">
        <ele>84.3</ele>
        <time>2019-03-15T07:59:45Z</time>
      </trkpt>
      <trkpt lat="43.52715" lon="3.51912">
        <ele>84.3</ele>
        <time>2019-03-15T07:59:47Z</time>
      </trkpt>
      <trkpt lat="43.5272" lon="3.51914">
        <ele>84.2</ele>
        <time>2019-03-15T07:59:48Z</time>
      </trkpt>
      <trkpt lat="43.52724" lon="3.51915">
        <ele>84.1</ele>
        <time>2019-03-15T07:59:49Z</time>
      </trkpt>
      <trkpt lat="43.52728" lon="3.51917">
        <ele>84</ele>
        <time>2019-03-15T07:59:50Z</time>
      </trkpt>
      <trkpt lat="43.52731" lon="3.51917">
        <ele>84</ele>
        <time>2019-03-15T07:59:51Z</time>
      </trkpt>
      <trkpt lat="43.52735" lon="3.51915">
        <ele>83.9</ele>
        <time>2019-03-15T07:59:53Z</time>
      </trkpt>
      <trkpt lat="43.52739" lon="3.51911">
        <ele>83.8</ele>
        <time>2019-03-15T07:59:55Z</time>
      </trkpt>
      <trkpt lat="43.52741" lon="3.51907">
        <ele>83.8</ele>
        <time>2019-03-15T07:59:57Z</time>
      </trkpt>
      <trkpt lat="43.52744" lon="3.51905">
        <ele>83.7</ele>
        <time>2019-03-15T07:59:59Z</time>
      </trkpt>
      <trkpt lat="43.52747" lon="3.51901">
        <ele>83.6</ele>
        <time>2019-03-15T08:00:02Z</time>
      </trkpt>
      <trkpt lat="43.5275" lon="3.51899">
        <ele>83.5</ele>
        <time>2019-03-15T08:00:05Z</time>
      </trkpt>
      <trkpt lat="43.52752" lon="3.51897">
        <ele>83.5</ele>
        <time>2019-03-15T08:00:07Z</time>
      </trkpt>
      <trkpt lat="43.52755" lon="3.51895">
        <ele>83.4</ele>
        <time>2019-03-15T08:00:09Z</time>
      </trkpt>
      <trkpt lat="43.52758" lon="3.51892">
        <ele>83.3</ele>
        <time>2019-03-15T08:00:11Z</time>
      </trkpt>
      <trkpt lat="43.52759" lon="3.51886">
        <ele>83.1</ele>
        <time>2019-03-15T08:00:13Z</time>
      </trkpt>
      <trkpt lat="43.5276" lon="3.51881">
        <ele>83</ele>
        <time>2019-03-15T08:00:16Z</time>
      </trkpt>
      <trkpt lat="43.52761" lon="3.51876">
        <ele>82.8</ele>
        <time>2019-03-15T08:00:20Z</time>
      </trkpt>
      <trkpt lat="43.52762" lon="3.5187">
        <ele>82.7</ele>
        <time>2019-03-15T08:00:23Z</time>
      </trkpt>
      <trkpt lat="43.52762" lon="3.51865">
        <ele>82.5</ele>
        <time>2019-03-15T08:00:26Z</time>
      </trkpt>
      <trkpt lat="43.52762" lon="3.5186">
        <ele>82.4</ele>
        <time>2019-03-15T08:00:28Z</time>
      </trkpt>
      <trkpt lat="43.52764" lon="3.51855">
        <ele>82.3</ele>
        <time>2019-03-15T08:00:31Z</time>
      </trkpt>
      <trkpt lat="43.52766" lon="3.51852">
        <ele>82.2</ele>
        <time>2019-03-15T08:00:35Z</time>
      </trkpt>
      <trkpt lat="43.52765" lon="3.51847">
        <ele>82</ele>
        <time>2019-03-15T08:00:39Z</time>
      </trkpt>
      <trkpt lat="43.52776" lon="3.51853">
        <ele>81.5</ele>
        <time>2019-03-15T08:00:42Z</time>
      </trkpt>
      <trkpt lat="43.52776" lon="3.51849">
        <ele>81.4</ele>
        <time>2019-03-15T08:00:47Z</time>
      </trkpt>
      <trkpt lat="43.52772" lon="3.51853">
        <ele>81.3</ele>
        <time>2019-03-15T08:00:49Z</time>
      </trkpt>
      <trkpt lat="43.52774" lon="3.51856">
        <ele>81.2</ele>
        <time>2019-03-15T08:00:53Z</time>
      </trkpt>
      <trkpt lat="43.52777" lon="3.51855">
        <ele>81.1</ele>
        <time>2019-03-15T08:00:55Z</time>
      </trkpt>
      <trkpt lat="43.5278" lon="3.51853">
        <ele>81</ele>
        <time>2019-03-15T08:00:57Z</time>
      </trkpt>
      <trkpt lat="43.52783" lon="3.51849">
        <ele>81</ele>
        <time>2019-03-15T08:00:59Z</time>
      </trkpt>
      <trkpt lat="43.52786" lon="3.51844">
        <ele>81</ele>
        <time>2019-03-15T08:01:01Z</time>
      </trkpt>
      <trkpt lat="43.5279" lon="3.51839">
        <ele>81.1</ele>
        <time>2019-03-15T08:01:03Z</time>
      </trkpt>
      <trkpt lat="43.52793" lon="3.51836">
        <ele>81.1</ele>
        <time>2019-03-15T08:01:05Z</time>
      </trkpt>
      <trkpt lat="43.52796" lon="3.51835">
        <ele>81.1</ele>
        <time>2019-03-15T08:01:06Z</time>
      </trkpt>
      <trkpt lat="43.52799" lon="3.51834">
        <ele>81.1</ele>
        <time>2019-03-15T08:01:07Z</time>
      </trkpt>
      <trkpt lat="43.52802" lon="3.51834">
        <ele>81.2</ele>
        <time>2019-03-15T08:01:10Z</time>
      </trkpt>
      <trkpt lat="43.52805" lon="3.51838">
        <ele>81.2</ele>
        <time>2019-03-15T08:01:13Z</time>
      </trkpt>
      <trkpt lat="43.52804" lon="3.51842">
        <ele>81.2</ele>
        <time>2019-03-15T08:01:17Z</time>
      </trkpt>
      <trkpt lat="43.52804" lon="3.51846">
        <ele>81.2</ele>
        <time>2019-03-15T08:01:22Z</time>
      </trkpt>
      <trkpt lat="43.52805" lon="3.51851">
        <ele>81.6</ele>
        <time>2019-03-15T08:01:25Z</time>
      </trkpt>
      <trkpt lat="43.52806" lon="3.51856">
        <ele>81.7</ele>
        <time>2019-03-15T08:01:27Z</time>
      </trkpt>
      <trkpt lat="43.52807" lon="3.51861">
        <ele>81.8</ele>
        <time>2019-03-15T08:01:29Z</time>
      </trkpt>
      <trkpt lat="43.52806" lon="3.51865">
        <ele>81.9</ele>
        <time>2019-03-15T08:01:32Z</time>
      </trkpt>
      <trkpt lat="43.52808" lon="3.51871">
        <ele>82</ele>
        <time>2019-03-15T08:01:34Z</time>
      </trkpt>
      <trkpt lat="43.52809" lon="3.51878">
        <ele>82.1</ele>
        <time>2019-03-15T08:01:36Z</time>
      </trkpt>
      <trkpt lat="43.52811" lon="3.51884">
        <ele>82.3</ele>
        <time>2019-03-15T08:01:39Z</time>
      </trkpt>
      <trkpt lat="43.5281" lon="3.51888">
        <ele>82.3</ele>
        <time>2019-03-15T08:01:40Z</time>
      </trkpt>
      <trkpt lat="43.52809" lon="3.51892">
        <ele>82.4</ele>
        <time>2019-03-15T08:01:43Z</time>
      </trkpt>
      <trkpt lat="43.52807" lon="3.519">
        <ele>82.6</ele>
        <time>2019-03-15T08:01:45Z</time>
      </trkpt>
      <trkpt lat="43.52806" lon="3.51904">
        <ele>82.7</ele>
        <time>2019-03-15T08:01:47Z</time>
      </trkpt>
      <trkpt lat="43.5281" lon="3.51903">
        <ele>82.8</ele>
        <time>2019-03-15T08:01:49Z</time>
      </trkpt>
      <trkpt lat="43.52813" lon="3.51904">
        <ele>83.1</ele>
        <time>2019-03-15T08:01:50Z</time>
      </trkpt>
      <trkpt lat="43.52816" lon="3.51905">
        <ele>83</ele>
        <time>2019-03-15T08:01:53Z</time>
      </trkpt>
      <trkpt lat="43.52819" lon="3.51903">
        <ele>83</ele>
        <time>2019-03-15T08:01:55Z</time>
      </trkpt>
      <trkpt lat="43.5282" lon="3.51898">
        <ele>83</ele>
        <time>2019-03-15T08:01:58Z</time>
      </trkpt>
      <trkpt lat="43.5282" lon="3.51892">
        <ele>82.8</ele>
        <time>2019-03-15T08:02:00Z</time>
      </trkpt>
      <trkpt lat="43.5282" lon="3.51888">
        <ele>82.6</ele>
        <time>2019-03-15T08:02:01Z</time>
      </trkpt>
      <trkpt lat="43.5282" lon="3.51882">
        <ele>82.3</ele>
        <time>2019-03-15T08:02:03Z</time>
      </trkpt>
      <trkpt lat="43.52819" lon="3.51876">
        <ele>82</ele>
        <time>2019-03-15T08:02:05Z</time>
      </trkpt>
      <trkpt lat="43.52818" lon="3.51871">
        <ele>81.8</ele>
        <time>2019-03-15T08:02:07Z</time>
      </trkpt>
      <trkpt lat="43.52818" lon="3.51866">
        <ele>81.7</ele>
        <time>2019-03-15T08:02:10Z</time>
      </trkpt>
      <trkpt lat="43.52817" lon="3.51862">
        <ele>81.6</ele>
        <time>2019-03-15T08:02:12Z</time>
      </trkpt>
      <trkpt lat="43.52816" lon="3.51857">
        <ele>81.5</ele>
        <time>2019-03-15T08:02:15Z</time>
      </trkpt>
      <trkpt lat="43.52819" lon="3.51853">
        <ele>81.3</ele>
        <time>2019-03-15T08:02:17Z</time>
      </trkpt>
      <trkpt lat="43.5282" lon="3.5185">
        <ele>81.1</ele>
        <time>2019-03-15T08:02:19Z</time>
      </trkpt>
      <trkpt lat="43.52822" lon="3.51846">
        <ele>81</ele>
        <time>2019-03-15T08:02:21Z</time>
      </trkpt>
      <trkpt lat="43.52821" lon="3.51842">
        <ele>80.9</ele>
        <time>2019-03-15T08:02:23Z</time>
      </trkpt>
      <trkpt lat="43.5282" lon="3.51837">
        <ele>80.8</ele>
        <time>2019-03-15T08:02:25Z</time>
      </trkpt>
      <trkpt lat="43.52824" lon="3.51833">
        <ele>80.5</ele>
        <time>2019-03-15T08:02:27Z</time>
      </trkpt>
      <trkpt lat="43.52825" lon="3.51829">
        <ele>80.4</ele>
        <time>2019-03-15T08:02:28Z</time>
      </trkpt>
      <trkpt lat="43.52827" lon="3.51825">
        <ele>80.3</ele>
        <time>2019-03-15T08:02:29Z</time>
      </trkpt>
      <trkpt lat="43.52828" lon="3.51821">
        <ele>80.3</ele>
        <time>2019-03-15T08:02:30Z</time>
      </trkpt>
      <trkpt lat="43.5283" lon="3.51817">
        <ele>80.3</ele>
        <time>2019-03-15T08:02:31Z</time>
      </trkpt>
      <trkpt lat="43.52831" lon="3.51813">
        <ele>80.2</ele>
        <time>2019-03-15T08:02:33Z</time>
      </trkpt>
      <trkpt lat="43.52832" lon="3.51807">
        <ele>80.2</ele>
        <time>2019-03-15T08:02:35Z</time>
      </trkpt>
      <trkpt lat="43.52833" lon="3.51802">
        <ele>80.1</ele>
        <time>2019-03-15T08:02:37Z</time>
      </trkpt>
      <trkpt lat="43.52832" lon="3.51799">
        <ele>80.1</ele>
        <time>2019-03-15T08:02:39Z</time>
      </trkpt>
      <trkpt lat="43.52832" lon="3.51795">
        <ele>80.1</ele>
        <time>2019-03-15T08:02:41Z</time>
      </trkpt>
      <trkpt lat="43.52831" lon="3.5179">
        <ele>80</ele>
        <time>2019-03-15T08:02:43Z</time>
      </trkpt>
      <trkpt lat="43.52833" lon="3.51794">
        <ele>80</ele>
        <time>2019-03-15T08:02:46Z</time>
      </trkpt>
      <trkpt lat="43.52836" lon="3.51792">
        <ele>79.9</ele>
        <time>2019-03-15T08:02:49Z</time>
      </trkpt>
      <trkpt lat="43.52839" lon="3.51789">
        <ele>79.9</ele>
        <time>2019-03-15T08:02:51Z</time>
      </trkpt>
      <trkpt lat="43.52843" lon="3.51785">
        <ele>79.8</ele>
        <time>2019-03-15T08:02:53Z</time>
      </trkpt>
      <trkpt lat="43.52843" lon="3.51777">
        <ele>79.8</ele>
        <time>2019-03-15T08:02:55Z</time>
      </trkpt>
      <trkpt lat="43.52842" lon="3.51772">
        <ele>79.8</ele>
        <time>2019-03-15T08:02:56Z</time>
      </trkpt>
      <trkpt lat="43.52842" lon="3.51766">
        <ele>79.8</ele>
        <time>2019-03-15T08:02:58Z</time>
      </trkpt>
      <trkpt lat="43.52842" lon="3.51758">
        <ele>79.9</ele>
        <time>2019-03-15T08:03:00Z</time>
      </trkpt>
      <trkpt lat="43.52842" lon="3.51754">
        <ele>79.9</ele>
        <time>2019-03-15T08:03:01Z</time>
      </trkpt>
      <trkpt lat="43.52847" lon="3.51752">
        <ele>80</ele>
        <time>2019-03-15T08:03:02Z</time>
      </trkpt>
      <trkpt lat="43.5285" lon="3.5175">
        <ele>80</ele>
        <time>2019-03-15T08:03:03Z</time>
      </trkpt>
      <trkpt lat="43.52853" lon="3.51749">
        <ele>80</ele>
        <time>2019-03-15T08:03:05Z</time>
      </trkpt>
      <trkpt lat="43.52856" lon="3.51751">
        <ele>80</ele>
        <time>2019-03-15T08:03:10Z</time>
      </trkpt>
      <trkpt lat="43.5286" lon="3.51754">
        <ele>80.2</ele>
        <time>2019-03-15T08:03:12Z</time>
      </trkpt>
      <trkpt lat="43.52863" lon="3.51757">
        <ele>80.3</ele>
        <time>2019-03-15T08:03:14Z</time>
      </trkpt>
      <trkpt lat="43.52866" lon="3.51759">
        <ele>80.4</ele>
        <time>2019-03-15T08:03:16Z</time>
      </trkpt>
      <trkpt lat="43.5287" lon="3.5176">
        <ele>80.5</ele>
        <time>2019-03-15T08:03:18Z</time>
      </trkpt>
      <trkpt lat="43.52873" lon="3.51761">
        <ele>80.5</ele>
        <time>2019-03-15T08:03:20Z</time>
      </trkpt>
      <trkpt lat="43.52876" lon="3.51764">
        <ele>80.7</ele>
        <time>2019-03-15T08:03:22Z</time>
      </trkpt>
      <trkpt lat="43.52879" lon="3.51767">
        <ele>80.7</ele>
        <time>2019-03-15T08:03:25Z</time>
      </trkpt>
      <trkpt lat="43.52881" lon="3.51767">
        <ele>80.7</ele>
        <time>2019-03-15T08:03:34Z</time>
      </trkpt>
      <trkpt lat="43.52885" lon="3.51765">
        <ele>80.7</ele>
        <time>2019-03-15T08:03:36Z</time>
      </trkpt>
      <trkpt lat="43.5289" lon="3.51764">
        <ele>80.7</ele>
        <time>2019-03-15T08:03:38Z</time>
      </trkpt>
      <trkpt lat="43.52894" lon="3.51763">
        <ele>80.7</ele>
        <time>2019-03-15T08:03:40Z</time>
      </trkpt>
      <trkpt lat="43.52898" lon="3.51761">
        <ele>80.7</ele>
        <time>2019-03-15T08:03:42Z</time>
      </trkpt>
      <trkpt lat="43.529" lon="3.51757">
        <ele>80.7</ele>
        <time>2019-03-15T08:03:44Z</time>
      </trkpt>
      <trkpt lat="43.52903" lon="3.51755">
        <ele>80.7</ele>
        <time>2019-03-15T08:03:47Z</time>
      </trkpt>
      <trkpt lat="43.52906" lon="3.51754">
        <ele>80.7</ele>
        <time>2019-03-15T08:03:49Z</time>
      </trkpt>
      <trkpt lat="43.5291" lon="3.51754">
        <ele>80.7</ele>
        <time>2019-03-15T08:03:51Z</time>
      </trkpt>
      <trkpt lat="43.52914" lon="3.51752">
        <ele>80.7</ele>
        <time>2019-03-15T08:03:54Z</time>
      </trkpt>
      <trkpt lat="43.52917" lon="3.51751">
        <ele>80.7</ele>
        <time>2019-03-15T08:03:56Z</time>
      </trkpt>
      <trkpt lat="43.5292" lon="3.5175">
        <ele>80.7</ele>
        <time>2019-03-15T08:03:58Z</time>
      </trkpt>
      <trkpt lat="43.52923" lon="3.51747">
        <ele>80.7</ele>
        <time>2019-03-15T08:04:00Z</time>
      </trkpt>
      <trkpt lat="43.52925" lon="3.51744">
        <ele>80.7</ele>
        <time>2019-03-15T08:04:03Z</time>
      </trkpt>
      <trkpt lat="43.52928" lon="3.51746">
        <ele>80.7</ele>
        <time>2019-03-15T08:04:05Z</time>
      </trkpt>
      <trkpt lat="43.52931" lon="3.51747">
        <ele>80.7</ele>
        <time>2019-03-15T08:04:07Z</time>
      </trkpt>
      <trkpt lat="43.52934" lon="3.51748">
        <ele>80.7</ele>
        <time>2019-03-15T08:04:10Z</time>
      </trkpt>
      <trkpt lat="43.52938" lon="3.51748">
        <ele>80.7</ele>
        <time>2019-03-15T08:04:13Z</time>
      </trkpt>
      <trkpt lat="43.5294" lon="3.51745">
        <ele>80.7</ele>
        <time>2019-03-15T08:04:15Z</time>
      </trkpt>
      <trkpt lat="43.52942" lon="3.51742">
        <ele>80.7</ele>
        <time>2019-03-15T08:04:16Z</time>
      </trkpt>
      <trkpt lat="43.52946" lon="3.51741">
        <ele>80.7</ele>
        <time>2019-03-15T08:04:18Z</time>
      </trkpt>
      <trkpt lat="43.52949" lon="3.51739">
        <ele>80.7</ele>
        <time>2019-03-15T08:04:20Z</time>
      </trkpt>
      <trkpt lat="43.52952" lon="3.5174">
        <ele>80.7</ele>
        <time>2019-03-15T08:04:22Z</time>
      </trkpt>
      <trkpt lat="43.52955" lon="3.51739">
        <ele>80.8</ele>
        <time>2019-03-15T08:04:24Z</time>
      </trkpt>
      <trkpt lat="43.52958" lon="3.51738">
        <ele>80.7</ele>
        <time>2019-03-15T08:04:26Z</time>
      </trkpt>
      <trkpt lat="43.52962" lon="3.51736">
        <ele>80.7</ele>
        <time>2019-03-15T08:04:29Z</time>
      </trkpt>
      <trkpt lat="43.52965" lon="3.51733">
        <ele>80.6</ele>
        <time>2019-03-15T08:04:32Z</time>
      </trkpt>
      <trkpt lat="43.52968" lon="3.51731">
        <ele>80.6</ele>
        <time>2019-03-15T08:04:34Z</time>
      </trkpt>
      <trkpt lat="43.5297" lon="3.51728">
        <ele>80.6</ele>
        <time>2019-03-15T08:04:36Z</time>
      </trkpt>
      <trkpt lat="43.52974" lon="3.51726">
        <ele>80.5</ele>
        <time>2019-03-15T08:04:39Z</time>
      </trkpt>
      <trkpt lat="43.52976" lon="3.51724">
        <ele>80.5</ele>
        <time>2019-03-15T08:04:41Z</time>
      </trkpt>
      <trkpt lat="43.52979" lon="3.51724">
        <ele>80.4</ele>
        <time>2019-03-15T08:04:43Z</time>
      </trkpt>
      <trkpt lat="43.52983" lon="3.51723">
        <ele>80.4</ele>
        <time>2019-03-15T08:04:45Z</time>
      </trkpt>
      <trkpt lat="43.52986" lon="3.51722">
        <ele>80.4</ele>
        <time>2019-03-15T08:04:47Z</time>
      </trkpt>
      <trkpt lat="43.52989" lon="3.51721">
        <ele>80.3</ele>
        <time>2019-03-15T08:04:49Z</time>
      </trkpt>
      <trkpt lat="43.52992" lon="3.5172">
        <ele>80.3</ele>
        <time>2019-03-15T08:04:51Z</time>
      </trkpt>
      <trkpt lat="43.52995" lon="3.51718">
        <ele>80.3</ele>
        <time>2019-03-15T08:04:53Z</time>
      </trkpt>
      <trkpt lat="43.52997" lon="3.51716">
        <ele>80.4</ele>
        <time>2019-03-15T08:04:55Z</time>
      </trkpt>
      <trkpt lat="43.53" lon="3.51715">
        <ele>80.4</ele>
        <time>2019-03-15T08:04:57Z</time>
      </trkpt>
      <trkpt lat="43.53003" lon="3.51712">
        <ele>80.4</ele>
        <time>2019-03-15T08:05:00Z</time>
      </trkpt>
      <trkpt lat="43.53006" lon="3.5171">
        <ele>80.4</ele>
        <time>2019-03-15T08:05:02Z</time>
      </trkpt>
      <trkpt lat="43.53009" lon="3.51708">
        <ele>80.5</ele>
        <time>2019-03-15T08:05:04Z</time>
      </trkpt>
      <trkpt lat="43.53011" lon="3.51706">
        <ele>80.5</ele>
        <time>2019-03-15T08:05:07Z</time>
      </trkpt>
      <trkpt lat="43.53014" lon="3.51702">
        <ele>80.6</ele>
        <time>2019-03-15T08:05:10Z</time>
      </trkpt>
      <trkpt lat="43.53017" lon="3.517">
        <ele>80.6</ele>
        <time>2019-03-15T08:05:13Z</time>
      </trkpt>
      <trkpt lat="43.5302" lon="3.51698">
        <ele>80.7</ele>
        <time>2019-03-15T08:05:15Z</time>
      </trkpt>
      <trkpt lat="43.53023" lon="3.51696">
        <ele>80.7</ele>
        <time>2019-03-15T08:05:17Z</time>
      </trkpt>
      <trkpt lat="43.53026" lon="3.51695">
        <ele>80.8</ele>
        <time>2019-03-15T08:05:19Z</time>
      </trkpt>
      <trkpt lat="43.5303" lon="3.51694">
        <ele>80.9</ele>
        <time>2019-03-15T08:05:22Z</time>
      </trkpt>
      <trkpt lat="43.53034" lon="3.51695">
        <ele>81</ele>
        <time>2019-03-15T08:05:24Z</time>
      </trkpt>
      <trkpt lat="43.53037" lon="3.51694">
        <ele>81</ele>
        <time>2019-03-15T08:05:26Z</time>
      </trkpt>
      <trkpt lat="43.53041" lon="3.51692">
        <ele>81.1</ele>
        <time>2019-03-15T08:05:28Z</time>
      </trkpt>
      <trkpt lat="43.53045" lon="3.51691">
        <ele>81.2</ele>
        <time>2019-03-15T08:05:30Z</time>
      </trkpt>
      <trkpt lat="43.53049" lon="3.51689">
        <ele>81.3</ele>
        <time>2019-03-15T08:05:32Z</time>
      </trkpt>
      <trkpt lat="43.53053" lon="3.51687">
        <ele>81.4</ele>
        <time>2019-03-15T08:05:33Z</time>
      </trkpt>
      <trkpt lat="43.53057" lon="3.51686">
        <ele>81.5</ele>
        <time>2019-03-15T08:05:35Z</time>
      </trkpt>
      <trkpt lat="43.53061" lon="3.51685">
        <ele>81.5</ele>
        <time>2019-03-15T08:05:37Z</time>
      </trkpt>
      <trkpt lat="43.53065" lon="3.51684">
        <ele>81.5</ele>
        <time>2019-03-15T08:05:39Z</time>
      </trkpt>
      <trkpt lat="43.53068" lon="3.51682">
        <ele>81.5</ele>
        <time>2019-03-15T08:05:41Z</time>
      </trkpt>
      <trkpt lat="43.53071" lon="3.5168">
        <ele>81.8</ele>
        <time>2019-03-15T08:05:43Z</time>
      </trkpt>
      <trkpt lat="43.53074" lon="3.51678">
        <ele>81.9</ele>
        <time>2019-03-15T08:05:45Z</time>
      </trkpt>
      <trkpt lat="43.53077" lon="3.51676">
        <ele>82.1</ele>
        <time>2019-03-15T08:05:48Z</time>
      </trkpt>
      <trkpt lat="43.53081" lon="3.51674">
        <ele>82.2</ele>
        <time>2019-03-15T08:05:51Z</time>
      </trkpt>
      <trkpt lat="43.53084" lon="3.51673">
        <ele>82.3</ele>
        <time>2019-03-15T08:05:53Z</time>
      </trkpt>
      <trkpt lat="43.53087" lon="3.5167">
        <ele>82.5</ele>
        <time>2019-03-15T08:05:56Z</time>
      </trkpt>
      <trkpt lat="43.53089" lon="3.51668">
        <ele>82.7</ele>
        <time>2019-03-15T08:05:58Z</time>
      </trkpt>
      <trkpt lat="43.53092" lon="3.51666">
        <ele>82.8</ele>
        <time>2019-03-15T08:06:00Z</time>
      </trkpt>
      <trkpt lat="43.53094" lon="3.51664">
        <ele>82.9</ele>
        <time>2019-03-15T08:06:02Z</time>
      </trkpt>
      <trkpt lat="43.53098" lon="3.51662">
        <ele>83</ele>
        <time>2019-03-15T08:06:04Z</time>
      </trkpt>
      <trkpt lat="43.53101" lon="3.51659">
        <ele>83.1</ele>
        <time>2019-03-15T08:06:07Z</time>
      </trkpt>
      <trkpt lat="43.53104" lon="3.51656">
        <ele>83.3</ele>
        <time>2019-03-15T08:06:09Z</time>
      </trkpt>
      <trkpt lat="43.53106" lon="3.51654">
        <ele>83.3</ele>
        <time>2019-03-15T08:06:11Z</time>
      </trkpt>
      <trkpt lat="43.53109" lon="3.51652">
        <ele>83.4</ele>
        <time>2019-03-15T08:06:13Z</time>
      </trkpt>
      <trkpt lat="43.53112" lon="3.5165">
        <ele>83.5</ele>
        <time>2019-03-15T08:06:15Z</time>
      </trkpt>
      <trkpt lat="43.53115" lon="3.51647">
        <ele>83.6</ele>
        <time>2019-03-15T08:06:18Z</time>
      </trkpt>
      <trkpt lat="43.53118" lon="3.51643">
        <ele>83.8</ele>
        <time>2019-03-15T08:06:21Z</time>
      </trkpt>
      <trkpt lat="43.5312" lon="3.51641">
        <ele>83.8</ele>
        <time>2019-03-15T08:06:23Z</time>
      </trkpt>
      <trkpt lat="43.53123" lon="3.51639">
        <ele>83.9</ele>
        <time>2019-03-15T08:06:25Z</time>
      </trkpt>
      <trkpt lat="43.53126" lon="3.51638">
        <ele>84</ele>
        <time>2019-03-15T08:06:27Z</time>
      </trkpt>
      <trkpt lat="43.53129" lon="3.51637">
        <ele>84.1</ele>
        <time>2019-03-15T08:06:29Z</time>
      </trkpt>
      <trkpt lat="43.53132" lon="3.51635">
        <ele>84.2</ele>
        <time>2019-03-15T08:06:31Z</time>
      </trkpt>
      <trkpt lat="43.53134" lon="3.51634">
        <ele>84.3</ele>
        <time>2019-03-15T08:06:33Z</time>
      </trkpt>
      <trkpt lat="43.53137" lon="3.51632">
        <ele>84.3</ele>
        <time>2019-03-15T08:06:35Z</time>
      </trkpt>
      <trkpt lat="43.5314" lon="3.5163">
        <ele>84.4</ele>
        <time>2019-03-15T08:06:37Z</time>
      </trkpt>
      <trkpt lat="43.53142" lon="3.51628">
        <ele>84.5</ele>
        <time>2019-03-15T08:06:39Z</time>
      </trkpt>
      <trkpt lat="43.53146" lon="3.51626">
        <ele>84.6</ele>
        <time>2019-03-15T08:06:42Z</time>
      </trkpt>
      <trkpt lat="43.53149" lon="3.51624">
        <ele>84.7</ele>
        <time>2019-03-15T08:06:45Z</time>
      </trkpt>
      <trkpt lat="43.53153" lon="3.51623">
        <ele>84.8</ele>
        <time>2019-03-15T08:06:48Z</time>
      </trkpt>
      <trkpt lat="43.53156" lon="3.51621">
        <ele>84.9</ele>
        <time>2019-03-15T08:06:51Z</time>
      </trkpt>
      <trkpt lat="43.53159" lon="3.5162">
        <ele>84.9</ele>
        <time>2019-03-15T08:06:53Z</time>
      </trkpt>
      <trkpt lat="43.53162" lon="3.51618">
        <ele>85</ele>
        <time>2019-03-15T08:06:55Z</time>
      </trkpt>
      <trkpt lat="43.53165" lon="3.51617">
        <ele>85.2</ele>
        <time>2019-03-15T08:06:57Z</time>
      </trkpt>
      <trkpt lat="43.53168" lon="3.51615">
        <ele>85.3</ele>
        <time>2019-03-15T08:06:59Z</time>
      </trkpt>
      <trkpt lat="43.53171" lon="3.51614">
        <ele>85.4</ele>
        <time>2019-03-15T08:07:01Z</time>
      </trkpt>
      <trkpt lat="43.53174" lon="3.51613">
        <ele>85.6</ele>
        <time>2019-03-15T08:07:03Z</time>
      </trkpt>
      <trkpt lat="43.53176" lon="3.51612">
        <ele>85.6</ele>
        <time>2019-03-15T08:07:05Z</time>
      </trkpt>
      <trkpt lat="43.53179" lon="3.51611">
        <ele>85.7</ele>
        <time>2019-03-15T08:07:07Z</time>
      </trkpt>
      <trkpt lat="43.53182" lon="3.51609">
        <ele>85.8</ele>
        <time>2019-03-15T08:07:09Z</time>
      </trkpt>
      <trkpt lat="43.53185" lon="3.51607">
        <ele>85.9</ele>
        <time>2019-03-15T08:07:11Z</time>
      </trkpt>
      <trkpt lat="43.53187" lon="3.51606">
        <ele>86</ele>
        <time>2019-03-15T08:07:13Z</time>
      </trkpt>
      <trkpt lat="43.5319" lon="3.51604">
        <ele>86.1</ele>
        <time>2019-03-15T08:07:15Z</time>
      </trkpt>
      <trkpt lat="43.53194" lon="3.51603">
        <ele>86.2</ele>
        <time>2019-03-15T08:07:18Z</time>
      </trkpt>
      <trkpt lat="43.53196" lon="3.51601">
        <ele>86.4</ele>
        <time>2019-03-15T08:07:20Z</time>
      </trkpt>
      <trkpt lat="43.53199" lon="3.516">
        <ele>86.5</ele>
        <time>2019-03-15T08:07:22Z</time>
      </trkpt>
      <trkpt lat="43.53202" lon="3.51598">
        <ele>86.6</ele>
        <time>2019-03-15T08:07:24Z</time>
      </trkpt>
      <trkpt lat="43.53205" lon="3.51597">
        <ele>86.7</ele>
        <time>2019-03-15T08:07:26Z</time>
      </trkpt>
      <trkpt lat="43.53208" lon="3.51595">
        <ele>86.8</ele>
        <time>2019-03-15T08:07:28Z</time>
      </trkpt>
      <trkpt lat="43.53211" lon="3.51594">
        <ele>86.8</ele>
        <time>2019-03-15T08:07:30Z</time>
      </trkpt>
      <trkpt lat="43.53214" lon="3.51592">
        <ele>86.9</ele>
        <time>2019-03-15T08:07:32Z</time>
      </trkpt>
      <trkpt lat="43.53218" lon="3.51591">
        <ele>87</ele>
        <time>2019-03-15T08:07:34Z</time>
      </trkpt>
      <trkpt lat="43.53221" lon="3.51589">
        <ele>87</ele>
        <time>2019-03-15T08:07:36Z</time>
      </trkpt>
      <trkpt lat="43.53224" lon="3.51588">
        <ele>87.1</ele>
        <time>2019-03-15T08:07:38Z</time>
      </trkpt>
      <trkpt lat="43.53227" lon="3.51587">
        <ele>87.2</ele>
        <time>2019-03-15T08:07:40Z</time>
      </trkpt>
      <trkpt lat="43.5323" lon="3.51585">
        <ele>87.2</ele>
        <time>2019-03-15T08:07:43Z</time>
      </trkpt>
      <trkpt lat="43.53232" lon="3.51583">
        <ele>87.3</ele>
        <time>2019-03-15T08:07:45Z</time>
      </trkpt>
      <trkpt lat="43.53235" lon="3.51581">
        <ele>87.4</ele>
        <time>2019-03-15T08:07:47Z</time>
      </trkpt>
      <trkpt lat="43.53238" lon="3.51579">
        <ele>87.4</ele>
        <time>2019-03-15T08:07:49Z</time>
      </trkpt>
      <trkpt lat="43.53241" lon="3.51577">
        <ele>87.5</ele>
        <time>2019-03-15T08:07:51Z</time>
      </trkpt>
      <trkpt lat="43.53244" lon="3.51575">
        <ele>87.6</ele>
        <time>2019-03-15T08:07:53Z</time>
      </trkpt>
      <trkpt lat="43.53247" lon="3.51573">
        <ele>87.6</ele>
        <time>2019-03-15T08:07:55Z</time>
      </trkpt>
      <trkpt lat="43.53249" lon="3.51571">
        <ele>87.7</ele>
        <time>2019-03-15T08:07:57Z</time>
      </trkpt>
      <trkpt lat="43.53252" lon="3.51569">
        <ele>87.7</ele>
        <time>2019-03-15T08:07:59Z</time>
      </trkpt>
      <trkpt lat="43.53255" lon="3.51567">
        <ele>87.8</ele>
        <time>2019-03-15T08:08:01Z</time>
      </trkpt>
      <trkpt lat="43.53258" lon="3.51566">
        <ele>87.8</ele>
        <time>2019-03-15T08:08:03Z</time>
      </trkpt>
      <trkpt lat="43.5326" lon="3.51565">
        <ele>87.9</ele>
        <time>2019-03-15T08:08:05Z</time>
      </trkpt>
      <trkpt lat="43.53263" lon="3.51564">
        <ele>87.9</ele>
        <time>2019-03-15T08:08:08Z</time>
      </trkpt>
      <trkpt lat="43.53266" lon="3.51561">
        <ele>88</ele>
        <time>2019-03-15T08:08:11Z</time>
      </trkpt>
      <trkpt lat="43.53269" lon="3.51557">
        <ele>88.1</ele>
        <time>2019-03-15T08:08:14Z</time>
      </trkpt>
      <trkpt lat="43.53272" lon="3.51554">
        <ele>88.1</ele>
        <time>2019-03-15T08:08:17Z</time>
      </trkpt>
      <trkpt lat="43.53275" lon="3.51552">
        <ele>88.2</ele>
        <time>2019-03-15T08:08:19Z</time>
      </trkpt>
      <trkpt lat="43.53278" lon="3.51551">
        <ele>88.3</ele>
        <time>2019-03-15T08:08:21Z</time>
      </trkpt>
      <trkpt lat="43.53281" lon="3.51549">
        <ele>88.3</ele>
        <time>2019-03-15T08:08:23Z</time>
      </trkpt>
      <trkpt lat="43.53283" lon="3.51547">
        <ele>88.4</ele>
        <time>2019-03-15T08:08:25Z</time>
      </trkpt>
      <trkpt lat="43.53286" lon="3.51546">
        <ele>88.5</ele>
        <time>2019-03-15T08:08:27Z</time>
      </trkpt>
      <trkpt lat="43.53289" lon="3.51545">
        <ele>88.5</ele>
        <time>2019-03-15T08:08:29Z</time>
      </trkpt>
      <trkpt lat="43.53292" lon="3.51543">
        <ele>88.6</ele>
        <time>2019-03-15T08:08:31Z</time>
      </trkpt>
      <trkpt lat="43.53295" lon="3.51541">
        <ele>88.7</ele>
        <time>2019-03-15T08:08:33Z</time>
      </trkpt>
      <trkpt lat="43.53299" lon="3.51538">
        <ele>88.8</ele>
        <time>2019-03-15T08:08:35Z</time>
      </trkpt>
      <trkpt lat="43.53302" lon="3.51537">
        <ele>88.9</ele>
        <time>2019-03-15T08:08:37Z</time>
      </trkpt>
      <trkpt lat="43.53305" lon="3.51536">
        <ele>89</ele>
        <time>2019-03-15T08:08:39Z</time>
      </trkpt>
      <trkpt lat="43.53308" lon="3.51535">
        <ele>89.1</ele>
        <time>2019-03-15T08:08:41Z</time>
      </trkpt>
      <trkpt lat="43.53312" lon="3.51534">
        <ele>89.2</ele>
        <time>2019-03-15T08:08:44Z</time>
      </trkpt>
      <trkpt lat="43.53315" lon="3.51531">
        <ele>89.3</ele>
        <time>2019-03-15T08:08:47Z</time>
      </trkpt>
      <trkpt lat="43.53317" lon="3.51529">
        <ele>89.5</ele>
        <time>2019-03-15T08:08:49Z</time>
      </trkpt>
      <trkpt lat="43.53319" lon="3.51527">
        <ele>89.6</ele>
        <time>2019-03-15T08:08:51Z</time>
      </trkpt>
      <trkpt lat="43.53322" lon="3.51525">
        <ele>89.6</ele>
        <time>2019-03-15T08:08:53Z</time>
      </trkpt>
      <trkpt lat="43.53325" lon="3.51522">
        <ele>89.7</ele>
        <time>2019-03-15T08:08:56Z</time>
      </trkpt>
      <trkpt lat="43.53328" lon="3.5152">
        <ele>89.8</ele>
        <time>2019-03-15T08:08:58Z</time>
      </trkpt>
      <trkpt lat="43.5333" lon="3.51518">
        <ele>89.9</ele>
        <time>2019-03-15T08:09:00Z</time>
      </trkpt>
      <trkpt lat="43.53333" lon="3.51516">
        <ele>90</ele>
        <time>2019-03-15T08:09:02Z</time>
      </trkpt>
      <trkpt lat="43.53336" lon="3.51513">
        <ele>90</ele>
        <time>2019-03-15T08:09:04Z</time>
      </trkpt>
      <trkpt lat="43.53338" lon="3.51511">
        <ele>90.1</ele>
        <time>2019-03-15T08:09:06Z</time>
      </trkpt>
      <trkpt lat="43.53342" lon="3.5151">
        <ele>90.2</ele>
        <time>2019-03-15T08:09:08Z</time>
      </trkpt>
      <trkpt lat="43.53345" lon="3.51508">
        <ele>90.3</ele>
        <time>2019-03-15T08:09:10Z</time>
      </trkpt>
      <trkpt lat="43.53349" lon="3.51505">
        <ele>90.4</ele>
        <time>2019-03-15T08:09:13Z</time>
      </trkpt>
      <trkpt lat="43.53351" lon="3.51503">
        <ele>90.5</ele>
        <time>2019-03-15T08:09:15Z</time>
      </trkpt>
      <trkpt lat="43.53354" lon="3.51502">
        <ele>90.6</ele>
        <time>2019-03-15T08:09:17Z</time>
      </trkpt>
      <trkpt lat="43.53358" lon="3.51499">
        <ele>90.7</ele>
        <time>2019-03-15T08:09:19Z</time>
      </trkpt>
      <trkpt lat="43.53361" lon="3.51496">
        <ele>90.8</ele>
        <time>2019-03-15T08:09:21Z</time>
      </trkpt>
      <trkpt lat="43.53363" lon="3.51494">
        <ele>90.8</ele>
        <time>2019-03-15T08:09:23Z</time>
      </trkpt>
      <trkpt lat="43.53366" lon="3.51491">
        <ele>90.9</ele>
        <time>2019-03-15T08:09:26Z</time>
      </trkpt>
      <trkpt lat="43.53368" lon="3.51489">
        <ele>90.9</ele>
        <time>2019-03-15T08:09:28Z</time>
      </trkpt>
      <trkpt lat="43.53371" lon="3.51487">
        <ele>91</ele>
        <time>2019-03-15T08:09:30Z</time>
      </trkpt>
      <trkpt lat="43.53374" lon="3.51485">
        <ele>91.1</ele>
        <time>2019-03-15T08:09:33Z</time>
      </trkpt>
      <trkpt lat="43.53378" lon="3.51484">
        <ele>91.2</ele>
        <time>2019-03-15T08:09:36Z</time>
      </trkpt>
      <trkpt lat="43.53381" lon="3.51482">
        <ele>91.2</ele>
        <time>2019-03-15T08:09:38Z</time>
      </trkpt>
      <trkpt lat="43.53384" lon="3.51481">
        <ele>91.3</ele>
        <time>2019-03-15T08:09:40Z</time>
      </trkpt>
      <trkpt lat="43.53387" lon="3.51478">
        <ele>91.3</ele>
        <time>2019-03-15T08:09:42Z</time>
      </trkpt>
      <trkpt lat="43.5339" lon="3.51475">
        <ele>91.4</ele>
        <time>2019-03-15T08:09:45Z</time>
      </trkpt>
      <trkpt lat="43.53393" lon="3.51473">
        <ele>91.5</ele>
        <time>2019-03-15T08:09:47Z</time>
      </trkpt>
      <trkpt lat="43.53395" lon="3.5147">
        <ele>91.6</ele>
        <time>2019-03-15T08:09:49Z</time>
      </trkpt>
      <trkpt lat="43.53398" lon="3.51468">
        <ele>91.7</ele>
        <time>2019-03-15T08:09:51Z</time>
      </trkpt>
      <trkpt lat="43.53401" lon="3.51465">
        <ele>91.8</ele>
        <time>2019-03-15T08:09:54Z</time>
      </trkpt>
      <trkpt lat="43.53404" lon="3.51463">
        <ele>91.8</ele>
        <time>2019-03-15T08:09:56Z</time>
      </trkpt>
      <trkpt lat="43.53408" lon="3.51461">
        <ele>91.9</ele>
        <time>2019-03-15T08:09:58Z</time>
      </trkpt>
      <trkpt lat="43.53411" lon="3.51458">
        <ele>92</ele>
        <time>2019-03-15T08:10:00Z</time>
      </trkpt>
      <trkpt lat="43.53414" lon="3.51455">
        <ele>92.1</ele>
        <time>2019-03-15T08:10:03Z</time>
      </trkpt>
      <trkpt lat="43.53418" lon="3.51452">
        <ele>92.2</ele>
        <time>2019-03-15T08:10:06Z</time>
      </trkpt>
      <trkpt lat="43.5342" lon="3.51449">
        <ele>92.2</ele>
        <time>2019-03-15T08:10:08Z</time>
      </trkpt>
      <trkpt lat="43.53422" lon="3.51446">
        <ele>92.3</ele>
        <time>2019-03-15T08:10:11Z</time>
      </trkpt>
      <trkpt lat="43.53426" lon="3.51442">
        <ele>92.4</ele>
        <time>2019-03-15T08:10:14Z</time>
      </trkpt>
      <trkpt lat="43.53429" lon="3.51439">
        <ele>92.5</ele>
        <time>2019-03-15T08:10:17Z</time>
      </trkpt>
      <trkpt lat="43.53432" lon="3.51436">
        <ele>92.5</ele>
        <time>2019-03-15T08:10:19Z</time>
      </trkpt>
      <trkpt lat="43.53435" lon="3.51433">
        <ele>92.6</ele>
        <time>2019-03-15T08:10:21Z</time>
      </trkpt>
      <trkpt lat="43.53437" lon="3.5143">
        <ele>92.7</ele>
        <time>2019-03-15T08:10:23Z</time>
      </trkpt>
      <trkpt lat="43.53439" lon="3.51427">
        <ele>92.7</ele>
        <time>2019-03-15T08:10:25Z</time>
      </trkpt>
      <trkpt lat="43.53442" lon="3.51424">
        <ele>92.8</ele>
        <time>2019-03-15T08:10:27Z</time>
      </trkpt>
      <trkpt lat="43.53446" lon="3.51422">
        <ele>92.8</ele>
        <time>2019-03-15T08:10:30Z</time>
      </trkpt>
      <trkpt lat="43.53449" lon="3.5142">
        <ele>92.9</ele>
        <time>2019-03-15T08:10:33Z</time>
      </trkpt>
      <trkpt lat="43.53452" lon="3.51418">
        <ele>93</ele>
        <time>2019-03-15T08:10:35Z</time>
      </trkpt>
      <trkpt lat="43.53455" lon="3.51416">
        <ele>93.1</ele>
        <time>2019-03-15T08:10:37Z</time>
      </trkpt>
      <trkpt lat="43.53458" lon="3.51414">
        <ele>93.2</ele>
        <time>2019-03-15T08:10:39Z</time>
      </trkpt>
      <trkpt lat="43.53461" lon="3.51412">
        <ele>93.2</ele>
        <time>2019-03-15T08:10:42Z</time>
      </trkpt>
      <trkpt lat="43.53465" lon="3.5141">
        <ele>93.3</ele>
        <time>2019-03-15T08:10:45Z</time>
      </trkpt>
      <trkpt lat="43.53468" lon="3.51408">
        <ele>93.4</ele>
        <time>2019-03-15T08:10:47Z</time>
      </trkpt>
      <trkpt lat="43.53471" lon="3.51405">
        <ele>93.4</ele>
        <time>2019-03-15T08:10:49Z</time>
      </trkpt>
      <trkpt lat="43.53474" lon="3.51403">
        <ele>93.5</ele>
        <time>2019-03-15T08:10:51Z</time>
      </trkpt>
      <trkpt lat="43.53477" lon="3.51401">
        <ele>93.6</ele>
        <time>2019-03-15T08:10:54Z</time>
      </trkpt>
      <trkpt lat="43.5348" lon="3.514">
        <ele>93.6</ele>
        <time>2019-03-15T08:10:57Z</time>
      </trkpt>
      <trkpt lat="43.53482" lon="3.51398">
        <ele>93.7</ele>
        <time>2019-03-15T08:10:59Z</time>
      </trkpt>
      <trkpt lat="43.53485" lon="3.51396">
        <ele>93.7</ele>
        <time>2019-03-15T08:11:01Z</time>
      </trkpt>
      <trkpt lat="43.53487" lon="3.51393">
        <ele>93.8</ele>
        <time>2019-03-15T08:11:03Z</time>
      </trkpt>
      <trkpt lat="43.5349" lon="3.51391">
        <ele>93.9</ele>
        <time>2019-03-15T08:11:05Z</time>
      </trkpt>
      <trkpt lat="43.53494" lon="3.51389">
        <ele>93.9</ele>
        <time>2019-03-15T08:11:07Z</time>
      </trkpt>
      <trkpt lat="43.53497" lon="3.51386">
        <ele>94</ele>
        <time>2019-03-15T08:11:09Z</time>
      </trkpt>
      <trkpt lat="43.535" lon="3.51383">
        <ele>94.1</ele>
        <time>2019-03-15T08:11:11Z</time>
      </trkpt>
      <trkpt lat="43.53503" lon="3.51381">
        <ele>94.2</ele>
        <time>2019-03-15T08:11:13Z</time>
      </trkpt>
      <trkpt lat="43.53506" lon="3.51379">
        <ele>94.3</ele>
        <time>2019-03-15T08:11:16Z</time>
      </trkpt>
      <trkpt lat="43.53509" lon="3.51378">
        <ele>94.4</ele>
        <time>2019-03-15T08:11:18Z</time>
      </trkpt>
      <trkpt lat="43.53512" lon="3.51377">
        <ele>94.5</ele>
        <time>2019-03-15T08:11:20Z</time>
      </trkpt>
      <trkpt lat="43.53515" lon="3.51375">
        <ele>94.5</ele>
        <time>2019-03-15T08:11:22Z</time>
      </trkpt>
      <trkpt lat="43.53517" lon="3.51373">
        <ele>94.6</ele>
        <time>2019-03-15T08:11:24Z</time>
      </trkpt>
      <trkpt lat="43.5352" lon="3.51372">
        <ele>94.7</ele>
        <time>2019-03-15T08:11:26Z</time>
      </trkpt>
      <trkpt lat="43.53523" lon="3.51369">
        <ele>94.8</ele>
        <time>2019-03-15T08:11:29Z</time>
      </trkpt>
      <trkpt lat="43.53526" lon="3.51366">
        <ele>94.8</ele>
        <time>2019-03-15T08:11:31Z</time>
      </trkpt>
      <trkpt lat="43.53528" lon="3.51364">
        <ele>94.9</ele>
        <time>2019-03-15T08:11:33Z</time>
      </trkpt>
      <trkpt lat="43.53532" lon="3.51361">
        <ele>95</ele>
        <time>2019-03-15T08:11:36Z</time>
      </trkpt>
      <trkpt lat="43.53534" lon="3.51358">
        <ele>95.1</ele>
        <time>2019-03-15T08:11:38Z</time>
      </trkpt>
      <trkpt lat="43.53536" lon="3.51355">
        <ele>95.2</ele>
        <time>2019-03-15T08:11:40Z</time>
      </trkpt>
      <trkpt lat="43.53539" lon="3.51352">
        <ele>95.3</ele>
        <time>2019-03-15T08:11:43Z</time>
      </trkpt>
      <trkpt lat="43.53542" lon="3.51349">
        <ele>95.4</ele>
        <time>2019-03-15T08:11:46Z</time>
      </trkpt>
      <trkpt lat="43.53544" lon="3.51346">
        <ele>95.4</ele>
        <time>2019-03-15T08:11:48Z</time>
      </trkpt>
      <trkpt lat="43.53547" lon="3.51344">
        <ele>95.5</ele>
        <time>2019-03-15T08:11:50Z</time>
      </trkpt>
      <trkpt lat="43.5355" lon="3.51341">
        <ele>95.6</ele>
        <time>2019-03-15T08:11:52Z</time>
      </trkpt>
      <trkpt lat="43.53554" lon="3.51338">
        <ele>95.7</ele>
        <time>2019-03-15T08:11:55Z</time>
      </trkpt>
      <trkpt lat="43.53556" lon="3.51336">
        <ele>95.8</ele>
        <time>2019-03-15T08:11:57Z</time>
      </trkpt>
      <trkpt lat="43.53559" lon="3.51333">
        <ele>95.8</ele>
        <time>2019-03-15T08:11:59Z</time>
      </trkpt>
      <trkpt lat="43.53561" lon="3.5133">
        <ele>95.9</ele>
        <time>2019-03-15T08:12:02Z</time>
      </trkpt>
      <trkpt lat="43.53564" lon="3.51327">
        <ele>96</ele>
        <time>2019-03-15T08:12:05Z</time>
      </trkpt>
      <trkpt lat="43.53566" lon="3.51323">
        <ele>96.1</ele>
        <time>2019-03-15T08:12:08Z</time>
      </trkpt>
      <trkpt lat="43.53568" lon="3.5132">
        <ele>96.2</ele>
        <time>2019-03-15T08:12:11Z</time>
      </trkpt>
      <trkpt lat="43.53572" lon="3.51317">
        <ele>96.3</ele>
        <time>2019-03-15T08:12:14Z</time>
      </trkpt>
      <trkpt lat="43.53575" lon="3.51314">
        <ele>96.4</ele>
        <time>2019-03-15T08:12:16Z</time>
      </trkpt>
      <trkpt lat="43.53579" lon="3.51312">
        <ele>96.6</ele>
        <time>2019-03-15T08:12:18Z</time>
      </trkpt>
      <trkpt lat="43.53582" lon="3.51309">
        <ele>96.7</ele>
        <time>2019-03-15T08:12:20Z</time>
      </trkpt>
      <trkpt lat="43.53584" lon="3.51307">
        <ele>96.9</ele>
        <time>2019-03-15T08:12:22Z</time>
      </trkpt>
      <trkpt lat="43.53586" lon="3.51304">
        <ele>97</ele>
        <time>2019-03-15T08:12:24Z</time>
      </trkpt>
      <trkpt lat="43.53588" lon="3.51301">
        <ele>97.1</ele>
        <time>2019-03-15T08:12:26Z</time>
      </trkpt>
      <trkpt lat="43.53591" lon="3.51299">
        <ele>97.2</ele>
        <time>2019-03-15T08:12:28Z</time>
      </trkpt>
      <trkpt lat="43.53594" lon="3.51297">
        <ele>97.3</ele>
        <time>2019-03-15T08:12:30Z</time>
      </trkpt>
      <trkpt lat="43.53597" lon="3.51295">
        <ele>97.4</ele>
        <time>2019-03-15T08:12:33Z</time>
      </trkpt>
      <trkpt lat="43.536" lon="3.51293">
        <ele>97.5</ele>
        <time>2019-03-15T08:12:35Z</time>
      </trkpt>
      <trkpt lat="43.53603" lon="3.51292">
        <ele>97.7</ele>
        <time>2019-03-15T08:12:37Z</time>
      </trkpt>
      <trkpt lat="43.53605" lon="3.5129">
        <ele>97.9</ele>
        <time>2019-03-15T08:12:39Z</time>
      </trkpt>
      <trkpt lat="43.53608" lon="3.51287">
        <ele>98.1</ele>
        <time>2019-03-15T08:12:42Z</time>
      </trkpt>
      <trkpt lat="43.53612" lon="3.51285">
        <ele>98.3</ele>
        <time>2019-03-15T08:12:44Z</time>
      </trkpt>
      <trkpt lat="43.53615" lon="3.51284">
        <ele>98.4</ele>
        <time>2019-03-15T08:12:46Z</time>
      </trkpt>
      <trkpt lat="43.53618" lon="3.51282">
        <ele>98.6</ele>
        <time>2019-03-15T08:12:48Z</time>
      </trkpt>
      <trkpt lat="43.53621" lon="3.5128">
        <ele>98.8</ele>
        <time>2019-03-15T08:12:50Z</time>
      </trkpt>
      <trkpt lat="43.53624" lon="3.51279">
        <ele>98.9</ele>
        <time>2019-03-15T08:12:52Z</time>
      </trkpt>
      <trkpt lat="43.53627" lon="3.51279">
        <ele>99.1</ele>
        <time>2019-03-15T08:12:54Z</time>
      </trkpt>
      <trkpt lat="43.5363" lon="3.51279">
        <ele>99.2</ele>
        <time>2019-03-15T08:12:56Z</time>
      </trkpt>
      <trkpt lat="43.53634" lon="3.51278">
        <ele>99.4</ele>
        <time>2019-03-15T08:12:58Z</time>
      </trkpt>
      <trkpt lat="43.53637" lon="3.51277">
        <ele>99.5</ele>
        <time>2019-03-15T08:13:00Z</time>
      </trkpt>
      <trkpt lat="43.5364" lon="3.51277">
        <ele>99.7</ele>
        <time>2019-03-15T08:13:02Z</time>
      </trkpt>
      <trkpt lat="43.53644" lon="3.51277">
        <ele>99.9</ele>
        <time>2019-03-15T08:13:04Z</time>
      </trkpt>
      <trkpt lat="43.53646" lon="3.51278">
        <ele>100</ele>
        <time>2019-03-15T08:13:06Z</time>
      </trkpt>
      <trkpt lat="43.5365" lon="3.51277">
        <ele>100.2</ele>
        <time>2019-03-15T08:13:09Z</time>
      </trkpt>
      <trkpt lat="43.53653" lon="3.51276">
        <ele>100.4</ele>
        <time>2019-03-15T08:13:11Z</time>
      </trkpt>
      <trkpt lat="43.53657" lon="3.51275">
        <ele>100.6</ele>
        <time>2019-03-15T08:13:13Z</time>
      </trkpt>
      <trkpt lat="43.5366" lon="3.51274">
        <ele>100.7</ele>
        <time>2019-03-15T08:13:15Z</time>
      </trkpt>
      <trkpt lat="43.53663" lon="3.51273">
        <ele>100.9</ele>
        <time>2019-03-15T08:13:17Z</time>
      </trkpt>
      <trkpt lat="43.53667" lon="3.51272">
        <ele>101.1</ele>
        <time>2019-03-15T08:13:19Z</time>
      </trkpt>
      <trkpt lat="43.53671" lon="3.51271">
        <ele>101.3</ele>
        <time>2019-03-15T08:13:21Z</time>
      </trkpt>
      <trkpt lat="43.53674" lon="3.5127">
        <ele>101.5</ele>
        <time>2019-03-15T08:13:23Z</time>
      </trkpt>
      <trkpt lat="43.53677" lon="3.51269">
        <ele>101.6</ele>
        <time>2019-03-15T08:13:25Z</time>
      </trkpt>
      <trkpt lat="43.5368" lon="3.51266">
        <ele>101.8</ele>
        <time>2019-03-15T08:13:28Z</time>
      </trkpt>
      <trkpt lat="43.53683" lon="3.51264">
        <ele>102</ele>
        <time>2019-03-15T08:13:31Z</time>
      </trkpt>
      <trkpt lat="43.53687" lon="3.51263">
        <ele>102.4</ele>
        <time>2019-03-15T08:13:34Z</time>
      </trkpt>
      <trkpt lat="43.5369" lon="3.51259">
        <ele>102.8</ele>
        <time>2019-03-15T08:13:37Z</time>
      </trkpt>
      <trkpt lat="43.53693" lon="3.51257">
        <ele>103</ele>
        <time>2019-03-15T08:13:39Z</time>
      </trkpt>
      <trkpt lat="43.53696" lon="3.51254">
        <ele>103.2</ele>
        <time>2019-03-15T08:13:42Z</time>
      </trkpt>
      <trkpt lat="43.537" lon="3.51251">
        <ele>103.5</ele>
        <time>2019-03-15T08:13:45Z</time>
      </trkpt>
      <trkpt lat="43.53702" lon="3.51249">
        <ele>103.4</ele>
        <time>2019-03-15T08:13:47Z</time>
      </trkpt>
      <trkpt lat="43.53706" lon="3.51247">
        <ele>103.4</ele>
        <time>2019-03-15T08:13:50Z</time>
      </trkpt>
      <trkpt lat="43.53709" lon="3.51245">
        <ele>103.3</ele>
        <time>2019-03-15T08:13:53Z</time>
      </trkpt>
      <trkpt lat="43.53711" lon="3.51243">
        <ele>103.3</ele>
        <time>2019-03-15T08:13:55Z</time>
      </trkpt>
      <trkpt lat="43.53715" lon="3.51241">
        <ele>103.2</ele>
        <time>2019-03-15T08:13:58Z</time>
      </trkpt>
      <trkpt lat="43.53717" lon="3.51239">
        <ele>103.2</ele>
        <time>2019-03-15T08:14:01Z</time>
      </trkpt>
      <trkpt lat="43.5372" lon="3.51237">
        <ele>103.1</ele>
        <time>2019-03-15T08:14:04Z</time>
      </trkpt>
      <trkpt lat="43.53723" lon="3.51235">
        <ele>103.1</ele>
        <time>2019-03-15T08:14:06Z</time>
      </trkpt>
      <trkpt lat="43.53726" lon="3.51231">
        <ele>103</ele>
        <time>2019-03-15T08:14:09Z</time>
      </trkpt>
      <trkpt lat="43.53729" lon="3.51228">
        <ele>103</ele>
        <time>2019-03-15T08:14:12Z</time>
      </trkpt>
      <trkpt lat="43.53731" lon="3.51226">
        <ele>102.9</ele>
        <time>2019-03-15T08:14:14Z</time>
      </trkpt>
      <trkpt lat="43.53733" lon="3.51223">
        <ele>102.9</ele>
        <time>2019-03-15T08:14:17Z</time>
      </trkpt>
      <trkpt lat="43.53736" lon="3.51221">
        <ele>102.8</ele>
        <time>2019-03-15T08:14:19Z</time>
      </trkpt>
      <trkpt lat="43.53739" lon="3.51218">
        <ele>102.8</ele>
        <time>2019-03-15T08:14:21Z</time>
      </trkpt>
      <trkpt lat="43.53742" lon="3.51216">
        <ele>102.7</ele>
        <time>2019-03-15T08:14:23Z</time>
      </trkpt>
      <trkpt lat="43.53745" lon="3.51214">
        <ele>102.7</ele>
        <time>2019-03-15T08:14:25Z</time>
      </trkpt>
      <trkpt lat="43.53748" lon="3.51212">
        <ele>102.6</ele>
        <time>2019-03-15T08:14:27Z</time>
      </trkpt>
      <trkpt lat="43.53751" lon="3.51209">
        <ele>102.5</ele>
        <time>2019-03-15T08:14:29Z</time>
      </trkpt>
      <trkpt lat="43.53754" lon="3.51207">
        <ele>102.5</ele>
        <time>2019-03-15T08:14:32Z</time>
      </trkpt>
      <trkpt lat="43.53756" lon="3.51205">
        <ele>102.4</ele>
        <time>2019-03-15T08:14:34Z</time>
      </trkpt>
      <trkpt lat="43.5376" lon="3.51202">
        <ele>102.4</ele>
        <time>2019-03-15T08:14:37Z</time>
      </trkpt>
      <trkpt lat="43.53762" lon="3.512">
        <ele>102.3</ele>
        <time>2019-03-15T08:14:40Z</time>
      </trkpt>
      <trkpt lat="43.53765" lon="3.51198">
        <ele>102.2</ele>
        <time>2019-03-15T08:14:42Z</time>
      </trkpt>
      <trkpt lat="43.53768" lon="3.51196">
        <ele>102.2</ele>
        <time>2019-03-15T08:14:44Z</time>
      </trkpt>
      <trkpt lat="43.5377" lon="3.51195">
        <ele>102.1</ele>
        <time>2019-03-15T08:14:46Z</time>
      </trkpt>
      <trkpt lat="43.53774" lon="3.51192">
        <ele>102.1</ele>
        <time>2019-03-15T08:14:49Z</time>
      </trkpt>
      <trkpt lat="43.53777" lon="3.5119">
        <ele>102</ele>
        <time>2019-03-15T08:14:51Z</time>
      </trkpt>
      <trkpt lat="43.53779" lon="3.51188">
        <ele>102</ele>
        <time>2019-03-15T08:14:53Z</time>
      </trkpt>
      <trkpt lat="43.53783" lon="3.51186">
        <ele>101.9</ele>
        <time>2019-03-15T08:14:56Z</time>
      </trkpt>
      <trkpt lat="43.53786" lon="3.51183">
        <ele>101.8</ele>
        <time>2019-03-15T08:14:59Z</time>
      </trkpt>
      <trkpt lat="43.53789" lon="3.5118">
        <ele>101.8</ele>
        <time>2019-03-15T08:15:01Z</time>
      </trkpt>
      <trkpt lat="43.53792" lon="3.51177">
        <ele>101.7</ele>
        <time>2019-03-15T08:15:03Z</time>
      </trkpt>
      <trkpt lat="43.53794" lon="3.51174">
        <ele>101.6</ele>
        <time>2019-03-15T08:15:05Z</time>
      </trkpt>
      <trkpt lat="43.53796" lon="3.51171">
        <ele>101.5</ele>
        <time>2019-03-15T08:15:07Z</time>
      </trkpt>
      <trkpt lat="43.53798" lon="3.51169">
        <ele>101.5</ele>
        <time>2019-03-15T08:15:09Z</time>
      </trkpt>
      <trkpt lat="43.53801" lon="3.51166">
        <ele>101.4</ele>
        <time>2019-03-15T08:15:11Z</time>
      </trkpt>
      <trkpt lat="43.53803" lon="3.51163">
        <ele>101.4</ele>
        <time>2019-03-15T08:15:13Z</time>
      </trkpt>
      <trkpt lat="43.53806" lon="3.5116">
        <ele>101.3</ele>
        <time>2019-03-15T08:15:15Z</time>
      </trkpt>
      <trkpt lat="43.53809" lon="3.51158">
        <ele>101.3</ele>
        <time>2019-03-15T08:15:17Z</time>
      </trkpt>
      <trkpt lat="43.53811" lon="3.51156">
        <ele>101.2</ele>
        <time>2019-03-15T08:15:19Z</time>
      </trkpt>
      <trkpt lat="43.53813" lon="3.51154">
        <ele>101.1</ele>
        <time>2019-03-15T08:15:21Z</time>
      </trkpt>
      <trkpt lat="43.53816" lon="3.51152">
        <ele>101.1</ele>
        <time>2019-03-15T08:15:23Z</time>
      </trkpt>
      <trkpt lat="43.53818" lon="3.5115">
        <ele>101</ele>
        <time>2019-03-15T08:15:25Z</time>
      </trkpt>
      <trkpt lat="43.53821" lon="3.51147">
        <ele>100.9</ele>
        <time>2019-03-15T08:15:27Z</time>
      </trkpt>
      <trkpt lat="43.53823" lon="3.51144">
        <ele>100.8</ele>
        <time>2019-03-15T08:15:29Z</time>
      </trkpt>
      <trkpt lat="43.53826" lon="3.5114">
        <ele>100.6</ele>
        <time>2019-03-15T08:15:32Z</time>
      </trkpt>
      <trkpt lat="43.53828" lon="3.51136">
        <ele>100.5</ele>
        <time>2019-03-15T08:15:35Z</time>
      </trkpt>
      <trkpt lat="43.53831" lon="3.51133">
        <ele>100.4</ele>
        <time>2019-03-15T08:15:37Z</time>
      </trkpt>
      <trkpt lat="43.53833" lon="3.51131">
        <ele>100.2</ele>
        <time>2019-03-15T08:15:40Z</time>
      </trkpt>
      <trkpt lat="43.53836" lon="3.51128">
        <ele>100.1</ele>
        <time>2019-03-15T08:15:43Z</time>
      </trkpt>
      <trkpt lat="43.53839" lon="3.51126">
        <ele>100</ele>
        <time>2019-03-15T08:15:45Z</time>
      </trkpt>
      <trkpt lat="43.53842" lon="3.51124">
        <ele>99.9</ele>
        <time>2019-03-15T08:15:47Z</time>
      </trkpt>
      <trkpt lat="43.53844" lon="3.51122">
        <ele>99.8</ele>
        <time>2019-03-15T08:15:49Z</time>
      </trkpt>
      <trkpt lat="43.53846" lon="3.5112">
        <ele>99.7</ele>
        <time>2019-03-15T08:15:51Z</time>
      </trkpt>
      <trkpt lat="43.53849" lon="3.51118">
        <ele>99.5</ele>
        <time>2019-03-15T08:15:53Z</time>
      </trkpt>
      <trkpt lat="43.53851" lon="3.51115">
        <ele>99.4</ele>
        <time>2019-03-15T08:15:55Z</time>
      </trkpt>
      <trkpt lat="43.53854" lon="3.51113">
        <ele>99.3</ele>
        <time>2019-03-15T08:15:57Z</time>
      </trkpt>
      <trkpt lat="43.53856" lon="3.5111">
        <ele>99.2</ele>
        <time>2019-03-15T08:15:59Z</time>
      </trkpt>
      <trkpt lat="43.53858" lon="3.51106">
        <ele>99</ele>
        <time>2019-03-15T08:16:02Z</time>
      </trkpt>
      <trkpt lat="43.5386" lon="3.51103">
        <ele>98.9</ele>
        <time>2019-03-15T08:16:05Z</time>
      </trkpt>
      <trkpt lat="43.53862" lon="3.51099">
        <ele>98.8</ele>
        <time>2019-03-15T08:16:07Z</time>
      </trkpt>
      <trkpt lat="43.53864" lon="3.51094">
        <ele>98.6</ele>
        <time>2019-03-15T08:16:10Z</time>
      </trkpt>
      <trkpt lat="43.53867" lon="3.51091">
        <ele>98.4</ele>
        <time>2019-03-15T08:16:13Z</time>
      </trkpt>
      <trkpt lat="43.53869" lon="3.51088">
        <ele>98.3</ele>
        <time>2019-03-15T08:16:15Z</time>
      </trkpt>
      <trkpt lat="43.53871" lon="3.51086">
        <ele>98.2</ele>
        <time>2019-03-15T08:16:17Z</time>
      </trkpt>
      <trkpt lat="43.53873" lon="3.51083">
        <ele>98</ele>
        <time>2019-03-15T08:16:19Z</time>
      </trkpt>
      <trkpt lat="43.53875" lon="3.5108">
        <ele>97.9</ele>
        <time>2019-03-15T08:16:21Z</time>
      </trkpt>
      <trkpt lat="43.53878" lon="3.51078">
        <ele>97.7</ele>
        <time>2019-03-15T08:16:23Z</time>
      </trkpt>
      <trkpt lat="43.5388" lon="3.51075">
        <ele>97.6</ele>
        <time>2019-03-15T08:16:25Z</time>
      </trkpt>
      <trkpt lat="43.53883" lon="3.51072">
        <ele>97.4</ele>
        <time>2019-03-15T08:16:27Z</time>
      </trkpt>
      <trkpt lat="43.53885" lon="3.51069">
        <ele>97.2</ele>
        <time>2019-03-15T08:16:30Z</time>
      </trkpt>
      <trkpt lat="43.53888" lon="3.51066">
        <ele>97</ele>
        <time>2019-03-15T08:16:33Z</time>
      </trkpt>
      <trkpt lat="43.5389" lon="3.51064">
        <ele>96.8</ele>
        <time>2019-03-15T08:16:35Z</time>
      </trkpt>
      <trkpt lat="43.53893" lon="3.51061">
        <ele>96.6</ele>
        <time>2019-03-15T08:16:37Z</time>
      </trkpt>
      <trkpt lat="43.53896" lon="3.51059">
        <ele>96.4</ele>
        <time>2019-03-15T08:16:39Z</time>
      </trkpt>
      <trkpt lat="43.53898" lon="3.51056">
        <ele>96.3</ele>
        <time>2019-03-15T08:16:41Z</time>
      </trkpt>
      <trkpt lat="43.53901" lon="3.51053">
        <ele>96</ele>
        <time>2019-03-15T08:16:44Z</time>
      </trkpt>
      <trkpt lat="43.53904" lon="3.5105">
        <ele>95.8</ele>
        <time>2019-03-15T08:16:46Z</time>
      </trkpt>
      <trkpt lat="43.53906" lon="3.51047">
        <ele>95.6</ele>
        <time>2019-03-15T08:16:48Z</time>
      </trkpt>
      <trkpt lat="43.5391" lon="3.51044">
        <ele>95.4</ele>
        <time>2019-03-15T08:16:51Z</time>
      </trkpt>
      <trkpt lat="43.53912" lon="3.51042">
        <ele>95.2</ele>
        <time>2019-03-15T08:16:53Z</time>
      </trkpt>
      <trkpt lat="43.53916" lon="3.5104">
        <ele>94.8</ele>
        <time>2019-03-15T08:16:56Z</time>
      </trkpt>
      <trkpt lat="43.53919" lon="3.51037">
        <ele>94.6</ele>
        <time>2019-03-15T08:16:58Z</time>
      </trkpt>
      <trkpt lat="43.53923" lon="3.51035">
        <ele>94.3</ele>
        <time>2019-03-15T08:17:00Z</time>
      </trkpt>
      <trkpt lat="43.53928" lon="3.51034">
        <ele>94.1</ele>
        <time>2019-03-15T08:17:02Z</time>
      </trkpt>
      <trkpt lat="43.53932" lon="3.51032">
        <ele>93.9</ele>
        <time>2019-03-15T08:17:04Z</time>
      </trkpt>
      <trkpt lat="43.53935" lon="3.5103">
        <ele>93.7</ele>
        <time>2019-03-15T08:17:06Z</time>
      </trkpt>
      <trkpt lat="43.53938" lon="3.51028">
        <ele>93.5</ele>
        <time>2019-03-15T08:17:08Z</time>
      </trkpt>
      <trkpt lat="43.53941" lon="3.51027">
        <ele>93.3</ele>
        <time>2019-03-15T08:17:10Z</time>
      </trkpt>
      <trkpt lat="43.53944" lon="3.51026">
        <ele>93.1</ele>
        <time>2019-03-15T08:17:12Z</time>
      </trkpt>
      <trkpt lat="43.53947" lon="3.51024">
        <ele>92.9</ele>
        <time>2019-03-15T08:17:14Z</time>
      </trkpt>
      <trkpt lat="43.5395" lon="3.51023">
        <ele>92.7</ele>
        <time>2019-03-15T08:17:16Z</time>
      </trkpt>
      <trkpt lat="43.53953" lon="3.51022">
        <ele>92.4</ele>
        <time>2019-03-15T08:17:18Z</time>
      </trkpt>
      <trkpt lat="43.53956" lon="3.5102">
        <ele>92.2</ele>
        <time>2019-03-15T08:17:20Z</time>
      </trkpt>
      <trkpt lat="43.53959" lon="3.51019">
        <ele>91.9</ele>
        <time>2019-03-15T08:17:22Z</time>
      </trkpt>
      <trkpt lat="43.53962" lon="3.51019">
        <ele>91.7</ele>
        <time>2019-03-15T08:17:24Z</time>
      </trkpt>
      <trkpt lat="43.53965" lon="3.51018">
        <ele>91.5</ele>
        <time>2019-03-15T08:17:26Z</time>
      </trkpt>
      <trkpt lat="43.53968" lon="3.51017">
        <ele>91.3</ele>
        <time>2019-03-15T08:17:28Z</time>
      </trkpt>
      <trkpt lat="43.5397" lon="3.51016">
        <ele>91</ele>
        <time>2019-03-15T08:17:30Z</time>
      </trkpt>
      <trkpt lat="43.53973" lon="3.51015">
        <ele>90.8</ele>
        <time>2019-03-15T08:17:32Z</time>
      </trkpt>
      <trkpt lat="43.53976" lon="3.51014">
        <ele>90.4</ele>
        <time>2019-03-15T08:17:34Z</time>
      </trkpt>
      <trkpt lat="43.53979" lon="3.51012">
        <ele>90.1</ele>
        <time>2019-03-15T08:17:36Z</time>
      </trkpt>
      <trkpt lat="43.53983" lon="3.5101">
        <ele>89.9</ele>
        <time>2019-03-15T08:17:39Z</time>
      </trkpt>
      <trkpt lat="43.53985" lon="3.51008">
        <ele>89.6</ele>
        <time>2019-03-15T08:17:41Z</time>
      </trkpt>
      <trkpt lat="43.53988" lon="3.51008">
        <ele>89.4</ele>
        <time>2019-03-15T08:17:43Z</time>
      </trkpt>
      <trkpt lat="43.53991" lon="3.51006">
        <ele>89.2</ele>
        <time>2019-03-15T08:17:46Z</time>
      </trkpt>
      <trkpt lat="43.53994" lon="3.51004">
        <ele>89</ele>
        <time>2019-03-15T08:17:48Z</time>
      </trkpt>
      <trkpt lat="43.53997" lon="3.51003">
        <ele>88.8</ele>
        <time>2019-03-15T08:17:50Z</time>
      </trkpt>
      <trkpt lat="43.53999" lon="3.51001">
        <ele>88.6</ele>
        <time>2019-03-15T08:17:52Z</time>
      </trkpt>
      <trkpt lat="43.54002" lon="3.51">
        <ele>88.3</ele>
        <time>2019-03-15T08:17:54Z</time>
      </trkpt>
      <trkpt lat="43.54005" lon="3.50998">
        <ele>88.1</ele>
        <time>2019-03-15T08:17:56Z</time>
      </trkpt>
      <trkpt lat="43.54008" lon="3.50997">
        <ele>87.8</ele>
        <time>2019-03-15T08:17:58Z</time>
      </trkpt>
      <trkpt lat="43.54011" lon="3.50997">
        <ele>87.6</ele>
        <time>2019-03-15T08:18:01Z</time>
      </trkpt>
      <trkpt lat="43.54014" lon="3.50995">
        <ele>87.4</ele>
        <time>2019-03-15T08:18:04Z</time>
      </trkpt>
      <trkpt lat="43.54017" lon="3.50992">
        <ele>87.1</ele>
        <time>2019-03-15T08:18:07Z</time>
      </trkpt>
      <trkpt lat="43.54019" lon="3.50988">
        <ele>86.9</ele>
        <time>2019-03-15T08:18:10Z</time>
      </trkpt>
      <trkpt lat="43.54023" lon="3.50987">
        <ele>86.6</ele>
        <time>2019-03-15T08:18:13Z</time>
      </trkpt>
      <trkpt lat="43.54026" lon="3.50987">
        <ele>86.4</ele>
        <time>2019-03-15T08:18:16Z</time>
      </trkpt>
      <trkpt lat="43.54029" lon="3.50986">
        <ele>86.3</ele>
        <time>2019-03-15T08:18:18Z</time>
      </trkpt>
      <trkpt lat="43.54032" lon="3.50984">
        <ele>86.1</ele>
        <time>2019-03-15T08:18:20Z</time>
      </trkpt>
      <trkpt lat="43.54036" lon="3.50984">
        <ele>85.9</ele>
        <time>2019-03-15T08:18:23Z</time>
      </trkpt>
      <trkpt lat="43.54039" lon="3.50983">
        <ele>85.8</ele>
        <time>2019-03-15T08:18:25Z</time>
      </trkpt>
      <trkpt lat="43.54042" lon="3.50982">
        <ele>85.7</ele>
        <time>2019-03-15T08:18:27Z</time>
      </trkpt>
      <trkpt lat="43.54044" lon="3.50982">
        <ele>85.6</ele>
        <time>2019-03-15T08:18:29Z</time>
      </trkpt>
      <trkpt lat="43.54048" lon="3.50982">
        <ele>85.4</ele>
        <time>2019-03-15T08:18:31Z</time>
      </trkpt>
      <trkpt lat="43.54051" lon="3.50982">
        <ele>85.3</ele>
        <time>2019-03-15T08:18:33Z</time>
      </trkpt>
      <trkpt lat="43.54055" lon="3.50983">
        <ele>85.2</ele>
        <time>2019-03-15T08:18:35Z</time>
      </trkpt>
      <trkpt lat="43.54058" lon="3.50984">
        <ele>85</ele>
        <time>2019-03-15T08:18:37Z</time>
      </trkpt>
      <trkpt lat="43.54061" lon="3.50984">
        <ele>84.9</ele>
        <time>2019-03-15T08:18:39Z</time>
      </trkpt>
      <trkpt lat="43.54064" lon="3.50983">
        <ele>84.7</ele>
        <time>2019-03-15T08:18:41Z</time>
      </trkpt>
      <trkpt lat="43.54068" lon="3.50983">
        <ele>84.5</ele>
        <time>2019-03-15T08:18:44Z</time>
      </trkpt>
      <trkpt lat="43.54072" lon="3.50982">
        <ele>84.3</ele>
        <time>2019-03-15T08:18:46Z</time>
      </trkpt>
      <trkpt lat="43.54076" lon="3.50982">
        <ele>84.1</ele>
        <time>2019-03-15T08:18:49Z</time>
      </trkpt>
      <trkpt lat="43.54079" lon="3.5098">
        <ele>83.9</ele>
        <time>2019-03-15T08:18:52Z</time>
      </trkpt>
      <trkpt lat="43.54082" lon="3.50977">
        <ele>83.7</ele>
        <time>2019-03-15T08:18:55Z</time>
      </trkpt>
      <trkpt lat="43.54085" lon="3.50974">
        <ele>83.4</ele>
        <time>2019-03-15T08:18:58Z</time>
      </trkpt>
      <trkpt lat="43.54087" lon="3.5097">
        <ele>83.2</ele>
        <time>2019-03-15T08:19:01Z</time>
      </trkpt>
      <trkpt lat="43.5409" lon="3.50968">
        <ele>83</ele>
        <time>2019-03-15T08:19:03Z</time>
      </trkpt>
      <trkpt lat="43.54093" lon="3.50965">
        <ele>82.7</ele>
        <time>2019-03-15T08:19:06Z</time>
      </trkpt>
      <trkpt lat="43.54096" lon="3.50962">
        <ele>82.3</ele>
        <time>2019-03-15T08:19:09Z</time>
      </trkpt>
      <trkpt lat="43.541" lon="3.5096">
        <ele>81.8</ele>
        <time>2019-03-15T08:19:12Z</time>
      </trkpt>
      <trkpt lat="43.54103" lon="3.50958">
        <ele>81.5</ele>
        <time>2019-03-15T08:19:15Z</time>
      </trkpt>
      <trkpt lat="43.54107" lon="3.50956">
        <ele>81.1</ele>
        <time>2019-03-15T08:19:18Z</time>
      </trkpt>
      <trkpt lat="43.5411" lon="3.50955">
        <ele>80.8</ele>
        <time>2019-03-15T08:19:20Z</time>
      </trkpt>
      <trkpt lat="43.54112" lon="3.50952">
        <ele>80.5</ele>
        <time>2019-03-15T08:19:22Z</time>
      </trkpt>
      <trkpt lat="43.54115" lon="3.5095">
        <ele>80.3</ele>
        <time>2019-03-15T08:19:24Z</time>
      </trkpt>
      <trkpt lat="43.54118" lon="3.50949">
        <ele>80</ele>
        <time>2019-03-15T08:19:26Z</time>
      </trkpt>
      <trkpt lat="43.54121" lon="3.50947">
        <ele>79.7</ele>
        <time>2019-03-15T08:19:28Z</time>
      </trkpt>
      <trkpt lat="43.54123" lon="3.50945">
        <ele>79.4</ele>
        <time>2019-03-15T08:19:30Z</time>
      </trkpt>
      <trkpt lat="43.54125" lon="3.50943">
        <ele>79.2</ele>
        <time>2019-03-15T08:19:32Z</time>
      </trkpt>
      <trkpt lat="43.54128" lon="3.5094">
        <ele>78.9</ele>
        <time>2019-03-15T08:19:36Z</time>
      </trkpt>
      <trkpt lat="43.54127" lon="3.50935">
        <ele>79.4</ele>
        <time>2019-03-15T08:19:40Z</time>
      </trkpt>
      <trkpt lat="43.54125" lon="3.50939">
        <ele>79.2</ele>
        <time>2019-03-15T08:19:44Z</time>
      </trkpt>
      <trkpt lat="43.54124" lon="3.50943">
        <ele>79</ele>
        <time>2019-03-15T08:19:46Z</time>
      </trkpt>
      <trkpt lat="43.54122" lon="3.50946">
        <ele>79.2</ele>
        <time>2019-03-15T08:19:50Z</time>
      </trkpt>
      <trkpt lat="43.54119" lon="3.50942">
        <ele>79.7</ele>
        <time>2019-03-15T08:19:54Z</time>
      </trkpt>
      <trkpt lat="43.54118" lon="3.50938">
        <ele>79.9</ele>
        <time>2019-03-15T08:19:57Z</time>
      </trkpt>
      <trkpt lat="43.54118" lon="3.50934">
        <ele>80.1</ele>
        <time>2019-03-15T08:19:59Z</time>
      </trkpt>
      <trkpt lat="43.54119" lon="3.5093">
        <ele>80.2</ele>
        <time>2019-03-15T08:20:02Z</time>
      </trkpt>
      <trkpt lat="43.54119" lon="3.50925">
        <ele>80.4</ele>
        <time>2019-03-15T08:20:05Z</time>
      </trkpt>
      <trkpt lat="43.54116" lon="3.50927">
        <ele>80.7</ele>
        <time>2019-03-15T08:20:13Z</time>
      </trkpt>
      <trkpt lat="43.54113" lon="3.50926">
        <ele>81.1</ele>
        <time>2019-03-15T08:20:17Z</time>
      </trkpt>
      <trkpt lat="43.54111" lon="3.50923">
        <ele>81.7</ele>
        <time>2019-03-15T08:20:21Z</time>
      </trkpt>
      <trkpt lat="43.54112" lon="3.50918">
        <ele>81.5</ele>
        <time>2019-03-15T08:20:25Z</time>
      </trkpt>
      <trkpt lat="43.54113" lon="3.50915">
        <ele>81.5</ele>
        <time>2019-03-15T08:20:28Z</time>
      </trkpt>
      <trkpt lat="43.54113" lon="3.50911">
        <ele>81.8</ele>
        <time>2019-03-15T08:20:31Z</time>
      </trkpt>
      <trkpt lat="43.54111" lon="3.50906">
        <ele>82.5</ele>
        <time>2019-03-15T08:20:34Z</time>
      </trkpt>
      <trkpt lat="43.54109" lon="3.50903">
        <ele>82.9</ele>
        <time>2019-03-15T08:20:37Z</time>
      </trkpt>
      <trkpt lat="43.54107" lon="3.50899">
        <ele>83.7</ele>
        <time>2019-03-15T08:20:40Z</time>
      </trkpt>
      <trkpt lat="43.54105" lon="3.50896">
        <ele>84.6</ele>
        <time>2019-03-15T08:20:46Z</time>
      </trkpt>
      <trkpt lat="43.54103" lon="3.50891">
        <ele>85.1</ele>
        <time>2019-03-15T08:20:49Z</time>
      </trkpt>
      <trkpt lat="43.54102" lon="3.50887">
        <ele>86</ele>
        <time>2019-03-15T08:20:53Z</time>
      </trkpt>
      <trkpt lat="43.54101" lon="3.50884">
        <ele>86.5</ele>
        <time>2019-03-15T08:20:59Z</time>
      </trkpt>
      <trkpt lat="43.54097" lon="3.50882">
        <ele>86.9</ele>
        <time>2019-03-15T08:21:03Z</time>
      </trkpt>
      <trkpt lat="43.54096" lon="3.50878">
        <ele>87.3</ele>
        <time>2019-03-15T08:21:07Z</time>
      </trkpt>
      <trkpt lat="43.54096" lon="3.50872">
        <ele>88.2</ele>
        <time>2019-03-15T08:21:10Z</time>
      </trkpt>
      <trkpt lat="43.54095" lon="3.50867">
        <ele>89.2</ele>
        <time>2019-03-15T08:21:14Z</time>
      </trkpt>
      <trkpt lat="43.54095" lon="3.50863">
        <ele>89.7</ele>
        <time>2019-03-15T08:21:17Z</time>
      </trkpt>
      <trkpt lat="43.54094" lon="3.50858">
        <ele>90.3</ele>
        <time>2019-03-15T08:21:20Z</time>
      </trkpt>
      <trkpt lat="43.54092" lon="3.50854">
        <ele>91.3</ele>
        <time>2019-03-15T08:21:24Z</time>
      </trkpt>
      <trkpt lat="43.54093" lon="3.5085">
        <ele>91.5</ele>
        <time>2019-03-15T08:21:27Z</time>
      </trkpt>
      <trkpt lat="43.54092" lon="3.50845">
        <ele>92.5</ele>
        <time>2019-03-15T08:21:31Z</time>
      </trkpt>
      <trkpt lat="43.54092" lon="3.5084">
        <ele>93.1</ele>
        <time>2019-03-15T08:21:33Z</time>
      </trkpt>
      <trkpt lat="43.54093" lon="3.50836">
        <ele>93.3</ele>
        <time>2019-03-15T08:21:36Z</time>
      </trkpt>
      <trkpt lat="43.54094" lon="3.50832">
        <ele>93.9</ele>
        <time>2019-03-15T08:21:39Z</time>
      </trkpt>
      <trkpt lat="43.54094" lon="3.50827">
        <ele>94.5</ele>
        <time>2019-03-15T08:21:42Z</time>
      </trkpt>
      <trkpt lat="43.54094" lon="3.50823">
        <ele>95.1</ele>
        <time>2019-03-15T08:21:44Z</time>
      </trkpt>
      <trkpt lat="43.54093" lon="3.50819">
        <ele>95.7</ele>
        <time>2019-03-15T08:21:46Z</time>
      </trkpt>
      <trkpt lat="43.54092" lon="3.50815">
        <ele>96.7</ele>
        <time>2019-03-15T08:21:48Z</time>
      </trkpt>
      <trkpt lat="43.54091" lon="3.50811">
        <ele>97.3</ele>
        <time>2019-03-15T08:21:50Z</time>
      </trkpt>
      <trkpt lat="43.5409" lon="3.50807">
        <ele>97.9</ele>
        <time>2019-03-15T08:21:52Z</time>
      </trkpt>
      <trkpt lat="43.54088" lon="3.50803">
        <ele>98.9</ele>
        <time>2019-03-15T08:21:55Z</time>
      </trkpt>
      <trkpt lat="43.54088" lon="3.50798">
        <ele>99.5</ele>
        <time>2019-03-15T08:21:58Z</time>
      </trkpt>
      <trkpt lat="43.54088" lon="3.50794">
        <ele>99.9</ele>
        <time>2019-03-15T08:22:01Z</time>
      </trkpt>
      <trkpt lat="43.54086" lon="3.50791">
        <ele>100.5</ele>
        <time>2019-03-15T08:22:05Z</time>
      </trkpt>
      <trkpt lat="43.54085" lon="3.50788">
        <ele>100.9</ele>
        <time>2019-03-15T08:22:09Z</time>
      </trkpt>
      <trkpt lat="43.54083" lon="3.50783">
        <ele>101.8</ele>
        <time>2019-03-15T08:22:13Z</time>
      </trkpt>
      <trkpt lat="43.54083" lon="3.50779">
        <ele>102.3</ele>
        <time>2019-03-15T08:22:15Z</time>
      </trkpt>
      <trkpt lat="43.54084" lon="3.50775">
        <ele>102.2</ele>
        <time>2019-03-15T08:22:17Z</time>
      </trkpt>
      <trkpt lat="43.54084" lon="3.50771">
        <ele>102.7</ele>
        <time>2019-03-15T08:22:19Z</time>
      </trkpt>
      <trkpt lat="43.54086" lon="3.50766">
        <ele>103.1</ele>
        <time>2019-03-15T08:22:22Z</time>
      </trkpt>
      <trkpt lat="43.54086" lon="3.50762">
        <ele>103.5</ele>
        <time>2019-03-15T08:22:24Z</time>
      </trkpt>
      <trkpt lat="43.54085" lon="3.50757">
        <ele>103.9</ele>
        <time>2019-03-15T08:22:28Z</time>
      </trkpt>
      <trkpt lat="43.54085" lon="3.50753">
        <ele>104.3</ele>
        <time>2019-03-15T08:22:30Z</time>
      </trkpt>
      <trkpt lat="43.54086" lon="3.50748">
        <ele>104.6</ele>
        <time>2019-03-15T08:22:33Z</time>
      </trkpt>
      <trkpt lat="43.54088" lon="3.50744">
        <ele>104.6</ele>
        <time>2019-03-15T08:22:37Z</time>
      </trkpt>
      <trkpt lat="43.54089" lon="3.50739">
        <ele>104.9</ele>
        <time>2019-03-15T08:22:40Z</time>
      </trkpt>
      <trkpt lat="43.54089" lon="3.50734">
        <ele>105.2</ele>
        <time>2019-03-15T08:22:43Z</time>
      </trkpt>
      <trkpt lat="43.54091" lon="3.50731">
        <ele>105.1</ele>
        <time>2019-03-15T08:22:46Z</time>
      </trkpt>
      <trkpt lat="43.54092" lon="3.50727">
        <ele>105.5</ele>
        <time>2019-03-15T08:22:49Z</time>
      </trkpt>
      <trkpt lat="43.54093" lon="3.50723">
        <ele>105.5</ele>
        <time>2019-03-15T08:22:52Z</time>
      </trkpt>
      <trkpt lat="43.54093" lon="3.50718">
        <ele>105.8</ele>
        <time>2019-03-15T08:22:54Z</time>
      </trkpt>
      <trkpt lat="43.54093" lon="3.50713">
        <ele>106.1</ele>
        <time>2019-03-15T08:22:57Z</time>
      </trkpt>
      <trkpt lat="43.54094" lon="3.50708">
        <ele>106.7</ele>
        <time>2019-03-15T08:23:00Z</time>
      </trkpt>
      <trkpt lat="43.54094" lon="3.50704">
        <ele>106.8</ele>
        <time>2019-03-15T08:23:03Z</time>
      </trkpt>
      <trkpt lat="43.54095" lon="3.507">
        <ele>107</ele>
        <time>2019-03-15T08:23:05Z</time>
      </trkpt>
      <trkpt lat="43.54097" lon="3.50696">
        <ele>107</ele>
        <time>2019-03-15T08:23:07Z</time>
      </trkpt>
      <trkpt lat="43.54097" lon="3.50692">
        <ele>107.3</ele>
        <time>2019-03-15T08:23:10Z</time>
      </trkpt>
      <trkpt lat="43.54098" lon="3.50687">
        <ele>107.9</ele>
        <time>2019-03-15T08:23:12Z</time>
      </trkpt>
      <trkpt lat="43.54098" lon="3.50682">
        <ele>108.2</ele>
        <time>2019-03-15T08:23:14Z</time>
      </trkpt>
      <trkpt lat="43.54099" lon="3.50677">
        <ele>108.5</ele>
        <time>2019-03-15T08:23:16Z</time>
      </trkpt>
      <trkpt lat="43.54099" lon="3.50673">
        <ele>108.5</ele>
        <time>2019-03-15T08:23:18Z</time>
      </trkpt>
      <trkpt lat="43.54099" lon="3.50668">
        <ele>108.8</ele>
        <time>2019-03-15T08:23:21Z</time>
      </trkpt>
      <trkpt lat="43.54099" lon="3.50664">
        <ele>109.3</ele>
        <time>2019-03-15T08:23:23Z</time>
      </trkpt>
      <trkpt lat="43.541" lon="3.50659">
        <ele>109.2</ele>
        <time>2019-03-15T08:23:26Z</time>
      </trkpt>
      <trkpt lat="43.54101" lon="3.50655">
        <ele>109.4</ele>
        <time>2019-03-15T08:23:29Z</time>
      </trkpt>
      <trkpt lat="43.54102" lon="3.50651">
        <ele>109.5</ele>
        <time>2019-03-15T08:23:32Z</time>
      </trkpt>
      <trkpt lat="43.54102" lon="3.50646">
        <ele>109.6</ele>
        <time>2019-03-15T08:23:35Z</time>
      </trkpt>
      <trkpt lat="43.541" lon="3.50642">
        <ele>109.7</ele>
        <time>2019-03-15T08:23:38Z</time>
      </trkpt>
      <trkpt lat="43.54101" lon="3.50638">
        <ele>109.9</ele>
        <time>2019-03-15T08:23:42Z</time>
      </trkpt>
      <trkpt lat="43.54099" lon="3.50634">
        <ele>110.3</ele>
        <time>2019-03-15T08:23:45Z</time>
      </trkpt>
      <trkpt lat="43.54098" lon="3.5063">
        <ele>110.5</ele>
        <time>2019-03-15T08:23:47Z</time>
      </trkpt>
      <trkpt lat="43.54098" lon="3.50625">
        <ele>110.7</ele>
        <time>2019-03-15T08:23:49Z</time>
      </trkpt>
      <trkpt lat="43.54098" lon="3.50621">
        <ele>110.9</ele>
        <time>2019-03-15T08:23:51Z</time>
      </trkpt>
      <trkpt lat="43.54096" lon="3.50616">
        <ele>111.5</ele>
        <time>2019-03-15T08:23:54Z</time>
      </trkpt>
      <trkpt lat="43.54095" lon="3.50611">
        <ele>111.7</ele>
        <time>2019-03-15T08:23:56Z</time>
      </trkpt>
      <trkpt lat="43.54093" lon="3.50608">
        <ele>112</ele>
        <time>2019-03-15T08:23:58Z</time>
      </trkpt>
      <trkpt lat="43.54092" lon="3.50604">
        <ele>112.7</ele>
        <time>2019-03-15T08:24:01Z</time>
      </trkpt>
      <trkpt lat="43.54092" lon="3.506">
        <ele>112.9</ele>
        <time>2019-03-15T08:24:03Z</time>
      </trkpt>
      <trkpt lat="43.54092" lon="3.50596">
        <ele>113.2</ele>
        <time>2019-03-15T08:24:06Z</time>
      </trkpt>
      <trkpt lat="43.54091" lon="3.50592">
        <ele>113.4</ele>
        <time>2019-03-15T08:24:08Z</time>
      </trkpt>
      <trkpt lat="43.5409" lon="3.50588">
        <ele>113.7</ele>
        <time>2019-03-15T08:24:10Z</time>
      </trkpt>
      <trkpt lat="43.54088" lon="3.50584">
        <ele>113.8</ele>
        <time>2019-03-15T08:24:12Z</time>
      </trkpt>
      <trkpt lat="43.54087" lon="3.50579">
        <ele>113.9</ele>
        <time>2019-03-15T08:24:15Z</time>
      </trkpt>
      <trkpt lat="43.54088" lon="3.50574">
        <ele>113.9</ele>
        <time>2019-03-15T08:24:18Z</time>
      </trkpt>
      <trkpt lat="43.54089" lon="3.5057">
        <ele>113.9</ele>
        <time>2019-03-15T08:24:20Z</time>
      </trkpt>
      <trkpt lat="43.54089" lon="3.50565">
        <ele>113.9</ele>
        <time>2019-03-15T08:24:22Z</time>
      </trkpt>
      <trkpt lat="43.54089" lon="3.50561">
        <ele>113.9</ele>
        <time>2019-03-15T08:24:24Z</time>
      </trkpt>
      <trkpt lat="43.54089" lon="3.50556">
        <ele>113.8</ele>
        <time>2019-03-15T08:24:26Z</time>
      </trkpt>
      <trkpt lat="43.5409" lon="3.50553">
        <ele>113.8</ele>
        <time>2019-03-15T08:24:29Z</time>
      </trkpt>
      <trkpt lat="43.54091" lon="3.50548">
        <ele>113.7</ele>
        <time>2019-03-15T08:24:32Z</time>
      </trkpt>
      <trkpt lat="43.54091" lon="3.50543">
        <ele>113.6</ele>
        <time>2019-03-15T08:24:34Z</time>
      </trkpt>
      <trkpt lat="43.54091" lon="3.5054">
        <ele>113.6</ele>
        <time>2019-03-15T08:24:36Z</time>
      </trkpt>
      <trkpt lat="43.54092" lon="3.50535">
        <ele>113.5</ele>
        <time>2019-03-15T08:24:39Z</time>
      </trkpt>
      <trkpt lat="43.54091" lon="3.5053">
        <ele>113.5</ele>
        <time>2019-03-15T08:24:41Z</time>
      </trkpt>
      <trkpt lat="43.54091" lon="3.50526">
        <ele>113.4</ele>
        <time>2019-03-15T08:24:43Z</time>
      </trkpt>
      <trkpt lat="43.54091" lon="3.50522">
        <ele>113.4</ele>
        <time>2019-03-15T08:24:45Z</time>
      </trkpt>
      <trkpt lat="43.54092" lon="3.50518">
        <ele>113.4</ele>
        <time>2019-03-15T08:24:47Z</time>
      </trkpt>
      <trkpt lat="43.54092" lon="3.50514">
        <ele>113.3</ele>
        <time>2019-03-15T08:24:49Z</time>
      </trkpt>
      <trkpt lat="43.54093" lon="3.5051">
        <ele>113.4</ele>
        <time>2019-03-15T08:24:51Z</time>
      </trkpt>
      <trkpt lat="43.54095" lon="3.50504">
        <ele>113.3</ele>
        <time>2019-03-15T08:24:53Z</time>
      </trkpt>
      <trkpt lat="43.54096" lon="3.50499">
        <ele>113.3</ele>
        <time>2019-03-15T08:24:55Z</time>
      </trkpt>
      <trkpt lat="43.54097" lon="3.50493">
        <ele>113.2</ele>
        <time>2019-03-15T08:24:57Z</time>
      </trkpt>
      <trkpt lat="43.54097" lon="3.50489">
        <ele>113.1</ele>
        <time>2019-03-15T08:24:59Z</time>
      </trkpt>
      <trkpt lat="43.54099" lon="3.50485">
        <ele>113.1</ele>
        <time>2019-03-15T08:25:01Z</time>
      </trkpt>
      <trkpt lat="43.54101" lon="3.50481">
        <ele>113.1</ele>
        <time>2019-03-15T08:25:03Z</time>
      </trkpt>
      <trkpt lat="43.54102" lon="3.50476">
        <ele>113</ele>
        <time>2019-03-15T08:25:06Z</time>
      </trkpt>
      <trkpt lat="43.54103" lon="3.50473">
        <ele>113</ele>
        <time>2019-03-15T08:25:08Z</time>
      </trkpt>
      <trkpt lat="43.54103" lon="3.50469">
        <ele>113</ele>
        <time>2019-03-15T08:25:10Z</time>
      </trkpt>
      <trkpt lat="43.54104" lon="3.50465">
        <ele>113</ele>
        <time>2019-03-15T08:25:12Z</time>
      </trkpt>
      <trkpt lat="43.54105" lon="3.50461">
        <ele>113</ele>
        <time>2019-03-15T08:25:14Z</time>
      </trkpt>
      <trkpt lat="43.54106" lon="3.50456">
        <ele>113</ele>
        <time>2019-03-15T08:25:17Z</time>
      </trkpt>
      <trkpt lat="43.54108" lon="3.50452">
        <ele>112.9</ele>
        <time>2019-03-15T08:25:20Z</time>
      </trkpt>
      <trkpt lat="43.5411" lon="3.50448">
        <ele>112.8</ele>
        <time>2019-03-15T08:25:23Z</time>
      </trkpt>
      <trkpt lat="43.54111" lon="3.50443">
        <ele>112.8</ele>
        <time>2019-03-15T08:25:26Z</time>
      </trkpt>
      <trkpt lat="43.54112" lon="3.50439">
        <ele>112.6</ele>
        <time>2019-03-15T08:25:28Z</time>
      </trkpt>
      <trkpt lat="43.54113" lon="3.50435">
        <ele>112.6</ele>
        <time>2019-03-15T08:25:30Z</time>
      </trkpt>
      <trkpt lat="43.54115" lon="3.50432">
        <ele>112.4</ele>
        <time>2019-03-15T08:25:32Z</time>
      </trkpt>
      <trkpt lat="43.54116" lon="3.50428">
        <ele>112.3</ele>
        <time>2019-03-15T08:25:34Z</time>
      </trkpt>
      <trkpt lat="43.54116" lon="3.50423">
        <ele>112.2</ele>
        <time>2019-03-15T08:25:37Z</time>
      </trkpt>
      <trkpt lat="43.54118" lon="3.50419">
        <ele>112</ele>
        <time>2019-03-15T08:25:40Z</time>
      </trkpt>
      <trkpt lat="43.5412" lon="3.50415">
        <ele>111.9</ele>
        <time>2019-03-15T08:25:43Z</time>
      </trkpt>
      <trkpt lat="43.54122" lon="3.50411">
        <ele>111.7</ele>
        <time>2019-03-15T08:25:46Z</time>
      </trkpt>
      <trkpt lat="43.54124" lon="3.50408">
        <ele>111.4</ele>
        <time>2019-03-15T08:25:48Z</time>
      </trkpt>
      <trkpt lat="43.54125" lon="3.50403">
        <ele>111.3</ele>
        <time>2019-03-15T08:25:50Z</time>
      </trkpt>
      <trkpt lat="43.54126" lon="3.50398">
        <ele>111.1</ele>
        <time>2019-03-15T08:25:52Z</time>
      </trkpt>
      <trkpt lat="43.54127" lon="3.50394">
        <ele>110.9</ele>
        <time>2019-03-15T08:25:54Z</time>
      </trkpt>
      <trkpt lat="43.54128" lon="3.5039">
        <ele>110.7</ele>
        <time>2019-03-15T08:25:56Z</time>
      </trkpt>
      <trkpt lat="43.5413" lon="3.50386">
        <ele>110.5</ele>
        <time>2019-03-15T08:25:59Z</time>
      </trkpt>
      <trkpt lat="43.54131" lon="3.50382">
        <ele>110.1</ele>
        <time>2019-03-15T08:26:02Z</time>
      </trkpt>
      <trkpt lat="43.5413" lon="3.50378">
        <ele>110</ele>
        <time>2019-03-15T08:26:04Z</time>
      </trkpt>
      <trkpt lat="43.54129" lon="3.50374">
        <ele>110</ele>
        <time>2019-03-15T08:26:06Z</time>
      </trkpt>
      <trkpt lat="43.5413" lon="3.50369">
        <ele>109.4</ele>
        <time>2019-03-15T08:26:08Z</time>
      </trkpt>
      <trkpt lat="43.5413" lon="3.50365">
        <ele>109.5</ele>
        <time>2019-03-15T08:26:10Z</time>
      </trkpt>
      <trkpt lat="43.54131" lon="3.5036">
        <ele>108.8</ele>
        <time>2019-03-15T08:26:13Z</time>
      </trkpt>
      <trkpt lat="43.54131" lon="3.50355">
        <ele>108.5</ele>
        <time>2019-03-15T08:26:15Z</time>
      </trkpt>
      <trkpt lat="43.54131" lon="3.5035">
        <ele>108.2</ele>
        <time>2019-03-15T08:26:17Z</time>
      </trkpt>
      <trkpt lat="43.54132" lon="3.50345">
        <ele>108</ele>
        <time>2019-03-15T08:26:20Z</time>
      </trkpt>
      <trkpt lat="43.54131" lon="3.50341">
        <ele>107.8</ele>
        <time>2019-03-15T08:26:22Z</time>
      </trkpt>
      <trkpt lat="43.54132" lon="3.50337">
        <ele>107.6</ele>
        <time>2019-03-15T08:26:24Z</time>
      </trkpt>
      <trkpt lat="43.54134" lon="3.50333">
        <ele>107.4</ele>
        <time>2019-03-15T08:26:26Z</time>
      </trkpt>
      <trkpt lat="43.54136" lon="3.50329">
        <ele>107.2</ele>
        <time>2019-03-15T08:26:28Z</time>
      </trkpt>
      <trkpt lat="43.54137" lon="3.50325">
        <ele>106.9</ele>
        <time>2019-03-15T08:26:31Z</time>
      </trkpt>
      <trkpt lat="43.54137" lon="3.5032">
        <ele>106.6</ele>
        <time>2019-03-15T08:26:33Z</time>
      </trkpt>
      <trkpt lat="43.54138" lon="3.50315">
        <ele>106.4</ele>
        <time>2019-03-15T08:26:35Z</time>
      </trkpt>
      <trkpt lat="43.54139" lon="3.5031">
        <ele>106.2</ele>
        <time>2019-03-15T08:26:37Z</time>
      </trkpt>
      <trkpt lat="43.5414" lon="3.50306">
        <ele>105.8</ele>
        <time>2019-03-15T08:26:39Z</time>
      </trkpt>
      <trkpt lat="43.54141" lon="3.50302">
        <ele>105.6</ele>
        <time>2019-03-15T08:26:41Z</time>
      </trkpt>
      <trkpt lat="43.54142" lon="3.50297">
        <ele>105.4</ele>
        <time>2019-03-15T08:26:43Z</time>
      </trkpt>
      <trkpt lat="43.54143" lon="3.50292">
        <ele>105.2</ele>
        <time>2019-03-15T08:26:46Z</time>
      </trkpt>
      <trkpt lat="43.54146" lon="3.50288">
        <ele>105</ele>
        <time>2019-03-15T08:26:49Z</time>
      </trkpt>
      <trkpt lat="43.54148" lon="3.50285">
        <ele>104.9</ele>
        <time>2019-03-15T08:26:51Z</time>
      </trkpt>
      <trkpt lat="43.5415" lon="3.50281">
        <ele>104.7</ele>
        <time>2019-03-15T08:26:53Z</time>
      </trkpt>
      <trkpt lat="43.54151" lon="3.50277">
        <ele>104.6</ele>
        <time>2019-03-15T08:26:55Z</time>
      </trkpt>
      <trkpt lat="43.54152" lon="3.50272">
        <ele>104.5</ele>
        <time>2019-03-15T08:26:57Z</time>
      </trkpt>
      <trkpt lat="43.54154" lon="3.50269">
        <ele>104.5</ele>
        <time>2019-03-15T08:26:59Z</time>
      </trkpt>
      <trkpt lat="43.54156" lon="3.50266">
        <ele>104.5</ele>
        <time>2019-03-15T08:27:01Z</time>
      </trkpt>
      <trkpt lat="43.54157" lon="3.50261">
        <ele>104.5</ele>
        <time>2019-03-15T08:27:04Z</time>
      </trkpt>
      <trkpt lat="43.54159" lon="3.50256">
        <ele>104.4</ele>
        <time>2019-03-15T08:27:07Z</time>
      </trkpt>
      <trkpt lat="43.54162" lon="3.50252">
        <ele>104.4</ele>
        <time>2019-03-15T08:27:09Z</time>
      </trkpt>
      <trkpt lat="43.54165" lon="3.50248">
        <ele>104.2</ele>
        <time>2019-03-15T08:27:11Z</time>
      </trkpt>
      <trkpt lat="43.54168" lon="3.50246">
        <ele>104</ele>
        <time>2019-03-15T08:27:13Z</time>
      </trkpt>
      <trkpt lat="43.54172" lon="3.50243">
        <ele>103.9</ele>
        <time>2019-03-15T08:27:17Z</time>
      </trkpt>
      <trkpt lat="43.54176" lon="3.50239">
        <ele>103.7</ele>
        <time>2019-03-15T08:27:19Z</time>
      </trkpt>
      <trkpt lat="43.54179" lon="3.50236">
        <ele>103.5</ele>
        <time>2019-03-15T08:27:21Z</time>
      </trkpt>
      <trkpt lat="43.54181" lon="3.50234">
        <ele>103.4</ele>
        <time>2019-03-15T08:27:23Z</time>
      </trkpt>
      <trkpt lat="43.54183" lon="3.50231">
        <ele>103.3</ele>
        <time>2019-03-15T08:27:25Z</time>
      </trkpt>
      <trkpt lat="43.54186" lon="3.50228">
        <ele>103.3</ele>
        <time>2019-03-15T08:27:27Z</time>
      </trkpt>
      <trkpt lat="43.54189" lon="3.50225">
        <ele>103.2</ele>
        <time>2019-03-15T08:27:29Z</time>
      </trkpt>
      <trkpt lat="43.54191" lon="3.50223">
        <ele>103.2</ele>
        <time>2019-03-15T08:27:31Z</time>
      </trkpt>
      <trkpt lat="43.54194" lon="3.5022">
        <ele>103.2</ele>
        <time>2019-03-15T08:27:33Z</time>
      </trkpt>
      <trkpt lat="43.54197" lon="3.50216">
        <ele>103.2</ele>
        <time>2019-03-15T08:27:35Z</time>
      </trkpt>
      <trkpt lat="43.542" lon="3.50213">
        <ele>103.3</ele>
        <time>2019-03-15T08:27:37Z</time>
      </trkpt>
      <trkpt lat="43.54203" lon="3.5021">
        <ele>103.3</ele>
        <time>2019-03-15T08:27:39Z</time>
      </trkpt>
      <trkpt lat="43.54205" lon="3.50206">
        <ele>103.4</ele>
        <time>2019-03-15T08:27:41Z</time>
      </trkpt>
      <trkpt lat="43.54207" lon="3.50203">
        <ele>103.4</ele>
        <time>2019-03-15T08:27:43Z</time>
      </trkpt>
      <trkpt lat="43.5421" lon="3.50199">
        <ele>103.4</ele>
        <time>2019-03-15T08:27:45Z</time>
      </trkpt>
      <trkpt lat="43.54212" lon="3.50196">
        <ele>103.4</ele>
        <time>2019-03-15T08:27:47Z</time>
      </trkpt>
      <trkpt lat="43.54214" lon="3.50194">
        <ele>103.4</ele>
        <time>2019-03-15T08:27:49Z</time>
      </trkpt>
      <trkpt lat="43.54217" lon="3.50191">
        <ele>103.5</ele>
        <time>2019-03-15T08:27:51Z</time>
      </trkpt>
      <trkpt lat="43.54219" lon="3.50188">
        <ele>103.5</ele>
        <time>2019-03-15T08:27:54Z</time>
      </trkpt>
      <trkpt lat="43.54222" lon="3.50185">
        <ele>103.5</ele>
        <time>2019-03-15T08:27:57Z</time>
      </trkpt>
      <trkpt lat="43.54226" lon="3.50182">
        <ele>103.5</ele>
        <time>2019-03-15T08:28:00Z</time>
      </trkpt>
      <trkpt lat="43.54228" lon="3.5018">
        <ele>103.5</ele>
        <time>2019-03-15T08:28:02Z</time>
      </trkpt>
      <trkpt lat="43.54231" lon="3.50178">
        <ele>103.4</ele>
        <time>2019-03-15T08:28:04Z</time>
      </trkpt>
      <trkpt lat="43.54234" lon="3.50175">
        <ele>103.4</ele>
        <time>2019-03-15T08:28:06Z</time>
      </trkpt>
      <trkpt lat="43.54237" lon="3.50173">
        <ele>103.2</ele>
        <time>2019-03-15T08:28:08Z</time>
      </trkpt>
      <trkpt lat="43.54239" lon="3.50171">
        <ele>103.2</ele>
        <time>2019-03-15T08:28:10Z</time>
      </trkpt>
      <trkpt lat="43.54241" lon="3.50168">
        <ele>103.2</ele>
        <time>2019-03-15T08:28:12Z</time>
      </trkpt>
      <trkpt lat="43.54244" lon="3.50164">
        <ele>103.1</ele>
        <time>2019-03-15T08:28:15Z</time>
      </trkpt>
      <trkpt lat="43.54246" lon="3.50161">
        <ele>103</ele>
        <time>2019-03-15T08:28:17Z</time>
      </trkpt>
      <trkpt lat="43.54248" lon="3.50158">
        <ele>103.1</ele>
        <time>2019-03-15T08:28:19Z</time>
      </trkpt>
      <trkpt lat="43.54251" lon="3.50155">
        <ele>103.1</ele>
        <time>2019-03-15T08:28:21Z</time>
      </trkpt>
      <trkpt lat="43.54253" lon="3.50152">
        <ele>102.9</ele>
        <time>2019-03-15T08:28:23Z</time>
      </trkpt>
      <trkpt lat="43.54256" lon="3.50149">
        <ele>102.8</ele>
        <time>2019-03-15T08:28:26Z</time>
      </trkpt>
      <trkpt lat="43.54258" lon="3.50146">
        <ele>102.8</ele>
        <time>2019-03-15T08:28:29Z</time>
      </trkpt>
      <trkpt lat="43.54259" lon="3.50141">
        <ele>102.9</ele>
        <time>2019-03-15T08:28:32Z</time>
      </trkpt>
      <trkpt lat="43.5426" lon="3.50136">
        <ele>103</ele>
        <time>2019-03-15T08:28:35Z</time>
      </trkpt>
      <trkpt lat="43.54262" lon="3.50131">
        <ele>102.9</ele>
        <time>2019-03-15T08:28:38Z</time>
      </trkpt>
      <trkpt lat="43.54262" lon="3.50127">
        <ele>103</ele>
        <time>2019-03-15T08:28:41Z</time>
      </trkpt>
      <trkpt lat="43.54265" lon="3.50123">
        <ele>103</ele>
        <time>2019-03-15T08:28:46Z</time>
      </trkpt>
      <trkpt lat="43.54267" lon="3.50119">
        <ele>103</ele>
        <time>2019-03-15T08:28:48Z</time>
      </trkpt>
      <trkpt lat="43.5427" lon="3.50117">
        <ele>102.8</ele>
        <time>2019-03-15T08:28:50Z</time>
      </trkpt>
      <trkpt lat="43.54273" lon="3.50114">
        <ele>103</ele>
        <time>2019-03-15T08:28:53Z</time>
      </trkpt>
      <trkpt lat="43.54276" lon="3.50112">
        <ele>103</ele>
        <time>2019-03-15T08:28:57Z</time>
      </trkpt>
      <trkpt lat="43.54279" lon="3.5011">
        <ele>102.8</ele>
        <time>2019-03-15T08:29:00Z</time>
      </trkpt>
      <trkpt lat="43.54283" lon="3.50108">
        <ele>102.6</ele>
        <time>2019-03-15T08:29:03Z</time>
      </trkpt>
      <trkpt lat="43.54286" lon="3.50106">
        <ele>102.4</ele>
        <time>2019-03-15T08:29:06Z</time>
      </trkpt>
      <trkpt lat="43.54289" lon="3.50103">
        <ele>102.4</ele>
        <time>2019-03-15T08:29:09Z</time>
      </trkpt>
      <trkpt lat="43.54293" lon="3.50101">
        <ele>102.2</ele>
        <time>2019-03-15T08:29:11Z</time>
      </trkpt>
      <trkpt lat="43.54297" lon="3.50098">
        <ele>102.2</ele>
        <time>2019-03-15T08:29:13Z</time>
      </trkpt>
      <trkpt lat="43.54301" lon="3.50094">
        <ele>102</ele>
        <time>2019-03-15T08:29:15Z</time>
      </trkpt>
      <trkpt lat="43.54305" lon="3.50091">
        <ele>101.9</ele>
        <time>2019-03-15T08:29:17Z</time>
      </trkpt>
      <trkpt lat="43.54307" lon="3.50088">
        <ele>102</ele>
        <time>2019-03-15T08:29:19Z</time>
      </trkpt>
      <trkpt lat="43.5431" lon="3.50085">
        <ele>102</ele>
        <time>2019-03-15T08:29:21Z</time>
      </trkpt>
      <trkpt lat="43.54313" lon="3.50083">
        <ele>101.9</ele>
        <time>2019-03-15T08:29:24Z</time>
      </trkpt>
      <trkpt lat="43.54316" lon="3.50082">
        <ele>101.9</ele>
        <time>2019-03-15T08:29:26Z</time>
      </trkpt>
      <trkpt lat="43.54319" lon="3.5008">
        <ele>101.9</ele>
        <time>2019-03-15T08:29:29Z</time>
      </trkpt>
      <trkpt lat="43.54321" lon="3.50079">
        <ele>101.8</ele>
        <time>2019-03-15T08:29:32Z</time>
      </trkpt>
      <trkpt lat="43.54324" lon="3.50077">
        <ele>101.8</ele>
        <time>2019-03-15T08:29:35Z</time>
      </trkpt>
      <trkpt lat="43.54327" lon="3.50076">
        <ele>101.8</ele>
        <time>2019-03-15T08:29:37Z</time>
      </trkpt>
      <trkpt lat="43.5433" lon="3.50074">
        <ele>101.7</ele>
        <time>2019-03-15T08:29:40Z</time>
      </trkpt>
      <trkpt lat="43.54333" lon="3.50071">
        <ele>101.6</ele>
        <time>2019-03-15T08:29:42Z</time>
      </trkpt>
      <trkpt lat="43.54336" lon="3.50068">
        <ele>101.5</ele>
        <time>2019-03-15T08:29:44Z</time>
      </trkpt>
      <trkpt lat="43.54339" lon="3.50065">
        <ele>101.4</ele>
        <time>2019-03-15T08:29:46Z</time>
      </trkpt>
      <trkpt lat="43.54342" lon="3.50062">
        <ele>101.3</ele>
        <time>2019-03-15T08:29:48Z</time>
      </trkpt>
      <trkpt lat="43.54345" lon="3.50059">
        <ele>101.2</ele>
        <time>2019-03-15T08:29:50Z</time>
      </trkpt>
      <trkpt lat="43.54348" lon="3.50056">
        <ele>101.1</ele>
        <time>2019-03-15T08:29:52Z</time>
      </trkpt>
      <trkpt lat="43.54351" lon="3.50055">
        <ele>100.9</ele>
        <time>2019-03-15T08:29:54Z</time>
      </trkpt>
      <trkpt lat="43.54355" lon="3.50052">
        <ele>100.7</ele>
        <time>2019-03-15T08:29:56Z</time>
      </trkpt>
      <trkpt lat="43.54357" lon="3.5005">
        <ele>100.7</ele>
        <time>2019-03-15T08:29:58Z</time>
      </trkpt>
      <trkpt lat="43.54359" lon="3.50047">
        <ele>100.4</ele>
        <time>2019-03-15T08:30:01Z</time>
      </trkpt>
      <trkpt lat="43.54362" lon="3.50044">
        <ele>100.3</ele>
        <time>2019-03-15T08:30:05Z</time>
      </trkpt>
      <trkpt lat="43.54365" lon="3.50042">
        <ele>100</ele>
        <time>2019-03-15T08:30:08Z</time>
      </trkpt>
      <trkpt lat="43.54369" lon="3.50042">
        <ele>99.8</ele>
        <time>2019-03-15T08:30:10Z</time>
      </trkpt>
      <trkpt lat="43.54372" lon="3.50042">
        <ele>99.6</ele>
        <time>2019-03-15T08:30:12Z</time>
      </trkpt>
      <trkpt lat="43.54377" lon="3.50042">
        <ele>99.1</ele>
        <time>2019-03-15T08:30:15Z</time>
      </trkpt>
      <trkpt lat="43.5438" lon="3.5004">
        <ele>98.8</ele>
        <time>2019-03-15T08:30:17Z</time>
      </trkpt>
      <trkpt lat="43.54384" lon="3.50037">
        <ele>98.5</ele>
        <time>2019-03-15T08:30:19Z</time>
      </trkpt>
      <trkpt lat="43.54388" lon="3.50035">
        <ele>98.1</ele>
        <time>2019-03-15T08:30:22Z</time>
      </trkpt>
      <trkpt lat="43.54392" lon="3.50033">
        <ele>97.4</ele>
        <time>2019-03-15T08:30:24Z</time>
      </trkpt>
      <trkpt lat="43.54396" lon="3.50031">
        <ele>96.9</ele>
        <time>2019-03-15T08:30:26Z</time>
      </trkpt>
      <trkpt lat="43.544" lon="3.50029">
        <ele>96.5</ele>
        <time>2019-03-15T08:30:28Z</time>
      </trkpt>
      <trkpt lat="43.54403" lon="3.50028">
        <ele>96.1</ele>
        <time>2019-03-15T08:30:30Z</time>
      </trkpt>
      <trkpt lat="43.54407" lon="3.50027">
        <ele>95.2</ele>
        <time>2019-03-15T08:30:32Z</time>
      </trkpt>
      <trkpt lat="43.54412" lon="3.50026">
        <ele>94.8</ele>
        <time>2019-03-15T08:30:34Z</time>
      </trkpt>
      <trkpt lat="43.54415" lon="3.50027">
        <ele>94.2</ele>
        <time>2019-03-15T08:30:36Z</time>
      </trkpt>
      <trkpt lat="43.54419" lon="3.50026">
        <ele>93.7</ele>
        <time>2019-03-15T08:30:39Z</time>
      </trkpt>
      <trkpt lat="43.54421" lon="3.50022">
        <ele>93.2</ele>
        <time>2019-03-15T08:30:42Z</time>
      </trkpt>
      <trkpt lat="43.54423" lon="3.50018">
        <ele>92.7</ele>
        <time>2019-03-15T08:30:44Z</time>
      </trkpt>
      <trkpt lat="43.54426" lon="3.50016">
        <ele>92.3</ele>
        <time>2019-03-15T08:30:47Z</time>
      </trkpt>
      <trkpt lat="43.54429" lon="3.50014">
        <ele>92.3</ele>
        <time>2019-03-15T08:30:50Z</time>
      </trkpt>
      <trkpt lat="43.54432" lon="3.50014">
        <ele>91.3</ele>
        <time>2019-03-15T08:30:53Z</time>
      </trkpt>
      <trkpt lat="43.54435" lon="3.50015">
        <ele>90.8</ele>
        <time>2019-03-15T08:30:55Z</time>
      </trkpt>
      <trkpt lat="43.54439" lon="3.50015">
        <ele>90.3</ele>
        <time>2019-03-15T08:30:57Z</time>
      </trkpt>
      <trkpt lat="43.54442" lon="3.50017">
        <ele>89.6</ele>
        <time>2019-03-15T08:31:00Z</time>
      </trkpt>
      <trkpt lat="43.54446" lon="3.50017">
        <ele>89</ele>
        <time>2019-03-15T08:31:03Z</time>
      </trkpt>
      <trkpt lat="43.54449" lon="3.50016">
        <ele>88.4</ele>
        <time>2019-03-15T08:31:06Z</time>
      </trkpt>
      <trkpt lat="43.54452" lon="3.50014">
        <ele>87.8</ele>
        <time>2019-03-15T08:31:10Z</time>
      </trkpt>
      <trkpt lat="43.54456" lon="3.50014">
        <ele>87.2</ele>
        <time>2019-03-15T08:31:14Z</time>
      </trkpt>
      <trkpt lat="43.5446" lon="3.50014">
        <ele>86.1</ele>
        <time>2019-03-15T08:31:16Z</time>
      </trkpt>
      <trkpt lat="43.54464" lon="3.50012">
        <ele>85.7</ele>
        <time>2019-03-15T08:31:18Z</time>
      </trkpt>
      <trkpt lat="43.54467" lon="3.50011">
        <ele>85</ele>
        <time>2019-03-15T08:31:21Z</time>
      </trkpt>
      <trkpt lat="43.54471" lon="3.50012">
        <ele>84.3</ele>
        <time>2019-03-15T08:31:24Z</time>
      </trkpt>
      <trkpt lat="43.54474" lon="3.50014">
        <ele>83.4</ele>
        <time>2019-03-15T08:31:26Z</time>
      </trkpt>
      <trkpt lat="43.54477" lon="3.50012">
        <ele>83</ele>
        <time>2019-03-15T08:31:30Z</time>
      </trkpt>
      <trkpt lat="43.5448" lon="3.5001">
        <ele>82.4</ele>
        <time>2019-03-15T08:31:32Z</time>
      </trkpt>
      <trkpt lat="43.54483" lon="3.50007">
        <ele>82.1</ele>
        <time>2019-03-15T08:31:35Z</time>
      </trkpt>
      <trkpt lat="43.54484" lon="3.50004">
        <ele>82.4</ele>
        <time>2019-03-15T08:31:37Z</time>
      </trkpt>
      <trkpt lat="43.54487" lon="3.50001">
        <ele>81.8</ele>
        <time>2019-03-15T08:31:39Z</time>
      </trkpt>
      <trkpt lat="43.5449" lon="3.49998">
        <ele>81.5</ele>
        <time>2019-03-15T08:31:41Z</time>
      </trkpt>
      <trkpt lat="43.54492" lon="3.49995">
        <ele>81.2</ele>
        <time>2019-03-15T08:31:43Z</time>
      </trkpt>
      <trkpt lat="43.54494" lon="3.49991">
        <ele>80.8</ele>
        <time>2019-03-15T08:31:45Z</time>
      </trkpt>
      <trkpt lat="43.54496" lon="3.49989">
        <ele>80.8</ele>
        <time>2019-03-15T08:31:47Z</time>
      </trkpt>
      <trkpt lat="43.54498" lon="3.49984">
        <ele>80.5</ele>
        <time>2019-03-15T08:31:50Z</time>
      </trkpt>
      <trkpt lat="43.545" lon="3.49981">
        <ele>80.8</ele>
        <time>2019-03-15T08:31:52Z</time>
      </trkpt>
      <trkpt lat="43.54502" lon="3.49977">
        <ele>80.4</ele>
        <time>2019-03-15T08:31:54Z</time>
      </trkpt>
      <trkpt lat="43.54505" lon="3.49972">
        <ele>80.2</ele>
        <time>2019-03-15T08:31:56Z</time>
      </trkpt>
      <trkpt lat="43.54507" lon="3.4997">
        <ele>79.6</ele>
        <time>2019-03-15T08:31:59Z</time>
      </trkpt>
      <trkpt lat="43.5451" lon="3.49965">
        <ele>80.2</ele>
        <time>2019-03-15T08:32:02Z</time>
      </trkpt>
      <trkpt lat="43.54512" lon="3.49961">
        <ele>79.9</ele>
        <time>2019-03-15T08:32:05Z</time>
      </trkpt>
      <trkpt lat="43.54515" lon="3.49957">
        <ele>79.7</ele>
        <time>2019-03-15T08:32:07Z</time>
      </trkpt>
      <trkpt lat="43.54517" lon="3.49954">
        <ele>79.1</ele>
        <time>2019-03-15T08:32:09Z</time>
      </trkpt>
      <trkpt lat="43.5452" lon="3.4995">
        <ele>78.8</ele>
        <time>2019-03-15T08:32:12Z</time>
      </trkpt>
      <trkpt lat="43.54523" lon="3.49948">
        <ele>78.5</ele>
        <time>2019-03-15T08:32:15Z</time>
      </trkpt>
      <trkpt lat="43.54526" lon="3.49945">
        <ele>77.9</ele>
        <time>2019-03-15T08:32:19Z</time>
      </trkpt>
      <trkpt lat="43.5453" lon="3.49942">
        <ele>77.5</ele>
        <time>2019-03-15T08:32:21Z</time>
      </trkpt>
      <trkpt lat="43.54533" lon="3.4994">
        <ele>77.1</ele>
        <time>2019-03-15T08:32:23Z</time>
      </trkpt>
      <trkpt lat="43.54536" lon="3.49938">
        <ele>76.5</ele>
        <time>2019-03-15T08:32:25Z</time>
      </trkpt>
      <trkpt lat="43.54539" lon="3.49934">
        <ele>76.1</ele>
        <time>2019-03-15T08:32:28Z</time>
      </trkpt>
      <trkpt lat="43.54541" lon="3.49931">
        <ele>75.8</ele>
        <time>2019-03-15T08:32:31Z</time>
      </trkpt>
      <trkpt lat="43.54542" lon="3.49927">
        <ele>76.1</ele>
        <time>2019-03-15T08:32:34Z</time>
      </trkpt>
      <trkpt lat="43.54541" lon="3.49922">
        <ele>76.3</ele>
        <time>2019-03-15T08:32:37Z</time>
      </trkpt>
      <trkpt lat="43.54541" lon="3.49918">
        <ele>76.6</ele>
        <time>2019-03-15T08:32:39Z</time>
      </trkpt>
      <trkpt lat="43.54541" lon="3.49913">
        <ele>76.8</ele>
        <time>2019-03-15T08:32:44Z</time>
      </trkpt>
      <trkpt lat="43.54542" lon="3.49908">
        <ele>77.1</ele>
        <time>2019-03-15T08:32:47Z</time>
      </trkpt>
      <trkpt lat="43.54543" lon="3.49905">
        <ele>77.3</ele>
        <time>2019-03-15T08:32:50Z</time>
      </trkpt>
      <trkpt lat="43.54545" lon="3.49902">
        <ele>77.1</ele>
        <time>2019-03-15T08:32:53Z</time>
      </trkpt>
      <trkpt lat="43.54546" lon="3.49897">
        <ele>77.1</ele>
        <time>2019-03-15T08:32:57Z</time>
      </trkpt>
      <trkpt lat="43.54546" lon="3.49893">
        <ele>77.6</ele>
        <time>2019-03-15T08:33:01Z</time>
      </trkpt>
      <trkpt lat="43.54544" lon="3.49889">
        <ele>77.8</ele>
        <time>2019-03-15T08:33:04Z</time>
      </trkpt>
      <trkpt lat="43.54543" lon="3.49885">
        <ele>78.2</ele>
        <time>2019-03-15T08:33:08Z</time>
      </trkpt>
      <trkpt lat="43.54539" lon="3.49883">
        <ele>78.9</ele>
        <time>2019-03-15T08:33:11Z</time>
      </trkpt>
      <trkpt lat="43.54537" lon="3.4988">
        <ele>79.5</ele>
        <time>2019-03-15T08:33:17Z</time>
      </trkpt>
      <trkpt lat="43.54535" lon="3.49877">
        <ele>79.5</ele>
        <time>2019-03-15T08:33:21Z</time>
      </trkpt>
      <trkpt lat="43.54532" lon="3.49874">
        <ele>80.1</ele>
        <time>2019-03-15T08:33:25Z</time>
      </trkpt>
      <trkpt lat="43.5453" lon="3.49871">
        <ele>80.7</ele>
        <time>2019-03-15T08:33:29Z</time>
      </trkpt>
      <trkpt lat="43.54528" lon="3.49869">
        <ele>81.1</ele>
        <time>2019-03-15T08:33:31Z</time>
      </trkpt>
      <trkpt lat="43.54525" lon="3.49865">
        <ele>81.2</ele>
        <time>2019-03-15T08:33:34Z</time>
      </trkpt>
      <trkpt lat="43.54524" lon="3.49862">
        <ele>81.6</ele>
        <time>2019-03-15T08:33:39Z</time>
      </trkpt>
      <trkpt lat="43.54525" lon="3.49856">
        <ele>81.6</ele>
        <time>2019-03-15T08:33:48Z</time>
      </trkpt>
      <trkpt lat="43.54527" lon="3.49853">
        <ele>81.5</ele>
        <time>2019-03-15T08:33:49Z</time>
      </trkpt>
      <trkpt lat="43.5453" lon="3.49847">
        <ele>81.3</ele>
        <time>2019-03-15T08:33:51Z</time>
      </trkpt>
      <trkpt lat="43.54534" lon="3.49845">
        <ele>81.2</ele>
        <time>2019-03-15T08:33:53Z</time>
      </trkpt>
      <trkpt lat="43.54538" lon="3.49846">
        <ele>80.8</ele>
        <time>2019-03-15T08:33:55Z</time>
      </trkpt>
      <trkpt lat="43.54542" lon="3.49847">
        <ele>80.4</ele>
        <time>2019-03-15T08:33:57Z</time>
      </trkpt>
      <trkpt lat="43.54545" lon="3.49847">
        <ele>80.2</ele>
        <time>2019-03-15T08:33:59Z</time>
      </trkpt>
      <trkpt lat="43.54548" lon="3.49844">
        <ele>80.2</ele>
        <time>2019-03-15T08:34:01Z</time>
      </trkpt>
      <trkpt lat="43.5455" lon="3.49841">
        <ele>80.1</ele>
        <time>2019-03-15T08:34:03Z</time>
      </trkpt>
      <trkpt lat="43.54553" lon="3.49837">
        <ele>79.8</ele>
        <time>2019-03-15T08:34:05Z</time>
      </trkpt>
      <trkpt lat="43.54554" lon="3.49833">
        <ele>80.4</ele>
        <time>2019-03-15T08:34:08Z</time>
      </trkpt>
      <trkpt lat="43.54553" lon="3.49828">
        <ele>81</ele>
        <time>2019-03-15T08:34:11Z</time>
      </trkpt>
      <trkpt lat="43.54551" lon="3.49824">
        <ele>81.3</ele>
        <time>2019-03-15T08:34:14Z</time>
      </trkpt>
      <trkpt lat="43.54552" lon="3.49819">
        <ele>81.5</ele>
        <time>2019-03-15T08:34:17Z</time>
      </trkpt>
      <trkpt lat="43.54553" lon="3.49814">
        <ele>81.6</ele>
        <time>2019-03-15T08:34:19Z</time>
      </trkpt>
      <trkpt lat="43.54555" lon="3.4981">
        <ele>81.9</ele>
        <time>2019-03-15T08:34:23Z</time>
      </trkpt>
      <trkpt lat="43.54558" lon="3.49807">
        <ele>81.9</ele>
        <time>2019-03-15T08:34:27Z</time>
      </trkpt>
      <trkpt lat="43.54559" lon="3.49803">
        <ele>82.2</ele>
        <time>2019-03-15T08:34:30Z</time>
      </trkpt>
      <trkpt lat="43.54561" lon="3.49799">
        <ele>81.9</ele>
        <time>2019-03-15T08:34:33Z</time>
      </trkpt>
      <trkpt lat="43.54561" lon="3.49794">
        <ele>82.2</ele>
        <time>2019-03-15T08:34:37Z</time>
      </trkpt>
      <trkpt lat="43.54562" lon="3.4979">
        <ele>82.4</ele>
        <time>2019-03-15T08:34:40Z</time>
      </trkpt>
      <trkpt lat="43.54567" lon="3.4979">
        <ele>82.2</ele>
        <time>2019-03-15T08:34:43Z</time>
      </trkpt>
      <trkpt lat="43.5457" lon="3.49789">
        <ele>82</ele>
        <time>2019-03-15T08:34:45Z</time>
      </trkpt>
      <trkpt lat="43.54573" lon="3.49786">
        <ele>82</ele>
        <time>2019-03-15T08:34:48Z</time>
      </trkpt>
      <trkpt lat="43.54576" lon="3.49783">
        <ele>81.7</ele>
        <time>2019-03-15T08:34:50Z</time>
      </trkpt>
      <trkpt lat="43.54578" lon="3.49781">
        <ele>81.7</ele>
        <time>2019-03-15T08:34:51Z</time>
      </trkpt>
      <trkpt lat="43.54581" lon="3.49778">
        <ele>81.3</ele>
        <time>2019-03-15T08:34:53Z</time>
      </trkpt>
      <trkpt lat="43.54584" lon="3.49777">
        <ele>80.9</ele>
        <time>2019-03-15T08:34:55Z</time>
      </trkpt>
      <trkpt lat="43.54587" lon="3.49774">
        <ele>81.2</ele>
        <time>2019-03-15T08:34:58Z</time>
      </trkpt>
      <trkpt lat="43.5459" lon="3.49773">
        <ele>80.9</ele>
        <time>2019-03-15T08:35:00Z</time>
      </trkpt>
      <trkpt lat="43.54593" lon="3.49771">
        <ele>80.7</ele>
        <time>2019-03-15T08:35:02Z</time>
      </trkpt>
      <trkpt lat="43.54595" lon="3.49769">
        <ele>80.3</ele>
        <time>2019-03-15T08:35:04Z</time>
      </trkpt>
      <trkpt lat="43.54598" lon="3.49769">
        <ele>79.9</ele>
        <time>2019-03-15T08:35:06Z</time>
      </trkpt>
      <trkpt lat="43.54601" lon="3.49766">
        <ele>79.6</ele>
        <time>2019-03-15T08:35:08Z</time>
      </trkpt>
      <trkpt lat="43.54604" lon="3.49764">
        <ele>79.2</ele>
        <time>2019-03-15T08:35:10Z</time>
      </trkpt>
      <trkpt lat="43.54607" lon="3.49762">
        <ele>78.7</ele>
        <time>2019-03-15T08:35:12Z</time>
      </trkpt>
      <trkpt lat="43.5461" lon="3.49761">
        <ele>78</ele>
        <time>2019-03-15T08:35:15Z</time>
      </trkpt>
      <trkpt lat="43.54614" lon="3.49758">
        <ele>77.6</ele>
        <time>2019-03-15T08:35:18Z</time>
      </trkpt>
      <trkpt lat="43.54617" lon="3.49755">
        <ele>77.1</ele>
        <time>2019-03-15T08:35:20Z</time>
      </trkpt>
      <trkpt lat="43.54619" lon="3.4975">
        <ele>76.6</ele>
        <time>2019-03-15T08:35:23Z</time>
      </trkpt>
      <trkpt lat="43.54621" lon="3.49747">
        <ele>76.7</ele>
        <time>2019-03-15T08:35:25Z</time>
      </trkpt>
      <trkpt lat="43.54624" lon="3.49746">
        <ele>76.1</ele>
        <time>2019-03-15T08:35:27Z</time>
      </trkpt>
      <trkpt lat="43.54627" lon="3.49744">
        <ele>75.4</ele>
        <time>2019-03-15T08:35:30Z</time>
      </trkpt>
      <trkpt lat="43.54629" lon="3.49741">
        <ele>74.9</ele>
        <time>2019-03-15T08:35:32Z</time>
      </trkpt>
      <trkpt lat="43.5463" lon="3.49737">
        <ele>75</ele>
        <time>2019-03-15T08:35:34Z</time>
      </trkpt>
      <trkpt lat="43.54631" lon="3.49733">
        <ele>74.4</ele>
        <time>2019-03-15T08:35:36Z</time>
      </trkpt>
      <trkpt lat="43.54633" lon="3.4973">
        <ele>74.4</ele>
        <time>2019-03-15T08:35:39Z</time>
      </trkpt>
      <trkpt lat="43.54636" lon="3.49728">
        <ele>73.8</ele>
        <time>2019-03-15T08:35:42Z</time>
      </trkpt>
      <trkpt lat="43.54639" lon="3.49725">
        <ele>73.1</ele>
        <time>2019-03-15T08:35:44Z</time>
      </trkpt>
      <trkpt lat="43.54642" lon="3.49721">
        <ele>72.3</ele>
        <time>2019-03-15T08:35:46Z</time>
      </trkpt>
      <trkpt lat="43.54644" lon="3.49718">
        <ele>71.5</ele>
        <time>2019-03-15T08:35:48Z</time>
      </trkpt>
      <trkpt lat="43.54647" lon="3.49716">
        <ele>70.7</ele>
        <time>2019-03-15T08:35:53Z</time>
      </trkpt>
      <trkpt lat="43.54649" lon="3.49714">
        <ele>70.7</ele>
        <time>2019-03-15T08:35:55Z</time>
      </trkpt>
      <trkpt lat="43.54652" lon="3.49713">
        <ele>69.9</ele>
        <time>2019-03-15T08:35:57Z</time>
      </trkpt>
      <trkpt lat="43.54655" lon="3.4971">
        <ele>69.1</ele>
        <time>2019-03-15T08:36:00Z</time>
      </trkpt>
      <trkpt lat="43.54656" lon="3.49706">
        <ele>68.3</ele>
        <time>2019-03-15T08:36:03Z</time>
      </trkpt>
      <trkpt lat="43.54659" lon="3.49701">
        <ele>68.1</ele>
        <time>2019-03-15T08:36:05Z</time>
      </trkpt>
      <trkpt lat="43.54661" lon="3.49696">
        <ele>67.2</ele>
        <time>2019-03-15T08:36:07Z</time>
      </trkpt>
      <trkpt lat="43.54664" lon="3.49691">
        <ele>65.9</ele>
        <time>2019-03-15T08:36:09Z</time>
      </trkpt>
      <trkpt lat="43.54667" lon="3.49686">
        <ele>64.7</ele>
        <time>2019-03-15T08:36:11Z</time>
      </trkpt>
      <trkpt lat="43.54669" lon="3.49683">
        <ele>63.7</ele>
        <time>2019-03-15T08:36:12Z</time>
      </trkpt>
      <trkpt lat="43.54671" lon="3.4968">
        <ele>62.5</ele>
        <time>2019-03-15T08:36:13Z</time>
      </trkpt>
      <trkpt lat="43.54673" lon="3.49677">
        <ele>62.3</ele>
        <time>2019-03-15T08:36:14Z</time>
      </trkpt>
      <trkpt lat="43.54675" lon="3.49674">
        <ele>61.2</ele>
        <time>2019-03-15T08:36:15Z</time>
      </trkpt>
      <trkpt lat="43.54676" lon="3.4967">
        <ele>61</ele>
        <time>2019-03-15T08:36:17Z</time>
      </trkpt>
      <trkpt lat="43.54677" lon="3.49666">
        <ele>61</ele>
        <time>2019-03-15T08:36:19Z</time>
      </trkpt>
      <trkpt lat="43.54679" lon="3.49662">
        <ele>60</ele>
        <time>2019-03-15T08:36:21Z</time>
      </trkpt>
      <trkpt lat="43.5468" lon="3.49659">
        <ele>59.7</ele>
        <time>2019-03-15T08:36:23Z</time>
      </trkpt>
      <trkpt lat="43.54681" lon="3.49654">
        <ele>59.5</ele>
        <time>2019-03-15T08:36:26Z</time>
      </trkpt>
      <trkpt lat="43.54681" lon="3.4965">
        <ele>58.4</ele>
        <time>2019-03-15T08:36:28Z</time>
      </trkpt>
      <trkpt lat="43.54681" lon="3.49645">
        <ele>58.1</ele>
        <time>2019-03-15T08:36:30Z</time>
      </trkpt>
      <trkpt lat="43.5468" lon="3.49641">
        <ele>58.5</ele>
        <time>2019-03-15T08:36:32Z</time>
      </trkpt>
      <trkpt lat="43.5468" lon="3.49637">
        <ele>58.1</ele>
        <time>2019-03-15T08:36:34Z</time>
      </trkpt>
      <trkpt lat="43.5468" lon="3.49634">
        <ele>57.7</ele>
        <time>2019-03-15T08:36:36Z</time>
      </trkpt>
      <trkpt lat="43.54679" lon="3.49629">
        <ele>57.2</ele>
        <time>2019-03-15T08:36:39Z</time>
      </trkpt>
      <trkpt lat="43.54677" lon="3.49623">
        <ele>57.5</ele>
        <time>2019-03-15T08:36:42Z</time>
      </trkpt>
      <trkpt lat="43.54677" lon="3.4962">
        <ele>57.1</ele>
        <time>2019-03-15T08:36:44Z</time>
      </trkpt>
      <trkpt lat="43.54674" lon="3.49615">
        <ele>57.4</ele>
        <time>2019-03-15T08:36:47Z</time>
      </trkpt>
      <trkpt lat="43.54672" lon="3.49613">
        <ele>56.9</ele>
        <time>2019-03-15T08:36:49Z</time>
      </trkpt>
      <trkpt lat="43.54669" lon="3.4961">
        <ele>57.6</ele>
        <time>2019-03-15T08:36:51Z</time>
      </trkpt>
      <trkpt lat="43.54666" lon="3.49608">
        <ele>57.8</ele>
        <time>2019-03-15T08:36:53Z</time>
      </trkpt>
      <trkpt lat="43.54664" lon="3.49606">
        <ele>58.6</ele>
        <time>2019-03-15T08:36:55Z</time>
      </trkpt>
      <trkpt lat="43.54661" lon="3.49604">
        <ele>58.6</ele>
        <time>2019-03-15T08:36:57Z</time>
      </trkpt>
      <trkpt lat="43.54657" lon="3.49603">
        <ele>59.2</ele>
        <time>2019-03-15T08:36:59Z</time>
      </trkpt>
      <trkpt lat="43.54655" lon="3.49601">
        <ele>59.1</ele>
        <time>2019-03-15T08:37:01Z</time>
      </trkpt>
      <trkpt lat="43.54652" lon="3.49599">
        <ele>59.6</ele>
        <time>2019-03-15T08:37:03Z</time>
      </trkpt>
      <trkpt lat="43.54649" lon="3.49596">
        <ele>59.4</ele>
        <time>2019-03-15T08:37:05Z</time>
      </trkpt>
      <trkpt lat="43.54648" lon="3.49592">
        <ele>58.7</ele>
        <time>2019-03-15T08:37:08Z</time>
      </trkpt>
      <trkpt lat="43.54646" lon="3.49588">
        <ele>58.5</ele>
        <time>2019-03-15T08:37:10Z</time>
      </trkpt>
      <trkpt lat="43.54644" lon="3.49585">
        <ele>58.5</ele>
        <time>2019-03-15T08:37:14Z</time>
      </trkpt>
      <trkpt lat="43.54644" lon="3.4958">
        <ele>57.1</ele>
        <time>2019-03-15T08:37:17Z</time>
      </trkpt>
      <trkpt lat="43.54642" lon="3.49577">
        <ele>57.6</ele>
        <time>2019-03-15T08:37:19Z</time>
      </trkpt>
      <trkpt lat="43.54639" lon="3.49574">
        <ele>57.4</ele>
        <time>2019-03-15T08:37:21Z</time>
      </trkpt>
      <trkpt lat="43.54635" lon="3.49573">
        <ele>57.9</ele>
        <time>2019-03-15T08:37:23Z</time>
      </trkpt>
      <trkpt lat="43.54632" lon="3.4957">
        <ele>57.6</ele>
        <time>2019-03-15T08:37:25Z</time>
      </trkpt>
      <trkpt lat="43.54628" lon="3.49567">
        <ele>58</ele>
        <time>2019-03-15T08:37:27Z</time>
      </trkpt>
      <trkpt lat="43.54625" lon="3.49564">
        <ele>58</ele>
        <time>2019-03-15T08:37:29Z</time>
      </trkpt>
      <trkpt lat="43.54621" lon="3.49564">
        <ele>58.4</ele>
        <time>2019-03-15T08:37:31Z</time>
      </trkpt>
      <trkpt lat="43.54618" lon="3.49563">
        <ele>58.8</ele>
        <time>2019-03-15T08:37:33Z</time>
      </trkpt>
      <trkpt lat="43.54615" lon="3.49563">
        <ele>59.1</ele>
        <time>2019-03-15T08:37:35Z</time>
      </trkpt>
      <trkpt lat="43.54612" lon="3.49562">
        <ele>58.6</ele>
        <time>2019-03-15T08:37:37Z</time>
      </trkpt>
      <trkpt lat="43.54608" lon="3.49562">
        <ele>59</ele>
        <time>2019-03-15T08:37:39Z</time>
      </trkpt>
      <trkpt lat="43.54605" lon="3.49561">
        <ele>59.3</ele>
        <time>2019-03-15T08:37:41Z</time>
      </trkpt>
      <trkpt lat="43.54601" lon="3.49559">
        <ele>59.5</ele>
        <time>2019-03-15T08:37:43Z</time>
      </trkpt>
      <trkpt lat="43.54599" lon="3.49557">
        <ele>58.9</ele>
        <time>2019-03-15T08:37:45Z</time>
      </trkpt>
      <trkpt lat="43.54596" lon="3.49555">
        <ele>59.1</ele>
        <time>2019-03-15T08:37:47Z</time>
      </trkpt>
      <trkpt lat="43.54593" lon="3.49554">
        <ele>58.4</ele>
        <time>2019-03-15T08:37:49Z</time>
      </trkpt>
      <trkpt lat="43.5459" lon="3.49553">
        <ele>58.5</ele>
        <time>2019-03-15T08:37:51Z</time>
      </trkpt>
      <trkpt lat="43.54587" lon="3.49554">
        <ele>58.7</ele>
        <time>2019-03-15T08:37:53Z</time>
      </trkpt>
      <trkpt lat="43.54583" lon="3.49555">
        <ele>59.7</ele>
        <time>2019-03-15T08:37:55Z</time>
      </trkpt>
      <trkpt lat="43.5458" lon="3.49557">
        <ele>59.9</ele>
        <time>2019-03-15T08:37:58Z</time>
      </trkpt>
      <trkpt lat="43.54577" lon="3.49558">
        <ele>60</ele>
        <time>2019-03-15T08:38:00Z</time>
      </trkpt>
      <trkpt lat="43.54574" lon="3.49559">
        <ele>60.9</ele>
        <time>2019-03-15T08:38:02Z</time>
      </trkpt>
      <trkpt lat="43.54571" lon="3.4956">
        <ele>60.9</ele>
        <time>2019-03-15T08:38:04Z</time>
      </trkpt>
      <trkpt lat="43.54567" lon="3.4956">
        <ele>61</ele>
        <time>2019-03-15T08:38:06Z</time>
      </trkpt>
      <trkpt lat="43.54563" lon="3.49561">
        <ele>61</ele>
        <time>2019-03-15T08:38:09Z</time>
      </trkpt>
      <trkpt lat="43.5456" lon="3.4956">
        <ele>61</ele>
        <time>2019-03-15T08:38:11Z</time>
      </trkpt>
      <trkpt lat="43.54556" lon="3.49559">
        <ele>61</ele>
        <time>2019-03-15T08:38:14Z</time>
      </trkpt>
      <trkpt lat="43.54553" lon="3.49559">
        <ele>61</ele>
        <time>2019-03-15T08:38:16Z</time>
      </trkpt>
      <trkpt lat="43.54549" lon="3.49558">
        <ele>60.2</ele>
        <time>2019-03-15T08:38:19Z</time>
      </trkpt>
      <trkpt lat="43.54547" lon="3.49555">
        <ele>60.2</ele>
        <time>2019-03-15T08:38:21Z</time>
      </trkpt>
      <trkpt lat="43.54544" lon="3.49552">
        <ele>60.2</ele>
        <time>2019-03-15T08:38:24Z</time>
      </trkpt>
      <trkpt lat="43.54542" lon="3.49548">
        <ele>60.1</ele>
        <time>2019-03-15T08:38:29Z</time>
      </trkpt>
      <trkpt lat="43.5454" lon="3.49545">
        <ele>60.1</ele>
        <time>2019-03-15T08:38:32Z</time>
      </trkpt>
      <trkpt lat="43.54537" lon="3.49542">
        <ele>59.9</ele>
        <time>2019-03-15T08:38:34Z</time>
      </trkpt>
      <trkpt lat="43.54533" lon="3.4954">
        <ele>59.8</ele>
        <time>2019-03-15T08:38:37Z</time>
      </trkpt>
      <trkpt lat="43.5453" lon="3.49538">
        <ele>59.6</ele>
        <time>2019-03-15T08:38:39Z</time>
      </trkpt>
      <trkpt lat="43.54526" lon="3.49537">
        <ele>59.3</ele>
        <time>2019-03-15T08:38:41Z</time>
      </trkpt>
      <trkpt lat="43.54522" lon="3.49537">
        <ele>59.1</ele>
        <time>2019-03-15T08:38:43Z</time>
      </trkpt>
      <trkpt lat="43.54519" lon="3.49536">
        <ele>58.9</ele>
        <time>2019-03-15T08:38:45Z</time>
      </trkpt>
      <trkpt lat="43.54515" lon="3.49537">
        <ele>58.5</ele>
        <time>2019-03-15T08:38:48Z</time>
      </trkpt>
      <trkpt lat="43.54512" lon="3.49537">
        <ele>58.2</ele>
        <time>2019-03-15T08:38:50Z</time>
      </trkpt>
      <trkpt lat="43.54508" lon="3.49538">
        <ele>57.8</ele>
        <time>2019-03-15T08:38:54Z</time>
      </trkpt>
      <trkpt lat="43.54505" lon="3.49541">
        <ele>57.4</ele>
        <time>2019-03-15T08:38:56Z</time>
      </trkpt>
      <trkpt lat="43.54502" lon="3.49543">
        <ele>57.1</ele>
        <time>2019-03-15T08:38:58Z</time>
      </trkpt>
      <trkpt lat="43.545" lon="3.49546">
        <ele>56.8</ele>
        <time>2019-03-15T08:39:00Z</time>
      </trkpt>
      <trkpt lat="43.54497" lon="3.49548">
        <ele>56.5</ele>
        <time>2019-03-15T08:39:02Z</time>
      </trkpt>
      <trkpt lat="43.54494" lon="3.4955">
        <ele>56.3</ele>
        <time>2019-03-15T08:39:04Z</time>
      </trkpt>
      <trkpt lat="43.54491" lon="3.49551">
        <ele>56.1</ele>
        <time>2019-03-15T08:39:06Z</time>
      </trkpt>
      <trkpt lat="43.54489" lon="3.49555">
        <ele>55.9</ele>
        <time>2019-03-15T08:39:09Z</time>
      </trkpt>
      <trkpt lat="43.54487" lon="3.49557">
        <ele>55.7</ele>
        <time>2019-03-15T08:39:12Z</time>
      </trkpt>
      <trkpt lat="43.54483" lon="3.49558">
        <ele>55.5</ele>
        <time>2019-03-15T08:39:15Z</time>
      </trkpt>
      <trkpt lat="43.54479" lon="3.49561">
        <ele>55.4</ele>
        <time>2019-03-15T08:39:18Z</time>
      </trkpt>
      <trkpt lat="43.54477" lon="3.49562">
        <ele>55.3</ele>
        <time>2019-03-15T08:39:20Z</time>
      </trkpt>
      <trkpt lat="43.54473" lon="3.49563">
        <ele>55.1</ele>
        <time>2019-03-15T08:39:23Z</time>
      </trkpt>
      <trkpt lat="43.54468" lon="3.49562">
        <ele>55</ele>
        <time>2019-03-15T08:39:25Z</time>
      </trkpt>
      <trkpt lat="43.54465" lon="3.49561">
        <ele>54.8</ele>
        <time>2019-03-15T08:39:27Z</time>
      </trkpt>
      <trkpt lat="43.54462" lon="3.49559">
        <ele>54.6</ele>
        <time>2019-03-15T08:39:29Z</time>
      </trkpt>
      <trkpt lat="43.54459" lon="3.4956">
        <ele>54.4</ele>
        <time>2019-03-15T08:39:32Z</time>
      </trkpt>
      <trkpt lat="43.54455" lon="3.49561">
        <ele>54.2</ele>
        <time>2019-03-15T08:39:36Z</time>
      </trkpt>
      <trkpt lat="43.54452" lon="3.49562">
        <ele>54</ele>
        <time>2019-03-15T08:39:38Z</time>
      </trkpt>
      <trkpt lat="43.54449" lon="3.49564">
        <ele>53.9</ele>
        <time>2019-03-15T08:39:41Z</time>
      </trkpt>
      <trkpt lat="43.54446" lon="3.49566">
        <ele>53.7</ele>
        <time>2019-03-15T08:39:43Z</time>
      </trkpt>
      <trkpt lat="43.54443" lon="3.49568">
        <ele>53.6</ele>
        <time>2019-03-15T08:39:46Z</time>
      </trkpt>
      <trkpt lat="43.54441" lon="3.49571">
        <ele>53.4</ele>
        <time>2019-03-15T08:39:49Z</time>
      </trkpt>
      <trkpt lat="43.54436" lon="3.49573">
        <ele>53.3</ele>
        <time>2019-03-15T08:39:52Z</time>
      </trkpt>
      <trkpt lat="43.54433" lon="3.49574">
        <ele>53.2</ele>
        <time>2019-03-15T08:39:54Z</time>
      </trkpt>
      <trkpt lat="43.5443" lon="3.49575">
        <ele>53.2</ele>
        <time>2019-03-15T08:39:56Z</time>
      </trkpt>
      <trkpt lat="43.54427" lon="3.49575">
        <ele>53.1</ele>
        <time>2019-03-15T08:39:58Z</time>
      </trkpt>
      <trkpt lat="43.54424" lon="3.49576">
        <ele>53.1</ele>
        <time>2019-03-15T08:40:00Z</time>
      </trkpt>
      <trkpt lat="43.5442" lon="3.49575">
        <ele>53.1</ele>
        <time>2019-03-15T08:40:02Z</time>
      </trkpt>
      <trkpt lat="43.54417" lon="3.49575">
        <ele>53.1</ele>
        <time>2019-03-15T08:40:04Z</time>
      </trkpt>
      <trkpt lat="43.54413" lon="3.49575">
        <ele>53.1</ele>
        <time>2019-03-15T08:40:06Z</time>
      </trkpt>
      <trkpt lat="43.54408" lon="3.49575">
        <ele>53.1</ele>
        <time>2019-03-15T08:40:08Z</time>
      </trkpt>
      <trkpt lat="43.54404" lon="3.49576">
        <ele>53.1</ele>
        <time>2019-03-15T08:40:10Z</time>
      </trkpt>
      <trkpt lat="43.544" lon="3.49576">
        <ele>53.1</ele>
        <time>2019-03-15T08:40:12Z</time>
      </trkpt>
      <trkpt lat="43.54397" lon="3.49576">
        <ele>53.1</ele>
        <time>2019-03-15T08:40:14Z</time>
      </trkpt>
      <trkpt lat="43.54392" lon="3.49577">
        <ele>53</ele>
        <time>2019-03-15T08:40:17Z</time>
      </trkpt>
      <trkpt lat="43.54389" lon="3.49578">
        <ele>53</ele>
        <time>2019-03-15T08:40:19Z</time>
      </trkpt>
      <trkpt lat="43.54385" lon="3.49578">
        <ele>53</ele>
        <time>2019-03-15T08:40:21Z</time>
      </trkpt>
      <trkpt lat="43.54381" lon="3.49577">
        <ele>52.9</ele>
        <time>2019-03-15T08:40:23Z</time>
      </trkpt>
      <trkpt lat="43.54377" lon="3.49576">
        <ele>52.9</ele>
        <time>2019-03-15T08:40:25Z</time>
      </trkpt>
      <trkpt lat="43.54375" lon="3.49577">
        <ele>52.8</ele>
        <time>2019-03-15T08:40:27Z</time>
      </trkpt>
      <trkpt lat="43.54371" lon="3.49578">
        <ele>52.8</ele>
        <time>2019-03-15T08:40:30Z</time>
      </trkpt>
      <trkpt lat="43.54367" lon="3.49577">
        <ele>52.7</ele>
        <time>2019-03-15T08:40:33Z</time>
      </trkpt>
      <trkpt lat="43.54364" lon="3.49575">
        <ele>52.6</ele>
        <time>2019-03-15T08:40:36Z</time>
      </trkpt>
      <trkpt lat="43.54361" lon="3.49574">
        <ele>52.5</ele>
        <time>2019-03-15T08:40:38Z</time>
      </trkpt>
      <trkpt lat="43.54358" lon="3.49574">
        <ele>52.4</ele>
        <time>2019-03-15T08:40:40Z</time>
      </trkpt>
      <trkpt lat="43.54355" lon="3.49574">
        <ele>52.4</ele>
        <time>2019-03-15T08:40:42Z</time>
      </trkpt>
      <trkpt lat="43.54352" lon="3.49574">
        <ele>52.3</ele>
        <time>2019-03-15T08:40:44Z</time>
      </trkpt>
      <trkpt lat="43.54348" lon="3.49575">
        <ele>52.3</ele>
        <time>2019-03-15T08:40:46Z</time>
      </trkpt>
      <trkpt lat="43.54344" lon="3.49575">
        <ele>52.2</ele>
        <time>2019-03-15T08:40:48Z</time>
      </trkpt>
      <trkpt lat="43.5434" lon="3.49577">
        <ele>52.2</ele>
        <time>2019-03-15T08:40:50Z</time>
      </trkpt>
      <trkpt lat="43.54338" lon="3.49578">
        <ele>52.2</ele>
        <time>2019-03-15T08:40:52Z</time>
      </trkpt>
      <trkpt lat="43.54335" lon="3.49579">
        <ele>52.2</ele>
        <time>2019-03-15T08:40:53Z</time>
      </trkpt>
      <trkpt lat="43.54331" lon="3.49579">
        <ele>52.2</ele>
        <time>2019-03-15T08:40:54Z</time>
      </trkpt>
      <trkpt lat="43.54328" lon="3.4958">
        <ele>52.3</ele>
        <time>2019-03-15T08:40:55Z</time>
      </trkpt>
      <trkpt lat="43.54325" lon="3.49581">
        <ele>52.3</ele>
        <time>2019-03-15T08:40:56Z</time>
      </trkpt>
      <trkpt lat="43.54322" lon="3.49583">
        <ele>52.4</ele>
        <time>2019-03-15T08:40:57Z</time>
      </trkpt>
      <trkpt lat="43.54318" lon="3.49584">
        <ele>52.4</ele>
        <time>2019-03-15T08:40:59Z</time>
      </trkpt>
      <trkpt lat="43.54315" lon="3.49585">
        <ele>52.5</ele>
        <time>2019-03-15T08:41:01Z</time>
      </trkpt>
      <trkpt lat="43.54311" lon="3.49587">
        <ele>52.6</ele>
        <time>2019-03-15T08:41:04Z</time>
      </trkpt>
      <trkpt lat="43.54309" lon="3.49588">
        <ele>52.6</ele>
        <time>2019-03-15T08:41:06Z</time>
      </trkpt>
      <trkpt lat="43.54306" lon="3.4959">
        <ele>52.7</ele>
        <time>2019-03-15T08:41:08Z</time>
      </trkpt>
      <trkpt lat="43.54303" lon="3.49593">
        <ele>52.8</ele>
        <time>2019-03-15T08:41:11Z</time>
      </trkpt>
      <trkpt lat="43.543" lon="3.49595">
        <ele>52.8</ele>
        <time>2019-03-15T08:41:14Z</time>
      </trkpt>
      <trkpt lat="43.54297" lon="3.49595">
        <ele>52.9</ele>
        <time>2019-03-15T08:41:16Z</time>
      </trkpt>
      <trkpt lat="43.54294" lon="3.49596">
        <ele>52.9</ele>
        <time>2019-03-15T08:41:18Z</time>
      </trkpt>
      <trkpt lat="43.54291" lon="3.49597">
        <ele>53</ele>
        <time>2019-03-15T08:41:20Z</time>
      </trkpt>
      <trkpt lat="43.54288" lon="3.49599">
        <ele>53</ele>
        <time>2019-03-15T08:41:23Z</time>
      </trkpt>
      <trkpt lat="43.54285" lon="3.49601">
        <ele>53.1</ele>
        <time>2019-03-15T08:41:26Z</time>
      </trkpt>
      <trkpt lat="43.54282" lon="3.49602">
        <ele>53.1</ele>
        <time>2019-03-15T08:41:28Z</time>
      </trkpt>
      <trkpt lat="43.54279" lon="3.49603">
        <ele>53.2</ele>
        <time>2019-03-15T08:41:30Z</time>
      </trkpt>
      <trkpt lat="43.54274" lon="3.49604">
        <ele>53.3</ele>
        <time>2019-03-15T08:41:32Z</time>
      </trkpt>
      <trkpt lat="43.54271" lon="3.49605">
        <ele>53.3</ele>
        <time>2019-03-15T08:41:34Z</time>
      </trkpt>
      <trkpt lat="43.54267" lon="3.49607">
        <ele>53.4</ele>
        <time>2019-03-15T08:41:36Z</time>
      </trkpt>
      <trkpt lat="43.54264" lon="3.49608">
        <ele>53.5</ele>
        <time>2019-03-15T08:41:38Z</time>
      </trkpt>
      <trkpt lat="43.54261" lon="3.4961">
        <ele>53.6</ele>
        <time>2019-03-15T08:41:41Z</time>
      </trkpt>
      <trkpt lat="43.54259" lon="3.49614">
        <ele>53.7</ele>
        <time>2019-03-15T08:41:44Z</time>
      </trkpt>
      <trkpt lat="43.54256" lon="3.49616">
        <ele>53.8</ele>
        <time>2019-03-15T08:41:46Z</time>
      </trkpt>
      <trkpt lat="43.54253" lon="3.49618">
        <ele>53.8</ele>
        <time>2019-03-15T08:41:48Z</time>
      </trkpt>
      <trkpt lat="43.5425" lon="3.49619">
        <ele>53.8</ele>
        <time>2019-03-15T08:41:50Z</time>
      </trkpt>
      <trkpt lat="43.54247" lon="3.4962">
        <ele>53.8</ele>
        <time>2019-03-15T08:41:52Z</time>
      </trkpt>
      <trkpt lat="43.54244" lon="3.49624">
        <ele>53.9</ele>
        <time>2019-03-15T08:41:55Z</time>
      </trkpt>
      <trkpt lat="43.54242" lon="3.49626">
        <ele>53.9</ele>
        <time>2019-03-15T08:41:57Z</time>
      </trkpt>
      <trkpt lat="43.54239" lon="3.4963">
        <ele>53.9</ele>
        <time>2019-03-15T08:42:00Z</time>
      </trkpt>
      <trkpt lat="43.54236" lon="3.49633">
        <ele>53.9</ele>
        <time>2019-03-15T08:42:02Z</time>
      </trkpt>
      <trkpt lat="43.54233" lon="3.49635">
        <ele>53.9</ele>
        <time>2019-03-15T08:42:04Z</time>
      </trkpt>
      <trkpt lat="43.54231" lon="3.49638">
        <ele>53.9</ele>
        <time>2019-03-15T08:42:06Z</time>
      </trkpt>
      <trkpt lat="43.54228" lon="3.49642">
        <ele>53.9</ele>
        <time>2019-03-15T08:42:09Z</time>
      </trkpt>
      <trkpt lat="43.54227" lon="3.49645">
        <ele>53.9</ele>
        <time>2019-03-15T08:42:12Z</time>
      </trkpt>
      <trkpt lat="43.54224" lon="3.49648">
        <ele>53.9</ele>
        <time>2019-03-15T08:42:15Z</time>
      </trkpt>
      <trkpt lat="43.54221" lon="3.49648">
        <ele>53.9</ele>
        <time>2019-03-15T08:42:17Z</time>
      </trkpt>
      <trkpt lat="43.54219" lon="3.49647">
        <ele>53.9</ele>
        <time>2019-03-15T08:42:19Z</time>
      </trkpt>
      <trkpt lat="43.54215" lon="3.49647">
        <ele>53.9</ele>
        <time>2019-03-15T08:42:22Z</time>
      </trkpt>
      <trkpt lat="43.54212" lon="3.49645">
        <ele>53.9</ele>
        <time>2019-03-15T08:42:24Z</time>
      </trkpt>
      <trkpt lat="43.54208" lon="3.49644">
        <ele>53.9</ele>
        <time>2019-03-15T08:42:26Z</time>
      </trkpt>
      <trkpt lat="43.54204" lon="3.49643">
        <ele>53.8</ele>
        <time>2019-03-15T08:42:29Z</time>
      </trkpt>
      <trkpt lat="43.54201" lon="3.49643">
        <ele>53.8</ele>
        <time>2019-03-15T08:42:32Z</time>
      </trkpt>
      <trkpt lat="43.54198" lon="3.49643">
        <ele>53.8</ele>
        <time>2019-03-15T08:42:34Z</time>
      </trkpt>
      <trkpt lat="43.54188" lon="3.49648">
        <ele>53</ele>
      </trkpt>
      <trkpt lat="43.54179" lon="3.49652">
        <ele>53</ele>
      </trkpt>
      <trkpt lat="43.54169" lon="3.49655">
        <ele>54</ele>
      </trkpt>
      <trkpt lat="43.54159" lon="3.49661">
        <ele>53</ele>
      </trkpt>
      <trkpt lat="43.54151" lon="3.49664">
        <ele>53</ele>
      </trkpt>
      <trkpt lat="43.54141" lon="3.49669">
        <ele>55</ele>
      </trkpt>
      <trkpt lat="43.54121" lon="3.49681">
        <ele>55</ele>
      </trkpt>
      <trkpt lat="43.54108" lon="3.49689">
        <ele>54</ele>
      </trkpt>
      <trkpt lat="43.54093" lon="3.49696">
        <ele>54</ele>
      </trkpt>
      <trkpt lat="43.5408" lon="3.49708">
        <ele>51</ele>
      </trkpt>
      <trkpt lat="43.54071" lon="3.49713">
        <ele>51</ele>
      </trkpt>
      <trkpt lat="43.54058" lon="3.4972">
        <ele>51</ele>
      </trkpt>
      <trkpt lat="43.54046" lon="3.49725">
        <ele>51</ele>
      </trkpt>
      <trkpt lat="43.5404" lon="3.49728">
        <ele>51</ele>
      </trkpt>
      <trkpt lat="43.54028" lon="3.49733">
        <ele>50</ele>
      </trkpt>
      <trkpt lat="43.54015" lon="3.49737">
        <ele>50</ele>
      </trkpt>
      <trkpt lat="43.54004" lon="3.49739">
        <ele>50</ele>
      </trkpt>
      <trkpt lat="43.53993" lon="3.49741">
        <ele>49</ele>
      </trkpt>
      <trkpt lat="43.53985" lon="3.49742">
        <ele>49</ele>
      </trkpt>
      <trkpt lat="43.53978" lon="3.49744">
        <ele>48</ele>
      </trkpt>
      <trkpt lat="43.53971" lon="3.49746">
        <ele>48</ele>
      </trkpt>
      <trkpt lat="43.53965" lon="3.4975">
        <ele>48</ele>
      </trkpt>
      <trkpt lat="43.53961" lon="3.49757">
        <ele>51</ele>
      </trkpt>
      <trkpt lat="43.53959" lon="3.49765">
        <ele>51</ele>
      </trkpt>
      <trkpt lat="43.53955" lon="3.4979">
        <ele>52</ele>
      </trkpt>
      <trkpt lat="43.53945" lon="3.49825">
        <ele>52</ele>
      </trkpt>
      <trkpt lat="43.53943" lon="3.49838">
        <ele>56</ele>
      </trkpt>
      <trkpt lat="43.53944" lon="3.49859">
        <ele>56</ele>
      </trkpt>
      <trkpt lat="43.53941" lon="3.49874">
        <ele>57</ele>
      </trkpt>
      <trkpt lat="43.53931" lon="3.49885">
        <ele>57</ele>
      </trkpt>
      <trkpt lat="43.53923" lon="3.49892">
        <ele>57</ele>
      </trkpt>
      <trkpt lat="43.53914" lon="3.49902">
        <ele>55</ele>
      </trkpt>
      <trkpt lat="43.53906" lon="3.49905">
        <ele>55</ele>
      </trkpt>
      <trkpt lat="43.53898" lon="3.49904">
        <ele>53</ele>
        <time>2019-03-15T08:47:02Z</time>
      </trkpt>
      <trkpt lat="43.53895" lon="3.49903">
        <ele>53</ele>
        <time>2019-03-15T08:47:04Z</time>
      </trkpt>
      <trkpt lat="43.53891" lon="3.49902">
        <ele>52.9</ele>
        <time>2019-03-15T08:47:06Z</time>
      </trkpt>
      <trkpt lat="43.53888" lon="3.49901">
        <ele>52.9</ele>
        <time>2019-03-15T08:47:09Z</time>
      </trkpt>
      <trkpt lat="43.53885" lon="3.49899">
        <ele>52.9</ele>
        <time>2019-03-15T08:47:13Z</time>
      </trkpt>
      <trkpt lat="43.53882" lon="3.49897">
        <ele>52.9</ele>
        <time>2019-03-15T08:47:16Z</time>
      </trkpt>
      <trkpt lat="43.53879" lon="3.49896">
        <ele>52.9</ele>
        <time>2019-03-15T08:47:18Z</time>
      </trkpt>
      <trkpt lat="43.53876" lon="3.49894">
        <ele>52.9</ele>
        <time>2019-03-15T08:47:20Z</time>
      </trkpt>
      <trkpt lat="43.53874" lon="3.49893">
        <ele>52.9</ele>
        <time>2019-03-15T08:47:22Z</time>
      </trkpt>
      <trkpt lat="43.5387" lon="3.49891">
        <ele>53</ele>
        <time>2019-03-15T08:47:25Z</time>
      </trkpt>
      <trkpt lat="43.53867" lon="3.49888">
        <ele>53</ele>
        <time>2019-03-15T08:47:27Z</time>
      </trkpt>
      <trkpt lat="43.53864" lon="3.49886">
        <ele>53</ele>
        <time>2019-03-15T08:47:29Z</time>
      </trkpt>
      <trkpt lat="43.53861" lon="3.49884">
        <ele>53</ele>
        <time>2019-03-15T08:47:31Z</time>
      </trkpt>
      <trkpt lat="43.53858" lon="3.49882">
        <ele>53</ele>
        <time>2019-03-15T08:47:33Z</time>
      </trkpt>
      <trkpt lat="43.53855" lon="3.49881">
        <ele>53</ele>
        <time>2019-03-15T08:47:35Z</time>
      </trkpt>
      <trkpt lat="43.53852" lon="3.49879">
        <ele>53</ele>
        <time>2019-03-15T08:47:37Z</time>
      </trkpt>
      <trkpt lat="43.5385" lon="3.49878">
        <ele>53.1</ele>
        <time>2019-03-15T08:47:39Z</time>
      </trkpt>
      <trkpt lat="43.53847" lon="3.49876">
        <ele>53.1</ele>
        <time>2019-03-15T08:47:41Z</time>
      </trkpt>
      <trkpt lat="43.53844" lon="3.49873">
        <ele>53.1</ele>
        <time>2019-03-15T08:47:44Z</time>
      </trkpt>
      <trkpt lat="43.53842" lon="3.49871">
        <ele>53.2</ele>
        <time>2019-03-15T08:47:46Z</time>
      </trkpt>
      <trkpt lat="43.53839" lon="3.49869">
        <ele>53.2</ele>
        <time>2019-03-15T08:47:49Z</time>
      </trkpt>
      <trkpt lat="43.53836" lon="3.49866">
        <ele>53.2</ele>
        <time>2019-03-15T08:47:53Z</time>
      </trkpt>
      <trkpt lat="43.53833" lon="3.49863">
        <ele>53.3</ele>
        <time>2019-03-15T08:47:55Z</time>
      </trkpt>
      <trkpt lat="43.5383" lon="3.49861">
        <ele>53.3</ele>
        <time>2019-03-15T08:47:57Z</time>
      </trkpt>
      <trkpt lat="43.53828" lon="3.49857">
        <ele>53.3</ele>
        <time>2019-03-15T08:47:59Z</time>
      </trkpt>
      <trkpt lat="43.53826" lon="3.49853">
        <ele>53.2</ele>
        <time>2019-03-15T08:48:01Z</time>
      </trkpt>
      <trkpt lat="43.53824" lon="3.49851">
        <ele>53.2</ele>
        <time>2019-03-15T08:48:03Z</time>
      </trkpt>
      <trkpt lat="43.53823" lon="3.49847">
        <ele>53.2</ele>
        <time>2019-03-15T08:48:05Z</time>
      </trkpt>
      <trkpt lat="43.53821" lon="3.49842">
        <ele>53.1</ele>
        <time>2019-03-15T08:48:08Z</time>
      </trkpt>
      <trkpt lat="43.53822" lon="3.49838">
        <ele>53</ele>
        <time>2019-03-15T08:48:10Z</time>
      </trkpt>
      <trkpt lat="43.53822" lon="3.49834">
        <ele>53</ele>
        <time>2019-03-15T08:48:12Z</time>
      </trkpt>
      <trkpt lat="43.53821" lon="3.4983">
        <ele>52.9</ele>
        <time>2019-03-15T08:48:14Z</time>
      </trkpt>
      <trkpt lat="43.53818" lon="3.49827">
        <ele>52.8</ele>
        <time>2019-03-15T08:48:17Z</time>
      </trkpt>
      <trkpt lat="43.53815" lon="3.4983">
        <ele>52.7</ele>
        <time>2019-03-15T08:48:20Z</time>
      </trkpt>
      <trkpt lat="43.53815" lon="3.49835">
        <ele>52.6</ele>
        <time>2019-03-15T08:48:24Z</time>
      </trkpt>
      <trkpt lat="43.53814" lon="3.49839">
        <ele>52.3</ele>
        <time>2019-03-15T08:48:29Z</time>
      </trkpt>
      <trkpt lat="43.53809" lon="3.4984">
        <ele>52.3</ele>
        <time>2019-03-15T08:48:31Z</time>
      </trkpt>
      <trkpt lat="43.53807" lon="3.49842">
        <ele>52.3</ele>
        <time>2019-03-15T08:48:32Z</time>
      </trkpt>
      <trkpt lat="43.53802" lon="3.49845">
        <ele>52.7</ele>
        <time>2019-03-15T08:48:34Z</time>
      </trkpt>
      <trkpt lat="43.53798" lon="3.49847">
        <ele>52.8</ele>
        <time>2019-03-15T08:48:36Z</time>
      </trkpt>
      <trkpt lat="43.53795" lon="3.49851">
        <ele>52.9</ele>
        <time>2019-03-15T08:48:39Z</time>
      </trkpt>
      <trkpt lat="43.53791" lon="3.4985">
        <ele>53</ele>
        <time>2019-03-15T08:48:41Z</time>
      </trkpt>
      <trkpt lat="43.53788" lon="3.49852">
        <ele>53.1</ele>
        <time>2019-03-15T08:48:47Z</time>
      </trkpt>
      <trkpt lat="43.53786" lon="3.49854">
        <ele>53.2</ele>
        <time>2019-03-15T08:48:49Z</time>
      </trkpt>
      <trkpt lat="43.53783" lon="3.49857">
        <ele>53.3</ele>
        <time>2019-03-15T08:48:52Z</time>
      </trkpt>
      <trkpt lat="43.53785" lon="3.49861">
        <ele>53.4</ele>
        <time>2019-03-15T08:48:55Z</time>
      </trkpt>
      <trkpt lat="43.53783" lon="3.49864">
        <ele>53.5</ele>
        <time>2019-03-15T08:48:58Z</time>
      </trkpt>
      <trkpt lat="43.5378" lon="3.49867">
        <ele>53.5</ele>
        <time>2019-03-15T08:49:00Z</time>
      </trkpt>
      <trkpt lat="43.53779" lon="3.49871">
        <ele>53.6</ele>
        <time>2019-03-15T08:49:03Z</time>
      </trkpt>
      <trkpt lat="43.53776" lon="3.49875">
        <ele>53.7</ele>
        <time>2019-03-15T08:49:05Z</time>
      </trkpt>
      <trkpt lat="43.53773" lon="3.49877">
        <ele>53.7</ele>
        <time>2019-03-15T08:49:06Z</time>
      </trkpt>
      <trkpt lat="43.53771" lon="3.49881">
        <ele>53.7</ele>
        <time>2019-03-15T08:49:08Z</time>
      </trkpt>
      <trkpt lat="43.53766" lon="3.49887">
        <ele>53.7</ele>
        <time>2019-03-15T08:49:10Z</time>
      </trkpt>
      <trkpt lat="43.53763" lon="3.49889">
        <ele>53.7</ele>
        <time>2019-03-15T08:49:11Z</time>
      </trkpt>
      <trkpt lat="43.53761" lon="3.49892">
        <ele>53.7</ele>
        <time>2019-03-15T08:49:12Z</time>
      </trkpt>
      <trkpt lat="43.53757" lon="3.49894">
        <ele>53.7</ele>
        <time>2019-03-15T08:49:13Z</time>
      </trkpt>
      <trkpt lat="43.53754" lon="3.49897">
        <ele>53.7</ele>
        <time>2019-03-15T08:49:15Z</time>
      </trkpt>
      <trkpt lat="43.5375" lon="3.499">
        <ele>53.7</ele>
        <time>2019-03-15T08:49:17Z</time>
      </trkpt>
      <trkpt lat="43.53747" lon="3.49902">
        <ele>53.7</ele>
        <time>2019-03-15T08:49:19Z</time>
      </trkpt>
      <trkpt lat="43.53745" lon="3.49904">
        <ele>53.7</ele>
        <time>2019-03-15T08:49:21Z</time>
      </trkpt>
      <trkpt lat="43.53743" lon="3.49906">
        <ele>53.7</ele>
        <time>2019-03-15T08:49:23Z</time>
      </trkpt>
      <trkpt lat="43.53741" lon="3.49911">
        <ele>53.6</ele>
        <time>2019-03-15T08:49:26Z</time>
      </trkpt>
      <trkpt lat="43.53739" lon="3.49914">
        <ele>53.6</ele>
        <time>2019-03-15T08:49:29Z</time>
      </trkpt>
      <trkpt lat="43.53737" lon="3.49919">
        <ele>53.5</ele>
        <time>2019-03-15T08:49:31Z</time>
      </trkpt>
      <trkpt lat="43.53735" lon="3.49924">
        <ele>53.5</ele>
        <time>2019-03-15T08:49:33Z</time>
      </trkpt>
      <trkpt lat="43.53734" lon="3.49928">
        <ele>53.3</ele>
        <time>2019-03-15T08:49:36Z</time>
      </trkpt>
      <trkpt lat="43.53733" lon="3.49934">
        <ele>53.3</ele>
        <time>2019-03-15T08:49:38Z</time>
      </trkpt>
      <trkpt lat="43.53731" lon="3.49939">
        <ele>53.3</ele>
        <time>2019-03-15T08:49:40Z</time>
      </trkpt>
      <trkpt lat="43.5373" lon="3.49944">
        <ele>53.1</ele>
        <time>2019-03-15T08:49:42Z</time>
      </trkpt>
      <trkpt lat="43.53728" lon="3.49949">
        <ele>53</ele>
        <time>2019-03-15T08:49:44Z</time>
      </trkpt>
      <trkpt lat="43.53727" lon="3.49953">
        <ele>52.8</ele>
        <time>2019-03-15T08:49:46Z</time>
      </trkpt>
      <trkpt lat="43.53726" lon="3.49957">
        <ele>52.7</ele>
        <time>2019-03-15T08:49:48Z</time>
      </trkpt>
      <trkpt lat="43.53724" lon="3.4996">
        <ele>52.6</ele>
        <time>2019-03-15T08:49:50Z</time>
      </trkpt>
      <trkpt lat="43.53721" lon="3.49963">
        <ele>52.4</ele>
        <time>2019-03-15T08:49:53Z</time>
      </trkpt>
      <trkpt lat="43.53718" lon="3.49964">
        <ele>52.1</ele>
        <time>2019-03-15T08:49:55Z</time>
      </trkpt>
      <trkpt lat="43.53715" lon="3.49967">
        <ele>51.9</ele>
        <time>2019-03-15T08:49:57Z</time>
      </trkpt>
      <trkpt lat="43.53712" lon="3.49969">
        <ele>51.7</ele>
        <time>2019-03-15T08:49:59Z</time>
      </trkpt>
      <trkpt lat="43.5371" lon="3.49971">
        <ele>51.6</ele>
        <time>2019-03-15T08:50:01Z</time>
      </trkpt>
      <trkpt lat="43.53707" lon="3.49974">
        <ele>51.3</ele>
        <time>2019-03-15T08:50:04Z</time>
      </trkpt>
      <trkpt lat="43.53703" lon="3.49977">
        <ele>51</ele>
        <time>2019-03-15T08:50:07Z</time>
      </trkpt>
      <trkpt lat="43.53701" lon="3.49979">
        <ele>50.8</ele>
        <time>2019-03-15T08:50:09Z</time>
      </trkpt>
      <trkpt lat="43.53699" lon="3.49982">
        <ele>50.6</ele>
        <time>2019-03-15T08:50:11Z</time>
      </trkpt>
      <trkpt lat="43.53696" lon="3.49985">
        <ele>50.4</ele>
        <time>2019-03-15T08:50:13Z</time>
      </trkpt>
      <trkpt lat="43.53694" lon="3.49988">
        <ele>50.2</ele>
        <time>2019-03-15T08:50:15Z</time>
      </trkpt>
      <trkpt lat="43.53691" lon="3.49991">
        <ele>50.1</ele>
        <time>2019-03-15T08:50:18Z</time>
      </trkpt>
      <trkpt lat="43.53689" lon="3.49994">
        <ele>50</ele>
        <time>2019-03-15T08:50:22Z</time>
      </trkpt>
      <trkpt lat="43.53686" lon="3.49997">
        <ele>49.9</ele>
        <time>2019-03-15T08:50:25Z</time>
      </trkpt>
      <trkpt lat="43.53684" lon="3.5">
        <ele>49.8</ele>
        <time>2019-03-15T08:50:27Z</time>
      </trkpt>
      <trkpt lat="43.53682" lon="3.50003">
        <ele>49.8</ele>
        <time>2019-03-15T08:50:29Z</time>
      </trkpt>
      <trkpt lat="43.5368" lon="3.50006">
        <ele>49.8</ele>
        <time>2019-03-15T08:50:31Z</time>
      </trkpt>
      <trkpt lat="43.53678" lon="3.50009">
        <ele>49.8</ele>
        <time>2019-03-15T08:50:33Z</time>
      </trkpt>
      <trkpt lat="43.53676" lon="3.50011">
        <ele>49.7</ele>
        <time>2019-03-15T08:50:35Z</time>
      </trkpt>
      <trkpt lat="43.53673" lon="3.50011">
        <ele>49.7</ele>
        <time>2019-03-15T08:50:37Z</time>
      </trkpt>
      <trkpt lat="43.5367" lon="3.50011">
        <ele>49.6</ele>
        <time>2019-03-15T08:50:40Z</time>
      </trkpt>
      <trkpt lat="43.53668" lon="3.50009">
        <ele>49.6</ele>
        <time>2019-03-15T08:50:42Z</time>
      </trkpt>
      <trkpt lat="43.53666" lon="3.50006">
        <ele>48.2</ele>
        <time>2019-03-15T08:50:44Z</time>
      </trkpt>
      <trkpt lat="43.53663" lon="3.50002">
        <ele>47.9</ele>
        <time>2019-03-15T08:50:47Z</time>
      </trkpt>
      <trkpt lat="43.53661" lon="3.5">
        <ele>47.7</ele>
        <time>2019-03-15T08:50:50Z</time>
      </trkpt>
      <trkpt lat="43.53659" lon="3.49997">
        <ele>47.4</ele>
        <time>2019-03-15T08:50:52Z</time>
      </trkpt>
      <trkpt lat="43.53657" lon="3.49994">
        <ele>47.1</ele>
        <time>2019-03-15T08:50:54Z</time>
      </trkpt>
      <trkpt lat="43.53656" lon="3.4999">
        <ele>46.9</ele>
        <time>2019-03-15T08:50:56Z</time>
      </trkpt>
      <trkpt lat="43.53654" lon="3.49987">
        <ele>46.6</ele>
        <time>2019-03-15T08:50:58Z</time>
      </trkpt>
      <trkpt lat="43.53653" lon="3.49982">
        <ele>46.3</ele>
        <time>2019-03-15T08:51:00Z</time>
      </trkpt>
      <trkpt lat="43.53653" lon="3.49977">
        <ele>46</ele>
        <time>2019-03-15T08:51:03Z</time>
      </trkpt>
      <trkpt lat="43.5365" lon="3.49974">
        <ele>45.8</ele>
        <time>2019-03-15T08:51:06Z</time>
      </trkpt>
      <trkpt lat="43.53648" lon="3.49971">
        <ele>45.5</ele>
        <time>2019-03-15T08:51:08Z</time>
      </trkpt>
      <trkpt lat="43.53648" lon="3.49967">
        <ele>45.3</ele>
        <time>2019-03-15T08:51:11Z</time>
      </trkpt>
      <trkpt lat="43.53646" lon="3.49963">
        <ele>45.2</ele>
        <time>2019-03-15T08:51:13Z</time>
      </trkpt>
      <trkpt lat="43.53645" lon="3.49958">
        <ele>44.9</ele>
        <time>2019-03-15T08:51:16Z</time>
      </trkpt>
      <trkpt lat="43.53643" lon="3.49954">
        <ele>44.7</ele>
        <time>2019-03-15T08:51:18Z</time>
      </trkpt>
      <trkpt lat="43.53641" lon="3.49949">
        <ele>44.3</ele>
        <time>2019-03-15T08:51:20Z</time>
      </trkpt>
      <trkpt lat="43.53639" lon="3.49945">
        <ele>44.2</ele>
        <time>2019-03-15T08:51:22Z</time>
      </trkpt>
      <trkpt lat="43.53637" lon="3.49941">
        <ele>44</ele>
        <time>2019-03-15T08:51:24Z</time>
      </trkpt>
      <trkpt lat="43.53636" lon="3.49938">
        <ele>43.9</ele>
        <time>2019-03-15T08:51:26Z</time>
      </trkpt>
      <trkpt lat="43.53634" lon="3.49934">
        <ele>43.8</ele>
        <time>2019-03-15T08:51:28Z</time>
      </trkpt>
      <trkpt lat="43.53632" lon="3.49931">
        <ele>43.6</ele>
        <time>2019-03-15T08:51:31Z</time>
      </trkpt>
      <trkpt lat="43.5363" lon="3.49927">
        <ele>43.5</ele>
        <time>2019-03-15T08:51:33Z</time>
      </trkpt>
      <trkpt lat="43.53628" lon="3.49923">
        <ele>43.3</ele>
        <time>2019-03-15T08:51:35Z</time>
      </trkpt>
      <trkpt lat="43.53626" lon="3.4992">
        <ele>43.2</ele>
        <time>2019-03-15T08:51:37Z</time>
      </trkpt>
      <trkpt lat="43.53623" lon="3.49916">
        <ele>43.1</ele>
        <time>2019-03-15T08:51:39Z</time>
      </trkpt>
      <trkpt lat="43.53621" lon="3.49913">
        <ele>42.9</ele>
        <time>2019-03-15T08:51:41Z</time>
      </trkpt>
      <trkpt lat="43.5362" lon="3.4991">
        <ele>42.8</ele>
        <time>2019-03-15T08:51:43Z</time>
      </trkpt>
      <trkpt lat="43.53618" lon="3.49907">
        <ele>42.6</ele>
        <time>2019-03-15T08:51:45Z</time>
      </trkpt>
      <trkpt lat="43.53617" lon="3.49903">
        <ele>42.5</ele>
        <time>2019-03-15T08:51:47Z</time>
      </trkpt>
      <trkpt lat="43.53615" lon="3.49898">
        <ele>42.4</ele>
        <time>2019-03-15T08:51:50Z</time>
      </trkpt>
      <trkpt lat="43.53614" lon="3.49894">
        <ele>42.1</ele>
        <time>2019-03-15T08:51:53Z</time>
      </trkpt>
      <trkpt lat="43.53612" lon="3.4989">
        <ele>41.9</ele>
        <time>2019-03-15T08:51:55Z</time>
      </trkpt>
      <trkpt lat="43.5361" lon="3.49887">
        <ele>41.7</ele>
        <time>2019-03-15T08:51:58Z</time>
      </trkpt>
      <trkpt lat="43.53607" lon="3.49885">
        <ele>41.7</ele>
        <time>2019-03-15T08:52:01Z</time>
      </trkpt>
      <trkpt lat="43.53605" lon="3.49883">
        <ele>41.6</ele>
        <time>2019-03-15T08:52:03Z</time>
      </trkpt>
      <trkpt lat="43.53601" lon="3.49878">
        <ele>41.4</ele>
        <time>2019-03-15T08:52:05Z</time>
      </trkpt>
      <trkpt lat="43.53599" lon="3.49873">
        <ele>41.2</ele>
        <time>2019-03-15T08:52:07Z</time>
      </trkpt>
      <trkpt lat="43.53598" lon="3.49868">
        <ele>41</ele>
        <time>2019-03-15T08:52:09Z</time>
      </trkpt>
      <trkpt lat="43.53597" lon="3.49865">
        <ele>40.9</ele>
        <time>2019-03-15T08:52:11Z</time>
      </trkpt>
      <trkpt lat="43.53596" lon="3.49861">
        <ele>40.7</ele>
        <time>2019-03-15T08:52:13Z</time>
      </trkpt>
      <trkpt lat="43.53593" lon="3.49858">
        <ele>40.5</ele>
        <time>2019-03-15T08:52:16Z</time>
      </trkpt>
      <trkpt lat="43.53591" lon="3.49854">
        <ele>40.4</ele>
        <time>2019-03-15T08:52:19Z</time>
      </trkpt>
      <trkpt lat="43.53588" lon="3.49852">
        <ele>40.3</ele>
        <time>2019-03-15T08:52:21Z</time>
      </trkpt>
      <trkpt lat="43.53586" lon="3.4985">
        <ele>40.3</ele>
        <time>2019-03-15T08:52:23Z</time>
      </trkpt>
      <trkpt lat="43.53582" lon="3.49849">
        <ele>40.3</ele>
        <time>2019-03-15T08:52:25Z</time>
      </trkpt>
      <trkpt lat="43.53578" lon="3.49848">
        <ele>40.3</ele>
        <time>2019-03-15T08:52:27Z</time>
      </trkpt>
      <trkpt lat="43.53575" lon="3.49847">
        <ele>40.2</ele>
        <time>2019-03-15T08:52:29Z</time>
      </trkpt>
      <trkpt lat="43.53573" lon="3.49849">
        <ele>40.2</ele>
        <time>2019-03-15T08:52:31Z</time>
      </trkpt>
      <trkpt lat="43.5357" lon="3.49851">
        <ele>40.1</ele>
        <time>2019-03-15T08:52:33Z</time>
      </trkpt>
      <trkpt lat="43.53567" lon="3.49855">
        <ele>40.1</ele>
        <time>2019-03-15T08:52:36Z</time>
      </trkpt>
      <trkpt lat="43.53564" lon="3.49859">
        <ele>40.1</ele>
        <time>2019-03-15T08:52:38Z</time>
      </trkpt>
      <trkpt lat="43.53555" lon="3.4987">
        <ele>40.1</ele>
        <time>2019-03-15T08:54:49Z</time>
      </trkpt>
      <trkpt lat="43.53554" lon="3.49867">
        <ele>40.1</ele>
        <time>2019-03-15T08:54:50Z</time>
      </trkpt>
      <trkpt lat="43.53551" lon="3.49871">
        <ele>40.1</ele>
        <time>2019-03-15T08:54:53Z</time>
      </trkpt>
      <trkpt lat="43.53548" lon="3.49875">
        <ele>40.1</ele>
        <time>2019-03-15T08:54:55Z</time>
      </trkpt>
      <trkpt lat="43.53545" lon="3.49878">
        <ele>40.1</ele>
        <time>2019-03-15T08:54:57Z</time>
      </trkpt>
      <trkpt lat="43.53543" lon="3.49881">
        <ele>40.1</ele>
        <time>2019-03-15T08:54:59Z</time>
      </trkpt>
      <trkpt lat="43.53539" lon="3.49883">
        <ele>40.1</ele>
        <time>2019-03-15T08:55:01Z</time>
      </trkpt>
      <trkpt lat="43.53537" lon="3.49885">
        <ele>40.1</ele>
        <time>2019-03-15T08:55:03Z</time>
      </trkpt>
      <trkpt lat="43.53533" lon="3.49888">
        <ele>40.1</ele>
        <time>2019-03-15T08:55:05Z</time>
      </trkpt>
      <trkpt lat="43.53531" lon="3.49891">
        <ele>40.1</ele>
        <time>2019-03-15T08:55:07Z</time>
      </trkpt>
      <trkpt lat="43.53532" lon="3.49895">
        <ele>40.1</ele>
        <time>2019-03-15T08:55:09Z</time>
      </trkpt>
      <trkpt lat="43.53535" lon="3.49899">
        <ele>40.2</ele>
        <time>2019-03-15T08:55:11Z</time>
      </trkpt>
      <trkpt lat="43.53538" lon="3.49903">
        <ele>40.2</ele>
        <time>2019-03-15T08:55:13Z</time>
      </trkpt>
      <trkpt lat="43.5354" lon="3.49907">
        <ele>40.3</ele>
        <time>2019-03-15T08:55:15Z</time>
      </trkpt>
      <trkpt lat="43.53543" lon="3.49911">
        <ele>40.4</ele>
        <time>2019-03-15T08:55:17Z</time>
      </trkpt>
      <trkpt lat="43.53545" lon="3.49915">
        <ele>40.5</ele>
        <time>2019-03-15T08:55:19Z</time>
      </trkpt>
      <trkpt lat="43.53547" lon="3.49918">
        <ele>40.5</ele>
        <time>2019-03-15T08:55:21Z</time>
      </trkpt>
      <trkpt lat="43.53549" lon="3.49922">
        <ele>40.6</ele>
        <time>2019-03-15T08:55:23Z</time>
      </trkpt>
      <trkpt lat="43.53551" lon="3.49926">
        <ele>40.7</ele>
        <time>2019-03-15T08:55:25Z</time>
      </trkpt>
      <trkpt lat="43.53552" lon="3.49931">
        <ele>40.8</ele>
        <time>2019-03-15T08:55:28Z</time>
      </trkpt>
      <trkpt lat="43.53552" lon="3.49935">
        <ele>40.9</ele>
        <time>2019-03-15T08:55:30Z</time>
      </trkpt>
      <trkpt lat="43.53552" lon="3.49934">
        <ele>40.9</ele>
        <time>2019-03-15T09:08:19Z</time>
      </trkpt>
      <trkpt lat="43.5355" lon="3.49929">
        <ele>41</ele>
        <time>2019-03-15T09:08:22Z</time>
      </trkpt>
      <trkpt lat="43.53548" lon="3.49926">
        <ele>40.9</ele>
        <time>2019-03-15T09:08:24Z</time>
      </trkpt>
      <trkpt lat="43.53546" lon="3.49921">
        <ele>40.8</ele>
        <time>2019-03-15T09:08:26Z</time>
      </trkpt>
      <trkpt lat="43.53545" lon="3.49916">
        <ele>40.7</ele>
        <time>2019-03-15T09:08:28Z</time>
      </trkpt>
      <trkpt lat="43.53544" lon="3.49912">
        <ele>40.6</ele>
        <time>2019-03-15T09:08:30Z</time>
      </trkpt>
      <trkpt lat="43.53541" lon="3.49908">
        <ele>40.5</ele>
        <time>2019-03-15T09:08:33Z</time>
      </trkpt>
      <trkpt lat="43.53538" lon="3.49907">
        <ele>40.5</ele>
        <time>2019-03-15T09:08:37Z</time>
      </trkpt>
      <trkpt lat="43.53535" lon="3.49911">
        <ele>40.4</ele>
        <time>2019-03-15T09:08:50Z</time>
      </trkpt>
      <trkpt lat="43.53532" lon="3.49914">
        <ele>40.1</ele>
        <time>2019-03-15T09:08:53Z</time>
      </trkpt>
      <trkpt lat="43.53529" lon="3.49916">
        <ele>40.1</ele>
        <time>2019-03-15T09:08:56Z</time>
      </trkpt>
      <trkpt lat="43.53526" lon="3.49917">
        <ele>40.1</ele>
        <time>2019-03-15T09:08:58Z</time>
      </trkpt>
      <trkpt lat="43.53522" lon="3.49919">
        <ele>40.1</ele>
        <time>2019-03-15T09:09:01Z</time>
      </trkpt>
      <trkpt lat="43.53519" lon="3.4992">
        <ele>40.2</ele>
        <time>2019-03-15T09:09:03Z</time>
      </trkpt>
      <trkpt lat="43.53516" lon="3.49921">
        <ele>40.2</ele>
        <time>2019-03-15T09:09:06Z</time>
      </trkpt>
      <trkpt lat="43.53512" lon="3.49923">
        <ele>40.2</ele>
        <time>2019-03-15T09:09:09Z</time>
      </trkpt>
      <trkpt lat="43.5351" lon="3.49925">
        <ele>40.2</ele>
        <time>2019-03-15T09:09:11Z</time>
      </trkpt>
      <trkpt lat="43.53507" lon="3.49928">
        <ele>40.2</ele>
        <time>2019-03-15T09:09:13Z</time>
      </trkpt>
      <trkpt lat="43.53505" lon="3.4993">
        <ele>40.2</ele>
        <time>2019-03-15T09:09:15Z</time>
      </trkpt>
      <trkpt lat="43.53503" lon="3.49933">
        <ele>40.2</ele>
        <time>2019-03-15T09:09:17Z</time>
      </trkpt>
      <trkpt lat="43.535" lon="3.49935">
        <ele>40.1</ele>
        <time>2019-03-15T09:09:19Z</time>
      </trkpt>
      <trkpt lat="43.53498" lon="3.49938">
        <ele>40.1</ele>
        <time>2019-03-15T09:09:21Z</time>
      </trkpt>
      <trkpt lat="43.53494" lon="3.49938">
        <ele>40</ele>
        <time>2019-03-15T09:09:23Z</time>
      </trkpt>
      <trkpt lat="43.5349" lon="3.49937">
        <ele>40</ele>
        <time>2019-03-15T09:09:25Z</time>
      </trkpt>
      <trkpt lat="43.53489" lon="3.49941">
        <ele>40</ele>
        <time>2019-03-15T09:09:27Z</time>
      </trkpt>
      <trkpt lat="43.53487" lon="3.49946">
        <ele>39.9</ele>
        <time>2019-03-15T09:09:29Z</time>
      </trkpt>
      <trkpt lat="43.53483" lon="3.49951">
        <ele>39.9</ele>
        <time>2019-03-15T09:09:31Z</time>
      </trkpt>
      <trkpt lat="43.53481" lon="3.49955">
        <ele>39.8</ele>
        <time>2019-03-15T09:09:33Z</time>
      </trkpt>
      <trkpt lat="43.53479" lon="3.4996">
        <ele>39.8</ele>
        <time>2019-03-15T09:09:35Z</time>
      </trkpt>
      <trkpt lat="43.53478" lon="3.49964">
        <ele>39.7</ele>
        <time>2019-03-15T09:09:37Z</time>
      </trkpt>
      <trkpt lat="43.53476" lon="3.49969">
        <ele>39.7</ele>
        <time>2019-03-15T09:09:39Z</time>
      </trkpt>
      <trkpt lat="43.53474" lon="3.49974">
        <ele>39.6</ele>
        <time>2019-03-15T09:09:41Z</time>
      </trkpt>
      <trkpt lat="43.53472" lon="3.49978">
        <ele>39.5</ele>
        <time>2019-03-15T09:09:43Z</time>
      </trkpt>
      <trkpt lat="43.53469" lon="3.4998">
        <ele>39.5</ele>
        <time>2019-03-15T09:09:45Z</time>
      </trkpt>
      <trkpt lat="43.53466" lon="3.49983">
        <ele>39.4</ele>
        <time>2019-03-15T09:09:47Z</time>
      </trkpt>
      <trkpt lat="43.53464" lon="3.49987">
        <ele>39.4</ele>
        <time>2019-03-15T09:09:49Z</time>
      </trkpt>
      <trkpt lat="43.53461" lon="3.49991">
        <ele>39.3</ele>
        <time>2019-03-15T09:09:51Z</time>
      </trkpt>
      <trkpt lat="43.53458" lon="3.49994">
        <ele>39.3</ele>
        <time>2019-03-15T09:09:53Z</time>
      </trkpt>
      <trkpt lat="43.53456" lon="3.49996">
        <ele>39.3</ele>
        <time>2019-03-15T09:09:55Z</time>
      </trkpt>
      <trkpt lat="43.53453" lon="3.49997">
        <ele>39.3</ele>
        <time>2019-03-15T09:09:59Z</time>
      </trkpt>
      <trkpt lat="43.53452" lon="3.5">
        <ele>39.3</ele>
        <time>2019-03-15T09:10:01Z</time>
      </trkpt>
      <trkpt lat="43.53449" lon="3.50003">
        <ele>39.3</ele>
        <time>2019-03-15T09:10:03Z</time>
      </trkpt>
      <trkpt lat="43.53448" lon="3.50006">
        <ele>39.3</ele>
        <time>2019-03-15T09:10:05Z</time>
      </trkpt>
      <trkpt lat="43.53446" lon="3.5001">
        <ele>39.3</ele>
        <time>2019-03-15T09:10:07Z</time>
      </trkpt>
      <trkpt lat="43.53444" lon="3.50013">
        <ele>39.3</ele>
        <time>2019-03-15T09:10:09Z</time>
      </trkpt>
      <trkpt lat="43.53442" lon="3.50016">
        <ele>39.3</ele>
        <time>2019-03-15T09:10:11Z</time>
      </trkpt>
      <trkpt lat="43.53441" lon="3.50021">
        <ele>39.3</ele>
        <time>2019-03-15T09:10:14Z</time>
      </trkpt>
      <trkpt lat="43.53442" lon="3.50025">
        <ele>39.3</ele>
        <time>2019-03-15T09:10:17Z</time>
      </trkpt>
      <trkpt lat="43.5344" lon="3.50028">
        <ele>39.3</ele>
        <time>2019-03-15T09:10:20Z</time>
      </trkpt>
      <trkpt lat="43.53438" lon="3.50032">
        <ele>39.3</ele>
        <time>2019-03-15T09:10:22Z</time>
      </trkpt>
      <trkpt lat="43.53435" lon="3.50035">
        <ele>39.3</ele>
        <time>2019-03-15T09:10:23Z</time>
      </trkpt>
      <trkpt lat="43.53432" lon="3.50037">
        <ele>39.3</ele>
        <time>2019-03-15T09:10:25Z</time>
      </trkpt>
      <trkpt lat="43.53428" lon="3.5004">
        <ele>39.3</ele>
        <time>2019-03-15T09:10:27Z</time>
      </trkpt>
      <trkpt lat="43.53425" lon="3.50043">
        <ele>39.3</ele>
        <time>2019-03-15T09:10:29Z</time>
      </trkpt>
      <trkpt lat="43.53422" lon="3.50046">
        <ele>39.3</ele>
        <time>2019-03-15T09:10:31Z</time>
      </trkpt>
      <trkpt lat="43.53418" lon="3.50049">
        <ele>39.3</ele>
        <time>2019-03-15T09:10:33Z</time>
      </trkpt>
      <trkpt lat="43.53415" lon="3.50053">
        <ele>39.3</ele>
        <time>2019-03-15T09:10:35Z</time>
      </trkpt>
      <trkpt lat="43.53411" lon="3.50055">
        <ele>39.3</ele>
        <time>2019-03-15T09:10:37Z</time>
      </trkpt>
      <trkpt lat="43.53408" lon="3.50058">
        <ele>39.3</ele>
        <time>2019-03-15T09:10:39Z</time>
      </trkpt>
      <trkpt lat="43.53406" lon="3.50061">
        <ele>39.3</ele>
        <time>2019-03-15T09:10:41Z</time>
      </trkpt>
      <trkpt lat="43.53403" lon="3.50065">
        <ele>39.4</ele>
        <time>2019-03-15T09:10:43Z</time>
      </trkpt>
      <trkpt lat="43.53401" lon="3.50069">
        <ele>39.4</ele>
        <time>2019-03-15T09:10:45Z</time>
      </trkpt>
      <trkpt lat="43.53398" lon="3.50072">
        <ele>39.4</ele>
        <time>2019-03-15T09:10:47Z</time>
      </trkpt>
      <trkpt lat="43.53397" lon="3.50076">
        <ele>39.5</ele>
        <time>2019-03-15T09:10:49Z</time>
      </trkpt>
      <trkpt lat="43.53395" lon="3.50079">
        <ele>39.5</ele>
        <time>2019-03-15T09:10:51Z</time>
      </trkpt>
      <trkpt lat="43.53393" lon="3.50083">
        <ele>39.6</ele>
        <time>2019-03-15T09:10:53Z</time>
      </trkpt>
      <trkpt lat="43.53391" lon="3.50087">
        <ele>39.7</ele>
        <time>2019-03-15T09:10:56Z</time>
      </trkpt>
      <trkpt lat="43.53389" lon="3.5009">
        <ele>39.8</ele>
        <time>2019-03-15T09:10:58Z</time>
      </trkpt>
      <trkpt lat="43.53386" lon="3.50092">
        <ele>39.9</ele>
        <time>2019-03-15T09:11:00Z</time>
      </trkpt>
      <trkpt lat="43.53384" lon="3.50095">
        <ele>40</ele>
        <time>2019-03-15T09:11:02Z</time>
      </trkpt>
      <trkpt lat="43.53381" lon="3.50097">
        <ele>40.1</ele>
        <time>2019-03-15T09:11:04Z</time>
      </trkpt>
      <trkpt lat="43.53379" lon="3.501">
        <ele>40.2</ele>
        <time>2019-03-15T09:11:06Z</time>
      </trkpt>
      <trkpt lat="43.53376" lon="3.50104">
        <ele>40.3</ele>
        <time>2019-03-15T09:11:09Z</time>
      </trkpt>
      <trkpt lat="43.53374" lon="3.50107">
        <ele>40.4</ele>
        <time>2019-03-15T09:11:12Z</time>
      </trkpt>
      <trkpt lat="43.53371" lon="3.50111">
        <ele>40.6</ele>
        <time>2019-03-15T09:11:15Z</time>
      </trkpt>
      <trkpt lat="43.53369" lon="3.50114">
        <ele>40.7</ele>
        <time>2019-03-15T09:11:18Z</time>
      </trkpt>
      <trkpt lat="43.53367" lon="3.50118">
        <ele>40.8</ele>
        <time>2019-03-15T09:11:20Z</time>
      </trkpt>
      <trkpt lat="43.53365" lon="3.5012">
        <ele>40.9</ele>
        <time>2019-03-15T09:11:22Z</time>
      </trkpt>
      <trkpt lat="43.53363" lon="3.50122">
        <ele>40.9</ele>
        <time>2019-03-15T09:11:24Z</time>
      </trkpt>
      <trkpt lat="43.5336" lon="3.50126">
        <ele>41</ele>
        <time>2019-03-15T09:11:26Z</time>
      </trkpt>
      <trkpt lat="43.53358" lon="3.50128">
        <ele>41.1</ele>
        <time>2019-03-15T09:11:28Z</time>
      </trkpt>
      <trkpt lat="43.53356" lon="3.50131">
        <ele>41.1</ele>
        <time>2019-03-15T09:11:30Z</time>
      </trkpt>
      <trkpt lat="43.53353" lon="3.50134">
        <ele>41.2</ele>
        <time>2019-03-15T09:11:32Z</time>
      </trkpt>
      <trkpt lat="43.53351" lon="3.50137">
        <ele>41.2</ele>
        <time>2019-03-15T09:11:34Z</time>
      </trkpt>
      <trkpt lat="43.53349" lon="3.5014">
        <ele>41.2</ele>
        <time>2019-03-15T09:11:36Z</time>
      </trkpt>
      <trkpt lat="43.53347" lon="3.50143">
        <ele>41.3</ele>
        <time>2019-03-15T09:11:38Z</time>
      </trkpt>
      <trkpt lat="43.53344" lon="3.50146">
        <ele>41.3</ele>
        <time>2019-03-15T09:11:40Z</time>
      </trkpt>
      <trkpt lat="43.53343" lon="3.5015">
        <ele>41.3</ele>
        <time>2019-03-15T09:11:42Z</time>
      </trkpt>
      <trkpt lat="43.53343" lon="3.50154">
        <ele>41.3</ele>
        <time>2019-03-15T09:11:44Z</time>
      </trkpt>
      <trkpt lat="43.53345" lon="3.50159">
        <ele>41.7</ele>
        <time>2019-03-15T09:11:46Z</time>
      </trkpt>
      <trkpt lat="43.53346" lon="3.50163">
        <ele>41.8</ele>
        <time>2019-03-15T09:11:48Z</time>
      </trkpt>
      <trkpt lat="43.53347" lon="3.50168">
        <ele>41.9</ele>
        <time>2019-03-15T09:11:50Z</time>
      </trkpt>
      <trkpt lat="43.53348" lon="3.50173">
        <ele>42</ele>
        <time>2019-03-15T09:11:52Z</time>
      </trkpt>
      <trkpt lat="43.53349" lon="3.50177">
        <ele>42.2</ele>
        <time>2019-03-15T09:11:54Z</time>
      </trkpt>
      <trkpt lat="43.53351" lon="3.5018">
        <ele>42.3</ele>
        <time>2019-03-15T09:11:56Z</time>
      </trkpt>
      <trkpt lat="43.53354" lon="3.50183">
        <ele>42.4</ele>
        <time>2019-03-15T09:11:58Z</time>
      </trkpt>
      <trkpt lat="43.53356" lon="3.50186">
        <ele>42.6</ele>
        <time>2019-03-15T09:12:00Z</time>
      </trkpt>
      <trkpt lat="43.53357" lon="3.50189">
        <ele>42.7</ele>
        <time>2019-03-15T09:12:02Z</time>
      </trkpt>
      <trkpt lat="43.53359" lon="3.50195">
        <ele>42.8</ele>
        <time>2019-03-15T09:12:05Z</time>
      </trkpt>
      <trkpt lat="43.5336" lon="3.50199">
        <ele>43</ele>
        <time>2019-03-15T09:12:07Z</time>
      </trkpt>
      <trkpt lat="43.53362" lon="3.50202">
        <ele>43.1</ele>
        <time>2019-03-15T09:12:09Z</time>
      </trkpt>
      <trkpt lat="43.53364" lon="3.50206">
        <ele>43.2</ele>
        <time>2019-03-15T09:12:11Z</time>
      </trkpt>
      <trkpt lat="43.53366" lon="3.50209">
        <ele>43.4</ele>
        <time>2019-03-15T09:12:13Z</time>
      </trkpt>
      <trkpt lat="43.53369" lon="3.50213">
        <ele>43.6</ele>
        <time>2019-03-15T09:12:16Z</time>
      </trkpt>
      <trkpt lat="43.5337" lon="3.50217">
        <ele>43.7</ele>
        <time>2019-03-15T09:12:18Z</time>
      </trkpt>
      <trkpt lat="43.53372" lon="3.50221">
        <ele>43.9</ele>
        <time>2019-03-15T09:12:20Z</time>
      </trkpt>
      <trkpt lat="43.53374" lon="3.50226">
        <ele>44</ele>
        <time>2019-03-15T09:12:23Z</time>
      </trkpt>
      <trkpt lat="43.53375" lon="3.5023">
        <ele>44.2</ele>
        <time>2019-03-15T09:12:25Z</time>
      </trkpt>
      <trkpt lat="43.53376" lon="3.50234">
        <ele>44.4</ele>
        <time>2019-03-15T09:12:27Z</time>
      </trkpt>
      <trkpt lat="43.53377" lon="3.50238">
        <ele>44.5</ele>
        <time>2019-03-15T09:12:29Z</time>
      </trkpt>
      <trkpt lat="43.53379" lon="3.50242">
        <ele>44.7</ele>
        <time>2019-03-15T09:12:32Z</time>
      </trkpt>
      <trkpt lat="43.53379" lon="3.50246">
        <ele>44.9</ele>
        <time>2019-03-15T09:12:35Z</time>
      </trkpt>
      <trkpt lat="43.53381" lon="3.5025">
        <ele>45</ele>
        <time>2019-03-15T09:12:37Z</time>
      </trkpt>
      <trkpt lat="43.53382" lon="3.50254">
        <ele>45.2</ele>
        <time>2019-03-15T09:12:39Z</time>
      </trkpt>
      <trkpt lat="43.53383" lon="3.50258">
        <ele>45.3</ele>
        <time>2019-03-15T09:12:41Z</time>
      </trkpt>
      <trkpt lat="43.53385" lon="3.50261">
        <ele>45.5</ele>
        <time>2019-03-15T09:12:43Z</time>
      </trkpt>
      <trkpt lat="43.53387" lon="3.50265">
        <ele>45.7</ele>
        <time>2019-03-15T09:12:45Z</time>
      </trkpt>
      <trkpt lat="43.53388" lon="3.50268">
        <ele>45.8</ele>
        <time>2019-03-15T09:12:47Z</time>
      </trkpt>
      <trkpt lat="43.5339" lon="3.50272">
        <ele>46</ele>
        <time>2019-03-15T09:12:49Z</time>
      </trkpt>
      <trkpt lat="43.53392" lon="3.50277">
        <ele>46.2</ele>
        <time>2019-03-15T09:12:51Z</time>
      </trkpt>
      <trkpt lat="43.53393" lon="3.50282">
        <ele>46.4</ele>
        <time>2019-03-15T09:12:53Z</time>
      </trkpt>
      <trkpt lat="43.53395" lon="3.50286">
        <ele>46.7</ele>
        <time>2019-03-15T09:12:55Z</time>
      </trkpt>
      <trkpt lat="43.53396" lon="3.5029">
        <ele>46.8</ele>
        <time>2019-03-15T09:12:57Z</time>
      </trkpt>
      <trkpt lat="43.53396" lon="3.50293">
        <ele>47</ele>
        <time>2019-03-15T09:12:59Z</time>
      </trkpt>
      <trkpt lat="43.53398" lon="3.50298">
        <ele>47.2</ele>
        <time>2019-03-15T09:13:02Z</time>
      </trkpt>
      <trkpt lat="43.534" lon="3.50302">
        <ele>47.1</ele>
        <time>2019-03-15T09:13:05Z</time>
      </trkpt>
      <trkpt lat="43.53403" lon="3.50304">
        <ele>47.1</ele>
        <time>2019-03-15T09:13:08Z</time>
      </trkpt>
      <trkpt lat="43.53407" lon="3.50302">
        <ele>47.1</ele>
        <time>2019-03-15T09:13:11Z</time>
      </trkpt>
      <trkpt lat="43.53409" lon="3.503">
        <ele>47.1</ele>
        <time>2019-03-15T09:13:14Z</time>
      </trkpt>
      <trkpt lat="43.53413" lon="3.50297">
        <ele>47.1</ele>
        <time>2019-03-15T09:13:17Z</time>
      </trkpt>
      <trkpt lat="43.53415" lon="3.50295">
        <ele>47.1</ele>
        <time>2019-03-15T09:13:19Z</time>
      </trkpt>
      <trkpt lat="43.53418" lon="3.50292">
        <ele>47</ele>
        <time>2019-03-15T09:13:21Z</time>
      </trkpt>
      <trkpt lat="43.53422" lon="3.5029">
        <ele>47</ele>
        <time>2019-03-15T09:13:23Z</time>
      </trkpt>
      <trkpt lat="43.53424" lon="3.50288">
        <ele>47</ele>
        <time>2019-03-15T09:13:25Z</time>
      </trkpt>
      <trkpt lat="43.53426" lon="3.50285">
        <ele>46.9</ele>
        <time>2019-03-15T09:13:27Z</time>
      </trkpt>
      <trkpt lat="43.53427" lon="3.5028">
        <ele>46.7</ele>
        <time>2019-03-15T09:13:30Z</time>
      </trkpt>
      <trkpt lat="43.53425" lon="3.50275">
        <ele>46.5</ele>
        <time>2019-03-15T09:13:33Z</time>
      </trkpt>
      <trkpt lat="43.53424" lon="3.50272">
        <ele>46.4</ele>
        <time>2019-03-15T09:13:35Z</time>
      </trkpt>
      <trkpt lat="43.53422" lon="3.50268">
        <ele>46.2</ele>
        <time>2019-03-15T09:13:37Z</time>
      </trkpt>
      <trkpt lat="43.53421" lon="3.50265">
        <ele>46</ele>
        <time>2019-03-15T09:13:39Z</time>
      </trkpt>
      <trkpt lat="43.53419" lon="3.50262">
        <ele>45.8</ele>
        <time>2019-03-15T09:13:41Z</time>
      </trkpt>
      <trkpt lat="43.53418" lon="3.50258">
        <ele>45.6</ele>
        <time>2019-03-15T09:13:43Z</time>
      </trkpt>
      <trkpt lat="43.53417" lon="3.50255">
        <ele>45.5</ele>
        <time>2019-03-15T09:13:45Z</time>
      </trkpt>
      <trkpt lat="43.53415" lon="3.50251">
        <ele>45.4</ele>
        <time>2019-03-15T09:13:47Z</time>
      </trkpt>
      <trkpt lat="43.53413" lon="3.50246">
        <ele>45.2</ele>
        <time>2019-03-15T09:13:49Z</time>
      </trkpt>
      <trkpt lat="43.53412" lon="3.50241">
        <ele>45.1</ele>
        <time>2019-03-15T09:13:51Z</time>
      </trkpt>
      <trkpt lat="43.53411" lon="3.50236">
        <ele>44.9</ele>
        <time>2019-03-15T09:13:53Z</time>
      </trkpt>
      <trkpt lat="43.5341" lon="3.50232">
        <ele>44.8</ele>
        <time>2019-03-15T09:13:55Z</time>
      </trkpt>
      <trkpt lat="43.53409" lon="3.50229">
        <ele>44.7</ele>
        <time>2019-03-15T09:13:57Z</time>
      </trkpt>
      <trkpt lat="43.53407" lon="3.50225">
        <ele>44.6</ele>
        <time>2019-03-15T09:13:59Z</time>
      </trkpt>
      <trkpt lat="43.53405" lon="3.50221">
        <ele>44.4</ele>
        <time>2019-03-15T09:14:02Z</time>
      </trkpt>
      <trkpt lat="43.53403" lon="3.50217">
        <ele>44.3</ele>
        <time>2019-03-15T09:14:05Z</time>
      </trkpt>
      <trkpt lat="43.534" lon="3.50212">
        <ele>44.1</ele>
        <time>2019-03-15T09:14:08Z</time>
      </trkpt>
      <trkpt lat="43.53399" lon="3.50209">
        <ele>43.9</ele>
        <time>2019-03-15T09:14:10Z</time>
      </trkpt>
      <trkpt lat="43.53396" lon="3.50206">
        <ele>43.7</ele>
        <time>2019-03-15T09:14:13Z</time>
      </trkpt>
      <trkpt lat="43.53393" lon="3.50203">
        <ele>43.7</ele>
        <time>2019-03-15T09:14:15Z</time>
      </trkpt>
      <trkpt lat="43.53391" lon="3.50202">
        <ele>43.7</ele>
        <time>2019-03-15T09:14:17Z</time>
      </trkpt>
      <trkpt lat="43.53387" lon="3.502">
        <ele>43.7</ele>
        <time>2019-03-15T09:14:20Z</time>
      </trkpt>
      <trkpt lat="43.53384" lon="3.50199">
        <ele>43.7</ele>
        <time>2019-03-15T09:14:23Z</time>
      </trkpt>
    </trkseg>
  </trk>
</gpx>